<?xml version="1.0" encoding="UTF-8" standalone="no" ?>
<gpx xmlns="http://www.topografix.com/GPX/1/1" xmlns:xsi="http://www.w3.org/2001/XMLSchema-instance" xsi:schemaLocation="http://www.topografix.com/GPX/1/1 http://www.topografix.com/GPX/1/1/gpx.xsd" version="1.1" creator="VisuGPX - https://www.visugpx.com">
  <metadata>
    <name>Tour de la Drome des Collines</name>
    <desc><![CDATA[Tour à VTT raccourci sur 2 jours de la Drome des collines.]]></desc>
  </metadata>
  <trk>
    <name><![CDATA[ACTIVE LOG]]></name>
    <trkseg>
      <trkpt lat="45.22307" lon="4.97032">
        <ele>318.814331</ele>
        <time>2019-05-27T06:47:49Z</time>
      </trkpt>
      <trkpt lat="45.22306" lon="4.97033">
        <ele>318.814331</ele>
        <time>2019-05-27T06:48:26Z</time>
      </trkpt>
      <trkpt lat="45.22308" lon="4.97034">
        <ele>319.295044</ele>
        <time>2019-05-27T06:48:49Z</time>
      </trkpt>
      <trkpt lat="45.22308" lon="4.97034">
        <ele>317.853027</ele>
        <time>2019-05-27T06:49:42Z</time>
      </trkpt>
      <trkpt lat="45.22309" lon="4.97034">
        <ele>318.333618</ele>
        <time>2019-05-27T06:50:15Z</time>
      </trkpt>
      <trkpt lat="45.2231" lon="4.97036">
        <ele>318.333618</ele>
        <time>2019-05-27T06:50:17Z</time>
      </trkpt>
      <trkpt lat="45.22311" lon="4.9704">
        <ele>317.372437</ele>
        <time>2019-05-27T06:50:31Z</time>
      </trkpt>
      <trkpt lat="45.22311" lon="4.97039">
        <ele>317.853027</ele>
        <time>2019-05-27T06:53:40Z</time>
      </trkpt>
      <trkpt lat="45.22313" lon="4.97041">
        <ele>317.853027</ele>
        <time>2019-05-27T06:53:45Z</time>
      </trkpt>
      <trkpt lat="45.2232" lon="4.97042">
        <ele>317.372437</ele>
        <time>2019-05-27T06:53:56Z</time>
      </trkpt>
      <trkpt lat="45.22322" lon="4.97043">
        <ele>316.891724</ele>
        <time>2019-05-27T06:54:19Z</time>
      </trkpt>
      <trkpt lat="45.22327" lon="4.9703">
        <ele>315.449829</ele>
        <time>2019-05-27T06:54:38Z</time>
      </trkpt>
      <trkpt lat="45.22326" lon="4.97027">
        <ele>314.488403</ele>
        <time>2019-05-27T06:54:43Z</time>
      </trkpt>
      <trkpt lat="45.22325" lon="4.97033">
        <ele>314.969116</ele>
        <time>2019-05-27T06:54:47Z</time>
      </trkpt>
      <trkpt lat="45.22319" lon="4.97038">
        <ele>315.93042</ele>
        <time>2019-05-27T06:54:52Z</time>
      </trkpt>
      <trkpt lat="45.22314" lon="4.9704">
        <ele>316.411011</ele>
        <time>2019-05-27T06:54:56Z</time>
      </trkpt>
      <trkpt lat="45.22307" lon="4.97039">
        <ele>317.372437</ele>
        <time>2019-05-27T06:55:11Z</time>
      </trkpt>
      <trkpt lat="45.2231" lon="4.97042">
        <ele>316.891724</ele>
        <time>2019-05-27T06:56:14Z</time>
      </trkpt>
      <trkpt lat="45.2232" lon="4.97041">
        <ele>316.411011</ele>
        <time>2019-05-27T06:56:24Z</time>
      </trkpt>
      <trkpt lat="45.22325" lon="4.97036">
        <ele>314.969116</ele>
        <time>2019-05-27T06:56:28Z</time>
      </trkpt>
      <trkpt lat="45.22324" lon="4.97018">
        <ele>313.046509</ele>
        <time>2019-05-27T06:56:34Z</time>
      </trkpt>
      <trkpt lat="45.22299" lon="4.96995">
        <ele>311.604492</ele>
        <time>2019-05-27T06:56:40Z</time>
      </trkpt>
      <trkpt lat="45.22236" lon="4.96954">
        <ele>309.201172</ele>
        <time>2019-05-27T06:56:52Z</time>
      </trkpt>
      <trkpt lat="45.22207" lon="4.9693">
        <ele>306.797852</ele>
        <time>2019-05-27T06:56:56Z</time>
      </trkpt>
      <trkpt lat="45.22192" lon="4.96919">
        <ele>306.317261</ele>
        <time>2019-05-27T06:56:58Z</time>
      </trkpt>
      <trkpt lat="45.22162" lon="4.96883">
        <ele>303.433228</ele>
        <time>2019-05-27T06:57:04Z</time>
      </trkpt>
      <trkpt lat="45.22156" lon="4.96875">
        <ele>302.952515</ele>
        <time>2019-05-27T06:57:06Z</time>
      </trkpt>
      <trkpt lat="45.22152" lon="4.96869">
        <ele>301.991333</ele>
        <time>2019-05-27T06:57:08Z</time>
      </trkpt>
      <trkpt lat="45.22139" lon="4.96866">
        <ele>301.991333</ele>
        <time>2019-05-27T06:57:12Z</time>
      </trkpt>
      <trkpt lat="45.22124" lon="4.96872">
        <ele>303.91394</ele>
        <time>2019-05-27T06:57:16Z</time>
      </trkpt>
      <trkpt lat="45.2209" lon="4.96883">
        <ele>307.278564</ele>
        <time>2019-05-27T06:57:28Z</time>
      </trkpt>
      <trkpt lat="45.22051" lon="4.96892">
        <ele>310.162476</ele>
        <time>2019-05-27T06:57:44Z</time>
      </trkpt>
      <trkpt lat="45.2201" lon="4.96898">
        <ele>313.046509</ele>
        <time>2019-05-27T06:58:04Z</time>
      </trkpt>
      <trkpt lat="45.21976" lon="4.96895">
        <ele>316.411011</ele>
        <time>2019-05-27T06:58:21Z</time>
      </trkpt>
      <trkpt lat="45.21945" lon="4.96915">
        <ele>318.333618</ele>
        <time>2019-05-27T06:58:39Z</time>
      </trkpt>
      <trkpt lat="45.21944" lon="4.96916">
        <ele>318.333618</ele>
        <time>2019-05-27T06:58:40Z</time>
      </trkpt>
      <trkpt lat="45.21929" lon="4.96949">
        <ele>320.256348</ele>
        <time>2019-05-27T06:58:56Z</time>
      </trkpt>
      <trkpt lat="45.21901" lon="4.96974">
        <ele>322.659668</ele>
        <time>2019-05-27T06:59:16Z</time>
      </trkpt>
      <trkpt lat="45.21882" lon="4.96988">
        <ele>326.02417</ele>
        <time>2019-05-27T06:59:29Z</time>
      </trkpt>
      <trkpt lat="45.21876" lon="4.96993">
        <ele>326.504883</ele>
        <time>2019-05-27T06:59:33Z</time>
      </trkpt>
      <trkpt lat="45.21871" lon="4.96991">
        <ele>326.504883</ele>
        <time>2019-05-27T06:59:38Z</time>
      </trkpt>
      <trkpt lat="45.21865" lon="4.96979">
        <ele>325.062988</ele>
        <time>2019-05-27T06:59:42Z</time>
      </trkpt>
      <trkpt lat="45.21852" lon="4.96925">
        <ele>322.178955</ele>
        <time>2019-05-27T06:59:50Z</time>
      </trkpt>
      <trkpt lat="45.21837" lon="4.96894">
        <ele>319.775635</ele>
        <time>2019-05-27T06:59:54Z</time>
      </trkpt>
      <trkpt lat="45.21816" lon="4.9687">
        <ele>316.891724</ele>
        <time>2019-05-27T06:59:58Z</time>
      </trkpt>
      <trkpt lat="45.218" lon="4.96837">
        <ele>312.565796</ele>
        <time>2019-05-27T07:00:03Z</time>
      </trkpt>
      <trkpt lat="45.21797" lon="4.9682">
        <ele>311.604492</ele>
        <time>2019-05-27T07:00:05Z</time>
      </trkpt>
      <trkpt lat="45.21775" lon="4.96779">
        <ele>308.239868</ele>
        <time>2019-05-27T07:00:10Z</time>
      </trkpt>
      <trkpt lat="45.21754" lon="4.96744">
        <ele>305.355957</ele>
        <time>2019-05-27T07:00:14Z</time>
      </trkpt>
      <trkpt lat="45.21738" lon="4.96711">
        <ele>301.991333</ele>
        <time>2019-05-27T07:00:17Z</time>
      </trkpt>
      <trkpt lat="45.21727" lon="4.96685">
        <ele>301.029907</ele>
        <time>2019-05-27T07:00:19Z</time>
      </trkpt>
      <trkpt lat="45.21709" lon="4.96646">
        <ele>298.626709</ele>
        <time>2019-05-27T07:00:22Z</time>
      </trkpt>
      <trkpt lat="45.21671" lon="4.96555">
        <ele>294.300781</ele>
        <time>2019-05-27T07:00:29Z</time>
      </trkpt>
      <trkpt lat="45.21655" lon="4.965">
        <ele>291.416748</ele>
        <time>2019-05-27T07:00:34Z</time>
      </trkpt>
      <trkpt lat="45.21639" lon="4.96493">
        <ele>289.01355</ele>
        <time>2019-05-27T07:00:39Z</time>
      </trkpt>
      <trkpt lat="45.21546" lon="4.96521">
        <ele>286.610229</ele>
        <time>2019-05-27T07:00:55Z</time>
      </trkpt>
      <trkpt lat="45.21527" lon="4.96528">
        <ele>285.648804</ele>
        <time>2019-05-27T07:00:58Z</time>
      </trkpt>
      <trkpt lat="45.2151" lon="4.9654">
        <ele>286.129517</ele>
        <time>2019-05-27T07:01:01Z</time>
      </trkpt>
      <trkpt lat="45.21486" lon="4.96549">
        <ele>287.09082</ele>
        <time>2019-05-27T07:01:05Z</time>
      </trkpt>
      <trkpt lat="45.21387" lon="4.96564">
        <ele>287.09082</ele>
        <time>2019-05-27T07:01:22Z</time>
      </trkpt>
      <trkpt lat="45.21344" lon="4.96581">
        <ele>285.168213</ele>
        <time>2019-05-27T07:01:34Z</time>
      </trkpt>
      <trkpt lat="45.21339" lon="4.96584">
        <ele>285.168213</ele>
        <time>2019-05-27T07:01:38Z</time>
      </trkpt>
      <trkpt lat="45.21328" lon="4.96581">
        <ele>284.687622</ele>
        <time>2019-05-27T07:01:42Z</time>
      </trkpt>
      <trkpt lat="45.21289" lon="4.96566">
        <ele>282.284302</ele>
        <time>2019-05-27T07:01:51Z</time>
      </trkpt>
      <trkpt lat="45.21283" lon="4.96563">
        <ele>282.284302</ele>
        <time>2019-05-27T07:01:52Z</time>
      </trkpt>
      <trkpt lat="45.21263" lon="4.9656">
        <ele>278.919678</ele>
        <time>2019-05-27T07:01:55Z</time>
      </trkpt>
      <trkpt lat="45.21236" lon="4.96555">
        <ele>275.555054</ele>
        <time>2019-05-27T07:01:59Z</time>
      </trkpt>
      <trkpt lat="45.21195" lon="4.96557">
        <ele>270.748413</ele>
        <time>2019-05-27T07:02:04Z</time>
      </trkpt>
      <trkpt lat="45.21172" lon="4.96562">
        <ele>267.864502</ele>
        <time>2019-05-27T07:02:07Z</time>
      </trkpt>
      <trkpt lat="45.21138" lon="4.96573">
        <ele>264.980591</ele>
        <time>2019-05-27T07:02:12Z</time>
      </trkpt>
      <trkpt lat="45.21125" lon="4.96574">
        <ele>264.019287</ele>
        <time>2019-05-27T07:02:18Z</time>
      </trkpt>
      <trkpt lat="45.21103" lon="4.96586">
        <ele>262.577148</ele>
        <time>2019-05-27T07:03:36Z</time>
      </trkpt>
      <trkpt lat="45.21059" lon="4.96611">
        <ele>260.654541</ele>
        <time>2019-05-27T07:03:47Z</time>
      </trkpt>
      <trkpt lat="45.21055" lon="4.96605">
        <ele>259.693359</ele>
        <time>2019-05-27T07:03:54Z</time>
      </trkpt>
      <trkpt lat="45.21052" lon="4.96603">
        <ele>259.693359</ele>
        <time>2019-05-27T07:04:24Z</time>
      </trkpt>
      <trkpt lat="45.21042" lon="4.96632">
        <ele>259.693359</ele>
        <time>2019-05-27T07:04:42Z</time>
      </trkpt>
      <trkpt lat="45.2104" lon="4.96639">
        <ele>259.693359</ele>
        <time>2019-05-27T07:04:46Z</time>
      </trkpt>
      <trkpt lat="45.21045" lon="4.96636">
        <ele>260.654541</ele>
        <time>2019-05-27T07:04:52Z</time>
      </trkpt>
      <trkpt lat="45.21048" lon="4.96628">
        <ele>260.654541</ele>
        <time>2019-05-27T07:04:56Z</time>
      </trkpt>
      <trkpt lat="45.21043" lon="4.9663">
        <ele>260.17395</ele>
        <time>2019-05-27T07:05:01Z</time>
      </trkpt>
      <trkpt lat="45.21024" lon="4.96705">
        <ele>260.17395</ele>
        <time>2019-05-27T07:05:20Z</time>
      </trkpt>
      <trkpt lat="45.2102" lon="4.96712">
        <ele>259.693359</ele>
        <time>2019-05-27T07:05:22Z</time>
      </trkpt>
      <trkpt lat="45.20955" lon="4.96727">
        <ele>258.251343</ele>
        <time>2019-05-27T07:05:34Z</time>
      </trkpt>
      <trkpt lat="45.20926" lon="4.96713">
        <ele>257.290039</ele>
        <time>2019-05-27T07:05:39Z</time>
      </trkpt>
      <trkpt lat="45.20911" lon="4.96686">
        <ele>257.770752</ele>
        <time>2019-05-27T07:05:43Z</time>
      </trkpt>
      <trkpt lat="45.20891" lon="4.96668">
        <ele>257.290039</ele>
        <time>2019-05-27T07:05:48Z</time>
      </trkpt>
      <trkpt lat="45.20851" lon="4.96678">
        <ele>260.654541</ele>
        <time>2019-05-27T07:05:58Z</time>
      </trkpt>
      <trkpt lat="45.20801" lon="4.96668">
        <ele>262.577148</ele>
        <time>2019-05-27T07:06:15Z</time>
      </trkpt>
      <trkpt lat="45.20771" lon="4.96689">
        <ele>264.499878</ele>
        <time>2019-05-27T07:06:30Z</time>
      </trkpt>
      <trkpt lat="45.20732" lon="4.96754">
        <ele>267.383911</ele>
        <time>2019-05-27T07:06:54Z</time>
      </trkpt>
      <trkpt lat="45.207" lon="4.96789">
        <ele>270.748413</ele>
        <time>2019-05-27T07:07:11Z</time>
      </trkpt>
      <trkpt lat="45.2067" lon="4.9682">
        <ele>269.787109</ele>
        <time>2019-05-27T07:07:23Z</time>
      </trkpt>
      <trkpt lat="45.20651" lon="4.96833">
        <ele>268.825806</ele>
        <time>2019-05-27T07:07:27Z</time>
      </trkpt>
      <trkpt lat="45.20619" lon="4.96843">
        <ele>268.345093</ele>
        <time>2019-05-27T07:07:32Z</time>
      </trkpt>
      <trkpt lat="45.20588" lon="4.9686">
        <ele>267.864502</ele>
        <time>2019-05-27T07:07:37Z</time>
      </trkpt>
      <trkpt lat="45.20561" lon="4.96918">
        <ele>268.345093</ele>
        <time>2019-05-27T07:07:47Z</time>
      </trkpt>
      <trkpt lat="45.20538" lon="4.96998">
        <ele>271.709717</ele>
        <time>2019-05-27T07:08:08Z</time>
      </trkpt>
      <trkpt lat="45.20526" lon="4.97038">
        <ele>274.59375</ele>
        <time>2019-05-27T07:08:23Z</time>
      </trkpt>
      <trkpt lat="45.20511" lon="4.97064">
        <ele>277.477661</ele>
        <time>2019-05-27T07:08:36Z</time>
      </trkpt>
      <trkpt lat="45.20489" lon="4.97081">
        <ele>280.842407</ele>
        <time>2019-05-27T07:08:52Z</time>
      </trkpt>
      <trkpt lat="45.20466" lon="4.97094">
        <ele>283.726196</ele>
        <time>2019-05-27T07:09:08Z</time>
      </trkpt>
      <trkpt lat="45.20444" lon="4.97102">
        <ele>286.129517</ele>
        <time>2019-05-27T07:09:23Z</time>
      </trkpt>
      <trkpt lat="45.20416" lon="4.971">
        <ele>288.052246</ele>
        <time>2019-05-27T07:09:39Z</time>
      </trkpt>
      <trkpt lat="45.20415" lon="4.97099">
        <ele>288.532959</ele>
        <time>2019-05-27T07:09:40Z</time>
      </trkpt>
      <trkpt lat="45.20381" lon="4.97097">
        <ele>290.936157</ele>
        <time>2019-05-27T07:10:00Z</time>
      </trkpt>
      <trkpt lat="45.20371" lon="4.97102">
        <ele>291.897461</ele>
        <time>2019-05-27T07:10:07Z</time>
      </trkpt>
      <trkpt lat="45.20351" lon="4.97102">
        <ele>293.820068</ele>
        <time>2019-05-27T07:10:20Z</time>
      </trkpt>
      <trkpt lat="45.20317" lon="4.97103">
        <ele>294.781372</ele>
        <time>2019-05-27T07:10:39Z</time>
      </trkpt>
      <trkpt lat="45.20275" lon="4.97106">
        <ele>298.146118</ele>
        <time>2019-05-27T07:11:03Z</time>
      </trkpt>
      <trkpt lat="45.20256" lon="4.97105">
        <ele>299.1073</ele>
        <time>2019-05-27T07:11:13Z</time>
      </trkpt>
      <trkpt lat="45.20236" lon="4.97108">
        <ele>300.549316</ele>
        <time>2019-05-27T07:11:26Z</time>
      </trkpt>
      <trkpt lat="45.2021" lon="4.97134">
        <ele>302.952515</ele>
        <time>2019-05-27T07:11:45Z</time>
      </trkpt>
      <trkpt lat="45.20209" lon="4.97166">
        <ele>305.83667</ele>
        <time>2019-05-27T07:11:59Z</time>
      </trkpt>
      <trkpt lat="45.20229" lon="4.9721">
        <ele>308.720459</ele>
        <time>2019-05-27T07:12:19Z</time>
      </trkpt>
      <trkpt lat="45.20244" lon="4.97238">
        <ele>311.604492</ele>
        <time>2019-05-27T07:12:35Z</time>
      </trkpt>
      <trkpt lat="45.20248" lon="4.97264">
        <ele>314.488403</ele>
        <time>2019-05-27T07:12:49Z</time>
      </trkpt>
      <trkpt lat="45.20244" lon="4.97294">
        <ele>317.853027</ele>
        <time>2019-05-27T07:13:06Z</time>
      </trkpt>
      <trkpt lat="45.20238" lon="4.97324">
        <ele>321.217773</ele>
        <time>2019-05-27T07:13:23Z</time>
      </trkpt>
      <trkpt lat="45.20238" lon="4.97356">
        <ele>324.582275</ele>
        <time>2019-05-27T07:13:41Z</time>
      </trkpt>
      <trkpt lat="45.20252" lon="4.97372">
        <ele>327.466187</ele>
        <time>2019-05-27T07:13:54Z</time>
      </trkpt>
      <trkpt lat="45.20272" lon="4.97383">
        <ele>330.35022</ele>
        <time>2019-05-27T07:14:10Z</time>
      </trkpt>
      <trkpt lat="45.20281" lon="4.97393">
        <ele>330.830933</ele>
        <time>2019-05-27T07:14:18Z</time>
      </trkpt>
      <trkpt lat="45.20277" lon="4.97417">
        <ele>332.75354</ele>
        <time>2019-05-27T07:14:30Z</time>
      </trkpt>
      <trkpt lat="45.20267" lon="4.97438">
        <ele>335.637329</ele>
        <time>2019-05-27T07:14:44Z</time>
      </trkpt>
      <trkpt lat="45.2025" lon="4.97456">
        <ele>339.002075</ele>
        <time>2019-05-27T07:14:59Z</time>
      </trkpt>
      <trkpt lat="45.20243" lon="4.97462">
        <ele>340.444092</ele>
        <time>2019-05-27T07:15:06Z</time>
      </trkpt>
      <trkpt lat="45.20224" lon="4.97478">
        <ele>343.808594</ele>
        <time>2019-05-27T07:15:25Z</time>
      </trkpt>
      <trkpt lat="45.20208" lon="4.97489">
        <ele>347.173218</ele>
        <time>2019-05-27T07:15:40Z</time>
      </trkpt>
      <trkpt lat="45.20195" lon="4.97504">
        <ele>350.057251</ele>
        <time>2019-05-27T07:15:54Z</time>
      </trkpt>
      <trkpt lat="45.20182" lon="4.97524">
        <ele>352.941162</ele>
        <time>2019-05-27T07:16:10Z</time>
      </trkpt>
      <trkpt lat="45.20178" lon="4.9753">
        <ele>353.902588</ele>
        <time>2019-05-27T07:16:16Z</time>
      </trkpt>
      <trkpt lat="45.20172" lon="4.97538">
        <ele>355.344482</ele>
        <time>2019-05-27T07:16:23Z</time>
      </trkpt>
      <trkpt lat="45.20168" lon="4.97543">
        <ele>355.825195</ele>
        <time>2019-05-27T07:16:27Z</time>
      </trkpt>
      <trkpt lat="45.20152" lon="4.97564">
        <ele>358.228394</ele>
        <time>2019-05-27T07:16:44Z</time>
      </trkpt>
      <trkpt lat="45.20131" lon="4.97594">
        <ele>361.112427</ele>
        <time>2019-05-27T07:17:07Z</time>
      </trkpt>
      <trkpt lat="45.20107" lon="4.97623">
        <ele>362.07373</ele>
        <time>2019-05-27T07:17:27Z</time>
      </trkpt>
      <trkpt lat="45.20075" lon="4.97656">
        <ele>364.957642</ele>
        <time>2019-05-27T07:17:50Z</time>
      </trkpt>
      <trkpt lat="45.20041" lon="4.97691">
        <ele>367.841553</ele>
        <time>2019-05-27T07:18:14Z</time>
      </trkpt>
      <trkpt lat="45.20006" lon="4.97734">
        <ele>368.802979</ele>
        <time>2019-05-27T07:18:34Z</time>
      </trkpt>
      <trkpt lat="45.19963" lon="4.97773">
        <ele>369.764282</ele>
        <time>2019-05-27T07:18:53Z</time>
      </trkpt>
      <trkpt lat="45.19934" lon="4.97788">
        <ele>371.206299</ele>
        <time>2019-05-27T07:19:09Z</time>
      </trkpt>
      <trkpt lat="45.19901" lon="4.97806">
        <ele>372.648193</ele>
        <time>2019-05-27T07:19:25Z</time>
      </trkpt>
      <trkpt lat="45.19859" lon="4.97827">
        <ele>374.570801</ele>
        <time>2019-05-27T07:19:41Z</time>
      </trkpt>
      <trkpt lat="45.19791" lon="4.97845">
        <ele>375.532104</ele>
        <time>2019-05-27T07:20:00Z</time>
      </trkpt>
      <trkpt lat="45.19753" lon="4.9786">
        <ele>376.49353</ele>
        <time>2019-05-27T07:20:16Z</time>
      </trkpt>
      <trkpt lat="45.19716" lon="4.97897">
        <ele>377.935425</ele>
        <time>2019-05-27T07:20:32Z</time>
      </trkpt>
      <trkpt lat="45.19686" lon="4.9795">
        <ele>380.819458</ele>
        <time>2019-05-27T07:20:50Z</time>
      </trkpt>
      <trkpt lat="45.19686" lon="4.97952">
        <ele>380.819458</ele>
        <time>2019-05-27T07:20:51Z</time>
      </trkpt>
      <trkpt lat="45.19696" lon="4.97958">
        <ele>380.819458</ele>
        <time>2019-05-27T07:20:57Z</time>
      </trkpt>
      <trkpt lat="45.19728" lon="4.98007">
        <ele>379.858032</ele>
        <time>2019-05-27T07:21:11Z</time>
      </trkpt>
      <trkpt lat="45.19748" lon="4.9811">
        <ele>378.416138</ele>
        <time>2019-05-27T07:21:32Z</time>
      </trkpt>
      <trkpt lat="45.19748" lon="4.98116">
        <ele>377.935425</ele>
        <time>2019-05-27T07:21:33Z</time>
      </trkpt>
      <trkpt lat="45.19749" lon="4.98219">
        <ele>376.49353</ele>
        <time>2019-05-27T07:21:49Z</time>
      </trkpt>
      <trkpt lat="45.1973" lon="4.9828">
        <ele>376.49353</ele>
        <time>2019-05-27T07:22:02Z</time>
      </trkpt>
      <trkpt lat="45.1971" lon="4.98298">
        <ele>376.49353</ele>
        <time>2019-05-27T07:22:08Z</time>
      </trkpt>
      <trkpt lat="45.19716" lon="4.9833">
        <ele>376.974243</ele>
        <time>2019-05-27T07:22:15Z</time>
      </trkpt>
      <trkpt lat="45.19723" lon="4.98333">
        <ele>377.454834</ele>
        <time>2019-05-27T07:22:17Z</time>
      </trkpt>
      <trkpt lat="45.1977" lon="4.98347">
        <ele>379.858032</ele>
        <time>2019-05-27T07:22:34Z</time>
      </trkpt>
      <trkpt lat="45.19779" lon="4.98368">
        <ele>381.300049</ele>
        <time>2019-05-27T07:22:43Z</time>
      </trkpt>
      <trkpt lat="45.19772" lon="4.98387">
        <ele>382.742065</ele>
        <time>2019-05-27T07:22:50Z</time>
      </trkpt>
      <trkpt lat="45.19768" lon="4.98391">
        <ele>383.222656</ele>
        <time>2019-05-27T07:22:52Z</time>
      </trkpt>
      <trkpt lat="45.19736" lon="4.98432">
        <ele>386.587402</ele>
        <time>2019-05-27T07:23:10Z</time>
      </trkpt>
      <trkpt lat="45.19733" lon="4.98436">
        <ele>386.587402</ele>
        <time>2019-05-27T07:23:11Z</time>
      </trkpt>
      <trkpt lat="45.19695" lon="4.98465">
        <ele>388.51001</ele>
        <time>2019-05-27T07:23:25Z</time>
      </trkpt>
      <trkpt lat="45.19664" lon="4.98487">
        <ele>389.951904</ele>
        <time>2019-05-27T07:23:41Z</time>
      </trkpt>
      <trkpt lat="45.1963" lon="4.98504">
        <ele>392.835938</ele>
        <time>2019-05-27T07:23:56Z</time>
      </trkpt>
      <trkpt lat="45.19577" lon="4.98496">
        <ele>395.719849</ele>
        <time>2019-05-27T07:24:18Z</time>
      </trkpt>
      <trkpt lat="45.19557" lon="4.98493">
        <ele>397.161743</ele>
        <time>2019-05-27T07:24:26Z</time>
      </trkpt>
      <trkpt lat="45.19549" lon="4.98491">
        <ele>397.642456</ele>
        <time>2019-05-27T07:24:30Z</time>
      </trkpt>
      <trkpt lat="45.19538" lon="4.98498">
        <ele>398.123169</ele>
        <time>2019-05-27T07:24:35Z</time>
      </trkpt>
      <trkpt lat="45.1954" lon="4.98528">
        <ele>398.60376</ele>
        <time>2019-05-27T07:24:44Z</time>
      </trkpt>
      <trkpt lat="45.19567" lon="4.98593">
        <ele>401.487793</ele>
        <time>2019-05-27T07:25:05Z</time>
      </trkpt>
      <trkpt lat="45.19547" lon="4.98617">
        <ele>402.929688</ele>
        <time>2019-05-27T07:25:19Z</time>
      </trkpt>
      <trkpt lat="45.19489" lon="4.98609">
        <ele>405.333008</ele>
        <time>2019-05-27T07:25:43Z</time>
      </trkpt>
      <trkpt lat="45.1944" lon="4.98601">
        <ele>408.697632</ele>
        <time>2019-05-27T07:26:04Z</time>
      </trkpt>
      <trkpt lat="45.19406" lon="4.98598">
        <ele>410.139648</ele>
        <time>2019-05-27T07:26:20Z</time>
      </trkpt>
      <trkpt lat="45.19373" lon="4.986">
        <ele>412.062256</ele>
        <time>2019-05-27T07:26:38Z</time>
      </trkpt>
      <trkpt lat="45.19345" lon="4.98626">
        <ele>413.984863</ele>
        <time>2019-05-27T07:26:55Z</time>
      </trkpt>
      <trkpt lat="45.1932" lon="4.98658">
        <ele>415.907471</ele>
        <time>2019-05-27T07:27:12Z</time>
      </trkpt>
      <trkpt lat="45.19308" lon="4.98696">
        <ele>417.349609</ele>
        <time>2019-05-27T07:27:26Z</time>
      </trkpt>
      <trkpt lat="45.19301" lon="4.98739">
        <ele>418.791504</ele>
        <time>2019-05-27T07:27:40Z</time>
      </trkpt>
      <trkpt lat="45.19288" lon="4.9877">
        <ele>420.714111</ele>
        <time>2019-05-27T07:27:51Z</time>
      </trkpt>
      <trkpt lat="45.19255" lon="4.9882">
        <ele>423.598022</ele>
        <time>2019-05-27T07:28:13Z</time>
      </trkpt>
      <trkpt lat="45.19242" lon="4.98886">
        <ele>426.482056</ele>
        <time>2019-05-27T07:28:36Z</time>
      </trkpt>
      <trkpt lat="45.19247" lon="4.98935">
        <ele>429.846558</ele>
        <time>2019-05-27T07:28:55Z</time>
      </trkpt>
      <trkpt lat="45.19249" lon="4.98954">
        <ele>430.807983</ele>
        <time>2019-05-27T07:29:02Z</time>
      </trkpt>
      <trkpt lat="45.19241" lon="4.98957">
        <ele>431.288574</ele>
        <time>2019-05-27T07:29:07Z</time>
      </trkpt>
      <trkpt lat="45.19222" lon="4.98923">
        <ele>434.172607</ele>
        <time>2019-05-27T07:29:25Z</time>
      </trkpt>
      <trkpt lat="45.19209" lon="4.98937">
        <ele>434.65332</ele>
        <time>2019-05-27T07:29:35Z</time>
      </trkpt>
      <trkpt lat="45.19218" lon="4.99">
        <ele>436.575928</ele>
        <time>2019-05-27T07:29:55Z</time>
      </trkpt>
      <trkpt lat="45.19211" lon="4.99039">
        <ele>437.537109</ele>
        <time>2019-05-27T07:30:13Z</time>
      </trkpt>
      <trkpt lat="45.19211" lon="4.9904">
        <ele>437.056519</ele>
        <time>2019-05-27T07:30:33Z</time>
      </trkpt>
      <trkpt lat="45.1921" lon="4.99045">
        <ele>437.537109</ele>
        <time>2019-05-27T07:30:35Z</time>
      </trkpt>
      <trkpt lat="45.19205" lon="4.99054">
        <ele>437.056519</ele>
        <time>2019-05-27T07:30:50Z</time>
      </trkpt>
      <trkpt lat="45.19195" lon="4.99068">
        <ele>435.614502</ele>
        <time>2019-05-27T07:31:09Z</time>
      </trkpt>
      <trkpt lat="45.19193" lon="4.99072">
        <ele>435.614502</ele>
        <time>2019-05-27T07:31:12Z</time>
      </trkpt>
      <trkpt lat="45.19164" lon="4.99093">
        <ele>433.211304</ele>
        <time>2019-05-27T07:31:24Z</time>
      </trkpt>
      <trkpt lat="45.19087" lon="4.99125">
        <ele>431.769165</ele>
        <time>2019-05-27T07:31:40Z</time>
      </trkpt>
      <trkpt lat="45.19019" lon="4.99158">
        <ele>433.691895</ele>
        <time>2019-05-27T07:31:57Z</time>
      </trkpt>
      <trkpt lat="45.18966" lon="4.99195">
        <ele>435.133911</ele>
        <time>2019-05-27T07:32:16Z</time>
      </trkpt>
      <trkpt lat="45.18912" lon="4.99213">
        <ele>437.056519</ele>
        <time>2019-05-27T07:32:33Z</time>
      </trkpt>
      <trkpt lat="45.18839" lon="4.99242">
        <ele>438.979126</ele>
        <time>2019-05-27T07:32:57Z</time>
      </trkpt>
      <trkpt lat="45.18779" lon="4.99257">
        <ele>440.901855</ele>
        <time>2019-05-27T07:33:16Z</time>
      </trkpt>
      <trkpt lat="45.18712" lon="4.9927">
        <ele>442.824463</ele>
        <time>2019-05-27T07:33:37Z</time>
      </trkpt>
      <trkpt lat="45.18658" lon="4.9929">
        <ele>444.74707</ele>
        <time>2019-05-27T07:33:57Z</time>
      </trkpt>
      <trkpt lat="45.18624" lon="4.99305">
        <ele>443.785767</ele>
        <time>2019-05-27T07:34:10Z</time>
      </trkpt>
      <trkpt lat="45.18612" lon="4.99306">
        <ele>443.785767</ele>
        <time>2019-05-27T07:34:13Z</time>
      </trkpt>
      <trkpt lat="45.18523" lon="4.99316">
        <ele>443.305054</ele>
        <time>2019-05-27T07:34:32Z</time>
      </trkpt>
      <trkpt lat="45.18451" lon="4.99312">
        <ele>445.227661</ele>
        <time>2019-05-27T07:34:49Z</time>
      </trkpt>
      <trkpt lat="45.18418" lon="4.99298">
        <ele>445.227661</ele>
        <time>2019-05-27T07:34:57Z</time>
      </trkpt>
      <trkpt lat="45.18337" lon="4.99255">
        <ele>441.863159</ele>
        <time>2019-05-27T07:35:12Z</time>
      </trkpt>
      <trkpt lat="45.18329" lon="4.99253">
        <ele>441.863159</ele>
        <time>2019-05-27T07:35:13Z</time>
      </trkpt>
      <trkpt lat="45.18246" lon="4.99211">
        <ele>441.382446</ele>
        <time>2019-05-27T07:35:26Z</time>
      </trkpt>
      <trkpt lat="45.18175" lon="4.99156">
        <ele>443.305054</ele>
        <time>2019-05-27T07:35:43Z</time>
      </trkpt>
      <trkpt lat="45.18134" lon="4.99125">
        <ele>445.227661</ele>
        <time>2019-05-27T07:36:00Z</time>
      </trkpt>
      <trkpt lat="45.18108" lon="4.9911">
        <ele>448.592407</ele>
        <time>2019-05-27T07:36:14Z</time>
      </trkpt>
      <trkpt lat="45.18078" lon="4.99087">
        <ele>450.995605</ele>
        <time>2019-05-27T07:36:35Z</time>
      </trkpt>
      <trkpt lat="45.18046" lon="4.99068">
        <ele>451.957031</ele>
        <time>2019-05-27T07:36:54Z</time>
      </trkpt>
      <trkpt lat="45.18013" lon="4.99049">
        <ele>453.879639</ele>
        <time>2019-05-27T07:37:11Z</time>
      </trkpt>
      <trkpt lat="45.17979" lon="4.9904">
        <ele>455.802246</ele>
        <time>2019-05-27T07:37:31Z</time>
      </trkpt>
      <trkpt lat="45.17946" lon="4.99028">
        <ele>456.282959</ele>
        <time>2019-05-27T07:37:49Z</time>
      </trkpt>
      <trkpt lat="45.17905" lon="4.99005">
        <ele>454.360229</ele>
        <time>2019-05-27T07:38:07Z</time>
      </trkpt>
      <trkpt lat="45.17888" lon="4.98997">
        <ele>453.398926</ele>
        <time>2019-05-27T07:38:19Z</time>
      </trkpt>
      <trkpt lat="45.17888" lon="4.98998">
        <ele>451.957031</ele>
        <time>2019-05-27T07:38:52Z</time>
      </trkpt>
      <trkpt lat="45.17887" lon="4.98999">
        <ele>452.918213</ele>
        <time>2019-05-27T07:43:02Z</time>
      </trkpt>
      <trkpt lat="45.17868" lon="4.98989">
        <ele>450.515015</ele>
        <time>2019-05-27T07:43:18Z</time>
      </trkpt>
      <trkpt lat="45.1785" lon="4.98986">
        <ele>447.630981</ele>
        <time>2019-05-27T07:43:26Z</time>
      </trkpt>
      <trkpt lat="45.17831" lon="4.98992">
        <ele>444.266479</ele>
        <time>2019-05-27T07:43:33Z</time>
      </trkpt>
      <trkpt lat="45.17828" lon="4.98993">
        <ele>443.785767</ele>
        <time>2019-05-27T07:43:34Z</time>
      </trkpt>
      <trkpt lat="45.17824" lon="4.98997">
        <ele>443.305054</ele>
        <time>2019-05-27T07:43:36Z</time>
      </trkpt>
      <trkpt lat="45.17816" lon="4.99005">
        <ele>441.863159</ele>
        <time>2019-05-27T07:43:39Z</time>
      </trkpt>
      <trkpt lat="45.17801" lon="4.99019">
        <ele>438.979126</ele>
        <time>2019-05-27T07:43:44Z</time>
      </trkpt>
      <trkpt lat="45.1778" lon="4.99034">
        <ele>435.614502</ele>
        <time>2019-05-27T07:43:51Z</time>
      </trkpt>
      <trkpt lat="45.17767" lon="4.99043">
        <ele>432.25</ele>
        <time>2019-05-27T07:43:55Z</time>
      </trkpt>
      <trkpt lat="45.17748" lon="4.99055">
        <ele>428.885376</ele>
        <time>2019-05-27T07:44:01Z</time>
      </trkpt>
      <trkpt lat="45.17733" lon="4.99067">
        <ele>425.520752</ele>
        <time>2019-05-27T07:44:06Z</time>
      </trkpt>
      <trkpt lat="45.17721" lon="4.99072">
        <ele>423.598022</ele>
        <time>2019-05-27T07:44:10Z</time>
      </trkpt>
      <trkpt lat="45.17707" lon="4.99075">
        <ele>420.233398</ele>
        <time>2019-05-27T07:44:15Z</time>
      </trkpt>
      <trkpt lat="45.1769" lon="4.99076">
        <ele>417.349609</ele>
        <time>2019-05-27T07:44:20Z</time>
      </trkpt>
      <trkpt lat="45.17662" lon="4.99077">
        <ele>413.984863</ele>
        <time>2019-05-27T07:44:25Z</time>
      </trkpt>
      <trkpt lat="45.17656" lon="4.99078">
        <ele>413.504272</ele>
        <time>2019-05-27T07:44:26Z</time>
      </trkpt>
      <trkpt lat="45.17636" lon="4.99086">
        <ele>411.100952</ele>
        <time>2019-05-27T07:44:29Z</time>
      </trkpt>
      <trkpt lat="45.17602" lon="4.99108">
        <ele>407.255615</ele>
        <time>2019-05-27T07:44:34Z</time>
      </trkpt>
      <trkpt lat="45.17576" lon="4.99125">
        <ele>404.371704</ele>
        <time>2019-05-27T07:44:41Z</time>
      </trkpt>
      <trkpt lat="45.17562" lon="4.99132">
        <ele>403.4104</ele>
        <time>2019-05-27T07:44:44Z</time>
      </trkpt>
      <trkpt lat="45.17481" lon="4.99157">
        <ele>400.526489</ele>
        <time>2019-05-27T07:44:58Z</time>
      </trkpt>
      <trkpt lat="45.17411" lon="4.99178">
        <ele>397.161743</ele>
        <time>2019-05-27T07:45:09Z</time>
      </trkpt>
      <trkpt lat="45.17396" lon="4.99181">
        <ele>396.681152</ele>
        <time>2019-05-27T07:45:11Z</time>
      </trkpt>
      <trkpt lat="45.17365" lon="4.99174">
        <ele>392.835938</ele>
        <time>2019-05-27T07:45:15Z</time>
      </trkpt>
      <trkpt lat="45.17346" lon="4.99158">
        <ele>392.355347</ele>
        <time>2019-05-27T07:45:18Z</time>
      </trkpt>
      <trkpt lat="45.17329" lon="4.99133">
        <ele>391.393799</ele>
        <time>2019-05-27T07:45:21Z</time>
      </trkpt>
      <trkpt lat="45.17311" lon="4.99114">
        <ele>389.471191</ele>
        <time>2019-05-27T07:45:24Z</time>
      </trkpt>
      <trkpt lat="45.17287" lon="4.991">
        <ele>387.548584</ele>
        <time>2019-05-27T07:45:29Z</time>
      </trkpt>
      <trkpt lat="45.17253" lon="4.99096">
        <ele>387.548584</ele>
        <time>2019-05-27T07:45:40Z</time>
      </trkpt>
      <trkpt lat="45.17248" lon="4.99095">
        <ele>387.067993</ele>
        <time>2019-05-27T07:45:41Z</time>
      </trkpt>
      <trkpt lat="45.17237" lon="4.99095">
        <ele>386.587402</ele>
        <time>2019-05-27T07:45:43Z</time>
      </trkpt>
      <trkpt lat="45.17194" lon="4.99113">
        <ele>384.664795</ele>
        <time>2019-05-27T07:45:51Z</time>
      </trkpt>
      <trkpt lat="45.17166" lon="4.99133">
        <ele>382.261353</ele>
        <time>2019-05-27T07:45:56Z</time>
      </trkpt>
      <trkpt lat="45.17139" lon="4.9916">
        <ele>380.338745</ele>
        <time>2019-05-27T07:46:00Z</time>
      </trkpt>
      <trkpt lat="45.1713" lon="4.99165">
        <ele>379.858032</ele>
        <time>2019-05-27T07:46:01Z</time>
      </trkpt>
      <trkpt lat="45.17105" lon="4.9918">
        <ele>378.416138</ele>
        <time>2019-05-27T07:46:04Z</time>
      </trkpt>
      <trkpt lat="45.16989" lon="4.99226">
        <ele>376.012817</ele>
        <time>2019-05-27T07:46:18Z</time>
      </trkpt>
      <trkpt lat="45.16913" lon="4.99258">
        <ele>374.570801</ele>
        <time>2019-05-27T07:46:31Z</time>
      </trkpt>
      <trkpt lat="45.16916" lon="4.99276">
        <ele>374.090088</ele>
        <time>2019-05-27T07:46:41Z</time>
      </trkpt>
      <trkpt lat="45.16916" lon="4.99271">
        <ele>373.609497</ele>
        <time>2019-05-27T07:46:48Z</time>
      </trkpt>
      <trkpt lat="45.16914" lon="4.9927">
        <ele>373.128906</ele>
        <time>2019-05-27T07:46:50Z</time>
      </trkpt>
      <trkpt lat="45.16911" lon="4.99264">
        <ele>374.090088</ele>
        <time>2019-05-27T07:46:53Z</time>
      </trkpt>
      <trkpt lat="45.16894" lon="4.99263">
        <ele>373.128906</ele>
        <time>2019-05-27T07:47:00Z</time>
      </trkpt>
      <trkpt lat="45.16863" lon="4.99241">
        <ele>372.648193</ele>
        <time>2019-05-27T07:47:08Z</time>
      </trkpt>
      <trkpt lat="45.1685" lon="4.99244">
        <ele>370.725586</ele>
        <time>2019-05-27T07:47:12Z</time>
      </trkpt>
      <trkpt lat="45.1685" lon="4.99248">
        <ele>370.725586</ele>
        <time>2019-05-27T07:47:13Z</time>
      </trkpt>
      <trkpt lat="45.1685" lon="4.99296">
        <ele>367.841553</ele>
        <time>2019-05-27T07:47:23Z</time>
      </trkpt>
      <trkpt lat="45.16844" lon="4.99325">
        <ele>366.399536</ele>
        <time>2019-05-27T07:47:27Z</time>
      </trkpt>
      <trkpt lat="45.168" lon="4.99404">
        <ele>363.035034</ele>
        <time>2019-05-27T07:47:37Z</time>
      </trkpt>
      <trkpt lat="45.1677" lon="4.99437">
        <ele>361.112427</ele>
        <time>2019-05-27T07:47:46Z</time>
      </trkpt>
      <trkpt lat="45.16755" lon="4.99458">
        <ele>360.151123</ele>
        <time>2019-05-27T07:48:15Z</time>
      </trkpt>
      <trkpt lat="45.1673" lon="4.99486">
        <ele>359.189697</ele>
        <time>2019-05-27T07:48:23Z</time>
      </trkpt>
      <trkpt lat="45.16715" lon="4.99498">
        <ele>359.189697</ele>
        <time>2019-05-27T07:48:27Z</time>
      </trkpt>
      <trkpt lat="45.16687" lon="4.99513">
        <ele>358.228394</ele>
        <time>2019-05-27T07:48:33Z</time>
      </trkpt>
      <trkpt lat="45.16667" lon="4.99528">
        <ele>357.26709</ele>
        <time>2019-05-27T07:48:38Z</time>
      </trkpt>
      <trkpt lat="45.16649" lon="4.99535">
        <ele>356.305786</ele>
        <time>2019-05-27T07:48:42Z</time>
      </trkpt>
      <trkpt lat="45.16608" lon="4.99542">
        <ele>353.421875</ele>
        <time>2019-05-27T07:48:48Z</time>
      </trkpt>
      <trkpt lat="45.1649" lon="4.99554">
        <ele>352.460571</ele>
        <time>2019-05-27T07:49:06Z</time>
      </trkpt>
      <trkpt lat="45.16396" lon="4.99568">
        <ele>353.421875</ele>
        <time>2019-05-27T07:49:25Z</time>
      </trkpt>
      <trkpt lat="45.16355" lon="4.996">
        <ele>355.344482</ele>
        <time>2019-05-27T07:49:38Z</time>
      </trkpt>
      <trkpt lat="45.16338" lon="4.99633">
        <ele>358.228394</ele>
        <time>2019-05-27T07:49:53Z</time>
      </trkpt>
      <trkpt lat="45.16328" lon="4.99659">
        <ele>361.112427</ele>
        <time>2019-05-27T07:50:08Z</time>
      </trkpt>
      <trkpt lat="45.16319" lon="4.99672">
        <ele>364.476929</ele>
        <time>2019-05-27T07:50:19Z</time>
      </trkpt>
      <trkpt lat="45.16316" lon="4.99672">
        <ele>364.957642</ele>
        <time>2019-05-27T07:50:23Z</time>
      </trkpt>
      <trkpt lat="45.16313" lon="4.99671">
        <ele>365.918945</ele>
        <time>2019-05-27T07:50:26Z</time>
      </trkpt>
      <trkpt lat="45.16304" lon="4.99667">
        <ele>366.880249</ele>
        <time>2019-05-27T07:50:33Z</time>
      </trkpt>
      <trkpt lat="45.16288" lon="4.9966">
        <ele>368.802979</ele>
        <time>2019-05-27T07:50:46Z</time>
      </trkpt>
      <trkpt lat="45.16283" lon="4.99657">
        <ele>369.283691</ele>
        <time>2019-05-27T07:50:51Z</time>
      </trkpt>
      <trkpt lat="45.16273" lon="4.99651">
        <ele>371.68689</ele>
        <time>2019-05-27T07:51:01Z</time>
      </trkpt>
      <trkpt lat="45.16264" lon="4.99649">
        <ele>372.648193</ele>
        <time>2019-05-27T07:51:08Z</time>
      </trkpt>
      <trkpt lat="45.16241" lon="4.99654">
        <ele>376.012817</ele>
        <time>2019-05-27T07:51:24Z</time>
      </trkpt>
      <trkpt lat="45.16234" lon="4.99657">
        <ele>377.935425</ele>
        <time>2019-05-27T07:51:33Z</time>
      </trkpt>
      <trkpt lat="45.16219" lon="4.99664">
        <ele>379.858032</ele>
        <time>2019-05-27T07:51:42Z</time>
      </trkpt>
      <trkpt lat="45.16214" lon="4.99688">
        <ele>381.300049</ele>
        <time>2019-05-27T07:51:59Z</time>
      </trkpt>
      <trkpt lat="45.16213" lon="4.99689">
        <ele>381.78064</ele>
        <time>2019-05-27T07:52:00Z</time>
      </trkpt>
      <trkpt lat="45.16206" lon="4.99697">
        <ele>382.742065</ele>
        <time>2019-05-27T07:52:07Z</time>
      </trkpt>
      <trkpt lat="45.16178" lon="4.99703">
        <ele>383.703247</ele>
        <time>2019-05-27T07:52:22Z</time>
      </trkpt>
      <trkpt lat="45.16171" lon="4.99703">
        <ele>384.184082</ele>
        <time>2019-05-27T07:52:27Z</time>
      </trkpt>
      <trkpt lat="45.16168" lon="4.99702">
        <ele>384.184082</ele>
        <time>2019-05-27T07:52:29Z</time>
      </trkpt>
      <trkpt lat="45.16146" lon="4.99693">
        <ele>384.664795</ele>
        <time>2019-05-27T07:52:42Z</time>
      </trkpt>
      <trkpt lat="45.16115" lon="4.99687">
        <ele>385.625977</ele>
        <time>2019-05-27T07:52:55Z</time>
      </trkpt>
      <trkpt lat="45.16086" lon="4.99692">
        <ele>386.106689</ele>
        <time>2019-05-27T07:53:07Z</time>
      </trkpt>
      <trkpt lat="45.16054" lon="4.99694">
        <ele>387.067993</ele>
        <time>2019-05-27T07:53:19Z</time>
      </trkpt>
      <trkpt lat="45.1602" lon="4.99695">
        <ele>387.548584</ele>
        <time>2019-05-27T07:53:32Z</time>
      </trkpt>
      <trkpt lat="45.15995" lon="4.99701">
        <ele>388.51001</ele>
        <time>2019-05-27T07:53:42Z</time>
      </trkpt>
      <trkpt lat="45.15964" lon="4.99709">
        <ele>388.029297</ele>
        <time>2019-05-27T07:53:52Z</time>
      </trkpt>
      <trkpt lat="45.15943" lon="4.99712">
        <ele>388.029297</ele>
        <time>2019-05-27T07:54:00Z</time>
      </trkpt>
      <trkpt lat="45.15917" lon="4.99724">
        <ele>389.951904</ele>
        <time>2019-05-27T07:54:12Z</time>
      </trkpt>
      <trkpt lat="45.15882" lon="4.99747">
        <ele>390.432617</ele>
        <time>2019-05-27T07:54:23Z</time>
      </trkpt>
      <trkpt lat="45.15845" lon="4.99755">
        <ele>389.951904</ele>
        <time>2019-05-27T07:54:34Z</time>
      </trkpt>
      <trkpt lat="45.15842" lon="4.99756">
        <ele>389.951904</ele>
        <time>2019-05-27T07:54:35Z</time>
      </trkpt>
      <trkpt lat="45.15805" lon="4.99774">
        <ele>392.835938</ele>
        <time>2019-05-27T07:54:50Z</time>
      </trkpt>
      <trkpt lat="45.15802" lon="4.99777">
        <ele>393.797241</ele>
        <time>2019-05-27T07:54:55Z</time>
      </trkpt>
      <trkpt lat="45.15784" lon="4.99796">
        <ele>394.277954</ele>
        <time>2019-05-27T07:55:02Z</time>
      </trkpt>
      <trkpt lat="45.15759" lon="4.99841">
        <ele>394.277954</ele>
        <time>2019-05-27T07:55:14Z</time>
      </trkpt>
      <trkpt lat="45.15751" lon="4.99871">
        <ele>393.797241</ele>
        <time>2019-05-27T07:55:21Z</time>
      </trkpt>
      <trkpt lat="45.15737" lon="4.99924">
        <ele>393.797241</ele>
        <time>2019-05-27T07:55:33Z</time>
      </trkpt>
      <trkpt lat="45.15735" lon="4.99943">
        <ele>393.316528</ele>
        <time>2019-05-27T07:55:38Z</time>
      </trkpt>
      <trkpt lat="45.15715" lon="4.99989">
        <ele>391.393799</ele>
        <time>2019-05-27T07:55:47Z</time>
      </trkpt>
      <trkpt lat="45.15672" lon="5.00042">
        <ele>389.951904</ele>
        <time>2019-05-27T07:55:59Z</time>
      </trkpt>
      <trkpt lat="45.15659" lon="5.00054">
        <ele>389.471191</ele>
        <time>2019-05-27T07:56:02Z</time>
      </trkpt>
      <trkpt lat="45.15602" lon="5.00078">
        <ele>388.990601</ele>
        <time>2019-05-27T07:56:16Z</time>
      </trkpt>
      <trkpt lat="45.15549" lon="5.00075">
        <ele>391.393799</ele>
        <time>2019-05-27T07:56:31Z</time>
      </trkpt>
      <trkpt lat="45.15525" lon="5.00083">
        <ele>389.951904</ele>
        <time>2019-05-27T07:56:45Z</time>
      </trkpt>
      <trkpt lat="45.15498" lon="5.0009">
        <ele>387.548584</ele>
        <time>2019-05-27T07:56:59Z</time>
      </trkpt>
      <trkpt lat="45.15474" lon="5.00102">
        <ele>384.664795</ele>
        <time>2019-05-27T07:57:09Z</time>
      </trkpt>
      <trkpt lat="45.15462" lon="5.00111">
        <ele>383.222656</ele>
        <time>2019-05-27T07:57:14Z</time>
      </trkpt>
      <trkpt lat="45.15411" lon="5.00139">
        <ele>381.78064</ele>
        <time>2019-05-27T07:57:22Z</time>
      </trkpt>
      <trkpt lat="45.15393" lon="5.00143">
        <ele>381.78064</ele>
        <time>2019-05-27T07:57:26Z</time>
      </trkpt>
      <trkpt lat="45.15363" lon="5.00152">
        <ele>380.819458</ele>
        <time>2019-05-27T07:57:30Z</time>
      </trkpt>
      <trkpt lat="45.1534" lon="5.00152">
        <ele>380.819458</ele>
        <time>2019-05-27T07:57:34Z</time>
      </trkpt>
      <trkpt lat="45.15267" lon="5.00155">
        <ele>377.454834</ele>
        <time>2019-05-27T07:57:49Z</time>
      </trkpt>
      <trkpt lat="45.15262" lon="5.00156">
        <ele>376.974243</ele>
        <time>2019-05-27T07:57:50Z</time>
      </trkpt>
      <trkpt lat="45.15233" lon="5.00164">
        <ele>373.609497</ele>
        <time>2019-05-27T07:57:58Z</time>
      </trkpt>
      <trkpt lat="45.15223" lon="5.00165">
        <ele>371.68689</ele>
        <time>2019-05-27T07:58:01Z</time>
      </trkpt>
      <trkpt lat="45.15199" lon="5.00174">
        <ele>368.322266</ele>
        <time>2019-05-27T07:58:09Z</time>
      </trkpt>
      <trkpt lat="45.15177" lon="5.00194">
        <ele>365.438354</ele>
        <time>2019-05-27T07:58:18Z</time>
      </trkpt>
      <trkpt lat="45.15148" lon="5.00206">
        <ele>362.554321</ele>
        <time>2019-05-27T07:58:28Z</time>
      </trkpt>
      <trkpt lat="45.1511" lon="5.00216">
        <ele>360.151123</ele>
        <time>2019-05-27T07:58:42Z</time>
      </trkpt>
      <trkpt lat="45.1509" lon="5.00207">
        <ele>359.67041</ele>
        <time>2019-05-27T07:58:56Z</time>
      </trkpt>
      <trkpt lat="45.1507" lon="5.00186">
        <ele>359.67041</ele>
        <time>2019-05-27T07:59:14Z</time>
      </trkpt>
      <trkpt lat="45.15023" lon="5.0017">
        <ele>359.67041</ele>
        <time>2019-05-27T07:59:32Z</time>
      </trkpt>
      <trkpt lat="45.14965" lon="5.00178">
        <ele>358.228394</ele>
        <time>2019-05-27T07:59:47Z</time>
      </trkpt>
      <trkpt lat="45.14913" lon="5.00202">
        <ele>355.825195</ele>
        <time>2019-05-27T07:59:57Z</time>
      </trkpt>
      <trkpt lat="45.14888" lon="5.00238">
        <ele>352.941162</ele>
        <time>2019-05-27T08:00:04Z</time>
      </trkpt>
      <trkpt lat="45.14886" lon="5.00246">
        <ele>352.941162</ele>
        <time>2019-05-27T08:00:05Z</time>
      </trkpt>
      <trkpt lat="45.14881" lon="5.00267">
        <ele>350.537842</ele>
        <time>2019-05-27T08:00:08Z</time>
      </trkpt>
      <trkpt lat="45.14869" lon="5.00291">
        <ele>349.095825</ele>
        <time>2019-05-27T08:00:12Z</time>
      </trkpt>
      <trkpt lat="45.14824" lon="5.00338">
        <ele>345.25061</ele>
        <time>2019-05-27T08:00:21Z</time>
      </trkpt>
      <trkpt lat="45.14796" lon="5.00367">
        <ele>343.327881</ele>
        <time>2019-05-27T08:00:26Z</time>
      </trkpt>
      <trkpt lat="45.1479" lon="5.00375">
        <ele>342.366699</ele>
        <time>2019-05-27T08:00:28Z</time>
      </trkpt>
      <trkpt lat="45.14781" lon="5.00381">
        <ele>342.366699</ele>
        <time>2019-05-27T08:00:31Z</time>
      </trkpt>
      <trkpt lat="45.14733" lon="5.00421">
        <ele>342.366699</ele>
        <time>2019-05-27T08:00:46Z</time>
      </trkpt>
      <trkpt lat="45.14726" lon="5.00427">
        <ele>342.366699</ele>
        <time>2019-05-27T08:00:48Z</time>
      </trkpt>
      <trkpt lat="45.14647" lon="5.00498">
        <ele>342.84729</ele>
        <time>2019-05-27T08:01:09Z</time>
      </trkpt>
      <trkpt lat="45.14577" lon="5.00556">
        <ele>346.212036</ele>
        <time>2019-05-27T08:01:29Z</time>
      </trkpt>
      <trkpt lat="45.14547" lon="5.00579">
        <ele>349.095825</ele>
        <time>2019-05-27T08:01:43Z</time>
      </trkpt>
      <trkpt lat="45.14516" lon="5.00604">
        <ele>352.460571</ele>
        <time>2019-05-27T08:01:58Z</time>
      </trkpt>
      <trkpt lat="45.14488" lon="5.00612">
        <ele>352.941162</ele>
        <time>2019-05-27T08:02:12Z</time>
      </trkpt>
      <trkpt lat="45.14471" lon="5.00606">
        <ele>351.499146</ele>
        <time>2019-05-27T08:02:18Z</time>
      </trkpt>
      <trkpt lat="45.14445" lon="5.00598">
        <ele>348.615234</ele>
        <time>2019-05-27T08:02:24Z</time>
      </trkpt>
      <trkpt lat="45.14421" lon="5.00592">
        <ele>346.212036</ele>
        <time>2019-05-27T08:02:29Z</time>
      </trkpt>
      <trkpt lat="45.14399" lon="5.00581">
        <ele>345.25061</ele>
        <time>2019-05-27T08:02:33Z</time>
      </trkpt>
      <trkpt lat="45.14327" lon="5.00545">
        <ele>344.289429</ele>
        <time>2019-05-27T08:02:49Z</time>
      </trkpt>
      <trkpt lat="45.14294" lon="5.00513">
        <ele>341.405273</ele>
        <time>2019-05-27T08:02:58Z</time>
      </trkpt>
      <trkpt lat="45.14284" lon="5.00505">
        <ele>339.963379</ele>
        <time>2019-05-27T08:03:01Z</time>
      </trkpt>
      <trkpt lat="45.14276" lon="5.005">
        <ele>338.040771</ele>
        <time>2019-05-27T08:03:04Z</time>
      </trkpt>
      <trkpt lat="45.14274" lon="5.00492">
        <ele>337.079468</ele>
        <time>2019-05-27T08:03:08Z</time>
      </trkpt>
      <trkpt lat="45.14287" lon="5.00445">
        <ele>334.195435</ele>
        <time>2019-05-27T08:03:21Z</time>
      </trkpt>
      <trkpt lat="45.14292" lon="5.00418">
        <ele>331.792114</ele>
        <time>2019-05-27T08:03:27Z</time>
      </trkpt>
      <trkpt lat="45.14294" lon="5.00396">
        <ele>329.388916</ele>
        <time>2019-05-27T08:03:32Z</time>
      </trkpt>
      <trkpt lat="45.14296" lon="5.00372">
        <ele>326.02417</ele>
        <time>2019-05-27T08:03:38Z</time>
      </trkpt>
      <trkpt lat="45.14292" lon="5.00338">
        <ele>322.659668</ele>
        <time>2019-05-27T08:03:46Z</time>
      </trkpt>
      <trkpt lat="45.1428" lon="5.00314">
        <ele>319.775635</ele>
        <time>2019-05-27T08:03:53Z</time>
      </trkpt>
      <trkpt lat="45.14272" lon="5.00302">
        <ele>317.853027</ele>
        <time>2019-05-27T08:03:56Z</time>
      </trkpt>
      <trkpt lat="45.14266" lon="5.00294">
        <ele>316.891724</ele>
        <time>2019-05-27T08:03:58Z</time>
      </trkpt>
      <trkpt lat="45.14249" lon="5.0028">
        <ele>314.007812</ele>
        <time>2019-05-27T08:04:04Z</time>
      </trkpt>
      <trkpt lat="45.14226" lon="5.00261">
        <ele>310.643066</ele>
        <time>2019-05-27T08:04:13Z</time>
      </trkpt>
      <trkpt lat="45.14216" lon="5.00258">
        <ele>309.201172</ele>
        <time>2019-05-27T08:04:16Z</time>
      </trkpt>
      <trkpt lat="45.1421" lon="5.00272">
        <ele>308.239868</ele>
        <time>2019-05-27T08:04:21Z</time>
      </trkpt>
      <trkpt lat="45.14213" lon="5.00281">
        <ele>308.239868</ele>
        <time>2019-05-27T08:04:23Z</time>
      </trkpt>
      <trkpt lat="45.14224" lon="5.00345">
        <ele>306.317261</ele>
        <time>2019-05-27T08:04:34Z</time>
      </trkpt>
      <trkpt lat="45.14218" lon="5.00373">
        <ele>305.83667</ele>
        <time>2019-05-27T08:04:38Z</time>
      </trkpt>
      <trkpt lat="45.14204" lon="5.00399">
        <ele>304.875244</ele>
        <time>2019-05-27T08:04:43Z</time>
      </trkpt>
      <trkpt lat="45.14189" lon="5.00379">
        <ele>304.394653</ele>
        <time>2019-05-27T08:04:51Z</time>
      </trkpt>
      <trkpt lat="45.14187" lon="5.00378">
        <ele>304.394653</ele>
        <time>2019-05-27T08:04:52Z</time>
      </trkpt>
      <trkpt lat="45.14163" lon="5.00362">
        <ele>300.549316</ele>
        <time>2019-05-27T08:05:00Z</time>
      </trkpt>
      <trkpt lat="45.14148" lon="5.00354">
        <ele>297.665405</ele>
        <time>2019-05-27T08:05:07Z</time>
      </trkpt>
      <trkpt lat="45.14119" lon="5.00346">
        <ele>294.300781</ele>
        <time>2019-05-27T08:05:17Z</time>
      </trkpt>
      <trkpt lat="45.14114" lon="5.00346">
        <ele>293.820068</ele>
        <time>2019-05-27T08:05:18Z</time>
      </trkpt>
      <trkpt lat="45.1409" lon="5.00338">
        <ele>291.416748</ele>
        <time>2019-05-27T08:05:27Z</time>
      </trkpt>
      <trkpt lat="45.14077" lon="5.00324">
        <ele>288.052246</ele>
        <time>2019-05-27T08:05:39Z</time>
      </trkpt>
      <trkpt lat="45.14073" lon="5.00322">
        <ele>287.09082</ele>
        <time>2019-05-27T08:05:54Z</time>
      </trkpt>
      <trkpt lat="45.14064" lon="5.00317">
        <ele>284.687622</ele>
        <time>2019-05-27T08:06:11Z</time>
      </trkpt>
      <trkpt lat="45.14059" lon="5.00319">
        <ele>283.726196</ele>
        <time>2019-05-27T08:06:25Z</time>
      </trkpt>
      <trkpt lat="45.14052" lon="5.00326">
        <ele>282.765015</ele>
        <time>2019-05-27T08:06:34Z</time>
      </trkpt>
      <trkpt lat="45.14044" lon="5.00334">
        <ele>281.322998</ele>
        <time>2019-05-27T08:06:43Z</time>
      </trkpt>
      <trkpt lat="45.14024" lon="5.00345">
        <ele>278.919678</ele>
        <time>2019-05-27T08:06:58Z</time>
      </trkpt>
      <trkpt lat="45.14013" lon="5.00345">
        <ele>277.477661</ele>
        <time>2019-05-27T08:07:13Z</time>
      </trkpt>
      <trkpt lat="45.14003" lon="5.00353">
        <ele>276.99707</ele>
        <time>2019-05-27T08:07:21Z</time>
      </trkpt>
      <trkpt lat="45.13997" lon="5.00354">
        <ele>276.516357</ele>
        <time>2019-05-27T08:07:25Z</time>
      </trkpt>
      <trkpt lat="45.13971" lon="5.0037">
        <ele>273.151855</ele>
        <time>2019-05-27T08:07:42Z</time>
      </trkpt>
      <trkpt lat="45.13966" lon="5.00376">
        <ele>272.19043</ele>
        <time>2019-05-27T08:07:52Z</time>
      </trkpt>
      <trkpt lat="45.13958" lon="5.00391">
        <ele>272.19043</ele>
        <time>2019-05-27T08:08:37Z</time>
      </trkpt>
      <trkpt lat="45.13937" lon="5.00414">
        <ele>270.2677</ele>
        <time>2019-05-27T08:08:52Z</time>
      </trkpt>
      <trkpt lat="45.13923" lon="5.00418">
        <ele>268.345093</ele>
        <time>2019-05-27T08:09:04Z</time>
      </trkpt>
      <trkpt lat="45.13914" lon="5.00419">
        <ele>267.383911</ele>
        <time>2019-05-27T08:09:17Z</time>
      </trkpt>
      <trkpt lat="45.13905" lon="5.00423">
        <ele>265.461304</ele>
        <time>2019-05-27T08:09:32Z</time>
      </trkpt>
      <trkpt lat="45.13905" lon="5.00424">
        <ele>264.980591</ele>
        <time>2019-05-27T08:10:07Z</time>
      </trkpt>
      <trkpt lat="45.13895" lon="5.0042">
        <ele>264.019287</ele>
        <time>2019-05-27T08:10:13Z</time>
      </trkpt>
      <trkpt lat="45.13877" lon="5.00424">
        <ele>262.096558</ele>
        <time>2019-05-27T08:10:25Z</time>
      </trkpt>
      <trkpt lat="45.13853" lon="5.00418">
        <ele>261.615967</ele>
        <time>2019-05-27T08:10:36Z</time>
      </trkpt>
      <trkpt lat="45.13844" lon="5.00415">
        <ele>261.135254</ele>
        <time>2019-05-27T08:10:39Z</time>
      </trkpt>
      <trkpt lat="45.13826" lon="5.00414">
        <ele>260.17395</ele>
        <time>2019-05-27T08:10:48Z</time>
      </trkpt>
      <trkpt lat="45.13812" lon="5.00414">
        <ele>259.693359</ele>
        <time>2019-05-27T08:10:58Z</time>
      </trkpt>
      <trkpt lat="45.13797" lon="5.00414">
        <ele>258.731934</ele>
        <time>2019-05-27T08:11:17Z</time>
      </trkpt>
      <trkpt lat="45.13791" lon="5.00416">
        <ele>257.770752</ele>
        <time>2019-05-27T08:11:22Z</time>
      </trkpt>
      <trkpt lat="45.13763" lon="5.0043">
        <ele>256.328735</ele>
        <time>2019-05-27T08:11:35Z</time>
      </trkpt>
      <trkpt lat="45.13758" lon="5.00433">
        <ele>256.328735</ele>
        <time>2019-05-27T08:11:37Z</time>
      </trkpt>
      <trkpt lat="45.13734" lon="5.00471">
        <ele>253.925415</ele>
        <time>2019-05-27T08:11:52Z</time>
      </trkpt>
      <trkpt lat="45.1371" lon="5.00516">
        <ele>251.041382</ele>
        <time>2019-05-27T08:12:04Z</time>
      </trkpt>
      <trkpt lat="45.13703" lon="5.00522">
        <ele>250.0802</ele>
        <time>2019-05-27T08:12:08Z</time>
      </trkpt>
      <trkpt lat="45.13697" lon="5.00521">
        <ele>248.638184</ele>
        <time>2019-05-27T08:12:11Z</time>
      </trkpt>
      <trkpt lat="45.1369" lon="5.00526">
        <ele>247.676758</ele>
        <time>2019-05-27T08:12:15Z</time>
      </trkpt>
      <trkpt lat="45.13688" lon="5.00533">
        <ele>247.196045</ele>
        <time>2019-05-27T08:12:32Z</time>
      </trkpt>
      <trkpt lat="45.13685" lon="5.00541">
        <ele>245.273438</ele>
        <time>2019-05-27T08:12:45Z</time>
      </trkpt>
      <trkpt lat="45.13682" lon="5.00548">
        <ele>244.792847</ele>
        <time>2019-05-27T08:12:56Z</time>
      </trkpt>
      <trkpt lat="45.13683" lon="5.00559">
        <ele>245.75415</ele>
        <time>2019-05-27T08:13:00Z</time>
      </trkpt>
      <trkpt lat="45.13711" lon="5.00614">
        <ele>245.75415</ele>
        <time>2019-05-27T08:13:16Z</time>
      </trkpt>
      <trkpt lat="45.13697" lon="5.00633">
        <ele>243.35083</ele>
        <time>2019-05-27T08:13:21Z</time>
      </trkpt>
      <trkpt lat="45.13675" lon="5.00635">
        <ele>240.947632</ele>
        <time>2019-05-27T08:13:26Z</time>
      </trkpt>
      <trkpt lat="45.13654" lon="5.00636">
        <ele>239.505493</ele>
        <time>2019-05-27T08:13:38Z</time>
      </trkpt>
      <trkpt lat="45.13644" lon="5.00646">
        <ele>237.582886</ele>
        <time>2019-05-27T08:13:55Z</time>
      </trkpt>
      <trkpt lat="45.13642" lon="5.00655">
        <ele>237.102295</ele>
        <time>2019-05-27T08:14:08Z</time>
      </trkpt>
      <trkpt lat="45.13619" lon="5.00693">
        <ele>236.140991</ele>
        <time>2019-05-27T08:14:21Z</time>
      </trkpt>
      <trkpt lat="45.13609" lon="5.00713">
        <ele>235.179688</ele>
        <time>2019-05-27T08:14:25Z</time>
      </trkpt>
      <trkpt lat="45.13571" lon="5.00825">
        <ele>232.776489</ele>
        <time>2019-05-27T08:14:41Z</time>
      </trkpt>
      <trkpt lat="45.13556" lon="5.00875">
        <ele>232.295776</ele>
        <time>2019-05-27T08:14:49Z</time>
      </trkpt>
      <trkpt lat="45.13526" lon="5.00972">
        <ele>232.776489</ele>
        <time>2019-05-27T08:15:05Z</time>
      </trkpt>
      <trkpt lat="45.13488" lon="5.01087">
        <ele>233.25708</ele>
        <time>2019-05-27T08:15:24Z</time>
      </trkpt>
      <trkpt lat="45.1347" lon="5.01135">
        <ele>232.776489</ele>
        <time>2019-05-27T08:15:31Z</time>
      </trkpt>
      <trkpt lat="45.13435" lon="5.0115">
        <ele>233.25708</ele>
        <time>2019-05-27T08:15:40Z</time>
      </trkpt>
      <trkpt lat="45.1342" lon="5.01135">
        <ele>233.25708</ele>
        <time>2019-05-27T08:15:52Z</time>
      </trkpt>
      <trkpt lat="45.13421" lon="5.01139">
        <ele>233.25708</ele>
        <time>2019-05-27T08:16:05Z</time>
      </trkpt>
      <trkpt lat="45.13417" lon="5.01141">
        <ele>231.814941</ele>
        <time>2019-05-27T08:16:09Z</time>
      </trkpt>
      <trkpt lat="45.13414" lon="5.01142">
        <ele>230.85376</ele>
        <time>2019-05-27T08:16:11Z</time>
      </trkpt>
      <trkpt lat="45.13409" lon="5.0115">
        <ele>229.892334</ele>
        <time>2019-05-27T08:16:16Z</time>
      </trkpt>
      <trkpt lat="45.13408" lon="5.01155">
        <ele>229.892334</ele>
        <time>2019-05-27T08:16:25Z</time>
      </trkpt>
      <trkpt lat="45.13405" lon="5.01148">
        <ele>229.892334</ele>
        <time>2019-05-27T08:16:30Z</time>
      </trkpt>
      <trkpt lat="45.13393" lon="5.01128">
        <ele>229.411743</ele>
        <time>2019-05-27T08:16:38Z</time>
      </trkpt>
      <trkpt lat="45.13381" lon="5.01109">
        <ele>229.411743</ele>
        <time>2019-05-27T08:16:52Z</time>
      </trkpt>
      <trkpt lat="45.13379" lon="5.0111">
        <ele>229.411743</ele>
        <time>2019-05-27T08:17:37Z</time>
      </trkpt>
      <trkpt lat="45.13379" lon="5.01111">
        <ele>229.411743</ele>
        <time>2019-05-27T08:18:08Z</time>
      </trkpt>
      <trkpt lat="45.13369" lon="5.01111">
        <ele>229.411743</ele>
        <time>2019-05-27T08:18:22Z</time>
      </trkpt>
      <trkpt lat="45.13367" lon="5.01115">
        <ele>229.411743</ele>
        <time>2019-05-27T08:18:58Z</time>
      </trkpt>
      <trkpt lat="45.13359" lon="5.01109">
        <ele>229.892334</ele>
        <time>2019-05-27T08:19:13Z</time>
      </trkpt>
      <trkpt lat="45.13353" lon="5.01114">
        <ele>231.814941</ele>
        <time>2019-05-27T08:19:28Z</time>
      </trkpt>
      <trkpt lat="45.13345" lon="5.01127">
        <ele>229.892334</ele>
        <time>2019-05-27T08:19:53Z</time>
      </trkpt>
      <trkpt lat="45.13349" lon="5.01127">
        <ele>229.892334</ele>
        <time>2019-05-27T08:20:12Z</time>
      </trkpt>
      <trkpt lat="45.13345" lon="5.01121">
        <ele>229.892334</ele>
        <time>2019-05-27T08:20:26Z</time>
      </trkpt>
      <trkpt lat="45.13344" lon="5.0112">
        <ele>229.892334</ele>
        <time>2019-05-27T08:20:36Z</time>
      </trkpt>
      <trkpt lat="45.13327" lon="5.01098">
        <ele>228.931152</ele>
        <time>2019-05-27T08:20:50Z</time>
      </trkpt>
      <trkpt lat="45.13309" lon="5.01072">
        <ele>228.931152</ele>
        <time>2019-05-27T08:21:07Z</time>
      </trkpt>
      <trkpt lat="45.13303" lon="5.01067">
        <ele>228.931152</ele>
        <time>2019-05-27T08:21:11Z</time>
      </trkpt>
      <trkpt lat="45.13291" lon="5.01052">
        <ele>228.450439</ele>
        <time>2019-05-27T08:21:22Z</time>
      </trkpt>
      <trkpt lat="45.13287" lon="5.0105">
        <ele>228.450439</ele>
        <time>2019-05-27T08:21:25Z</time>
      </trkpt>
      <trkpt lat="45.13283" lon="5.01052">
        <ele>228.450439</ele>
        <time>2019-05-27T08:21:28Z</time>
      </trkpt>
      <trkpt lat="45.13282" lon="5.01052">
        <ele>228.450439</ele>
        <time>2019-05-27T08:21:38Z</time>
      </trkpt>
      <trkpt lat="45.13275" lon="5.01053">
        <ele>229.411743</ele>
        <time>2019-05-27T08:21:46Z</time>
      </trkpt>
      <trkpt lat="45.13268" lon="5.01057">
        <ele>229.411743</ele>
        <time>2019-05-27T08:21:51Z</time>
      </trkpt>
      <trkpt lat="45.13265" lon="5.01063">
        <ele>229.411743</ele>
        <time>2019-05-27T08:21:55Z</time>
      </trkpt>
      <trkpt lat="45.13254" lon="5.01083">
        <ele>230.373047</ele>
        <time>2019-05-27T08:22:07Z</time>
      </trkpt>
      <trkpt lat="45.13251" lon="5.01087">
        <ele>229.892334</ele>
        <time>2019-05-27T08:22:11Z</time>
      </trkpt>
      <trkpt lat="45.13243" lon="5.01102">
        <ele>229.892334</ele>
        <time>2019-05-27T08:22:22Z</time>
      </trkpt>
      <trkpt lat="45.13232" lon="5.01142">
        <ele>229.892334</ele>
        <time>2019-05-27T08:22:41Z</time>
      </trkpt>
      <trkpt lat="45.13231" lon="5.01147">
        <ele>229.892334</ele>
        <time>2019-05-27T08:22:43Z</time>
      </trkpt>
      <trkpt lat="45.13223" lon="5.01188">
        <ele>230.373047</ele>
        <time>2019-05-27T08:23:01Z</time>
      </trkpt>
      <trkpt lat="45.13224" lon="5.01198">
        <ele>229.892334</ele>
        <time>2019-05-27T08:23:06Z</time>
      </trkpt>
      <trkpt lat="45.13265" lon="5.01249">
        <ele>230.373047</ele>
        <time>2019-05-27T08:23:33Z</time>
      </trkpt>
      <trkpt lat="45.13313" lon="5.01304">
        <ele>231.334351</ele>
        <time>2019-05-27T08:24:02Z</time>
      </trkpt>
      <trkpt lat="45.13357" lon="5.01357">
        <ele>231.814941</ele>
        <time>2019-05-27T08:24:28Z</time>
      </trkpt>
      <trkpt lat="45.13372" lon="5.01378">
        <ele>231.814941</ele>
        <time>2019-05-27T08:24:38Z</time>
      </trkpt>
      <trkpt lat="45.13377" lon="5.01382">
        <ele>231.814941</ele>
        <time>2019-05-27T08:24:41Z</time>
      </trkpt>
      <trkpt lat="45.1338" lon="5.01387">
        <ele>231.334351</ele>
        <time>2019-05-27T08:24:45Z</time>
      </trkpt>
      <trkpt lat="45.13384" lon="5.0139">
        <ele>231.814941</ele>
        <time>2019-05-27T08:24:49Z</time>
      </trkpt>
      <trkpt lat="45.13397" lon="5.01356">
        <ele>232.776489</ele>
        <time>2019-05-27T08:25:04Z</time>
      </trkpt>
      <trkpt lat="45.13428" lon="5.01266">
        <ele>231.334351</ele>
        <time>2019-05-27T08:25:21Z</time>
      </trkpt>
      <trkpt lat="45.13442" lon="5.01242">
        <ele>231.334351</ele>
        <time>2019-05-27T08:25:29Z</time>
      </trkpt>
      <trkpt lat="45.13442" lon="5.01237">
        <ele>231.334351</ele>
        <time>2019-05-27T08:25:37Z</time>
      </trkpt>
      <trkpt lat="45.1344" lon="5.01239">
        <ele>231.334351</ele>
        <time>2019-05-27T08:25:55Z</time>
      </trkpt>
      <trkpt lat="45.13435" lon="5.0125">
        <ele>231.814941</ele>
        <time>2019-05-27T08:26:00Z</time>
      </trkpt>
      <trkpt lat="45.13417" lon="5.01299">
        <ele>232.295776</ele>
        <time>2019-05-27T08:26:14Z</time>
      </trkpt>
      <trkpt lat="45.13396" lon="5.01361">
        <ele>232.295776</ele>
        <time>2019-05-27T08:26:30Z</time>
      </trkpt>
      <trkpt lat="45.1337" lon="5.01435">
        <ele>231.334351</ele>
        <time>2019-05-27T08:26:48Z</time>
      </trkpt>
      <trkpt lat="45.13344" lon="5.01514">
        <ele>232.776489</ele>
        <time>2019-05-27T08:27:08Z</time>
      </trkpt>
      <trkpt lat="45.13317" lon="5.0157">
        <ele>235.179688</ele>
        <time>2019-05-27T08:27:27Z</time>
      </trkpt>
      <trkpt lat="45.13268" lon="5.01529">
        <ele>234.699097</ele>
        <time>2019-05-27T08:27:42Z</time>
      </trkpt>
      <trkpt lat="45.132" lon="5.01479">
        <ele>235.179688</ele>
        <time>2019-05-27T08:28:02Z</time>
      </trkpt>
      <trkpt lat="45.13176" lon="5.01479">
        <ele>234.699097</ele>
        <time>2019-05-27T08:28:08Z</time>
      </trkpt>
      <trkpt lat="45.13106" lon="5.01505">
        <ele>234.218384</ele>
        <time>2019-05-27T08:28:26Z</time>
      </trkpt>
      <trkpt lat="45.13062" lon="5.01519">
        <ele>235.660278</ele>
        <time>2019-05-27T08:28:42Z</time>
      </trkpt>
      <trkpt lat="45.13046" lon="5.01523">
        <ele>238.544312</ele>
        <time>2019-05-27T08:28:54Z</time>
      </trkpt>
      <trkpt lat="45.13041" lon="5.01519">
        <ele>239.024902</ele>
        <time>2019-05-27T08:28:58Z</time>
      </trkpt>
      <trkpt lat="45.13037" lon="5.01516">
        <ele>238.063599</ele>
        <time>2019-05-27T08:29:02Z</time>
      </trkpt>
      <trkpt lat="45.13015" lon="5.01475">
        <ele>240.947632</ele>
        <time>2019-05-27T08:29:25Z</time>
      </trkpt>
      <trkpt lat="45.12989" lon="5.01444">
        <ele>243.35083</ele>
        <time>2019-05-27T08:29:41Z</time>
      </trkpt>
      <trkpt lat="45.12971" lon="5.01431">
        <ele>245.273438</ele>
        <time>2019-05-27T08:29:51Z</time>
      </trkpt>
      <trkpt lat="45.12942" lon="5.01412">
        <ele>248.638184</ele>
        <time>2019-05-27T08:30:08Z</time>
      </trkpt>
      <trkpt lat="45.12933" lon="5.01409">
        <ele>249.599487</ele>
        <time>2019-05-27T08:30:13Z</time>
      </trkpt>
      <trkpt lat="45.12924" lon="5.01421">
        <ele>251.041382</ele>
        <time>2019-05-27T08:30:21Z</time>
      </trkpt>
      <trkpt lat="45.12917" lon="5.01454">
        <ele>254.406006</ele>
        <time>2019-05-27T08:30:36Z</time>
      </trkpt>
      <trkpt lat="45.12916" lon="5.01464">
        <ele>254.886597</ele>
        <time>2019-05-27T08:30:40Z</time>
      </trkpt>
      <trkpt lat="45.1288" lon="5.01516">
        <ele>254.886597</ele>
        <time>2019-05-27T08:31:04Z</time>
      </trkpt>
      <trkpt lat="45.12848" lon="5.01529">
        <ele>254.886597</ele>
        <time>2019-05-27T08:31:21Z</time>
      </trkpt>
      <trkpt lat="45.12811" lon="5.01548">
        <ele>254.886597</ele>
        <time>2019-05-27T08:31:41Z</time>
      </trkpt>
      <trkpt lat="45.12781" lon="5.01566">
        <ele>254.406006</ele>
        <time>2019-05-27T08:31:56Z</time>
      </trkpt>
      <trkpt lat="45.12728" lon="5.0161">
        <ele>255.36731</ele>
        <time>2019-05-27T08:32:19Z</time>
      </trkpt>
      <trkpt lat="45.12691" lon="5.01647">
        <ele>255.848022</ele>
        <time>2019-05-27T08:32:35Z</time>
      </trkpt>
      <trkpt lat="45.12652" lon="5.01682">
        <ele>257.290039</ele>
        <time>2019-05-27T08:32:53Z</time>
      </trkpt>
      <trkpt lat="45.12609" lon="5.01723">
        <ele>259.212646</ele>
        <time>2019-05-27T08:33:15Z</time>
      </trkpt>
      <trkpt lat="45.12576" lon="5.01756">
        <ele>261.615967</ele>
        <time>2019-05-27T08:33:33Z</time>
      </trkpt>
      <trkpt lat="45.12528" lon="5.01773">
        <ele>264.499878</ele>
        <time>2019-05-27T08:33:54Z</time>
      </trkpt>
      <trkpt lat="45.12521" lon="5.01794">
        <ele>265.941895</ele>
        <time>2019-05-27T08:34:03Z</time>
      </trkpt>
      <trkpt lat="45.12509" lon="5.01804">
        <ele>264.980591</ele>
        <time>2019-05-27T08:34:10Z</time>
      </trkpt>
      <trkpt lat="45.12468" lon="5.01803">
        <ele>268.345093</ele>
        <time>2019-05-27T08:34:31Z</time>
      </trkpt>
      <trkpt lat="45.12445" lon="5.01804">
        <ele>270.2677</ele>
        <time>2019-05-27T08:34:48Z</time>
      </trkpt>
      <trkpt lat="45.12441" lon="5.01805">
        <ele>270.748413</ele>
        <time>2019-05-27T08:35:01Z</time>
      </trkpt>
      <trkpt lat="45.12441" lon="5.01805">
        <ele>270.2677</ele>
        <time>2019-05-27T08:37:05Z</time>
      </trkpt>
      <trkpt lat="45.12432" lon="5.01805">
        <ele>271.229126</ele>
        <time>2019-05-27T08:38:42Z</time>
      </trkpt>
      <trkpt lat="45.1242" lon="5.01806">
        <ele>272.671143</ele>
        <time>2019-05-27T08:38:59Z</time>
      </trkpt>
      <trkpt lat="45.12419" lon="5.01806">
        <ele>269.787109</ele>
        <time>2019-05-27T08:54:30Z</time>
      </trkpt>
      <trkpt lat="45.12419" lon="5.01808">
        <ele>268.825806</ele>
        <time>2019-05-27T09:09:17Z</time>
      </trkpt>
      <trkpt lat="45.12419" lon="5.01805">
        <ele>268.825806</ele>
        <time>2019-05-27T09:13:30Z</time>
      </trkpt>
      <trkpt lat="45.12419" lon="5.01805">
        <ele>269.306519</ele>
        <time>2019-05-27T09:19:36Z</time>
      </trkpt>
      <trkpt lat="45.124" lon="5.01806">
        <ele>272.19043</ele>
        <time>2019-05-27T09:22:24Z</time>
      </trkpt>
      <trkpt lat="45.12381" lon="5.01811">
        <ele>274.113037</ele>
        <time>2019-05-27T09:22:45Z</time>
      </trkpt>
      <trkpt lat="45.12381" lon="5.01811">
        <ele>274.59375</ele>
        <time>2019-05-27T09:23:22Z</time>
      </trkpt>
      <trkpt lat="45.12391" lon="5.0181">
        <ele>273.632446</ele>
        <time>2019-05-27T09:23:28Z</time>
      </trkpt>
      <trkpt lat="45.12435" lon="5.01805">
        <ele>269.787109</ele>
        <time>2019-05-27T09:23:41Z</time>
      </trkpt>
      <trkpt lat="45.12476" lon="5.01801">
        <ele>266.903198</ele>
        <time>2019-05-27T09:23:52Z</time>
      </trkpt>
      <trkpt lat="45.12491" lon="5.01802">
        <ele>265.941895</ele>
        <time>2019-05-27T09:23:56Z</time>
      </trkpt>
      <trkpt lat="45.12523" lon="5.01803">
        <ele>263.538574</ele>
        <time>2019-05-27T09:24:06Z</time>
      </trkpt>
      <trkpt lat="45.12546" lon="5.01839">
        <ele>264.019287</ele>
        <time>2019-05-27T09:24:15Z</time>
      </trkpt>
      <trkpt lat="45.12554" lon="5.01861">
        <ele>262.096558</ele>
        <time>2019-05-27T09:24:20Z</time>
      </trkpt>
      <trkpt lat="45.12538" lon="5.01886">
        <ele>263.538574</ele>
        <time>2019-05-27T09:24:30Z</time>
      </trkpt>
      <trkpt lat="45.12517" lon="5.01922">
        <ele>266.422485</ele>
        <time>2019-05-27T09:24:47Z</time>
      </trkpt>
      <trkpt lat="45.12501" lon="5.0195">
        <ele>267.864502</ele>
        <time>2019-05-27T09:25:01Z</time>
      </trkpt>
      <trkpt lat="45.12478" lon="5.01987">
        <ele>270.748413</ele>
        <time>2019-05-27T09:25:21Z</time>
      </trkpt>
      <trkpt lat="45.12459" lon="5.02015">
        <ele>272.671143</ele>
        <time>2019-05-27T09:25:39Z</time>
      </trkpt>
      <trkpt lat="45.12455" lon="5.02019">
        <ele>273.151855</ele>
        <time>2019-05-27T09:25:43Z</time>
      </trkpt>
      <trkpt lat="45.12438" lon="5.0204">
        <ele>275.555054</ele>
        <time>2019-05-27T09:26:00Z</time>
      </trkpt>
      <trkpt lat="45.12437" lon="5.0204">
        <ele>275.555054</ele>
        <time>2019-05-27T09:26:01Z</time>
      </trkpt>
      <trkpt lat="45.12434" lon="5.02042">
        <ele>276.516357</ele>
        <time>2019-05-27T09:26:04Z</time>
      </trkpt>
      <trkpt lat="45.12434" lon="5.02048">
        <ele>276.99707</ele>
        <time>2019-05-27T09:26:07Z</time>
      </trkpt>
      <trkpt lat="45.12434" lon="5.02054">
        <ele>277.477661</ele>
        <time>2019-05-27T09:26:10Z</time>
      </trkpt>
      <trkpt lat="45.1245" lon="5.02086">
        <ele>278.438965</ele>
        <time>2019-05-27T09:26:26Z</time>
      </trkpt>
      <trkpt lat="45.12454" lon="5.02131">
        <ele>279.400269</ele>
        <time>2019-05-27T09:26:40Z</time>
      </trkpt>
      <trkpt lat="45.12451" lon="5.02139">
        <ele>279.400269</ele>
        <time>2019-05-27T09:26:43Z</time>
      </trkpt>
      <trkpt lat="45.12446" lon="5.02147">
        <ele>279.880859</ele>
        <time>2019-05-27T09:26:47Z</time>
      </trkpt>
      <trkpt lat="45.1244" lon="5.0217">
        <ele>281.322998</ele>
        <time>2019-05-27T09:26:58Z</time>
      </trkpt>
      <trkpt lat="45.12439" lon="5.02177">
        <ele>282.284302</ele>
        <time>2019-05-27T09:27:01Z</time>
      </trkpt>
      <trkpt lat="45.12438" lon="5.02187">
        <ele>283.245605</ele>
        <time>2019-05-27T09:27:06Z</time>
      </trkpt>
      <trkpt lat="45.1244" lon="5.02194">
        <ele>283.726196</ele>
        <time>2019-05-27T09:27:10Z</time>
      </trkpt>
      <trkpt lat="45.12437" lon="5.02205">
        <ele>284.687622</ele>
        <time>2019-05-27T09:27:15Z</time>
      </trkpt>
      <trkpt lat="45.12437" lon="5.02211">
        <ele>285.168213</ele>
        <time>2019-05-27T09:27:18Z</time>
      </trkpt>
      <trkpt lat="45.12433" lon="5.02238">
        <ele>288.052246</ele>
        <time>2019-05-27T09:27:34Z</time>
      </trkpt>
      <trkpt lat="45.12433" lon="5.02243">
        <ele>289.494141</ele>
        <time>2019-05-27T09:27:37Z</time>
      </trkpt>
      <trkpt lat="45.12432" lon="5.02273">
        <ele>292.378174</ele>
        <time>2019-05-27T09:27:57Z</time>
      </trkpt>
      <trkpt lat="45.1243" lon="5.02293">
        <ele>295.261963</ele>
        <time>2019-05-27T09:28:09Z</time>
      </trkpt>
      <trkpt lat="45.12428" lon="5.023">
        <ele>296.223511</ele>
        <time>2019-05-27T09:28:13Z</time>
      </trkpt>
      <trkpt lat="45.12429" lon="5.02303">
        <ele>296.223511</ele>
        <time>2019-05-27T09:28:15Z</time>
      </trkpt>
      <trkpt lat="45.12413" lon="5.02341">
        <ele>298.146118</ele>
        <time>2019-05-27T09:28:36Z</time>
      </trkpt>
      <trkpt lat="45.12393" lon="5.02367">
        <ele>300.068726</ele>
        <time>2019-05-27T09:28:56Z</time>
      </trkpt>
      <trkpt lat="45.12388" lon="5.02373">
        <ele>300.068726</ele>
        <time>2019-05-27T09:29:07Z</time>
      </trkpt>
      <trkpt lat="45.12381" lon="5.02379">
        <ele>301.029907</ele>
        <time>2019-05-27T09:29:15Z</time>
      </trkpt>
      <trkpt lat="45.12369" lon="5.02392">
        <ele>301.991333</ele>
        <time>2019-05-27T09:29:29Z</time>
      </trkpt>
      <trkpt lat="45.12366" lon="5.02397">
        <ele>301.991333</ele>
        <time>2019-05-27T09:29:32Z</time>
      </trkpt>
      <trkpt lat="45.12348" lon="5.02413">
        <ele>301.991333</ele>
        <time>2019-05-27T09:29:46Z</time>
      </trkpt>
      <trkpt lat="45.1232" lon="5.02448">
        <ele>303.91394</ele>
        <time>2019-05-27T09:30:01Z</time>
      </trkpt>
      <trkpt lat="45.12282" lon="5.02497">
        <ele>306.317261</ele>
        <time>2019-05-27T09:30:22Z</time>
      </trkpt>
      <trkpt lat="45.1226" lon="5.02517">
        <ele>308.239868</ele>
        <time>2019-05-27T09:30:34Z</time>
      </trkpt>
      <trkpt lat="45.12257" lon="5.02521">
        <ele>308.720459</ele>
        <time>2019-05-27T09:30:36Z</time>
      </trkpt>
      <trkpt lat="45.12224" lon="5.02533">
        <ele>311.123779</ele>
        <time>2019-05-27T09:30:53Z</time>
      </trkpt>
      <trkpt lat="45.12194" lon="5.02545">
        <ele>313.527222</ele>
        <time>2019-05-27T09:31:09Z</time>
      </trkpt>
      <trkpt lat="45.12168" lon="5.02555">
        <ele>315.93042</ele>
        <time>2019-05-27T09:31:23Z</time>
      </trkpt>
      <trkpt lat="45.12136" lon="5.02557">
        <ele>316.891724</ele>
        <time>2019-05-27T09:31:41Z</time>
      </trkpt>
      <trkpt lat="45.12132" lon="5.02557">
        <ele>316.891724</ele>
        <time>2019-05-27T09:31:44Z</time>
      </trkpt>
      <trkpt lat="45.1213" lon="5.02552">
        <ele>316.891724</ele>
        <time>2019-05-27T09:31:50Z</time>
      </trkpt>
      <trkpt lat="45.12132" lon="5.02553">
        <ele>317.372437</ele>
        <time>2019-05-27T09:31:52Z</time>
      </trkpt>
      <trkpt lat="45.12131" lon="5.02558">
        <ele>317.372437</ele>
        <time>2019-05-27T09:31:56Z</time>
      </trkpt>
      <trkpt lat="45.12133" lon="5.0256">
        <ele>317.853027</ele>
        <time>2019-05-27T09:31:58Z</time>
      </trkpt>
      <trkpt lat="45.12138" lon="5.0256">
        <ele>317.372437</ele>
        <time>2019-05-27T09:32:03Z</time>
      </trkpt>
      <trkpt lat="45.12122" lon="5.02555">
        <ele>316.891724</ele>
        <time>2019-05-27T09:32:15Z</time>
      </trkpt>
      <trkpt lat="45.12104" lon="5.02559">
        <ele>316.411011</ele>
        <time>2019-05-27T09:32:26Z</time>
      </trkpt>
      <trkpt lat="45.12099" lon="5.02565">
        <ele>316.411011</ele>
        <time>2019-05-27T09:32:34Z</time>
      </trkpt>
      <trkpt lat="45.12094" lon="5.02562">
        <ele>315.93042</ele>
        <time>2019-05-27T09:32:47Z</time>
      </trkpt>
      <trkpt lat="45.12064" lon="5.02569">
        <ele>313.527222</ele>
        <time>2019-05-27T09:32:59Z</time>
      </trkpt>
      <trkpt lat="45.12049" lon="5.0257">
        <ele>312.565796</ele>
        <time>2019-05-27T09:33:03Z</time>
      </trkpt>
      <trkpt lat="45.12034" lon="5.02573">
        <ele>311.604492</ele>
        <time>2019-05-27T09:33:07Z</time>
      </trkpt>
      <trkpt lat="45.11986" lon="5.02578">
        <ele>310.643066</ele>
        <time>2019-05-27T09:33:19Z</time>
      </trkpt>
      <trkpt lat="45.11956" lon="5.02586">
        <ele>306.797852</ele>
        <time>2019-05-27T09:33:28Z</time>
      </trkpt>
      <trkpt lat="45.11925" lon="5.02607">
        <ele>303.433228</ele>
        <time>2019-05-27T09:33:37Z</time>
      </trkpt>
      <trkpt lat="45.11907" lon="5.02615">
        <ele>301.51062</ele>
        <time>2019-05-27T09:33:42Z</time>
      </trkpt>
      <trkpt lat="45.11871" lon="5.02642">
        <ele>300.549316</ele>
        <time>2019-05-27T09:33:51Z</time>
      </trkpt>
      <trkpt lat="45.11834" lon="5.02669">
        <ele>301.029907</ele>
        <time>2019-05-27T09:34:00Z</time>
      </trkpt>
      <trkpt lat="45.11806" lon="5.02703">
        <ele>298.146118</ele>
        <time>2019-05-27T09:34:14Z</time>
      </trkpt>
      <trkpt lat="45.11796" lon="5.02721">
        <ele>294.781372</ele>
        <time>2019-05-27T09:34:19Z</time>
      </trkpt>
      <trkpt lat="45.11778" lon="5.02734">
        <ele>291.897461</ele>
        <time>2019-05-27T09:34:26Z</time>
      </trkpt>
      <trkpt lat="45.11762" lon="5.02745">
        <ele>288.532959</ele>
        <time>2019-05-27T09:34:31Z</time>
      </trkpt>
      <trkpt lat="45.11741" lon="5.02761">
        <ele>285.648804</ele>
        <time>2019-05-27T09:34:37Z</time>
      </trkpt>
      <trkpt lat="45.11725" lon="5.02778">
        <ele>283.726196</ele>
        <time>2019-05-27T09:34:41Z</time>
      </trkpt>
      <trkpt lat="45.11703" lon="5.02806">
        <ele>280.361694</ele>
        <time>2019-05-27T09:34:50Z</time>
      </trkpt>
      <trkpt lat="45.117" lon="5.02816">
        <ele>279.880859</ele>
        <time>2019-05-27T09:34:53Z</time>
      </trkpt>
      <trkpt lat="45.11698" lon="5.02823">
        <ele>279.400269</ele>
        <time>2019-05-27T09:35:11Z</time>
      </trkpt>
      <trkpt lat="45.11698" lon="5.02823">
        <ele>278.919678</ele>
        <time>2019-05-27T09:35:26Z</time>
      </trkpt>
      <trkpt lat="45.11698" lon="5.02845">
        <ele>276.99707</ele>
        <time>2019-05-27T09:35:34Z</time>
      </trkpt>
      <trkpt lat="45.11692" lon="5.02874">
        <ele>274.59375</ele>
        <time>2019-05-27T09:35:40Z</time>
      </trkpt>
      <trkpt lat="45.11682" lon="5.02921">
        <ele>271.229126</ele>
        <time>2019-05-27T09:35:48Z</time>
      </trkpt>
      <trkpt lat="45.1168" lon="5.02929">
        <ele>270.2677</ele>
        <time>2019-05-27T09:35:50Z</time>
      </trkpt>
      <trkpt lat="45.11669" lon="5.02926">
        <ele>268.825806</ele>
        <time>2019-05-27T09:35:55Z</time>
      </trkpt>
      <trkpt lat="45.11641" lon="5.02845">
        <ele>267.383911</ele>
        <time>2019-05-27T09:36:08Z</time>
      </trkpt>
      <trkpt lat="45.11638" lon="5.02838">
        <ele>267.383911</ele>
        <time>2019-05-27T09:36:09Z</time>
      </trkpt>
      <trkpt lat="45.11617" lon="5.02833">
        <ele>264.980591</ele>
        <time>2019-05-27T09:36:15Z</time>
      </trkpt>
      <trkpt lat="45.11612" lon="5.02843">
        <ele>264.980591</ele>
        <time>2019-05-27T09:36:17Z</time>
      </trkpt>
      <trkpt lat="45.11603" lon="5.02864">
        <ele>264.019287</ele>
        <time>2019-05-27T09:36:21Z</time>
      </trkpt>
      <trkpt lat="45.11582" lon="5.02922">
        <ele>261.615967</ele>
        <time>2019-05-27T09:36:32Z</time>
      </trkpt>
      <trkpt lat="45.11575" lon="5.02937">
        <ele>260.654541</ele>
        <time>2019-05-27T09:36:35Z</time>
      </trkpt>
      <trkpt lat="45.11563" lon="5.02954">
        <ele>259.212646</ele>
        <time>2019-05-27T09:36:39Z</time>
      </trkpt>
      <trkpt lat="45.11556" lon="5.02962">
        <ele>258.251343</ele>
        <time>2019-05-27T09:36:41Z</time>
      </trkpt>
      <trkpt lat="45.11544" lon="5.02971">
        <ele>257.290039</ele>
        <time>2019-05-27T09:36:44Z</time>
      </trkpt>
      <trkpt lat="45.11512" lon="5.02997">
        <ele>257.290039</ele>
        <time>2019-05-27T09:36:54Z</time>
      </trkpt>
      <trkpt lat="45.11492" lon="5.02994">
        <ele>260.17395</ele>
        <time>2019-05-27T09:37:06Z</time>
      </trkpt>
      <trkpt lat="45.11457" lon="5.02987">
        <ele>262.577148</ele>
        <time>2019-05-27T09:37:26Z</time>
      </trkpt>
      <trkpt lat="45.11393" lon="5.02989">
        <ele>264.499878</ele>
        <time>2019-05-27T09:37:52Z</time>
      </trkpt>
      <trkpt lat="45.1133" lon="5.02993">
        <ele>265.941895</ele>
        <time>2019-05-27T09:38:14Z</time>
      </trkpt>
      <trkpt lat="45.11298" lon="5.02994">
        <ele>266.903198</ele>
        <time>2019-05-27T09:38:24Z</time>
      </trkpt>
      <trkpt lat="45.11273" lon="5.03012">
        <ele>267.864502</ele>
        <time>2019-05-27T09:38:36Z</time>
      </trkpt>
      <trkpt lat="45.11258" lon="5.03021">
        <ele>269.787109</ele>
        <time>2019-05-27T09:38:43Z</time>
      </trkpt>
      <trkpt lat="45.11214" lon="5.03051">
        <ele>272.671143</ele>
        <time>2019-05-27T09:39:01Z</time>
      </trkpt>
      <trkpt lat="45.11207" lon="5.03058">
        <ele>273.632446</ele>
        <time>2019-05-27T09:39:06Z</time>
      </trkpt>
      <trkpt lat="45.11203" lon="5.03063">
        <ele>273.632446</ele>
        <time>2019-05-27T09:39:09Z</time>
      </trkpt>
      <trkpt lat="45.11201" lon="5.03067">
        <ele>274.113037</ele>
        <time>2019-05-27T09:39:11Z</time>
      </trkpt>
      <trkpt lat="45.11197" lon="5.03069">
        <ele>274.59375</ele>
        <time>2019-05-27T09:39:13Z</time>
      </trkpt>
      <trkpt lat="45.11164" lon="5.03101">
        <ele>277.477661</ele>
        <time>2019-05-27T09:39:33Z</time>
      </trkpt>
      <trkpt lat="45.11135" lon="5.03125">
        <ele>280.842407</ele>
        <time>2019-05-27T09:39:51Z</time>
      </trkpt>
      <trkpt lat="45.11112" lon="5.03151">
        <ele>283.245605</ele>
        <time>2019-05-27T09:40:06Z</time>
      </trkpt>
      <trkpt lat="45.11108" lon="5.03144">
        <ele>284.687622</ele>
        <time>2019-05-27T09:40:15Z</time>
      </trkpt>
      <trkpt lat="45.11109" lon="5.03134">
        <ele>284.206909</ele>
        <time>2019-05-27T09:40:34Z</time>
      </trkpt>
      <trkpt lat="45.11114" lon="5.03117">
        <ele>283.245605</ele>
        <time>2019-05-27T09:40:45Z</time>
      </trkpt>
      <trkpt lat="45.11125" lon="5.03083">
        <ele>282.284302</ele>
        <time>2019-05-27T09:40:56Z</time>
      </trkpt>
      <trkpt lat="45.11135" lon="5.03043">
        <ele>281.803589</ele>
        <time>2019-05-27T09:41:02Z</time>
      </trkpt>
      <trkpt lat="45.11146" lon="5.02982">
        <ele>280.842407</ele>
        <time>2019-05-27T09:41:11Z</time>
      </trkpt>
      <trkpt lat="45.11147" lon="5.02955">
        <ele>280.361694</ele>
        <time>2019-05-27T09:41:15Z</time>
      </trkpt>
      <trkpt lat="45.1113" lon="5.02897">
        <ele>281.322998</ele>
        <time>2019-05-27T09:41:27Z</time>
      </trkpt>
      <trkpt lat="45.11114" lon="5.0286">
        <ele>281.322998</ele>
        <time>2019-05-27T09:41:35Z</time>
      </trkpt>
      <trkpt lat="45.1108" lon="5.02758">
        <ele>281.322998</ele>
        <time>2019-05-27T09:41:50Z</time>
      </trkpt>
      <trkpt lat="45.11068" lon="5.02711">
        <ele>284.687622</ele>
        <time>2019-05-27T09:42:00Z</time>
      </trkpt>
      <trkpt lat="45.11061" lon="5.02688">
        <ele>285.168213</ele>
        <time>2019-05-27T09:42:09Z</time>
      </trkpt>
      <trkpt lat="45.11058" lon="5.02658">
        <ele>282.765015</ele>
        <time>2019-05-27T09:42:22Z</time>
      </trkpt>
      <trkpt lat="45.11061" lon="5.02647">
        <ele>282.284302</ele>
        <time>2019-05-27T09:42:24Z</time>
      </trkpt>
      <trkpt lat="45.11065" lon="5.02633">
        <ele>281.322998</ele>
        <time>2019-05-27T09:42:26Z</time>
      </trkpt>
      <trkpt lat="45.11081" lon="5.02604">
        <ele>277.477661</ele>
        <time>2019-05-27T09:42:30Z</time>
      </trkpt>
      <trkpt lat="45.11084" lon="5.0257">
        <ele>274.113037</ele>
        <time>2019-05-27T09:42:34Z</time>
      </trkpt>
      <trkpt lat="45.11077" lon="5.02537">
        <ele>270.748413</ele>
        <time>2019-05-27T09:42:38Z</time>
      </trkpt>
      <trkpt lat="45.11069" lon="5.02529">
        <ele>268.825806</ele>
        <time>2019-05-27T09:42:42Z</time>
      </trkpt>
      <trkpt lat="45.11027" lon="5.02538">
        <ele>269.787109</ele>
        <time>2019-05-27T09:42:58Z</time>
      </trkpt>
      <trkpt lat="45.1096" lon="5.02544">
        <ele>272.19043</ele>
        <time>2019-05-27T09:43:22Z</time>
      </trkpt>
      <trkpt lat="45.10894" lon="5.02542">
        <ele>275.074463</ele>
        <time>2019-05-27T09:43:46Z</time>
      </trkpt>
      <trkpt lat="45.10841" lon="5.02535">
        <ele>277.958252</ele>
        <time>2019-05-27T09:44:08Z</time>
      </trkpt>
      <trkpt lat="45.10785" lon="5.02543">
        <ele>279.880859</ele>
        <time>2019-05-27T09:44:31Z</time>
      </trkpt>
      <trkpt lat="45.10733" lon="5.0256">
        <ele>282.765015</ele>
        <time>2019-05-27T09:44:53Z</time>
      </trkpt>
      <trkpt lat="45.10707" lon="5.02635">
        <ele>286.129517</ele>
        <time>2019-05-27T09:45:16Z</time>
      </trkpt>
      <trkpt lat="45.10685" lon="5.02702">
        <ele>289.01355</ele>
        <time>2019-05-27T09:45:36Z</time>
      </trkpt>
      <trkpt lat="45.10654" lon="5.02737">
        <ele>290.936157</ele>
        <time>2019-05-27T09:45:52Z</time>
      </trkpt>
      <trkpt lat="45.10611" lon="5.02761">
        <ele>294.300781</ele>
        <time>2019-05-27T09:46:09Z</time>
      </trkpt>
      <trkpt lat="45.10571" lon="5.02781">
        <ele>297.184692</ele>
        <time>2019-05-27T09:46:25Z</time>
      </trkpt>
      <trkpt lat="45.10528" lon="5.02794">
        <ele>299.1073</ele>
        <time>2019-05-27T09:46:42Z</time>
      </trkpt>
      <trkpt lat="45.10511" lon="5.02771">
        <ele>298.626709</ele>
        <time>2019-05-27T09:46:51Z</time>
      </trkpt>
      <trkpt lat="45.10509" lon="5.02761">
        <ele>299.588013</ele>
        <time>2019-05-27T09:46:55Z</time>
      </trkpt>
      <trkpt lat="45.10522" lon="5.02706">
        <ele>302.952515</ele>
        <time>2019-05-27T09:47:15Z</time>
      </trkpt>
      <trkpt lat="45.10527" lon="5.02694">
        <ele>305.355957</ele>
        <time>2019-05-27T09:47:27Z</time>
      </trkpt>
      <trkpt lat="45.1053" lon="5.02685">
        <ele>306.317261</ele>
        <time>2019-05-27T09:47:34Z</time>
      </trkpt>
      <trkpt lat="45.10533" lon="5.02665">
        <ele>307.278564</ele>
        <time>2019-05-27T09:47:53Z</time>
      </trkpt>
      <trkpt lat="45.10533" lon="5.02665">
        <ele>306.797852</ele>
        <time>2019-05-27T09:48:09Z</time>
      </trkpt>
      <trkpt lat="45.10531" lon="5.02657">
        <ele>305.355957</ele>
        <time>2019-05-27T09:48:13Z</time>
      </trkpt>
      <trkpt lat="45.1053" lon="5.02652">
        <ele>305.355957</ele>
        <time>2019-05-27T09:48:15Z</time>
      </trkpt>
      <trkpt lat="45.10528" lon="5.0261">
        <ele>302.952515</ele>
        <time>2019-05-27T09:48:28Z</time>
      </trkpt>
      <trkpt lat="45.1053" lon="5.02547">
        <ele>303.91394</ele>
        <time>2019-05-27T09:48:41Z</time>
      </trkpt>
      <trkpt lat="45.10532" lon="5.02505">
        <ele>305.83667</ele>
        <time>2019-05-27T09:48:51Z</time>
      </trkpt>
      <trkpt lat="45.10537" lon="5.0248">
        <ele>305.83667</ele>
        <time>2019-05-27T09:48:58Z</time>
      </trkpt>
      <trkpt lat="45.10537" lon="5.02467">
        <ele>305.355957</ele>
        <time>2019-05-27T09:49:02Z</time>
      </trkpt>
      <trkpt lat="45.10537" lon="5.02415">
        <ele>305.355957</ele>
        <time>2019-05-27T09:49:13Z</time>
      </trkpt>
      <trkpt lat="45.10537" lon="5.02371">
        <ele>306.797852</ele>
        <time>2019-05-27T09:49:23Z</time>
      </trkpt>
      <trkpt lat="45.10514" lon="5.02323">
        <ele>309.681885</ele>
        <time>2019-05-27T09:49:37Z</time>
      </trkpt>
      <trkpt lat="45.10511" lon="5.02318">
        <ele>310.162476</ele>
        <time>2019-05-27T09:49:39Z</time>
      </trkpt>
      <trkpt lat="45.10492" lon="5.02294">
        <ele>312.565796</ele>
        <time>2019-05-27T09:49:52Z</time>
      </trkpt>
      <trkpt lat="45.10483" lon="5.02283">
        <ele>314.007812</ele>
        <time>2019-05-27T09:50:00Z</time>
      </trkpt>
      <trkpt lat="45.10473" lon="5.0224">
        <ele>311.123779</ele>
        <time>2019-05-27T09:50:12Z</time>
      </trkpt>
      <trkpt lat="45.10472" lon="5.02235">
        <ele>311.123779</ele>
        <time>2019-05-27T09:50:13Z</time>
      </trkpt>
      <trkpt lat="45.10459" lon="5.02202">
        <ele>310.643066</ele>
        <time>2019-05-27T09:50:18Z</time>
      </trkpt>
      <trkpt lat="45.10466" lon="5.02156">
        <ele>308.239868</ele>
        <time>2019-05-27T09:50:28Z</time>
      </trkpt>
      <trkpt lat="45.10484" lon="5.02142">
        <ele>305.355957</ele>
        <time>2019-05-27T09:50:32Z</time>
      </trkpt>
      <trkpt lat="45.10502" lon="5.0214">
        <ele>301.991333</ele>
        <time>2019-05-27T09:50:37Z</time>
      </trkpt>
      <trkpt lat="45.10511" lon="5.02124">
        <ele>300.068726</ele>
        <time>2019-05-27T09:50:40Z</time>
      </trkpt>
      <trkpt lat="45.10513" lon="5.02112">
        <ele>298.626709</ele>
        <time>2019-05-27T09:50:43Z</time>
      </trkpt>
      <trkpt lat="45.1052" lon="5.02092">
        <ele>295.261963</ele>
        <time>2019-05-27T09:50:47Z</time>
      </trkpt>
      <trkpt lat="45.10521" lon="5.02086">
        <ele>295.261963</ele>
        <time>2019-05-27T09:50:48Z</time>
      </trkpt>
      <trkpt lat="45.10525" lon="5.02063">
        <ele>291.897461</ele>
        <time>2019-05-27T09:50:53Z</time>
      </trkpt>
      <trkpt lat="45.10527" lon="5.0205">
        <ele>290.936157</ele>
        <time>2019-05-27T09:50:55Z</time>
      </trkpt>
      <trkpt lat="45.10528" lon="5.02032">
        <ele>289.494141</ele>
        <time>2019-05-27T09:50:58Z</time>
      </trkpt>
      <trkpt lat="45.10536" lon="5.02014">
        <ele>287.571411</ele>
        <time>2019-05-27T09:51:03Z</time>
      </trkpt>
      <trkpt lat="45.10541" lon="5.0199">
        <ele>283.726196</ele>
        <time>2019-05-27T09:51:15Z</time>
      </trkpt>
      <trkpt lat="45.10538" lon="5.01978">
        <ele>283.726196</ele>
        <time>2019-05-27T09:51:19Z</time>
      </trkpt>
      <trkpt lat="45.10524" lon="5.01946">
        <ele>279.880859</ele>
        <time>2019-05-27T09:51:30Z</time>
      </trkpt>
      <trkpt lat="45.10522" lon="5.01939">
        <ele>279.400269</ele>
        <time>2019-05-27T09:51:32Z</time>
      </trkpt>
      <trkpt lat="45.10512" lon="5.01915">
        <ele>277.958252</ele>
        <time>2019-05-27T09:51:37Z</time>
      </trkpt>
      <trkpt lat="45.10488" lon="5.01867">
        <ele>276.035645</ele>
        <time>2019-05-27T09:51:47Z</time>
      </trkpt>
      <trkpt lat="45.10476" lon="5.0185">
        <ele>275.555054</ele>
        <time>2019-05-27T09:51:50Z</time>
      </trkpt>
      <trkpt lat="45.10454" lon="5.01822">
        <ele>276.516357</ele>
        <time>2019-05-27T09:51:56Z</time>
      </trkpt>
      <trkpt lat="45.10437" lon="5.01806">
        <ele>276.516357</ele>
        <time>2019-05-27T09:52:01Z</time>
      </trkpt>
      <trkpt lat="45.10403" lon="5.01787">
        <ele>277.958252</ele>
        <time>2019-05-27T09:52:11Z</time>
      </trkpt>
      <trkpt lat="45.10367" lon="5.01763">
        <ele>279.880859</ele>
        <time>2019-05-27T09:52:23Z</time>
      </trkpt>
      <trkpt lat="45.10339" lon="5.01764">
        <ele>281.322998</ele>
        <time>2019-05-27T09:52:34Z</time>
      </trkpt>
      <trkpt lat="45.10326" lon="5.01764">
        <ele>281.803589</ele>
        <time>2019-05-27T09:52:39Z</time>
      </trkpt>
      <trkpt lat="45.10329" lon="5.01749">
        <ele>280.842407</ele>
        <time>2019-05-27T09:52:45Z</time>
      </trkpt>
      <trkpt lat="45.10334" lon="5.01747">
        <ele>281.322998</ele>
        <time>2019-05-27T09:52:47Z</time>
      </trkpt>
      <trkpt lat="45.10361" lon="5.01748">
        <ele>278.919678</ele>
        <time>2019-05-27T09:52:56Z</time>
      </trkpt>
      <trkpt lat="45.1038" lon="5.01749">
        <ele>276.035645</ele>
        <time>2019-05-27T09:53:01Z</time>
      </trkpt>
      <trkpt lat="45.10394" lon="5.0175">
        <ele>273.151855</ele>
        <time>2019-05-27T09:53:07Z</time>
      </trkpt>
      <trkpt lat="45.10401" lon="5.0175">
        <ele>272.19043</ele>
        <time>2019-05-27T09:53:09Z</time>
      </trkpt>
      <trkpt lat="45.10422" lon="5.01749">
        <ele>270.2677</ele>
        <time>2019-05-27T09:53:14Z</time>
      </trkpt>
      <trkpt lat="45.10449" lon="5.01749">
        <ele>267.864502</ele>
        <time>2019-05-27T09:53:19Z</time>
      </trkpt>
      <trkpt lat="45.10466" lon="5.01747">
        <ele>265.461304</ele>
        <time>2019-05-27T09:53:24Z</time>
      </trkpt>
      <trkpt lat="45.10495" lon="5.01732">
        <ele>262.096558</ele>
        <time>2019-05-27T09:53:32Z</time>
      </trkpt>
      <trkpt lat="45.10498" lon="5.01727">
        <ele>262.096558</ele>
        <time>2019-05-27T09:53:33Z</time>
      </trkpt>
      <trkpt lat="45.105" lon="5.01723">
        <ele>261.135254</ele>
        <time>2019-05-27T09:53:34Z</time>
      </trkpt>
      <trkpt lat="45.10511" lon="5.01709">
        <ele>260.17395</ele>
        <time>2019-05-27T09:53:37Z</time>
      </trkpt>
      <trkpt lat="45.10526" lon="5.01684">
        <ele>258.731934</ele>
        <time>2019-05-27T09:53:41Z</time>
      </trkpt>
      <trkpt lat="45.10556" lon="5.01648">
        <ele>257.290039</ele>
        <time>2019-05-27T09:53:47Z</time>
      </trkpt>
      <trkpt lat="45.10566" lon="5.0163">
        <ele>255.848022</ele>
        <time>2019-05-27T09:53:50Z</time>
      </trkpt>
      <trkpt lat="45.10573" lon="5.0162">
        <ele>255.848022</ele>
        <time>2019-05-27T09:53:52Z</time>
      </trkpt>
      <trkpt lat="45.1059" lon="5.0159">
        <ele>254.886597</ele>
        <time>2019-05-27T09:53:57Z</time>
      </trkpt>
      <trkpt lat="45.10604" lon="5.01564">
        <ele>254.406006</ele>
        <time>2019-05-27T09:54:02Z</time>
      </trkpt>
      <trkpt lat="45.10635" lon="5.01507">
        <ele>253.925415</ele>
        <time>2019-05-27T09:54:12Z</time>
      </trkpt>
      <trkpt lat="45.10652" lon="5.01462">
        <ele>252.002808</ele>
        <time>2019-05-27T09:54:23Z</time>
      </trkpt>
      <trkpt lat="45.10659" lon="5.01422">
        <ele>249.599487</ele>
        <time>2019-05-27T09:54:34Z</time>
      </trkpt>
      <trkpt lat="45.10652" lon="5.01384">
        <ele>247.676758</ele>
        <time>2019-05-27T09:54:46Z</time>
      </trkpt>
      <trkpt lat="45.10645" lon="5.0136">
        <ele>247.196045</ele>
        <time>2019-05-27T09:54:53Z</time>
      </trkpt>
      <trkpt lat="45.1063" lon="5.01329">
        <ele>246.234863</ele>
        <time>2019-05-27T09:55:03Z</time>
      </trkpt>
      <trkpt lat="45.10629" lon="5.01321">
        <ele>246.234863</ele>
        <time>2019-05-27T09:55:07Z</time>
      </trkpt>
      <trkpt lat="45.10618" lon="5.01315">
        <ele>247.196045</ele>
        <time>2019-05-27T09:55:17Z</time>
      </trkpt>
      <trkpt lat="45.10596" lon="5.01292">
        <ele>247.676758</ele>
        <time>2019-05-27T09:55:27Z</time>
      </trkpt>
      <trkpt lat="45.10583" lon="5.01277">
        <ele>248.638184</ele>
        <time>2019-05-27T09:55:31Z</time>
      </trkpt>
      <trkpt lat="45.10578" lon="5.01271">
        <ele>249.118774</ele>
        <time>2019-05-27T09:55:33Z</time>
      </trkpt>
      <trkpt lat="45.10562" lon="5.0123">
        <ele>250.560791</ele>
        <time>2019-05-27T09:55:43Z</time>
      </trkpt>
      <trkpt lat="45.10545" lon="5.01209">
        <ele>252.002808</ele>
        <time>2019-05-27T09:55:49Z</time>
      </trkpt>
      <trkpt lat="45.10539" lon="5.01202">
        <ele>252.483398</ele>
        <time>2019-05-27T09:55:52Z</time>
      </trkpt>
      <trkpt lat="45.10517" lon="5.01168">
        <ele>254.406006</ele>
        <time>2019-05-27T09:56:04Z</time>
      </trkpt>
      <trkpt lat="45.10506" lon="5.01154">
        <ele>255.36731</ele>
        <time>2019-05-27T09:56:10Z</time>
      </trkpt>
      <trkpt lat="45.10486" lon="5.01136">
        <ele>257.290039</ele>
        <time>2019-05-27T09:56:20Z</time>
      </trkpt>
      <trkpt lat="45.10474" lon="5.01128">
        <ele>256.809326</ele>
        <time>2019-05-27T09:56:25Z</time>
      </trkpt>
      <trkpt lat="45.10459" lon="5.01116">
        <ele>254.886597</ele>
        <time>2019-05-27T09:56:30Z</time>
      </trkpt>
      <trkpt lat="45.10452" lon="5.01112">
        <ele>254.406006</ele>
        <time>2019-05-27T09:56:32Z</time>
      </trkpt>
      <trkpt lat="45.10444" lon="5.011">
        <ele>252.963989</ele>
        <time>2019-05-27T09:56:35Z</time>
      </trkpt>
      <trkpt lat="45.10418" lon="5.01053">
        <ele>250.0802</ele>
        <time>2019-05-27T09:56:44Z</time>
      </trkpt>
      <trkpt lat="45.10411" lon="5.01037">
        <ele>248.638184</ele>
        <time>2019-05-27T09:56:47Z</time>
      </trkpt>
      <trkpt lat="45.10394" lon="5.01007">
        <ele>247.196045</ele>
        <time>2019-05-27T09:56:50Z</time>
      </trkpt>
      <trkpt lat="45.10388" lon="5.01">
        <ele>247.196045</ele>
        <time>2019-05-27T09:56:51Z</time>
      </trkpt>
      <trkpt lat="45.10355" lon="5.00982">
        <ele>248.638184</ele>
        <time>2019-05-27T09:56:59Z</time>
      </trkpt>
      <trkpt lat="45.10311" lon="5.00984">
        <ele>246.715454</ele>
        <time>2019-05-27T09:57:09Z</time>
      </trkpt>
      <trkpt lat="45.10276" lon="5.00992">
        <ele>245.273438</ele>
        <time>2019-05-27T09:57:16Z</time>
      </trkpt>
      <trkpt lat="45.10256" lon="5.00993">
        <ele>243.831543</ele>
        <time>2019-05-27T09:57:20Z</time>
      </trkpt>
      <trkpt lat="45.1023" lon="5.01017">
        <ele>245.75415</ele>
        <time>2019-05-27T09:57:29Z</time>
      </trkpt>
      <trkpt lat="45.10217" lon="5.01042">
        <ele>248.157593</ele>
        <time>2019-05-27T09:57:38Z</time>
      </trkpt>
      <trkpt lat="45.10216" lon="5.01057">
        <ele>250.560791</ele>
        <time>2019-05-27T09:57:43Z</time>
      </trkpt>
      <trkpt lat="45.10216" lon="5.0106">
        <ele>250.560791</ele>
        <time>2019-05-27T09:57:44Z</time>
      </trkpt>
      <trkpt lat="45.10209" lon="5.01083">
        <ele>249.118774</ele>
        <time>2019-05-27T09:57:50Z</time>
      </trkpt>
      <trkpt lat="45.10197" lon="5.01104">
        <ele>247.676758</ele>
        <time>2019-05-27T09:57:57Z</time>
      </trkpt>
      <trkpt lat="45.10185" lon="5.01159">
        <ele>249.118774</ele>
        <time>2019-05-27T09:58:11Z</time>
      </trkpt>
      <trkpt lat="45.10175" lon="5.01193">
        <ele>250.0802</ele>
        <time>2019-05-27T09:58:20Z</time>
      </trkpt>
      <trkpt lat="45.10173" lon="5.01197">
        <ele>250.560791</ele>
        <time>2019-05-27T09:58:21Z</time>
      </trkpt>
      <trkpt lat="45.10139" lon="5.01238">
        <ele>251.522095</ele>
        <time>2019-05-27T09:58:35Z</time>
      </trkpt>
      <trkpt lat="45.10136" lon="5.01282">
        <ele>252.483398</ele>
        <time>2019-05-27T09:58:47Z</time>
      </trkpt>
      <trkpt lat="45.10134" lon="5.01326">
        <ele>250.0802</ele>
        <time>2019-05-27T09:58:52Z</time>
      </trkpt>
      <trkpt lat="45.10134" lon="5.01371">
        <ele>249.118774</ele>
        <time>2019-05-27T09:58:57Z</time>
      </trkpt>
      <trkpt lat="45.10139" lon="5.01402">
        <ele>249.118774</ele>
        <time>2019-05-27T09:59:01Z</time>
      </trkpt>
      <trkpt lat="45.10138" lon="5.0144">
        <ele>248.157593</ele>
        <time>2019-05-27T09:59:07Z</time>
      </trkpt>
      <trkpt lat="45.10141" lon="5.01452">
        <ele>248.157593</ele>
        <time>2019-05-27T09:59:09Z</time>
      </trkpt>
      <trkpt lat="45.10143" lon="5.01476">
        <ele>248.157593</ele>
        <time>2019-05-27T09:59:13Z</time>
      </trkpt>
      <trkpt lat="45.10142" lon="5.01493">
        <ele>247.676758</ele>
        <time>2019-05-27T09:59:16Z</time>
      </trkpt>
      <trkpt lat="45.10149" lon="5.01541">
        <ele>246.715454</ele>
        <time>2019-05-27T09:59:27Z</time>
      </trkpt>
      <trkpt lat="45.10153" lon="5.01558">
        <ele>246.715454</ele>
        <time>2019-05-27T09:59:32Z</time>
      </trkpt>
      <trkpt lat="45.10147" lon="5.01573">
        <ele>246.234863</ele>
        <time>2019-05-27T09:59:36Z</time>
      </trkpt>
      <trkpt lat="45.10129" lon="5.01592">
        <ele>243.831543</ele>
        <time>2019-05-27T09:59:42Z</time>
      </trkpt>
      <trkpt lat="45.10115" lon="5.01599">
        <ele>242.389648</ele>
        <time>2019-05-27T09:59:46Z</time>
      </trkpt>
      <trkpt lat="45.10109" lon="5.016">
        <ele>241.428223</ele>
        <time>2019-05-27T09:59:48Z</time>
      </trkpt>
      <trkpt lat="45.1008" lon="5.01606">
        <ele>239.024902</ele>
        <time>2019-05-27T09:59:54Z</time>
      </trkpt>
      <trkpt lat="45.10056" lon="5.01604">
        <ele>238.063599</ele>
        <time>2019-05-27T10:00:01Z</time>
      </trkpt>
      <trkpt lat="45.10048" lon="5.01619">
        <ele>238.544312</ele>
        <time>2019-05-27T10:00:05Z</time>
      </trkpt>
      <trkpt lat="45.10037" lon="5.01668">
        <ele>238.544312</ele>
        <time>2019-05-27T10:00:13Z</time>
      </trkpt>
      <trkpt lat="45.0998" lon="5.01832">
        <ele>241.428223</ele>
        <time>2019-05-27T10:00:40Z</time>
      </trkpt>
      <trkpt lat="45.09945" lon="5.01934">
        <ele>242.389648</ele>
        <time>2019-05-27T10:00:57Z</time>
      </trkpt>
      <trkpt lat="45.09933" lon="5.01944">
        <ele>242.870239</ele>
        <time>2019-05-27T10:01:02Z</time>
      </trkpt>
      <trkpt lat="45.09888" lon="5.01918">
        <ele>240.947632</ele>
        <time>2019-05-27T10:01:17Z</time>
      </trkpt>
      <trkpt lat="45.09868" lon="5.01908">
        <ele>240.467041</ele>
        <time>2019-05-27T10:01:21Z</time>
      </trkpt>
      <trkpt lat="45.09763" lon="5.01853">
        <ele>238.063599</ele>
        <time>2019-05-27T10:01:41Z</time>
      </trkpt>
      <trkpt lat="45.09651" lon="5.01781">
        <ele>238.063599</ele>
        <time>2019-05-27T10:02:05Z</time>
      </trkpt>
      <trkpt lat="45.09556" lon="5.01747">
        <ele>239.986206</ele>
        <time>2019-05-27T10:02:25Z</time>
      </trkpt>
      <trkpt lat="45.09539" lon="5.01744">
        <ele>240.467041</ele>
        <time>2019-05-27T10:02:29Z</time>
      </trkpt>
      <trkpt lat="45.09481" lon="5.01715">
        <ele>242.389648</ele>
        <time>2019-05-27T10:02:46Z</time>
      </trkpt>
      <trkpt lat="45.09422" lon="5.01671">
        <ele>242.870239</ele>
        <time>2019-05-27T10:03:02Z</time>
      </trkpt>
      <trkpt lat="45.09334" lon="5.01599">
        <ele>244.312256</ele>
        <time>2019-05-27T10:03:26Z</time>
      </trkpt>
      <trkpt lat="45.09266" lon="5.01562">
        <ele>247.196045</ele>
        <time>2019-05-27T10:03:47Z</time>
      </trkpt>
      <trkpt lat="45.09212" lon="5.01544">
        <ele>250.0802</ele>
        <time>2019-05-27T10:04:06Z</time>
      </trkpt>
      <trkpt lat="45.09164" lon="5.01551">
        <ele>253.444702</ele>
        <time>2019-05-27T10:04:23Z</time>
      </trkpt>
      <trkpt lat="45.09119" lon="5.01561">
        <ele>256.809326</ele>
        <time>2019-05-27T10:04:42Z</time>
      </trkpt>
      <trkpt lat="45.09069" lon="5.01572">
        <ele>260.17395</ele>
        <time>2019-05-27T10:05:04Z</time>
      </trkpt>
      <trkpt lat="45.09023" lon="5.01588">
        <ele>262.577148</ele>
        <time>2019-05-27T10:05:26Z</time>
      </trkpt>
      <trkpt lat="45.08987" lon="5.016">
        <ele>265.461304</ele>
        <time>2019-05-27T10:05:45Z</time>
      </trkpt>
      <trkpt lat="45.08965" lon="5.01608">
        <ele>267.864502</ele>
        <time>2019-05-27T10:05:58Z</time>
      </trkpt>
      <trkpt lat="45.08924" lon="5.01615">
        <ele>269.787109</ele>
        <time>2019-05-27T10:06:14Z</time>
      </trkpt>
      <trkpt lat="45.08889" lon="5.0161">
        <ele>273.151855</ele>
        <time>2019-05-27T10:06:31Z</time>
      </trkpt>
      <trkpt lat="45.08859" lon="5.01606">
        <ele>276.035645</ele>
        <time>2019-05-27T10:06:46Z</time>
      </trkpt>
      <trkpt lat="45.08835" lon="5.016">
        <ele>277.477661</ele>
        <time>2019-05-27T10:07:03Z</time>
      </trkpt>
      <trkpt lat="45.08835" lon="5.016">
        <ele>277.477661</ele>
        <time>2019-05-27T10:07:21Z</time>
      </trkpt>
      <trkpt lat="45.08825" lon="5.01601">
        <ele>277.477661</ele>
        <time>2019-05-27T10:07:27Z</time>
      </trkpt>
      <trkpt lat="45.08774" lon="5.01639">
        <ele>280.842407</ele>
        <time>2019-05-27T10:07:50Z</time>
      </trkpt>
      <trkpt lat="45.08747" lon="5.01668">
        <ele>282.765015</ele>
        <time>2019-05-27T10:08:07Z</time>
      </trkpt>
      <trkpt lat="45.08714" lon="5.01697">
        <ele>285.168213</ele>
        <time>2019-05-27T10:08:25Z</time>
      </trkpt>
      <trkpt lat="45.08711" lon="5.01703">
        <ele>285.168213</ele>
        <time>2019-05-27T10:08:28Z</time>
      </trkpt>
      <trkpt lat="45.08681" lon="5.01716">
        <ele>287.571411</ele>
        <time>2019-05-27T10:08:45Z</time>
      </trkpt>
      <trkpt lat="45.08636" lon="5.01721">
        <ele>290.936157</ele>
        <time>2019-05-27T10:09:07Z</time>
      </trkpt>
      <trkpt lat="45.08602" lon="5.01723">
        <ele>293.820068</ele>
        <time>2019-05-27T10:09:24Z</time>
      </trkpt>
      <trkpt lat="45.08583" lon="5.01728">
        <ele>295.261963</ele>
        <time>2019-05-27T10:09:35Z</time>
      </trkpt>
      <trkpt lat="45.0858" lon="5.01732">
        <ele>295.261963</ele>
        <time>2019-05-27T10:09:37Z</time>
      </trkpt>
      <trkpt lat="45.08566" lon="5.01779">
        <ele>293.339355</ele>
        <time>2019-05-27T10:09:51Z</time>
      </trkpt>
      <trkpt lat="45.08561" lon="5.01817">
        <ele>291.897461</ele>
        <time>2019-05-27T10:09:56Z</time>
      </trkpt>
      <trkpt lat="45.08563" lon="5.0189">
        <ele>288.052246</ele>
        <time>2019-05-27T10:10:03Z</time>
      </trkpt>
      <trkpt lat="45.08564" lon="5.01927">
        <ele>286.610229</ele>
        <time>2019-05-27T10:10:06Z</time>
      </trkpt>
      <trkpt lat="45.0855" lon="5.01997">
        <ele>285.648804</ele>
        <time>2019-05-27T10:10:13Z</time>
      </trkpt>
      <trkpt lat="45.08539" lon="5.0202">
        <ele>284.206909</ele>
        <time>2019-05-27T10:10:16Z</time>
      </trkpt>
      <trkpt lat="45.08505" lon="5.02047">
        <ele>283.245605</ele>
        <time>2019-05-27T10:10:25Z</time>
      </trkpt>
      <trkpt lat="45.08472" lon="5.0206">
        <ele>281.803589</ele>
        <time>2019-05-27T10:10:33Z</time>
      </trkpt>
      <trkpt lat="45.08447" lon="5.02072">
        <ele>281.803589</ele>
        <time>2019-05-27T10:10:39Z</time>
      </trkpt>
      <trkpt lat="45.08422" lon="5.02084">
        <ele>282.284302</ele>
        <time>2019-05-27T10:10:45Z</time>
      </trkpt>
      <trkpt lat="45.08388" lon="5.02114">
        <ele>282.284302</ele>
        <time>2019-05-27T10:10:53Z</time>
      </trkpt>
      <trkpt lat="45.08379" lon="5.02137">
        <ele>282.284302</ele>
        <time>2019-05-27T10:11:01Z</time>
      </trkpt>
      <trkpt lat="45.0838" lon="5.02138">
        <ele>282.284302</ele>
        <time>2019-05-27T10:11:05Z</time>
      </trkpt>
      <trkpt lat="45.08391" lon="5.02162">
        <ele>279.400269</ele>
        <time>2019-05-27T10:11:15Z</time>
      </trkpt>
      <trkpt lat="45.08394" lon="5.02177">
        <ele>276.516357</ele>
        <time>2019-05-27T10:11:22Z</time>
      </trkpt>
      <trkpt lat="45.08398" lon="5.02195">
        <ele>273.151855</ele>
        <time>2019-05-27T10:11:29Z</time>
      </trkpt>
      <trkpt lat="45.08405" lon="5.02207">
        <ele>271.229126</ele>
        <time>2019-05-27T10:11:34Z</time>
      </trkpt>
      <trkpt lat="45.0841" lon="5.02228">
        <ele>268.345093</ele>
        <time>2019-05-27T10:11:39Z</time>
      </trkpt>
      <trkpt lat="45.0841" lon="5.02231">
        <ele>267.864502</ele>
        <time>2019-05-27T10:11:40Z</time>
      </trkpt>
      <trkpt lat="45.08413" lon="5.02244">
        <ele>265.941895</ele>
        <time>2019-05-27T10:11:43Z</time>
      </trkpt>
      <trkpt lat="45.0843" lon="5.02256">
        <ele>263.538574</ele>
        <time>2019-05-27T10:11:47Z</time>
      </trkpt>
      <trkpt lat="45.08449" lon="5.02262">
        <ele>260.17395</ele>
        <time>2019-05-27T10:11:53Z</time>
      </trkpt>
      <trkpt lat="45.08458" lon="5.0227">
        <ele>258.251343</ele>
        <time>2019-05-27T10:11:57Z</time>
      </trkpt>
      <trkpt lat="45.08467" lon="5.02277">
        <ele>256.809326</ele>
        <time>2019-05-27T10:12:00Z</time>
      </trkpt>
      <trkpt lat="45.08477" lon="5.02284">
        <ele>255.848022</ele>
        <time>2019-05-27T10:12:03Z</time>
      </trkpt>
      <trkpt lat="45.08483" lon="5.02307">
        <ele>251.522095</ele>
        <time>2019-05-27T10:12:09Z</time>
      </trkpt>
      <trkpt lat="45.08489" lon="5.02325">
        <ele>247.676758</ele>
        <time>2019-05-27T10:12:14Z</time>
      </trkpt>
      <trkpt lat="45.0849" lon="5.02344">
        <ele>244.312256</ele>
        <time>2019-05-27T10:12:18Z</time>
      </trkpt>
      <trkpt lat="45.08504" lon="5.02363">
        <ele>240.947632</ele>
        <time>2019-05-27T10:12:22Z</time>
      </trkpt>
      <trkpt lat="45.08506" lon="5.02367">
        <ele>240.467041</ele>
        <time>2019-05-27T10:12:23Z</time>
      </trkpt>
      <trkpt lat="45.08515" lon="5.02401">
        <ele>236.140991</ele>
        <time>2019-05-27T10:12:29Z</time>
      </trkpt>
      <trkpt lat="45.08536" lon="5.02442">
        <ele>233.25708</ele>
        <time>2019-05-27T10:12:35Z</time>
      </trkpt>
      <trkpt lat="45.08544" lon="5.02461">
        <ele>231.334351</ele>
        <time>2019-05-27T10:12:38Z</time>
      </trkpt>
      <trkpt lat="45.08582" lon="5.02499">
        <ele>228.931152</ele>
        <time>2019-05-27T10:12:48Z</time>
      </trkpt>
      <trkpt lat="45.08619" lon="5.02541">
        <ele>229.411743</ele>
        <time>2019-05-27T10:13:00Z</time>
      </trkpt>
      <trkpt lat="45.08654" lon="5.02571">
        <ele>229.892334</ele>
        <time>2019-05-27T10:13:12Z</time>
      </trkpt>
      <trkpt lat="45.08657" lon="5.02573">
        <ele>229.892334</ele>
        <time>2019-05-27T10:13:13Z</time>
      </trkpt>
      <trkpt lat="45.08682" lon="5.02573">
        <ele>228.450439</ele>
        <time>2019-05-27T10:13:19Z</time>
      </trkpt>
      <trkpt lat="45.08692" lon="5.02579">
        <ele>228.450439</ele>
        <time>2019-05-27T10:13:24Z</time>
      </trkpt>
      <trkpt lat="45.08698" lon="5.02601">
        <ele>226.527832</ele>
        <time>2019-05-27T10:13:33Z</time>
      </trkpt>
      <trkpt lat="45.087" lon="5.02604">
        <ele>225.566528</ele>
        <time>2019-05-27T10:13:35Z</time>
      </trkpt>
      <trkpt lat="45.08702" lon="5.02631">
        <ele>223.163208</ele>
        <time>2019-05-27T10:13:47Z</time>
      </trkpt>
      <trkpt lat="45.08699" lon="5.02651">
        <ele>223.643799</ele>
        <time>2019-05-27T10:14:28Z</time>
      </trkpt>
      <trkpt lat="45.08706" lon="5.02682">
        <ele>222.201782</ele>
        <time>2019-05-27T10:14:37Z</time>
      </trkpt>
      <trkpt lat="45.08726" lon="5.02726">
        <ele>221.240601</ele>
        <time>2019-05-27T10:14:49Z</time>
      </trkpt>
      <trkpt lat="45.08731" lon="5.02739">
        <ele>220.279175</ele>
        <time>2019-05-27T10:14:53Z</time>
      </trkpt>
      <trkpt lat="45.08739" lon="5.02751">
        <ele>219.317993</ele>
        <time>2019-05-27T10:14:57Z</time>
      </trkpt>
      <trkpt lat="45.08749" lon="5.02771">
        <ele>217.875977</ele>
        <time>2019-05-27T10:15:02Z</time>
      </trkpt>
      <trkpt lat="45.08765" lon="5.02792">
        <ele>215.472656</ele>
        <time>2019-05-27T10:15:08Z</time>
      </trkpt>
      <trkpt lat="45.08773" lon="5.02822">
        <ele>211.146729</ele>
        <time>2019-05-27T10:15:13Z</time>
      </trkpt>
      <trkpt lat="45.08776" lon="5.02841">
        <ele>210.185425</ele>
        <time>2019-05-27T10:15:15Z</time>
      </trkpt>
      <trkpt lat="45.08785" lon="5.02892">
        <ele>207.782104</ele>
        <time>2019-05-27T10:15:20Z</time>
      </trkpt>
      <trkpt lat="45.08786" lon="5.02902">
        <ele>206.820679</ele>
        <time>2019-05-27T10:15:21Z</time>
      </trkpt>
      <trkpt lat="45.08795" lon="5.02931">
        <ele>205.378784</ele>
        <time>2019-05-27T10:15:25Z</time>
      </trkpt>
      <trkpt lat="45.08801" lon="5.02954">
        <ele>202.975464</ele>
        <time>2019-05-27T10:15:28Z</time>
      </trkpt>
      <trkpt lat="45.08802" lon="5.02967">
        <ele>202.014282</ele>
        <time>2019-05-27T10:15:30Z</time>
      </trkpt>
      <trkpt lat="45.088" lon="5.03005">
        <ele>200.572266</ele>
        <time>2019-05-27T10:15:39Z</time>
      </trkpt>
      <trkpt lat="45.08815" lon="5.03098">
        <ele>197.688232</ele>
        <time>2019-05-27T10:15:50Z</time>
      </trkpt>
      <trkpt lat="45.08817" lon="5.03109">
        <ele>197.20752</ele>
        <time>2019-05-27T10:15:51Z</time>
      </trkpt>
      <trkpt lat="45.08825" lon="5.03139">
        <ele>195.765625</ele>
        <time>2019-05-27T10:15:54Z</time>
      </trkpt>
      <trkpt lat="45.08833" lon="5.03231">
        <ele>193.843018</ele>
        <time>2019-05-27T10:16:03Z</time>
      </trkpt>
      <trkpt lat="45.08849" lon="5.03377">
        <ele>192.881714</ele>
        <time>2019-05-27T10:16:18Z</time>
      </trkpt>
      <trkpt lat="45.08856" lon="5.0341">
        <ele>191.920288</ele>
        <time>2019-05-27T10:16:22Z</time>
      </trkpt>
      <trkpt lat="45.08841" lon="5.03443">
        <ele>191.920288</ele>
        <time>2019-05-27T10:16:28Z</time>
      </trkpt>
      <trkpt lat="45.08787" lon="5.03457">
        <ele>190.958984</ele>
        <time>2019-05-27T10:16:37Z</time>
      </trkpt>
      <trkpt lat="45.08763" lon="5.03488">
        <ele>190.958984</ele>
        <time>2019-05-27T10:16:43Z</time>
      </trkpt>
      <trkpt lat="45.0876" lon="5.03505">
        <ele>190.958984</ele>
        <time>2019-05-27T10:16:45Z</time>
      </trkpt>
      <trkpt lat="45.08758" lon="5.0353">
        <ele>190.478394</ele>
        <time>2019-05-27T10:16:48Z</time>
      </trkpt>
      <trkpt lat="45.08761" lon="5.03562">
        <ele>190.478394</ele>
        <time>2019-05-27T10:16:52Z</time>
      </trkpt>
      <trkpt lat="45.08769" lon="5.03591">
        <ele>190.478394</ele>
        <time>2019-05-27T10:16:56Z</time>
      </trkpt>
      <trkpt lat="45.08792" lon="5.03653">
        <ele>191.439575</ele>
        <time>2019-05-27T10:17:05Z</time>
      </trkpt>
      <trkpt lat="45.08835" lon="5.03769">
        <ele>191.439575</ele>
        <time>2019-05-27T10:17:24Z</time>
      </trkpt>
      <trkpt lat="45.0886" lon="5.03845">
        <ele>194.804321</ele>
        <time>2019-05-27T10:17:42Z</time>
      </trkpt>
      <trkpt lat="45.08886" lon="5.03914">
        <ele>198.168945</ele>
        <time>2019-05-27T10:18:01Z</time>
      </trkpt>
      <trkpt lat="45.08899" lon="5.03964">
        <ele>200.091675</ele>
        <time>2019-05-27T10:18:16Z</time>
      </trkpt>
      <trkpt lat="45.089" lon="5.04021">
        <ele>202.494873</ele>
        <time>2019-05-27T10:18:36Z</time>
      </trkpt>
      <trkpt lat="45.08886" lon="5.04073">
        <ele>200.572266</ele>
        <time>2019-05-27T10:18:49Z</time>
      </trkpt>
      <trkpt lat="45.08864" lon="5.04124">
        <ele>199.61084</ele>
        <time>2019-05-27T10:19:00Z</time>
      </trkpt>
      <trkpt lat="45.08845" lon="5.04176">
        <ele>199.130127</ele>
        <time>2019-05-27T10:19:13Z</time>
      </trkpt>
      <trkpt lat="45.0884" lon="5.04199">
        <ele>199.61084</ele>
        <time>2019-05-27T10:19:22Z</time>
      </trkpt>
      <trkpt lat="45.08836" lon="5.0425">
        <ele>199.61084</ele>
        <time>2019-05-27T10:19:35Z</time>
      </trkpt>
      <trkpt lat="45.08822" lon="5.04311">
        <ele>201.052856</ele>
        <time>2019-05-27T10:19:55Z</time>
      </trkpt>
      <trkpt lat="45.08821" lon="5.04311">
        <ele>201.052856</ele>
        <time>2019-05-27T10:19:56Z</time>
      </trkpt>
      <trkpt lat="45.08817" lon="5.04314">
        <ele>201.052856</ele>
        <time>2019-05-27T10:20:00Z</time>
      </trkpt>
      <trkpt lat="45.08807" lon="5.04315">
        <ele>200.572266</ele>
        <time>2019-05-27T10:20:06Z</time>
      </trkpt>
      <trkpt lat="45.08808" lon="5.04319">
        <ele>201.052856</ele>
        <time>2019-05-27T10:20:10Z</time>
      </trkpt>
      <trkpt lat="45.08857" lon="5.04304">
        <ele>203.93689</ele>
        <time>2019-05-27T10:20:30Z</time>
      </trkpt>
      <trkpt lat="45.08892" lon="5.04279">
        <ele>207.301392</ele>
        <time>2019-05-27T10:20:48Z</time>
      </trkpt>
      <trkpt lat="45.08924" lon="5.04272">
        <ele>207.782104</ele>
        <time>2019-05-27T10:21:03Z</time>
      </trkpt>
      <trkpt lat="45.08959" lon="5.04276">
        <ele>210.185425</ele>
        <time>2019-05-27T10:21:19Z</time>
      </trkpt>
      <trkpt lat="45.09002" lon="5.0426">
        <ele>213.069336</ele>
        <time>2019-05-27T10:21:38Z</time>
      </trkpt>
      <trkpt lat="45.09035" lon="5.04235">
        <ele>214.51123</ele>
        <time>2019-05-27T10:21:53Z</time>
      </trkpt>
      <trkpt lat="45.0907" lon="5.04182">
        <ele>215.953247</ele>
        <time>2019-05-27T10:22:12Z</time>
      </trkpt>
      <trkpt lat="45.09086" lon="5.04151">
        <ele>219.317993</ele>
        <time>2019-05-27T10:22:24Z</time>
      </trkpt>
      <trkpt lat="45.09138" lon="5.04125">
        <ele>222.201782</ele>
        <time>2019-05-27T10:22:47Z</time>
      </trkpt>
      <trkpt lat="45.09181" lon="5.04137">
        <ele>225.566528</ele>
        <time>2019-05-27T10:23:06Z</time>
      </trkpt>
      <trkpt lat="45.09221" lon="5.04165">
        <ele>228.450439</ele>
        <time>2019-05-27T10:23:26Z</time>
      </trkpt>
      <trkpt lat="45.09255" lon="5.04193">
        <ele>231.814941</ele>
        <time>2019-05-27T10:23:43Z</time>
      </trkpt>
      <trkpt lat="45.09286" lon="5.04242">
        <ele>232.295776</ele>
        <time>2019-05-27T10:24:02Z</time>
      </trkpt>
      <trkpt lat="45.0929" lon="5.04252">
        <ele>232.295776</ele>
        <time>2019-05-27T10:24:04Z</time>
      </trkpt>
      <trkpt lat="45.09293" lon="5.04278">
        <ele>232.295776</ele>
        <time>2019-05-27T10:24:09Z</time>
      </trkpt>
      <trkpt lat="45.09284" lon="5.04339">
        <ele>234.218384</ele>
        <time>2019-05-27T10:24:27Z</time>
      </trkpt>
      <trkpt lat="45.09257" lon="5.04368">
        <ele>231.334351</ele>
        <time>2019-05-27T10:24:37Z</time>
      </trkpt>
      <trkpt lat="45.09242" lon="5.04379">
        <ele>227.969727</ele>
        <time>2019-05-27T10:24:40Z</time>
      </trkpt>
      <trkpt lat="45.09234" lon="5.04387">
        <ele>227.489136</ele>
        <time>2019-05-27T10:24:42Z</time>
      </trkpt>
      <trkpt lat="45.09209" lon="5.04408">
        <ele>223.163208</ele>
        <time>2019-05-27T10:24:48Z</time>
      </trkpt>
      <trkpt lat="45.09204" lon="5.04413">
        <ele>222.682495</ele>
        <time>2019-05-27T10:24:49Z</time>
      </trkpt>
      <trkpt lat="45.09192" lon="5.04425">
        <ele>221.240601</ele>
        <time>2019-05-27T10:24:51Z</time>
      </trkpt>
      <trkpt lat="45.09168" lon="5.04463">
        <ele>218.83728</ele>
        <time>2019-05-27T10:24:56Z</time>
      </trkpt>
      <trkpt lat="45.09163" lon="5.04472">
        <ele>218.356567</ele>
        <time>2019-05-27T10:24:57Z</time>
      </trkpt>
      <trkpt lat="45.09153" lon="5.045">
        <ele>215.472656</ele>
        <time>2019-05-27T10:25:00Z</time>
      </trkpt>
      <trkpt lat="45.09109" lon="5.04572">
        <ele>211.627441</ele>
        <time>2019-05-27T10:25:08Z</time>
      </trkpt>
      <trkpt lat="45.0909" lon="5.04601">
        <ele>208.262817</ele>
        <time>2019-05-27T10:25:11Z</time>
      </trkpt>
      <trkpt lat="45.09066" lon="5.04637">
        <ele>204.898071</ele>
        <time>2019-05-27T10:25:15Z</time>
      </trkpt>
      <trkpt lat="45.09059" lon="5.04651">
        <ele>203.456177</ele>
        <time>2019-05-27T10:25:17Z</time>
      </trkpt>
      <trkpt lat="45.09052" lon="5.04667">
        <ele>202.014282</ele>
        <time>2019-05-27T10:25:22Z</time>
      </trkpt>
      <trkpt lat="45.09059" lon="5.04672">
        <ele>202.975464</ele>
        <time>2019-05-27T10:25:26Z</time>
      </trkpt>
      <trkpt lat="45.09096" lon="5.04698">
        <ele>204.41748</ele>
        <time>2019-05-27T10:25:39Z</time>
      </trkpt>
      <trkpt lat="45.09143" lon="5.04737">
        <ele>206.340088</ele>
        <time>2019-05-27T10:25:55Z</time>
      </trkpt>
      <trkpt lat="45.09161" lon="5.04751">
        <ele>204.898071</ele>
        <time>2019-05-27T10:26:02Z</time>
      </trkpt>
      <trkpt lat="45.09172" lon="5.04749">
        <ele>205.378784</ele>
        <time>2019-05-27T10:26:06Z</time>
      </trkpt>
      <trkpt lat="45.09216" lon="5.0474">
        <ele>206.340088</ele>
        <time>2019-05-27T10:26:19Z</time>
      </trkpt>
      <trkpt lat="45.09235" lon="5.04742">
        <ele>207.301392</ele>
        <time>2019-05-27T10:26:24Z</time>
      </trkpt>
      <trkpt lat="45.09287" lon="5.04754">
        <ele>205.378784</ele>
        <time>2019-05-27T10:26:39Z</time>
      </trkpt>
      <trkpt lat="45.09293" lon="5.04756">
        <ele>205.859497</ele>
        <time>2019-05-27T10:26:41Z</time>
      </trkpt>
      <trkpt lat="45.09303" lon="5.04785">
        <ele>205.378784</ele>
        <time>2019-05-27T10:26:53Z</time>
      </trkpt>
      <trkpt lat="45.09303" lon="5.04804">
        <ele>205.859497</ele>
        <time>2019-05-27T10:26:59Z</time>
      </trkpt>
      <trkpt lat="45.09311" lon="5.04804">
        <ele>205.378784</ele>
        <time>2019-05-27T10:27:08Z</time>
      </trkpt>
      <trkpt lat="45.0932" lon="5.04752">
        <ele>206.820679</ele>
        <time>2019-05-27T10:27:20Z</time>
      </trkpt>
      <trkpt lat="45.09336" lon="5.04734">
        <ele>207.782104</ele>
        <time>2019-05-27T10:27:26Z</time>
      </trkpt>
      <trkpt lat="45.09339" lon="5.04727">
        <ele>207.301392</ele>
        <time>2019-05-27T10:27:28Z</time>
      </trkpt>
      <trkpt lat="45.09385" lon="5.04695">
        <ele>208.743408</ele>
        <time>2019-05-27T10:27:42Z</time>
      </trkpt>
      <trkpt lat="45.09434" lon="5.0467">
        <ele>211.627441</ele>
        <time>2019-05-27T10:27:56Z</time>
      </trkpt>
      <trkpt lat="45.09438" lon="5.04669">
        <ele>212.108032</ele>
        <time>2019-05-27T10:27:57Z</time>
      </trkpt>
      <trkpt lat="45.09526" lon="5.04629">
        <ele>212.108032</ele>
        <time>2019-05-27T10:28:20Z</time>
      </trkpt>
      <trkpt lat="45.09571" lon="5.04597">
        <ele>212.588623</ele>
        <time>2019-05-27T10:28:32Z</time>
      </trkpt>
      <trkpt lat="45.09602" lon="5.04542">
        <ele>214.51123</ele>
        <time>2019-05-27T10:28:43Z</time>
      </trkpt>
      <trkpt lat="45.09625" lon="5.04506">
        <ele>215.472656</ele>
        <time>2019-05-27T10:28:51Z</time>
      </trkpt>
      <trkpt lat="45.09628" lon="5.04479">
        <ele>215.472656</ele>
        <time>2019-05-27T10:29:03Z</time>
      </trkpt>
      <trkpt lat="45.0963" lon="5.04479">
        <ele>215.472656</ele>
        <time>2019-05-27T10:29:23Z</time>
      </trkpt>
      <trkpt lat="45.09629" lon="5.04481">
        <ele>215.953247</ele>
        <time>2019-05-27T10:31:27Z</time>
      </trkpt>
      <trkpt lat="45.09622" lon="5.04482">
        <ele>215.953247</ele>
        <time>2019-05-27T10:31:36Z</time>
      </trkpt>
      <trkpt lat="45.09605" lon="5.04524">
        <ele>215.472656</ele>
        <time>2019-05-27T10:31:45Z</time>
      </trkpt>
      <trkpt lat="45.09578" lon="5.04578">
        <ele>214.03064</ele>
        <time>2019-05-27T10:31:53Z</time>
      </trkpt>
      <trkpt lat="45.09557" lon="5.04602">
        <ele>213.550049</ele>
        <time>2019-05-27T10:31:57Z</time>
      </trkpt>
      <trkpt lat="45.09529" lon="5.04624">
        <ele>212.108032</ele>
        <time>2019-05-27T10:32:02Z</time>
      </trkpt>
      <trkpt lat="45.09523" lon="5.04628">
        <ele>211.146729</ele>
        <time>2019-05-27T10:32:03Z</time>
      </trkpt>
      <trkpt lat="45.09395" lon="5.04684">
        <ele>209.704834</ele>
        <time>2019-05-27T10:32:22Z</time>
      </trkpt>
      <trkpt lat="45.09368" lon="5.047">
        <ele>208.743408</ele>
        <time>2019-05-27T10:32:26Z</time>
      </trkpt>
      <trkpt lat="45.09338" lon="5.04723">
        <ele>207.782104</ele>
        <time>2019-05-27T10:32:31Z</time>
      </trkpt>
      <trkpt lat="45.09331" lon="5.04745">
        <ele>207.301392</ele>
        <time>2019-05-27T10:32:35Z</time>
      </trkpt>
      <trkpt lat="45.09333" lon="5.04773">
        <ele>206.820679</ele>
        <time>2019-05-27T10:32:41Z</time>
      </trkpt>
      <trkpt lat="45.09336" lon="5.04776">
        <ele>206.820679</ele>
        <time>2019-05-27T10:32:52Z</time>
      </trkpt>
      <trkpt lat="45.09335" lon="5.04777">
        <ele>206.340088</ele>
        <time>2019-05-27T10:34:23Z</time>
      </trkpt>
      <trkpt lat="45.09334" lon="5.04776">
        <ele>207.301392</ele>
        <time>2019-05-27T10:34:50Z</time>
      </trkpt>
      <trkpt lat="45.09334" lon="5.04776">
        <ele>207.301392</ele>
        <time>2019-05-27T10:34:57Z</time>
      </trkpt>
      <trkpt lat="45.09327" lon="5.04778">
        <ele>206.820679</ele>
        <time>2019-05-27T10:35:04Z</time>
      </trkpt>
      <trkpt lat="45.09324" lon="5.04795">
        <ele>206.820679</ele>
        <time>2019-05-27T10:35:10Z</time>
      </trkpt>
      <trkpt lat="45.09313" lon="5.04806">
        <ele>205.859497</ele>
        <time>2019-05-27T10:35:15Z</time>
      </trkpt>
      <trkpt lat="45.09309" lon="5.04808">
        <ele>205.859497</ele>
        <time>2019-05-27T10:35:19Z</time>
      </trkpt>
      <trkpt lat="45.09303" lon="5.04818">
        <ele>206.340088</ele>
        <time>2019-05-27T10:35:24Z</time>
      </trkpt>
      <trkpt lat="45.09294" lon="5.04897">
        <ele>206.820679</ele>
        <time>2019-05-27T10:35:41Z</time>
      </trkpt>
      <trkpt lat="45.09248" lon="5.04965">
        <ele>208.743408</ele>
        <time>2019-05-27T10:35:59Z</time>
      </trkpt>
      <trkpt lat="45.09239" lon="5.05034">
        <ele>211.146729</ele>
        <time>2019-05-27T10:36:13Z</time>
      </trkpt>
      <trkpt lat="45.09275" lon="5.05129">
        <ele>213.550049</ele>
        <time>2019-05-27T10:36:33Z</time>
      </trkpt>
      <trkpt lat="45.09345" lon="5.05251">
        <ele>213.550049</ele>
        <time>2019-05-27T10:36:57Z</time>
      </trkpt>
      <trkpt lat="45.09406" lon="5.05368">
        <ele>213.550049</ele>
        <time>2019-05-27T10:37:19Z</time>
      </trkpt>
      <trkpt lat="45.09413" lon="5.05385">
        <ele>214.51123</ele>
        <time>2019-05-27T10:37:22Z</time>
      </trkpt>
      <trkpt lat="45.09431" lon="5.05515">
        <ele>214.51123</ele>
        <time>2019-05-27T10:37:43Z</time>
      </trkpt>
      <trkpt lat="45.09434" lon="5.0564">
        <ele>214.03064</ele>
        <time>2019-05-27T10:38:02Z</time>
      </trkpt>
      <trkpt lat="45.09421" lon="5.05741">
        <ele>213.069336</ele>
        <time>2019-05-27T10:38:15Z</time>
      </trkpt>
      <trkpt lat="45.09418" lon="5.05757">
        <ele>213.069336</ele>
        <time>2019-05-27T10:38:17Z</time>
      </trkpt>
      <trkpt lat="45.09376" lon="5.05951">
        <ele>213.069336</ele>
        <time>2019-05-27T10:38:41Z</time>
      </trkpt>
      <trkpt lat="45.09367" lon="5.06148">
        <ele>213.550049</ele>
        <time>2019-05-27T10:39:07Z</time>
      </trkpt>
      <trkpt lat="45.0937" lon="5.06251">
        <ele>217.395386</ele>
        <time>2019-05-27T10:39:22Z</time>
      </trkpt>
      <trkpt lat="45.09374" lon="5.0641">
        <ele>215.953247</ele>
        <time>2019-05-27T10:39:47Z</time>
      </trkpt>
      <trkpt lat="45.09381" lon="5.06581">
        <ele>217.395386</ele>
        <time>2019-05-27T10:40:15Z</time>
      </trkpt>
      <trkpt lat="45.09381" lon="5.06594">
        <ele>216.914673</ele>
        <time>2019-05-27T10:40:17Z</time>
      </trkpt>
      <trkpt lat="45.09367" lon="5.06724">
        <ele>218.83728</ele>
        <time>2019-05-27T10:40:38Z</time>
      </trkpt>
      <trkpt lat="45.09372" lon="5.06866">
        <ele>220.759888</ele>
        <time>2019-05-27T10:41:01Z</time>
      </trkpt>
      <trkpt lat="45.09377" lon="5.06989">
        <ele>221.240601</ele>
        <time>2019-05-27T10:41:22Z</time>
      </trkpt>
      <trkpt lat="45.09385" lon="5.07083">
        <ele>223.643799</ele>
        <time>2019-05-27T10:41:41Z</time>
      </trkpt>
      <trkpt lat="45.09376" lon="5.07187">
        <ele>226.527832</ele>
        <time>2019-05-27T10:42:00Z</time>
      </trkpt>
      <trkpt lat="45.09369" lon="5.07249">
        <ele>225.085938</ele>
        <time>2019-05-27T10:42:10Z</time>
      </trkpt>
      <trkpt lat="45.09389" lon="5.07349">
        <ele>223.643799</ele>
        <time>2019-05-27T10:42:24Z</time>
      </trkpt>
      <trkpt lat="45.09414" lon="5.07429">
        <ele>224.605225</ele>
        <time>2019-05-27T10:42:37Z</time>
      </trkpt>
      <trkpt lat="45.09424" lon="5.07452">
        <ele>225.085938</ele>
        <time>2019-05-27T10:42:41Z</time>
      </trkpt>
      <trkpt lat="45.09432" lon="5.07468">
        <ele>225.566528</ele>
        <time>2019-05-27T10:42:44Z</time>
      </trkpt>
      <trkpt lat="45.09465" lon="5.07521">
        <ele>226.527832</ele>
        <time>2019-05-27T10:42:55Z</time>
      </trkpt>
      <trkpt lat="45.09474" lon="5.07535">
        <ele>227.008545</ele>
        <time>2019-05-27T10:42:58Z</time>
      </trkpt>
      <trkpt lat="45.09542" lon="5.07616">
        <ele>227.969727</ele>
        <time>2019-05-27T10:43:19Z</time>
      </trkpt>
      <trkpt lat="45.09585" lon="5.07655">
        <ele>227.969727</ele>
        <time>2019-05-27T10:43:33Z</time>
      </trkpt>
      <trkpt lat="45.09632" lon="5.07599">
        <ele>230.85376</ele>
        <time>2019-05-27T10:43:52Z</time>
      </trkpt>
      <trkpt lat="45.09665" lon="5.07567">
        <ele>231.814941</ele>
        <time>2019-05-27T10:44:07Z</time>
      </trkpt>
      <trkpt lat="45.09712" lon="5.07548">
        <ele>234.218384</ele>
        <time>2019-05-27T10:44:26Z</time>
      </trkpt>
      <trkpt lat="45.09758" lon="5.07534">
        <ele>235.179688</ele>
        <time>2019-05-27T10:44:42Z</time>
      </trkpt>
      <trkpt lat="45.09809" lon="5.07524">
        <ele>235.179688</ele>
        <time>2019-05-27T10:44:58Z</time>
      </trkpt>
      <trkpt lat="45.09862" lon="5.07545">
        <ele>236.621704</ele>
        <time>2019-05-27T10:45:15Z</time>
      </trkpt>
      <trkpt lat="45.09927" lon="5.07573">
        <ele>237.102295</ele>
        <time>2019-05-27T10:45:35Z</time>
      </trkpt>
      <trkpt lat="45.09993" lon="5.07586">
        <ele>239.024902</ele>
        <time>2019-05-27T10:45:55Z</time>
      </trkpt>
      <trkpt lat="45.10055" lon="5.07604">
        <ele>240.467041</ele>
        <time>2019-05-27T10:46:16Z</time>
      </trkpt>
      <trkpt lat="45.10096" lon="5.07627">
        <ele>243.35083</ele>
        <time>2019-05-27T10:46:33Z</time>
      </trkpt>
      <trkpt lat="45.10125" lon="5.07649">
        <ele>245.273438</ele>
        <time>2019-05-27T10:46:49Z</time>
      </trkpt>
      <trkpt lat="45.10153" lon="5.07659">
        <ele>248.157593</ele>
        <time>2019-05-27T10:47:06Z</time>
      </trkpt>
      <trkpt lat="45.10181" lon="5.07678">
        <ele>250.0802</ele>
        <time>2019-05-27T10:47:26Z</time>
      </trkpt>
      <trkpt lat="45.10215" lon="5.07717">
        <ele>252.002808</ele>
        <time>2019-05-27T10:47:50Z</time>
      </trkpt>
      <trkpt lat="45.10249" lon="5.07732">
        <ele>253.925415</ele>
        <time>2019-05-27T10:48:09Z</time>
      </trkpt>
      <trkpt lat="45.10273" lon="5.07735">
        <ele>255.36731</ele>
        <time>2019-05-27T10:48:21Z</time>
      </trkpt>
      <trkpt lat="45.10306" lon="5.07729">
        <ele>257.290039</ele>
        <time>2019-05-27T10:48:36Z</time>
      </trkpt>
      <trkpt lat="45.10326" lon="5.0773">
        <ele>258.731934</ele>
        <time>2019-05-27T10:48:51Z</time>
      </trkpt>
      <trkpt lat="45.10326" lon="5.07729">
        <ele>258.731934</ele>
        <time>2019-05-27T10:48:52Z</time>
      </trkpt>
      <trkpt lat="45.10313" lon="5.07728">
        <ele>258.251343</ele>
        <time>2019-05-27T10:48:59Z</time>
      </trkpt>
      <trkpt lat="45.10313" lon="5.07737">
        <ele>257.770752</ele>
        <time>2019-05-27T10:49:05Z</time>
      </trkpt>
      <trkpt lat="45.10323" lon="5.07746">
        <ele>258.251343</ele>
        <time>2019-05-27T10:49:12Z</time>
      </trkpt>
      <trkpt lat="45.10331" lon="5.07748">
        <ele>257.770752</ele>
        <time>2019-05-27T10:49:16Z</time>
      </trkpt>
      <trkpt lat="45.10342" lon="5.07762">
        <ele>258.731934</ele>
        <time>2019-05-27T10:49:23Z</time>
      </trkpt>
      <trkpt lat="45.10349" lon="5.07765">
        <ele>258.731934</ele>
        <time>2019-05-27T10:49:27Z</time>
      </trkpt>
      <trkpt lat="45.10354" lon="5.07766">
        <ele>259.212646</ele>
        <time>2019-05-27T10:49:30Z</time>
      </trkpt>
      <trkpt lat="45.10358" lon="5.07767">
        <ele>260.17395</ele>
        <time>2019-05-27T10:49:34Z</time>
      </trkpt>
      <trkpt lat="45.10355" lon="5.07765">
        <ele>259.693359</ele>
        <time>2019-05-27T10:49:39Z</time>
      </trkpt>
      <trkpt lat="45.10351" lon="5.07765">
        <ele>258.731934</ele>
        <time>2019-05-27T10:49:51Z</time>
      </trkpt>
      <trkpt lat="45.10352" lon="5.07766">
        <ele>258.251343</ele>
        <time>2019-05-27T10:49:52Z</time>
      </trkpt>
      <trkpt lat="45.10356" lon="5.07766">
        <ele>259.212646</ele>
        <time>2019-05-27T10:50:03Z</time>
      </trkpt>
      <trkpt lat="45.10363" lon="5.07738">
        <ele>269.787109</ele>
        <time>2019-05-27T11:58:46Z</time>
      </trkpt>
      <trkpt lat="45.10361" lon="5.07738">
        <ele>259.212646</ele>
        <time>2019-05-27T11:58:49Z</time>
      </trkpt>
      <trkpt lat="45.10361" lon="5.07739">
        <ele>259.212646</ele>
        <time>2019-05-27T11:58:50Z</time>
      </trkpt>
      <trkpt lat="45.10363" lon="5.0774">
        <ele>262.577148</ele>
        <time>2019-05-27T11:59:16Z</time>
      </trkpt>
      <trkpt lat="45.10363" lon="5.0774">
        <ele>265.941895</ele>
        <time>2019-05-27T11:59:30Z</time>
      </trkpt>
      <trkpt lat="45.10363" lon="5.0774">
        <ele>268.825806</ele>
        <time>2019-05-27T11:59:58Z</time>
      </trkpt>
      <trkpt lat="45.10363" lon="5.0774">
        <ele>269.306519</ele>
        <time>2019-05-27T12:00:28Z</time>
      </trkpt>
      <trkpt lat="45.10365" lon="5.0774">
        <ele>271.229126</ele>
        <time>2019-05-27T12:01:03Z</time>
      </trkpt>
      <trkpt lat="45.10367" lon="5.07729">
        <ele>271.229126</ele>
        <time>2019-05-27T12:01:13Z</time>
      </trkpt>
      <trkpt lat="45.10362" lon="5.07728">
        <ele>270.2677</ele>
        <time>2019-05-27T12:01:17Z</time>
      </trkpt>
      <trkpt lat="45.10324" lon="5.0772">
        <ele>267.383911</ele>
        <time>2019-05-27T12:01:31Z</time>
      </trkpt>
      <trkpt lat="45.10269" lon="5.07725">
        <ele>264.019287</ele>
        <time>2019-05-27T12:01:44Z</time>
      </trkpt>
      <trkpt lat="45.10253" lon="5.07725">
        <ele>263.057861</ele>
        <time>2019-05-27T12:01:52Z</time>
      </trkpt>
      <trkpt lat="45.10233" lon="5.07722">
        <ele>263.057861</ele>
        <time>2019-05-27T12:02:08Z</time>
      </trkpt>
      <trkpt lat="45.10197" lon="5.07702">
        <ele>261.615967</ele>
        <time>2019-05-27T12:02:17Z</time>
      </trkpt>
      <trkpt lat="45.10162" lon="5.07658">
        <ele>258.731934</ele>
        <time>2019-05-27T12:02:31Z</time>
      </trkpt>
      <trkpt lat="45.1016" lon="5.07662">
        <ele>257.770752</ele>
        <time>2019-05-27T12:02:35Z</time>
      </trkpt>
      <trkpt lat="45.10155" lon="5.07674">
        <ele>254.406006</ele>
        <time>2019-05-27T12:02:39Z</time>
      </trkpt>
      <trkpt lat="45.1015" lon="5.07683">
        <ele>253.925415</ele>
        <time>2019-05-27T12:02:41Z</time>
      </trkpt>
      <trkpt lat="45.10142" lon="5.077">
        <ele>252.483398</ele>
        <time>2019-05-27T12:02:44Z</time>
      </trkpt>
      <trkpt lat="45.10133" lon="5.07708">
        <ele>252.002808</ele>
        <time>2019-05-27T12:02:47Z</time>
      </trkpt>
      <trkpt lat="45.10136" lon="5.07717">
        <ele>252.002808</ele>
        <time>2019-05-27T12:02:52Z</time>
      </trkpt>
      <trkpt lat="45.10165" lon="5.07738">
        <ele>254.406006</ele>
        <time>2019-05-27T12:03:09Z</time>
      </trkpt>
      <trkpt lat="45.10181" lon="5.07752">
        <ele>256.328735</ele>
        <time>2019-05-27T12:03:20Z</time>
      </trkpt>
      <trkpt lat="45.10185" lon="5.07756">
        <ele>256.328735</ele>
        <time>2019-05-27T12:03:23Z</time>
      </trkpt>
      <trkpt lat="45.10193" lon="5.07763">
        <ele>257.290039</ele>
        <time>2019-05-27T12:03:30Z</time>
      </trkpt>
      <trkpt lat="45.1021" lon="5.07775">
        <ele>259.212646</ele>
        <time>2019-05-27T12:03:44Z</time>
      </trkpt>
      <trkpt lat="45.10214" lon="5.0778">
        <ele>260.17395</ele>
        <time>2019-05-27T12:03:53Z</time>
      </trkpt>
      <trkpt lat="45.1023" lon="5.07786">
        <ele>261.615967</ele>
        <time>2019-05-27T12:04:04Z</time>
      </trkpt>
      <trkpt lat="45.10246" lon="5.07798">
        <ele>264.019287</ele>
        <time>2019-05-27T12:04:18Z</time>
      </trkpt>
      <trkpt lat="45.1026" lon="5.07803">
        <ele>265.941895</ele>
        <time>2019-05-27T12:04:29Z</time>
      </trkpt>
      <trkpt lat="45.10264" lon="5.07809">
        <ele>266.903198</ele>
        <time>2019-05-27T12:04:34Z</time>
      </trkpt>
      <trkpt lat="45.10267" lon="5.07811">
        <ele>267.383911</ele>
        <time>2019-05-27T12:04:37Z</time>
      </trkpt>
      <trkpt lat="45.10278" lon="5.07826">
        <ele>269.787109</ele>
        <time>2019-05-27T12:04:51Z</time>
      </trkpt>
      <trkpt lat="45.10284" lon="5.07839">
        <ele>272.19043</ele>
        <time>2019-05-27T12:05:03Z</time>
      </trkpt>
      <trkpt lat="45.10286" lon="5.07841">
        <ele>272.671143</ele>
        <time>2019-05-27T12:05:05Z</time>
      </trkpt>
      <trkpt lat="45.10295" lon="5.07853">
        <ele>275.074463</ele>
        <time>2019-05-27T12:05:18Z</time>
      </trkpt>
      <trkpt lat="45.103" lon="5.07862">
        <ele>276.035645</ele>
        <time>2019-05-27T12:05:26Z</time>
      </trkpt>
      <trkpt lat="45.10304" lon="5.07866">
        <ele>276.99707</ele>
        <time>2019-05-27T12:05:30Z</time>
      </trkpt>
      <trkpt lat="45.10305" lon="5.07869">
        <ele>276.99707</ele>
        <time>2019-05-27T12:05:32Z</time>
      </trkpt>
      <trkpt lat="45.10306" lon="5.07875">
        <ele>278.438965</ele>
        <time>2019-05-27T12:05:36Z</time>
      </trkpt>
      <trkpt lat="45.10311" lon="5.07876">
        <ele>278.919678</ele>
        <time>2019-05-27T12:05:39Z</time>
      </trkpt>
      <trkpt lat="45.10318" lon="5.0789">
        <ele>281.322998</ele>
        <time>2019-05-27T12:05:48Z</time>
      </trkpt>
      <trkpt lat="45.10323" lon="5.07896">
        <ele>282.284302</ele>
        <time>2019-05-27T12:05:53Z</time>
      </trkpt>
      <trkpt lat="45.10333" lon="5.07907">
        <ele>284.687622</ele>
        <time>2019-05-27T12:06:11Z</time>
      </trkpt>
      <trkpt lat="45.10341" lon="5.07923">
        <ele>285.168213</ele>
        <time>2019-05-27T12:07:14Z</time>
      </trkpt>
      <trkpt lat="45.10345" lon="5.07932">
        <ele>286.610229</ele>
        <time>2019-05-27T12:07:20Z</time>
      </trkpt>
      <trkpt lat="45.1035" lon="5.07941">
        <ele>287.09082</ele>
        <time>2019-05-27T12:07:26Z</time>
      </trkpt>
      <trkpt lat="45.10353" lon="5.07946">
        <ele>287.571411</ele>
        <time>2019-05-27T12:07:29Z</time>
      </trkpt>
      <trkpt lat="45.10357" lon="5.07953">
        <ele>288.052246</ele>
        <time>2019-05-27T12:07:34Z</time>
      </trkpt>
      <trkpt lat="45.10373" lon="5.07982">
        <ele>290.936157</ele>
        <time>2019-05-27T12:07:53Z</time>
      </trkpt>
      <trkpt lat="45.10375" lon="5.07983">
        <ele>291.416748</ele>
        <time>2019-05-27T12:07:55Z</time>
      </trkpt>
      <trkpt lat="45.10378" lon="5.0799">
        <ele>292.378174</ele>
        <time>2019-05-27T12:08:00Z</time>
      </trkpt>
      <trkpt lat="45.10384" lon="5.07996">
        <ele>293.820068</ele>
        <time>2019-05-27T12:08:07Z</time>
      </trkpt>
      <trkpt lat="45.10387" lon="5.08">
        <ele>293.820068</ele>
        <time>2019-05-27T12:08:10Z</time>
      </trkpt>
      <trkpt lat="45.10389" lon="5.08003">
        <ele>294.300781</ele>
        <time>2019-05-27T12:08:12Z</time>
      </trkpt>
      <trkpt lat="45.10398" lon="5.08028">
        <ele>296.223511</ele>
        <time>2019-05-27T12:08:27Z</time>
      </trkpt>
      <trkpt lat="45.10402" lon="5.08034">
        <ele>297.184692</ele>
        <time>2019-05-27T12:08:32Z</time>
      </trkpt>
      <trkpt lat="45.10418" lon="5.08043">
        <ele>299.588013</ele>
        <time>2019-05-27T12:08:47Z</time>
      </trkpt>
      <trkpt lat="45.10422" lon="5.08048">
        <ele>299.588013</ele>
        <time>2019-05-27T12:09:08Z</time>
      </trkpt>
      <trkpt lat="45.10425" lon="5.08049">
        <ele>300.068726</ele>
        <time>2019-05-27T12:09:14Z</time>
      </trkpt>
      <trkpt lat="45.10454" lon="5.08067">
        <ele>300.068726</ele>
        <time>2019-05-27T12:09:28Z</time>
      </trkpt>
      <trkpt lat="45.10478" lon="5.08081">
        <ele>299.588013</ele>
        <time>2019-05-27T12:09:38Z</time>
      </trkpt>
      <trkpt lat="45.10503" lon="5.08106">
        <ele>299.588013</ele>
        <time>2019-05-27T12:09:49Z</time>
      </trkpt>
      <trkpt lat="45.10508" lon="5.0811">
        <ele>300.068726</ele>
        <time>2019-05-27T12:09:51Z</time>
      </trkpt>
      <trkpt lat="45.10535" lon="5.08112">
        <ele>303.433228</ele>
        <time>2019-05-27T12:10:06Z</time>
      </trkpt>
      <trkpt lat="45.10552" lon="5.08119">
        <ele>306.797852</ele>
        <time>2019-05-27T12:10:19Z</time>
      </trkpt>
      <trkpt lat="45.10565" lon="5.08122">
        <ele>309.681885</ele>
        <time>2019-05-27T12:10:31Z</time>
      </trkpt>
      <trkpt lat="45.10567" lon="5.08124">
        <ele>310.162476</ele>
        <time>2019-05-27T12:10:34Z</time>
      </trkpt>
      <trkpt lat="45.10572" lon="5.08125">
        <ele>310.643066</ele>
        <time>2019-05-27T12:10:38Z</time>
      </trkpt>
      <trkpt lat="45.10585" lon="5.0813">
        <ele>314.007812</ele>
        <time>2019-05-27T12:10:52Z</time>
      </trkpt>
      <trkpt lat="45.10592" lon="5.08136">
        <ele>314.969116</ele>
        <time>2019-05-27T12:10:59Z</time>
      </trkpt>
      <trkpt lat="45.10598" lon="5.08138">
        <ele>315.449829</ele>
        <time>2019-05-27T12:11:04Z</time>
      </trkpt>
      <trkpt lat="45.106" lon="5.08139">
        <ele>315.449829</ele>
        <time>2019-05-27T12:11:07Z</time>
      </trkpt>
      <trkpt lat="45.1061" lon="5.08133">
        <ele>316.891724</ele>
        <time>2019-05-27T12:11:14Z</time>
      </trkpt>
      <trkpt lat="45.10613" lon="5.08131">
        <ele>317.853027</ele>
        <time>2019-05-27T12:11:17Z</time>
      </trkpt>
      <trkpt lat="45.10626" lon="5.08122">
        <ele>320.737061</ele>
        <time>2019-05-27T12:11:31Z</time>
      </trkpt>
      <trkpt lat="45.10638" lon="5.0812">
        <ele>322.659668</ele>
        <time>2019-05-27T12:11:42Z</time>
      </trkpt>
      <trkpt lat="45.10648" lon="5.08121">
        <ele>325.062988</ele>
        <time>2019-05-27T12:11:54Z</time>
      </trkpt>
      <trkpt lat="45.10655" lon="5.08129">
        <ele>326.02417</ele>
        <time>2019-05-27T12:12:02Z</time>
      </trkpt>
      <trkpt lat="45.10656" lon="5.08136">
        <ele>327.946777</ele>
        <time>2019-05-27T12:12:07Z</time>
      </trkpt>
      <trkpt lat="45.10658" lon="5.08143">
        <ele>328.427612</ele>
        <time>2019-05-27T12:12:23Z</time>
      </trkpt>
      <trkpt lat="45.10661" lon="5.08146">
        <ele>327.466187</ele>
        <time>2019-05-27T12:12:30Z</time>
      </trkpt>
      <trkpt lat="45.10663" lon="5.08151">
        <ele>326.985596</ele>
        <time>2019-05-27T12:12:32Z</time>
      </trkpt>
      <trkpt lat="45.1067" lon="5.08161">
        <ele>327.466187</ele>
        <time>2019-05-27T12:12:39Z</time>
      </trkpt>
      <trkpt lat="45.10675" lon="5.08166">
        <ele>328.427612</ele>
        <time>2019-05-27T12:12:43Z</time>
      </trkpt>
      <trkpt lat="45.10677" lon="5.08167">
        <ele>328.427612</ele>
        <time>2019-05-27T12:12:45Z</time>
      </trkpt>
      <trkpt lat="45.1068" lon="5.08171">
        <ele>328.427612</ele>
        <time>2019-05-27T12:12:48Z</time>
      </trkpt>
      <trkpt lat="45.1069" lon="5.08186">
        <ele>328.427612</ele>
        <time>2019-05-27T12:12:56Z</time>
      </trkpt>
      <trkpt lat="45.10705" lon="5.08185">
        <ele>328.427612</ele>
        <time>2019-05-27T12:13:05Z</time>
      </trkpt>
      <trkpt lat="45.10711" lon="5.08179">
        <ele>329.388916</ele>
        <time>2019-05-27T12:13:10Z</time>
      </trkpt>
      <trkpt lat="45.10712" lon="5.08178">
        <ele>329.869507</ele>
        <time>2019-05-27T12:13:12Z</time>
      </trkpt>
      <trkpt lat="45.10715" lon="5.08177">
        <ele>328.908325</ele>
        <time>2019-05-27T12:13:15Z</time>
      </trkpt>
      <trkpt lat="45.10723" lon="5.08168">
        <ele>329.869507</ele>
        <time>2019-05-27T12:13:21Z</time>
      </trkpt>
      <trkpt lat="45.10733" lon="5.08154">
        <ele>331.792114</ele>
        <time>2019-05-27T12:13:26Z</time>
      </trkpt>
      <trkpt lat="45.10751" lon="5.08145">
        <ele>334.195435</ele>
        <time>2019-05-27T12:13:39Z</time>
      </trkpt>
      <trkpt lat="45.10756" lon="5.08146">
        <ele>335.156738</ele>
        <time>2019-05-27T12:13:43Z</time>
      </trkpt>
      <trkpt lat="45.10762" lon="5.08149">
        <ele>336.118164</ele>
        <time>2019-05-27T12:13:47Z</time>
      </trkpt>
      <trkpt lat="45.10776" lon="5.08168">
        <ele>339.482666</ele>
        <time>2019-05-27T12:14:05Z</time>
      </trkpt>
      <trkpt lat="45.10778" lon="5.08175">
        <ele>339.963379</ele>
        <time>2019-05-27T12:14:09Z</time>
      </trkpt>
      <trkpt lat="45.1079" lon="5.08188">
        <ele>342.366699</ele>
        <time>2019-05-27T12:14:22Z</time>
      </trkpt>
      <trkpt lat="45.10797" lon="5.08199">
        <ele>343.327881</ele>
        <time>2019-05-27T12:14:36Z</time>
      </trkpt>
      <trkpt lat="45.10786" lon="5.08198">
        <ele>341.405273</ele>
        <time>2019-05-27T12:14:48Z</time>
      </trkpt>
      <trkpt lat="45.10786" lon="5.082">
        <ele>341.405273</ele>
        <time>2019-05-27T12:15:35Z</time>
      </trkpt>
      <trkpt lat="45.10789" lon="5.08201">
        <ele>342.366699</ele>
        <time>2019-05-27T12:15:57Z</time>
      </trkpt>
      <trkpt lat="45.10806" lon="5.08195">
        <ele>343.327881</ele>
        <time>2019-05-27T12:16:10Z</time>
      </trkpt>
      <trkpt lat="45.10828" lon="5.08183">
        <ele>343.327881</ele>
        <time>2019-05-27T12:16:22Z</time>
      </trkpt>
      <trkpt lat="45.10828" lon="5.08182">
        <ele>343.808594</ele>
        <time>2019-05-27T12:16:23Z</time>
      </trkpt>
      <trkpt lat="45.10841" lon="5.08173">
        <ele>345.25061</ele>
        <time>2019-05-27T12:16:30Z</time>
      </trkpt>
      <trkpt lat="45.10861" lon="5.08177">
        <ele>347.173218</ele>
        <time>2019-05-27T12:16:43Z</time>
      </trkpt>
      <trkpt lat="45.10864" lon="5.08179">
        <ele>347.653931</ele>
        <time>2019-05-27T12:16:45Z</time>
      </trkpt>
      <trkpt lat="45.10869" lon="5.08182">
        <ele>348.615234</ele>
        <time>2019-05-27T12:16:50Z</time>
      </trkpt>
      <trkpt lat="45.1087" lon="5.08191">
        <ele>349.576538</ele>
        <time>2019-05-27T12:16:57Z</time>
      </trkpt>
      <trkpt lat="45.10868" lon="5.08214">
        <ele>352.460571</ele>
        <time>2019-05-27T12:17:12Z</time>
      </trkpt>
      <trkpt lat="45.10849" lon="5.08239">
        <ele>352.460571</ele>
        <time>2019-05-27T12:17:27Z</time>
      </trkpt>
      <trkpt lat="45.10846" lon="5.08243">
        <ele>352.460571</ele>
        <time>2019-05-27T12:17:29Z</time>
      </trkpt>
      <trkpt lat="45.10837" lon="5.08257">
        <ele>352.941162</ele>
        <time>2019-05-27T12:17:44Z</time>
      </trkpt>
      <trkpt lat="45.10827" lon="5.0827">
        <ele>353.421875</ele>
        <time>2019-05-27T12:18:03Z</time>
      </trkpt>
      <trkpt lat="45.10821" lon="5.0828">
        <ele>353.902588</ele>
        <time>2019-05-27T12:18:08Z</time>
      </trkpt>
      <trkpt lat="45.10815" lon="5.08305">
        <ele>354.383179</ele>
        <time>2019-05-27T12:18:17Z</time>
      </trkpt>
      <trkpt lat="45.10825" lon="5.08318">
        <ele>357.26709</ele>
        <time>2019-05-27T12:18:29Z</time>
      </trkpt>
      <trkpt lat="45.10831" lon="5.08332">
        <ele>360.151123</ele>
        <time>2019-05-27T12:18:38Z</time>
      </trkpt>
      <trkpt lat="45.10845" lon="5.08336">
        <ele>362.554321</ele>
        <time>2019-05-27T12:18:51Z</time>
      </trkpt>
      <trkpt lat="45.10856" lon="5.08331">
        <ele>364.476929</ele>
        <time>2019-05-27T12:19:02Z</time>
      </trkpt>
      <trkpt lat="45.10863" lon="5.08329">
        <ele>365.918945</ele>
        <time>2019-05-27T12:19:08Z</time>
      </trkpt>
      <trkpt lat="45.10868" lon="5.08328">
        <ele>366.399536</ele>
        <time>2019-05-27T12:19:13Z</time>
      </trkpt>
      <trkpt lat="45.10874" lon="5.08325">
        <ele>366.880249</ele>
        <time>2019-05-27T12:19:18Z</time>
      </trkpt>
      <trkpt lat="45.10879" lon="5.08322">
        <ele>367.360962</ele>
        <time>2019-05-27T12:19:22Z</time>
      </trkpt>
      <trkpt lat="45.10887" lon="5.08318">
        <ele>368.322266</ele>
        <time>2019-05-27T12:19:28Z</time>
      </trkpt>
      <trkpt lat="45.10894" lon="5.08315">
        <ele>368.322266</ele>
        <time>2019-05-27T12:19:34Z</time>
      </trkpt>
      <trkpt lat="45.10899" lon="5.08312">
        <ele>368.802979</ele>
        <time>2019-05-27T12:19:38Z</time>
      </trkpt>
      <trkpt lat="45.10915" lon="5.0831">
        <ele>369.764282</ele>
        <time>2019-05-27T12:19:48Z</time>
      </trkpt>
      <trkpt lat="45.10939" lon="5.08309">
        <ele>370.725586</ele>
        <time>2019-05-27T12:20:02Z</time>
      </trkpt>
      <trkpt lat="45.10945" lon="5.08309">
        <ele>370.725586</ele>
        <time>2019-05-27T12:20:05Z</time>
      </trkpt>
      <trkpt lat="45.10953" lon="5.08315">
        <ele>372.16748</ele>
        <time>2019-05-27T12:20:09Z</time>
      </trkpt>
      <trkpt lat="45.10981" lon="5.08324">
        <ele>373.128906</ele>
        <time>2019-05-27T12:20:25Z</time>
      </trkpt>
      <trkpt lat="45.11009" lon="5.08335">
        <ele>375.532104</ele>
        <time>2019-05-27T12:20:42Z</time>
      </trkpt>
      <trkpt lat="45.1103" lon="5.08341">
        <ele>375.532104</ele>
        <time>2019-05-27T12:20:54Z</time>
      </trkpt>
      <trkpt lat="45.11037" lon="5.08338">
        <ele>376.012817</ele>
        <time>2019-05-27T12:20:57Z</time>
      </trkpt>
      <trkpt lat="45.1106" lon="5.08338">
        <ele>376.012817</ele>
        <time>2019-05-27T12:21:10Z</time>
      </trkpt>
      <trkpt lat="45.11078" lon="5.08328">
        <ele>379.377441</ele>
        <time>2019-05-27T12:21:23Z</time>
      </trkpt>
      <trkpt lat="45.11085" lon="5.0832">
        <ele>380.338745</ele>
        <time>2019-05-27T12:21:38Z</time>
      </trkpt>
      <trkpt lat="45.11089" lon="5.0832">
        <ele>380.819458</ele>
        <time>2019-05-27T12:22:11Z</time>
      </trkpt>
      <trkpt lat="45.11089" lon="5.0832">
        <ele>380.819458</ele>
        <time>2019-05-27T12:22:36Z</time>
      </trkpt>
      <trkpt lat="45.11125" lon="5.08288">
        <ele>382.742065</ele>
        <time>2019-05-27T12:22:57Z</time>
      </trkpt>
      <trkpt lat="45.11156" lon="5.08262">
        <ele>382.742065</ele>
        <time>2019-05-27T12:23:10Z</time>
      </trkpt>
      <trkpt lat="45.11175" lon="5.08249">
        <ele>383.703247</ele>
        <time>2019-05-27T12:23:18Z</time>
      </trkpt>
      <trkpt lat="45.11201" lon="5.08235">
        <ele>383.222656</ele>
        <time>2019-05-27T12:23:28Z</time>
      </trkpt>
      <trkpt lat="45.11203" lon="5.08235">
        <ele>383.222656</ele>
        <time>2019-05-27T12:23:29Z</time>
      </trkpt>
      <trkpt lat="45.11228" lon="5.08228">
        <ele>384.664795</ele>
        <time>2019-05-27T12:23:39Z</time>
      </trkpt>
      <trkpt lat="45.11265" lon="5.08209">
        <ele>387.548584</ele>
        <time>2019-05-27T12:23:58Z</time>
      </trkpt>
      <trkpt lat="45.11312" lon="5.08191">
        <ele>390.432617</ele>
        <time>2019-05-27T12:24:20Z</time>
      </trkpt>
      <trkpt lat="45.11355" lon="5.0817">
        <ele>390.913208</ele>
        <time>2019-05-27T12:24:42Z</time>
      </trkpt>
      <trkpt lat="45.1138" lon="5.08158">
        <ele>390.913208</ele>
        <time>2019-05-27T12:24:54Z</time>
      </trkpt>
      <trkpt lat="45.11384" lon="5.08153">
        <ele>391.393799</ele>
        <time>2019-05-27T12:24:57Z</time>
      </trkpt>
      <trkpt lat="45.11406" lon="5.08139">
        <ele>390.432617</ele>
        <time>2019-05-27T12:25:14Z</time>
      </trkpt>
      <trkpt lat="45.11405" lon="5.0814">
        <ele>390.432617</ele>
        <time>2019-05-27T12:25:39Z</time>
      </trkpt>
      <trkpt lat="45.11409" lon="5.0814">
        <ele>389.471191</ele>
        <time>2019-05-27T12:25:59Z</time>
      </trkpt>
      <trkpt lat="45.1143" lon="5.08137">
        <ele>388.990601</ele>
        <time>2019-05-27T12:26:13Z</time>
      </trkpt>
      <trkpt lat="45.11485" lon="5.08148">
        <ele>387.548584</ele>
        <time>2019-05-27T12:26:30Z</time>
      </trkpt>
      <trkpt lat="45.11513" lon="5.08155">
        <ele>384.184082</ele>
        <time>2019-05-27T12:26:41Z</time>
      </trkpt>
      <trkpt lat="45.11537" lon="5.08158">
        <ele>380.338745</ele>
        <time>2019-05-27T12:26:51Z</time>
      </trkpt>
      <trkpt lat="45.11542" lon="5.08159">
        <ele>379.377441</ele>
        <time>2019-05-27T12:26:53Z</time>
      </trkpt>
      <trkpt lat="45.11552" lon="5.0816">
        <ele>377.935425</ele>
        <time>2019-05-27T12:26:57Z</time>
      </trkpt>
      <trkpt lat="45.11566" lon="5.0816">
        <ele>376.49353</ele>
        <time>2019-05-27T12:27:01Z</time>
      </trkpt>
      <trkpt lat="45.11607" lon="5.08137">
        <ele>373.609497</ele>
        <time>2019-05-27T12:27:14Z</time>
      </trkpt>
      <trkpt lat="45.11613" lon="5.08128">
        <ele>372.16748</ele>
        <time>2019-05-27T12:27:17Z</time>
      </trkpt>
      <trkpt lat="45.11639" lon="5.08094">
        <ele>369.764282</ele>
        <time>2019-05-27T12:27:32Z</time>
      </trkpt>
      <trkpt lat="45.1164" lon="5.0809">
        <ele>369.764282</ele>
        <time>2019-05-27T12:27:47Z</time>
      </trkpt>
      <trkpt lat="45.11644" lon="5.0806">
        <ele>367.360962</ele>
        <time>2019-05-27T12:30:11Z</time>
      </trkpt>
      <trkpt lat="45.1165" lon="5.08033">
        <ele>365.918945</ele>
        <time>2019-05-27T12:30:18Z</time>
      </trkpt>
      <trkpt lat="45.11662" lon="5.07997">
        <ele>364.957642</ele>
        <time>2019-05-27T12:30:32Z</time>
      </trkpt>
      <trkpt lat="45.1168" lon="5.07972">
        <ele>362.07373</ele>
        <time>2019-05-27T12:30:43Z</time>
      </trkpt>
      <trkpt lat="45.11713" lon="5.0793">
        <ele>360.631714</ele>
        <time>2019-05-27T12:30:58Z</time>
      </trkpt>
      <trkpt lat="45.11722" lon="5.07931">
        <ele>360.631714</ele>
        <time>2019-05-27T12:31:07Z</time>
      </trkpt>
      <trkpt lat="45.11722" lon="5.07927">
        <ele>361.59314</ele>
        <time>2019-05-27T12:31:26Z</time>
      </trkpt>
      <trkpt lat="45.11722" lon="5.07927">
        <ele>360.151123</ele>
        <time>2019-05-27T12:31:28Z</time>
      </trkpt>
      <trkpt lat="45.11722" lon="5.07926">
        <ele>360.631714</ele>
        <time>2019-05-27T12:31:29Z</time>
      </trkpt>
      <trkpt lat="45.11733" lon="5.0789">
        <ele>362.07373</ele>
        <time>2019-05-27T12:31:42Z</time>
      </trkpt>
      <trkpt lat="45.11756" lon="5.07857">
        <ele>361.59314</ele>
        <time>2019-05-27T12:31:56Z</time>
      </trkpt>
      <trkpt lat="45.11765" lon="5.07848">
        <ele>362.554321</ele>
        <time>2019-05-27T12:32:01Z</time>
      </trkpt>
      <trkpt lat="45.11776" lon="5.07841">
        <ele>363.996338</ele>
        <time>2019-05-27T12:32:08Z</time>
      </trkpt>
      <trkpt lat="45.11783" lon="5.07835">
        <ele>364.476929</ele>
        <time>2019-05-27T12:32:12Z</time>
      </trkpt>
      <trkpt lat="45.11804" lon="5.07824">
        <ele>366.880249</ele>
        <time>2019-05-27T12:32:27Z</time>
      </trkpt>
      <trkpt lat="45.11823" lon="5.07804">
        <ele>370.244873</ele>
        <time>2019-05-27T12:32:44Z</time>
      </trkpt>
      <trkpt lat="45.11839" lon="5.07783">
        <ele>373.128906</ele>
        <time>2019-05-27T12:32:58Z</time>
      </trkpt>
      <trkpt lat="45.11853" lon="5.07769">
        <ele>375.532104</ele>
        <time>2019-05-27T12:33:08Z</time>
      </trkpt>
      <trkpt lat="45.11882" lon="5.07736">
        <ele>377.935425</ele>
        <time>2019-05-27T12:33:29Z</time>
      </trkpt>
      <trkpt lat="45.11898" lon="5.07702">
        <ele>379.858032</ele>
        <time>2019-05-27T12:33:47Z</time>
      </trkpt>
      <trkpt lat="45.11908" lon="5.07676">
        <ele>382.742065</ele>
        <time>2019-05-27T12:33:59Z</time>
      </trkpt>
      <trkpt lat="45.11917" lon="5.07649">
        <ele>386.106689</ele>
        <time>2019-05-27T12:34:14Z</time>
      </trkpt>
      <trkpt lat="45.11921" lon="5.07629">
        <ele>388.990601</ele>
        <time>2019-05-27T12:34:28Z</time>
      </trkpt>
      <trkpt lat="45.11929" lon="5.07596">
        <ele>391.874512</ele>
        <time>2019-05-27T12:34:48Z</time>
      </trkpt>
      <trkpt lat="45.11941" lon="5.07568">
        <ele>395.239136</ele>
        <time>2019-05-27T12:35:04Z</time>
      </trkpt>
      <trkpt lat="45.11957" lon="5.07523">
        <ele>397.642456</ele>
        <time>2019-05-27T12:35:26Z</time>
      </trkpt>
      <trkpt lat="45.1198" lon="5.07479">
        <ele>399.084351</ele>
        <time>2019-05-27T12:35:46Z</time>
      </trkpt>
      <trkpt lat="45.11971" lon="5.07446">
        <ele>400.526489</ele>
        <time>2019-05-27T12:36:01Z</time>
      </trkpt>
      <trkpt lat="45.11967" lon="5.0744">
        <ele>400.526489</ele>
        <time>2019-05-27T12:36:05Z</time>
      </trkpt>
      <trkpt lat="45.11962" lon="5.07431">
        <ele>401.00708</ele>
        <time>2019-05-27T12:36:10Z</time>
      </trkpt>
      <trkpt lat="45.11954" lon="5.07383">
        <ele>402.449097</ele>
        <time>2019-05-27T12:36:35Z</time>
      </trkpt>
      <trkpt lat="45.11939" lon="5.07342">
        <ele>404.371704</ele>
        <time>2019-05-27T12:36:57Z</time>
      </trkpt>
      <trkpt lat="45.11932" lon="5.07317">
        <ele>406.294312</ele>
        <time>2019-05-27T12:37:11Z</time>
      </trkpt>
      <trkpt lat="45.11929" lon="5.07307">
        <ele>407.736328</ele>
        <time>2019-05-27T12:37:17Z</time>
      </trkpt>
      <trkpt lat="45.11927" lon="5.073">
        <ele>408.697632</ele>
        <time>2019-05-27T12:37:34Z</time>
      </trkpt>
      <trkpt lat="45.11927" lon="5.073">
        <ele>408.697632</ele>
        <time>2019-05-27T12:37:46Z</time>
      </trkpt>
      <trkpt lat="45.11925" lon="5.07263">
        <ele>412.062256</ele>
        <time>2019-05-27T12:38:05Z</time>
      </trkpt>
      <trkpt lat="45.11923" lon="5.07225">
        <ele>413.504272</ele>
        <time>2019-05-27T12:38:22Z</time>
      </trkpt>
      <trkpt lat="45.11919" lon="5.07213">
        <ele>414.465454</ele>
        <time>2019-05-27T12:38:30Z</time>
      </trkpt>
      <trkpt lat="45.11921" lon="5.07181">
        <ele>416.868896</ele>
        <time>2019-05-27T12:38:47Z</time>
      </trkpt>
      <trkpt lat="45.11943" lon="5.0715">
        <ele>419.752808</ele>
        <time>2019-05-27T12:39:10Z</time>
      </trkpt>
      <trkpt lat="45.11956" lon="5.07141">
        <ele>423.117432</ele>
        <time>2019-05-27T12:39:20Z</time>
      </trkpt>
      <trkpt lat="45.11978" lon="5.07114">
        <ele>426.001343</ele>
        <time>2019-05-27T12:39:38Z</time>
      </trkpt>
      <trkpt lat="45.11981" lon="5.07111">
        <ele>426.482056</ele>
        <time>2019-05-27T12:39:41Z</time>
      </trkpt>
      <trkpt lat="45.12002" lon="5.07083">
        <ele>428.885376</ele>
        <time>2019-05-27T12:40:00Z</time>
      </trkpt>
      <trkpt lat="45.12003" lon="5.07083">
        <ele>428.885376</ele>
        <time>2019-05-27T12:40:01Z</time>
      </trkpt>
      <trkpt lat="45.12012" lon="5.07086">
        <ele>429.365967</ele>
        <time>2019-05-27T12:40:09Z</time>
      </trkpt>
      <trkpt lat="45.12014" lon="5.07098">
        <ele>428.885376</ele>
        <time>2019-05-27T12:40:18Z</time>
      </trkpt>
      <trkpt lat="45.12016" lon="5.07113">
        <ele>431.288574</ele>
        <time>2019-05-27T12:40:30Z</time>
      </trkpt>
      <trkpt lat="45.12016" lon="5.07118">
        <ele>432.25</ele>
        <time>2019-05-27T12:40:33Z</time>
      </trkpt>
      <trkpt lat="45.12018" lon="5.07131">
        <ele>433.211304</ele>
        <time>2019-05-27T12:40:42Z</time>
      </trkpt>
      <trkpt lat="45.12019" lon="5.07134">
        <ele>434.172607</ele>
        <time>2019-05-27T12:40:44Z</time>
      </trkpt>
      <trkpt lat="45.12025" lon="5.07168">
        <ele>437.056519</ele>
        <time>2019-05-27T12:41:06Z</time>
      </trkpt>
      <trkpt lat="45.12036" lon="5.0719">
        <ele>437.056519</ele>
        <time>2019-05-27T12:41:19Z</time>
      </trkpt>
      <trkpt lat="45.12054" lon="5.07219">
        <ele>437.537109</ele>
        <time>2019-05-27T12:41:33Z</time>
      </trkpt>
      <trkpt lat="45.1206" lon="5.07226">
        <ele>437.537109</ele>
        <time>2019-05-27T12:41:37Z</time>
      </trkpt>
      <trkpt lat="45.12066" lon="5.07227">
        <ele>438.017822</ele>
        <time>2019-05-27T12:41:42Z</time>
      </trkpt>
      <trkpt lat="45.12068" lon="5.07228">
        <ele>438.979126</ele>
        <time>2019-05-27T12:42:04Z</time>
      </trkpt>
      <trkpt lat="45.12068" lon="5.07232">
        <ele>438.979126</ele>
        <time>2019-05-27T12:42:20Z</time>
      </trkpt>
      <trkpt lat="45.12064" lon="5.07234">
        <ele>439.459717</ele>
        <time>2019-05-27T12:43:03Z</time>
      </trkpt>
      <trkpt lat="45.12068" lon="5.07243">
        <ele>438.979126</ele>
        <time>2019-05-27T12:43:07Z</time>
      </trkpt>
      <trkpt lat="45.12078" lon="5.07257">
        <ele>439.94043</ele>
        <time>2019-05-27T12:43:18Z</time>
      </trkpt>
      <trkpt lat="45.12079" lon="5.07257">
        <ele>439.94043</ele>
        <time>2019-05-27T12:43:43Z</time>
      </trkpt>
      <trkpt lat="45.12077" lon="5.07255">
        <ele>439.459717</ele>
        <time>2019-05-27T12:46:15Z</time>
      </trkpt>
      <trkpt lat="45.12077" lon="5.07254">
        <ele>438.979126</ele>
        <time>2019-05-27T12:46:21Z</time>
      </trkpt>
      <trkpt lat="45.12082" lon="5.07248">
        <ele>440.421265</ele>
        <time>2019-05-27T12:46:26Z</time>
      </trkpt>
      <trkpt lat="45.12089" lon="5.07244">
        <ele>439.459717</ele>
        <time>2019-05-27T12:46:40Z</time>
      </trkpt>
      <trkpt lat="45.12089" lon="5.07244">
        <ele>439.459717</ele>
        <time>2019-05-27T12:46:46Z</time>
      </trkpt>
      <trkpt lat="45.12082" lon="5.07245">
        <ele>439.459717</ele>
        <time>2019-05-27T12:46:51Z</time>
      </trkpt>
      <trkpt lat="45.12076" lon="5.07243">
        <ele>439.94043</ele>
        <time>2019-05-27T12:46:55Z</time>
      </trkpt>
      <trkpt lat="45.12068" lon="5.07235">
        <ele>440.421265</ele>
        <time>2019-05-27T12:47:04Z</time>
      </trkpt>
      <trkpt lat="45.1207" lon="5.07234">
        <ele>439.94043</ele>
        <time>2019-05-27T12:47:05Z</time>
      </trkpt>
      <trkpt lat="45.12101" lon="5.07226">
        <ele>437.056519</ele>
        <time>2019-05-27T12:47:14Z</time>
      </trkpt>
      <trkpt lat="45.12132" lon="5.07241">
        <ele>437.056519</ele>
        <time>2019-05-27T12:47:20Z</time>
      </trkpt>
      <trkpt lat="45.12165" lon="5.07277">
        <ele>438.498535</ele>
        <time>2019-05-27T12:47:33Z</time>
      </trkpt>
      <trkpt lat="45.12199" lon="5.07344">
        <ele>440.421265</ele>
        <time>2019-05-27T12:47:51Z</time>
      </trkpt>
      <trkpt lat="45.12224" lon="5.07399">
        <ele>441.382446</ele>
        <time>2019-05-27T12:48:06Z</time>
      </trkpt>
      <trkpt lat="45.1225" lon="5.07462">
        <ele>442.343872</ele>
        <time>2019-05-27T12:48:21Z</time>
      </trkpt>
      <trkpt lat="45.12279" lon="5.07522">
        <ele>442.824463</ele>
        <time>2019-05-27T12:48:35Z</time>
      </trkpt>
      <trkpt lat="45.123" lon="5.07576">
        <ele>445.708374</ele>
        <time>2019-05-27T12:48:50Z</time>
      </trkpt>
      <trkpt lat="45.12325" lon="5.07614">
        <ele>446.669678</ele>
        <time>2019-05-27T12:49:01Z</time>
      </trkpt>
      <trkpt lat="45.12356" lon="5.07671">
        <ele>447.150269</ele>
        <time>2019-05-27T12:49:16Z</time>
      </trkpt>
      <trkpt lat="45.12389" lon="5.07714">
        <ele>444.74707</ele>
        <time>2019-05-27T12:49:27Z</time>
      </trkpt>
      <trkpt lat="45.12427" lon="5.07758">
        <ele>442.343872</ele>
        <time>2019-05-27T12:49:36Z</time>
      </trkpt>
      <trkpt lat="45.12472" lon="5.07834">
        <ele>440.421265</ele>
        <time>2019-05-27T12:49:47Z</time>
      </trkpt>
      <trkpt lat="45.12504" lon="5.07859">
        <ele>439.94043</ele>
        <time>2019-05-27T12:49:57Z</time>
      </trkpt>
      <trkpt lat="45.12542" lon="5.07873">
        <ele>442.343872</ele>
        <time>2019-05-27T12:50:06Z</time>
      </trkpt>
      <trkpt lat="45.12554" lon="5.0788">
        <ele>440.901855</ele>
        <time>2019-05-27T12:50:09Z</time>
      </trkpt>
      <trkpt lat="45.12598" lon="5.07907">
        <ele>440.901855</ele>
        <time>2019-05-27T12:50:20Z</time>
      </trkpt>
      <trkpt lat="45.1265" lon="5.07941">
        <ele>439.459717</ele>
        <time>2019-05-27T12:50:32Z</time>
      </trkpt>
      <trkpt lat="45.12674" lon="5.07962">
        <ele>438.979126</ele>
        <time>2019-05-27T12:50:36Z</time>
      </trkpt>
      <trkpt lat="45.12743" lon="5.08073">
        <ele>438.979126</ele>
        <time>2019-05-27T12:50:55Z</time>
      </trkpt>
      <trkpt lat="45.12813" lon="5.08146">
        <ele>437.537109</ele>
        <time>2019-05-27T12:51:11Z</time>
      </trkpt>
      <trkpt lat="45.12818" lon="5.08152">
        <ele>437.537109</ele>
        <time>2019-05-27T12:51:12Z</time>
      </trkpt>
      <trkpt lat="45.12852" lon="5.08207">
        <ele>433.691895</ele>
        <time>2019-05-27T12:51:20Z</time>
      </trkpt>
      <trkpt lat="45.12865" lon="5.08231">
        <ele>432.730713</ele>
        <time>2019-05-27T12:51:23Z</time>
      </trkpt>
      <trkpt lat="45.1288" lon="5.08275">
        <ele>430.807983</ele>
        <time>2019-05-27T12:51:28Z</time>
      </trkpt>
      <trkpt lat="45.12903" lon="5.08342">
        <ele>428.885376</ele>
        <time>2019-05-27T12:51:36Z</time>
      </trkpt>
      <trkpt lat="45.12916" lon="5.08375">
        <ele>428.404663</ele>
        <time>2019-05-27T12:51:49Z</time>
      </trkpt>
      <trkpt lat="45.12921" lon="5.08384">
        <ele>429.365967</ele>
        <time>2019-05-27T12:52:47Z</time>
      </trkpt>
      <trkpt lat="45.12923" lon="5.08387">
        <ele>429.846558</ele>
        <time>2019-05-27T12:52:49Z</time>
      </trkpt>
      <trkpt lat="45.12941" lon="5.08438">
        <ele>431.769165</ele>
        <time>2019-05-27T12:53:08Z</time>
      </trkpt>
      <trkpt lat="45.1295" lon="5.08491">
        <ele>433.691895</ele>
        <time>2019-05-27T12:53:28Z</time>
      </trkpt>
      <trkpt lat="45.12951" lon="5.08498">
        <ele>434.65332</ele>
        <time>2019-05-27T12:53:32Z</time>
      </trkpt>
      <trkpt lat="45.12953" lon="5.08491">
        <ele>434.172607</ele>
        <time>2019-05-27T12:53:38Z</time>
      </trkpt>
      <trkpt lat="45.1295" lon="5.08479">
        <ele>433.211304</ele>
        <time>2019-05-27T12:53:42Z</time>
      </trkpt>
      <trkpt lat="45.12955" lon="5.08478">
        <ele>433.211304</ele>
        <time>2019-05-27T12:53:48Z</time>
      </trkpt>
      <trkpt lat="45.12966" lon="5.08508">
        <ele>436.575928</ele>
        <time>2019-05-27T12:54:02Z</time>
      </trkpt>
      <trkpt lat="45.12968" lon="5.08513">
        <ele>436.095215</ele>
        <time>2019-05-27T12:54:05Z</time>
      </trkpt>
      <trkpt lat="45.12973" lon="5.08524">
        <ele>437.537109</ele>
        <time>2019-05-27T12:54:11Z</time>
      </trkpt>
      <trkpt lat="45.12976" lon="5.08534">
        <ele>438.979126</ele>
        <time>2019-05-27T12:54:17Z</time>
      </trkpt>
      <trkpt lat="45.12984" lon="5.0856">
        <ele>441.863159</ele>
        <time>2019-05-27T12:54:32Z</time>
      </trkpt>
      <trkpt lat="45.12991" lon="5.08604">
        <ele>444.266479</ele>
        <time>2019-05-27T12:54:53Z</time>
      </trkpt>
      <trkpt lat="45.13001" lon="5.08677">
        <ele>445.227661</ele>
        <time>2019-05-27T12:55:16Z</time>
      </trkpt>
      <trkpt lat="45.12996" lon="5.08704">
        <ele>445.708374</ele>
        <time>2019-05-27T12:55:30Z</time>
      </trkpt>
      <trkpt lat="45.12993" lon="5.08719">
        <ele>445.708374</ele>
        <time>2019-05-27T12:55:44Z</time>
      </trkpt>
      <trkpt lat="45.12992" lon="5.08748">
        <ele>445.708374</ele>
        <time>2019-05-27T12:57:23Z</time>
      </trkpt>
      <trkpt lat="45.12997" lon="5.08806">
        <ele>449.072998</ele>
        <time>2019-05-27T12:57:41Z</time>
      </trkpt>
      <trkpt lat="45.13002" lon="5.08851">
        <ele>451.476318</ele>
        <time>2019-05-27T12:57:58Z</time>
      </trkpt>
      <trkpt lat="45.13023" lon="5.08907">
        <ele>453.398926</ele>
        <time>2019-05-27T12:58:19Z</time>
      </trkpt>
      <trkpt lat="45.1306" lon="5.08946">
        <ele>452.918213</ele>
        <time>2019-05-27T12:58:36Z</time>
      </trkpt>
      <trkpt lat="45.13087" lon="5.08985">
        <ele>452.918213</ele>
        <time>2019-05-27T12:58:47Z</time>
      </trkpt>
      <trkpt lat="45.13109" lon="5.09024">
        <ele>453.879639</ele>
        <time>2019-05-27T12:58:59Z</time>
      </trkpt>
      <trkpt lat="45.13123" lon="5.09043">
        <ele>455.802246</ele>
        <time>2019-05-27T12:59:08Z</time>
      </trkpt>
      <trkpt lat="45.1313" lon="5.09045">
        <ele>455.802246</ele>
        <time>2019-05-27T12:59:11Z</time>
      </trkpt>
      <trkpt lat="45.13171" lon="5.09089">
        <ele>457.724976</ele>
        <time>2019-05-27T12:59:28Z</time>
      </trkpt>
      <trkpt lat="45.1319" lon="5.09118">
        <ele>460.128174</ele>
        <time>2019-05-27T12:59:42Z</time>
      </trkpt>
      <trkpt lat="45.1319" lon="5.09121">
        <ele>460.128174</ele>
        <time>2019-05-27T12:59:44Z</time>
      </trkpt>
      <trkpt lat="45.13211" lon="5.09166">
        <ele>463.492798</ele>
        <time>2019-05-27T13:00:06Z</time>
      </trkpt>
      <trkpt lat="45.13235" lon="5.09203">
        <ele>464.934814</ele>
        <time>2019-05-27T13:00:24Z</time>
      </trkpt>
      <trkpt lat="45.13249" lon="5.09219">
        <ele>465.896118</ele>
        <time>2019-05-27T13:00:36Z</time>
      </trkpt>
      <trkpt lat="45.13257" lon="5.09223">
        <ele>465.896118</ele>
        <time>2019-05-27T13:00:51Z</time>
      </trkpt>
      <trkpt lat="45.13281" lon="5.09237">
        <ele>466.376709</ele>
        <time>2019-05-27T13:01:03Z</time>
      </trkpt>
      <trkpt lat="45.13282" lon="5.09238">
        <ele>466.376709</ele>
        <time>2019-05-27T13:01:04Z</time>
      </trkpt>
      <trkpt lat="45.13311" lon="5.09247">
        <ele>467.338135</ele>
        <time>2019-05-27T13:01:16Z</time>
      </trkpt>
      <trkpt lat="45.13362" lon="5.09272">
        <ele>468.299316</ele>
        <time>2019-05-27T13:01:34Z</time>
      </trkpt>
      <trkpt lat="45.13402" lon="5.09307">
        <ele>470.702637</ele>
        <time>2019-05-27T13:01:53Z</time>
      </trkpt>
      <trkpt lat="45.13418" lon="5.09322">
        <ele>471.18335</ele>
        <time>2019-05-27T13:02:03Z</time>
      </trkpt>
      <trkpt lat="45.13435" lon="5.0933">
        <ele>472.144653</ele>
        <time>2019-05-27T13:02:12Z</time>
      </trkpt>
      <trkpt lat="45.13446" lon="5.09336">
        <ele>472.144653</ele>
        <time>2019-05-27T13:02:18Z</time>
      </trkpt>
      <trkpt lat="45.13467" lon="5.09341">
        <ele>473.58667</ele>
        <time>2019-05-27T13:02:29Z</time>
      </trkpt>
      <trkpt lat="45.13479" lon="5.09344">
        <ele>473.58667</ele>
        <time>2019-05-27T13:02:35Z</time>
      </trkpt>
      <trkpt lat="45.13505" lon="5.09357">
        <ele>474.067261</ele>
        <time>2019-05-27T13:02:46Z</time>
      </trkpt>
      <trkpt lat="45.13508" lon="5.09357">
        <ele>474.067261</ele>
        <time>2019-05-27T13:02:47Z</time>
      </trkpt>
      <trkpt lat="45.13519" lon="5.09362">
        <ele>474.067261</ele>
        <time>2019-05-27T13:02:52Z</time>
      </trkpt>
      <trkpt lat="45.13528" lon="5.09364">
        <ele>473.58667</ele>
        <time>2019-05-27T13:02:56Z</time>
      </trkpt>
      <trkpt lat="45.13556" lon="5.09385">
        <ele>474.067261</ele>
        <time>2019-05-27T13:03:07Z</time>
      </trkpt>
      <trkpt lat="45.13559" lon="5.09386">
        <ele>474.067261</ele>
        <time>2019-05-27T13:03:08Z</time>
      </trkpt>
      <trkpt lat="45.13596" lon="5.09408">
        <ele>474.547974</ele>
        <time>2019-05-27T13:03:20Z</time>
      </trkpt>
      <trkpt lat="45.13622" lon="5.09426">
        <ele>475.028687</ele>
        <time>2019-05-27T13:03:30Z</time>
      </trkpt>
      <trkpt lat="45.1365" lon="5.09448">
        <ele>475.989868</ele>
        <time>2019-05-27T13:03:40Z</time>
      </trkpt>
      <trkpt lat="45.13679" lon="5.09479">
        <ele>477.431885</ele>
        <time>2019-05-27T13:03:52Z</time>
      </trkpt>
      <trkpt lat="45.13697" lon="5.09501">
        <ele>478.393188</ele>
        <time>2019-05-27T13:04:01Z</time>
      </trkpt>
      <trkpt lat="45.13716" lon="5.09515">
        <ele>479.354492</ele>
        <time>2019-05-27T13:04:09Z</time>
      </trkpt>
      <trkpt lat="45.13734" lon="5.09528">
        <ele>478.873901</ele>
        <time>2019-05-27T13:04:18Z</time>
      </trkpt>
      <trkpt lat="45.13754" lon="5.09545">
        <ele>480.315918</ele>
        <time>2019-05-27T13:04:29Z</time>
      </trkpt>
      <trkpt lat="45.1376" lon="5.09552">
        <ele>480.315918</ele>
        <time>2019-05-27T13:04:32Z</time>
      </trkpt>
      <trkpt lat="45.13788" lon="5.09573">
        <ele>481.757812</ele>
        <time>2019-05-27T13:04:46Z</time>
      </trkpt>
      <trkpt lat="45.13811" lon="5.09592">
        <ele>483.199829</ele>
        <time>2019-05-27T13:04:56Z</time>
      </trkpt>
      <trkpt lat="45.13836" lon="5.09602">
        <ele>483.199829</ele>
        <time>2019-05-27T13:05:08Z</time>
      </trkpt>
      <trkpt lat="45.13858" lon="5.0961">
        <ele>483.199829</ele>
        <time>2019-05-27T13:05:17Z</time>
      </trkpt>
      <trkpt lat="45.13863" lon="5.0961">
        <ele>483.68042</ele>
        <time>2019-05-27T13:05:20Z</time>
      </trkpt>
      <trkpt lat="45.13876" lon="5.09617">
        <ele>483.199829</ele>
        <time>2019-05-27T13:05:24Z</time>
      </trkpt>
      <trkpt lat="45.13886" lon="5.09617">
        <ele>483.199829</ele>
        <time>2019-05-27T13:05:29Z</time>
      </trkpt>
      <trkpt lat="45.13904" lon="5.09629">
        <ele>483.199829</ele>
        <time>2019-05-27T13:05:37Z</time>
      </trkpt>
      <trkpt lat="45.13921" lon="5.09635">
        <ele>482.719238</ele>
        <time>2019-05-27T13:05:44Z</time>
      </trkpt>
      <trkpt lat="45.13936" lon="5.09643">
        <ele>482.719238</ele>
        <time>2019-05-27T13:05:52Z</time>
      </trkpt>
      <trkpt lat="45.13945" lon="5.09649">
        <ele>482.238525</ele>
        <time>2019-05-27T13:05:56Z</time>
      </trkpt>
      <trkpt lat="45.13957" lon="5.09651">
        <ele>481.277222</ele>
        <time>2019-05-27T13:06:01Z</time>
      </trkpt>
      <trkpt lat="45.1396" lon="5.09649">
        <ele>481.757812</ele>
        <time>2019-05-27T13:06:03Z</time>
      </trkpt>
      <trkpt lat="45.13965" lon="5.09652">
        <ele>481.757812</ele>
        <time>2019-05-27T13:06:05Z</time>
      </trkpt>
      <trkpt lat="45.13978" lon="5.09655">
        <ele>481.757812</ele>
        <time>2019-05-27T13:06:11Z</time>
      </trkpt>
      <trkpt lat="45.13982" lon="5.09653">
        <ele>481.757812</ele>
        <time>2019-05-27T13:06:13Z</time>
      </trkpt>
      <trkpt lat="45.13994" lon="5.09656">
        <ele>481.757812</ele>
        <time>2019-05-27T13:06:18Z</time>
      </trkpt>
      <trkpt lat="45.14006" lon="5.09667">
        <ele>480.315918</ele>
        <time>2019-05-27T13:06:24Z</time>
      </trkpt>
      <trkpt lat="45.14021" lon="5.09671">
        <ele>479.835083</ele>
        <time>2019-05-27T13:06:30Z</time>
      </trkpt>
      <trkpt lat="45.14027" lon="5.09665">
        <ele>480.315918</ele>
        <time>2019-05-27T13:06:34Z</time>
      </trkpt>
      <trkpt lat="45.14051" lon="5.09643">
        <ele>480.315918</ele>
        <time>2019-05-27T13:06:47Z</time>
      </trkpt>
      <trkpt lat="45.14074" lon="5.09647">
        <ele>480.315918</ele>
        <time>2019-05-27T13:06:55Z</time>
      </trkpt>
      <trkpt lat="45.14101" lon="5.09652">
        <ele>479.354492</ele>
        <time>2019-05-27T13:07:05Z</time>
      </trkpt>
      <trkpt lat="45.14126" lon="5.0966">
        <ele>478.393188</ele>
        <time>2019-05-27T13:07:16Z</time>
      </trkpt>
      <trkpt lat="45.14163" lon="5.09682">
        <ele>477.912476</ele>
        <time>2019-05-27T13:07:29Z</time>
      </trkpt>
      <trkpt lat="45.1417" lon="5.09683">
        <ele>477.912476</ele>
        <time>2019-05-27T13:07:32Z</time>
      </trkpt>
      <trkpt lat="45.14174" lon="5.09686">
        <ele>477.912476</ele>
        <time>2019-05-27T13:07:35Z</time>
      </trkpt>
      <trkpt lat="45.14182" lon="5.09693">
        <ele>477.912476</ele>
        <time>2019-05-27T13:07:41Z</time>
      </trkpt>
      <trkpt lat="45.14187" lon="5.09696">
        <ele>477.431885</ele>
        <time>2019-05-27T13:07:43Z</time>
      </trkpt>
      <trkpt lat="45.14192" lon="5.09696">
        <ele>477.431885</ele>
        <time>2019-05-27T13:07:45Z</time>
      </trkpt>
      <trkpt lat="45.14223" lon="5.09727">
        <ele>477.431885</ele>
        <time>2019-05-27T13:07:58Z</time>
      </trkpt>
      <trkpt lat="45.14239" lon="5.09757">
        <ele>478.393188</ele>
        <time>2019-05-27T13:08:07Z</time>
      </trkpt>
      <trkpt lat="45.14252" lon="5.09796">
        <ele>479.354492</ele>
        <time>2019-05-27T13:08:18Z</time>
      </trkpt>
      <trkpt lat="45.14263" lon="5.09823">
        <ele>480.315918</ele>
        <time>2019-05-27T13:08:26Z</time>
      </trkpt>
      <trkpt lat="45.14274" lon="5.09849">
        <ele>480.796631</ele>
        <time>2019-05-27T13:08:35Z</time>
      </trkpt>
      <trkpt lat="45.14277" lon="5.09855">
        <ele>480.796631</ele>
        <time>2019-05-27T13:08:38Z</time>
      </trkpt>
      <trkpt lat="45.14288" lon="5.09876">
        <ele>481.277222</ele>
        <time>2019-05-27T13:08:46Z</time>
      </trkpt>
      <trkpt lat="45.14306" lon="5.09906">
        <ele>482.719238</ele>
        <time>2019-05-27T13:08:54Z</time>
      </trkpt>
      <trkpt lat="45.14312" lon="5.0992">
        <ele>482.719238</ele>
        <time>2019-05-27T13:09:01Z</time>
      </trkpt>
      <trkpt lat="45.14314" lon="5.09925">
        <ele>482.719238</ele>
        <time>2019-05-27T13:09:03Z</time>
      </trkpt>
      <trkpt lat="45.14329" lon="5.09968">
        <ele>483.68042</ele>
        <time>2019-05-27T13:09:13Z</time>
      </trkpt>
      <trkpt lat="45.14345" lon="5.09994">
        <ele>484.641846</ele>
        <time>2019-05-27T13:09:22Z</time>
      </trkpt>
      <trkpt lat="45.1436" lon="5.10033">
        <ele>485.122437</ele>
        <time>2019-05-27T13:09:32Z</time>
      </trkpt>
      <trkpt lat="45.14369" lon="5.10064">
        <ele>484.641846</ele>
        <time>2019-05-27T13:09:39Z</time>
      </trkpt>
      <trkpt lat="45.14377" lon="5.10075">
        <ele>484.641846</ele>
        <time>2019-05-27T13:09:43Z</time>
      </trkpt>
      <trkpt lat="45.14396" lon="5.10106">
        <ele>484.641846</ele>
        <time>2019-05-27T13:09:53Z</time>
      </trkpt>
      <trkpt lat="45.14415" lon="5.10127">
        <ele>484.641846</ele>
        <time>2019-05-27T13:10:03Z</time>
      </trkpt>
      <trkpt lat="45.14426" lon="5.10149">
        <ele>484.641846</ele>
        <time>2019-05-27T13:10:11Z</time>
      </trkpt>
      <trkpt lat="45.14438" lon="5.10189">
        <ele>484.161133</ele>
        <time>2019-05-27T13:10:19Z</time>
      </trkpt>
      <trkpt lat="45.14446" lon="5.10244">
        <ele>483.199829</ele>
        <time>2019-05-27T13:10:35Z</time>
      </trkpt>
      <trkpt lat="45.14455" lon="5.10297">
        <ele>483.199829</ele>
        <time>2019-05-27T13:10:46Z</time>
      </trkpt>
      <trkpt lat="45.14463" lon="5.10335">
        <ele>482.238525</ele>
        <time>2019-05-27T13:10:54Z</time>
      </trkpt>
      <trkpt lat="45.14473" lon="5.1038">
        <ele>482.719238</ele>
        <time>2019-05-27T13:11:03Z</time>
      </trkpt>
      <trkpt lat="45.14476" lon="5.10398">
        <ele>482.719238</ele>
        <time>2019-05-27T13:11:07Z</time>
      </trkpt>
      <trkpt lat="45.14479" lon="5.10458">
        <ele>483.199829</ele>
        <time>2019-05-27T13:11:18Z</time>
      </trkpt>
      <trkpt lat="45.14469" lon="5.10509">
        <ele>483.199829</ele>
        <time>2019-05-27T13:11:30Z</time>
      </trkpt>
      <trkpt lat="45.14456" lon="5.10563">
        <ele>484.161133</ele>
        <time>2019-05-27T13:11:41Z</time>
      </trkpt>
      <trkpt lat="45.14454" lon="5.10567">
        <ele>484.161133</ele>
        <time>2019-05-27T13:11:42Z</time>
      </trkpt>
      <trkpt lat="45.14452" lon="5.10582">
        <ele>484.161133</ele>
        <time>2019-05-27T13:11:45Z</time>
      </trkpt>
      <trkpt lat="45.14429" lon="5.10632">
        <ele>484.641846</ele>
        <time>2019-05-27T13:11:56Z</time>
      </trkpt>
      <trkpt lat="45.14399" lon="5.10688">
        <ele>484.161133</ele>
        <time>2019-05-27T13:12:09Z</time>
      </trkpt>
      <trkpt lat="45.14403" lon="5.10725">
        <ele>485.603027</ele>
        <time>2019-05-27T13:12:19Z</time>
      </trkpt>
      <trkpt lat="45.14402" lon="5.10732">
        <ele>485.122437</ele>
        <time>2019-05-27T13:12:22Z</time>
      </trkpt>
      <trkpt lat="45.14401" lon="5.10736">
        <ele>485.122437</ele>
        <time>2019-05-27T13:12:39Z</time>
      </trkpt>
      <trkpt lat="45.14386" lon="5.10756">
        <ele>482.719238</ele>
        <time>2019-05-27T13:12:55Z</time>
      </trkpt>
      <trkpt lat="45.14369" lon="5.10781">
        <ele>479.354492</ele>
        <time>2019-05-27T13:13:03Z</time>
      </trkpt>
      <trkpt lat="45.14348" lon="5.1081">
        <ele>475.989868</ele>
        <time>2019-05-27T13:13:16Z</time>
      </trkpt>
      <trkpt lat="45.14349" lon="5.10823">
        <ele>473.58667</ele>
        <time>2019-05-27T13:13:21Z</time>
      </trkpt>
      <trkpt lat="45.14356" lon="5.1084">
        <ele>470.702637</ele>
        <time>2019-05-27T13:13:28Z</time>
      </trkpt>
      <trkpt lat="45.14362" lon="5.10846">
        <ele>468.780029</ele>
        <time>2019-05-27T13:13:33Z</time>
      </trkpt>
      <trkpt lat="45.14375" lon="5.1086">
        <ele>465.415527</ele>
        <time>2019-05-27T13:13:41Z</time>
      </trkpt>
      <trkpt lat="45.14379" lon="5.1087">
        <ele>463.973389</ele>
        <time>2019-05-27T13:13:44Z</time>
      </trkpt>
      <trkpt lat="45.14383" lon="5.10882">
        <ele>462.050781</ele>
        <time>2019-05-27T13:13:48Z</time>
      </trkpt>
      <trkpt lat="45.14379" lon="5.10908">
        <ele>458.686157</ele>
        <time>2019-05-27T13:13:56Z</time>
      </trkpt>
      <trkpt lat="45.14362" lon="5.10927">
        <ele>454.84082</ele>
        <time>2019-05-27T13:14:03Z</time>
      </trkpt>
      <trkpt lat="45.14361" lon="5.10929">
        <ele>454.84082</ele>
        <time>2019-05-27T13:14:04Z</time>
      </trkpt>
      <trkpt lat="45.1436" lon="5.10929">
        <ele>454.360229</ele>
        <time>2019-05-27T13:14:20Z</time>
      </trkpt>
      <trkpt lat="45.14358" lon="5.10936">
        <ele>453.879639</ele>
        <time>2019-05-27T13:14:24Z</time>
      </trkpt>
      <trkpt lat="45.14354" lon="5.10947">
        <ele>452.918213</ele>
        <time>2019-05-27T13:14:28Z</time>
      </trkpt>
      <trkpt lat="45.14356" lon="5.10965">
        <ele>450.995605</ele>
        <time>2019-05-27T13:14:42Z</time>
      </trkpt>
      <trkpt lat="45.1436" lon="5.1099">
        <ele>447.630981</ele>
        <time>2019-05-27T13:15:56Z</time>
      </trkpt>
      <trkpt lat="45.14362" lon="5.10996">
        <ele>446.669678</ele>
        <time>2019-05-27T13:15:58Z</time>
      </trkpt>
      <trkpt lat="45.14369" lon="5.11024">
        <ele>443.305054</ele>
        <time>2019-05-27T13:16:06Z</time>
      </trkpt>
      <trkpt lat="45.14372" lon="5.1104">
        <ele>441.863159</ele>
        <time>2019-05-27T13:16:10Z</time>
      </trkpt>
      <trkpt lat="45.14374" lon="5.11069">
        <ele>438.498535</ele>
        <time>2019-05-27T13:16:18Z</time>
      </trkpt>
      <trkpt lat="45.14376" lon="5.11088">
        <ele>436.575928</ele>
        <time>2019-05-27T13:16:23Z</time>
      </trkpt>
      <trkpt lat="45.14374" lon="5.11116">
        <ele>433.691895</ele>
        <time>2019-05-27T13:16:30Z</time>
      </trkpt>
      <trkpt lat="45.14375" lon="5.11134">
        <ele>431.769165</ele>
        <time>2019-05-27T13:16:35Z</time>
      </trkpt>
      <trkpt lat="45.14377" lon="5.11162">
        <ele>428.404663</ele>
        <time>2019-05-27T13:16:42Z</time>
      </trkpt>
      <trkpt lat="45.14384" lon="5.11206">
        <ele>425.520752</ele>
        <time>2019-05-27T13:16:53Z</time>
      </trkpt>
      <trkpt lat="45.14385" lon="5.11214">
        <ele>424.559448</ele>
        <time>2019-05-27T13:16:55Z</time>
      </trkpt>
      <trkpt lat="45.14384" lon="5.1124">
        <ele>422.156006</ele>
        <time>2019-05-27T13:17:01Z</time>
      </trkpt>
      <trkpt lat="45.14382" lon="5.11266">
        <ele>418.791504</ele>
        <time>2019-05-27T13:17:08Z</time>
      </trkpt>
      <trkpt lat="45.14383" lon="5.11277">
        <ele>417.349609</ele>
        <time>2019-05-27T13:17:11Z</time>
      </trkpt>
      <trkpt lat="45.14382" lon="5.11286">
        <ele>415.907471</ele>
        <time>2019-05-27T13:17:14Z</time>
      </trkpt>
      <trkpt lat="45.14385" lon="5.11303">
        <ele>413.02356</ele>
        <time>2019-05-27T13:17:27Z</time>
      </trkpt>
      <trkpt lat="45.1439" lon="5.11329">
        <ele>410.139648</ele>
        <time>2019-05-27T13:17:37Z</time>
      </trkpt>
      <trkpt lat="45.14397" lon="5.11345">
        <ele>407.255615</ele>
        <time>2019-05-27T13:17:46Z</time>
      </trkpt>
      <trkpt lat="45.14407" lon="5.11362">
        <ele>403.891113</ele>
        <time>2019-05-27T13:17:53Z</time>
      </trkpt>
      <trkpt lat="45.14416" lon="5.11377">
        <ele>400.045898</ele>
        <time>2019-05-27T13:18:00Z</time>
      </trkpt>
      <trkpt lat="45.14419" lon="5.11383">
        <ele>399.565063</ele>
        <time>2019-05-27T13:18:02Z</time>
      </trkpt>
      <trkpt lat="45.14424" lon="5.11396">
        <ele>396.681152</ele>
        <time>2019-05-27T13:18:07Z</time>
      </trkpt>
      <trkpt lat="45.14429" lon="5.11417">
        <ele>393.316528</ele>
        <time>2019-05-27T13:18:15Z</time>
      </trkpt>
      <trkpt lat="45.14429" lon="5.1142">
        <ele>392.835938</ele>
        <time>2019-05-27T13:18:16Z</time>
      </trkpt>
      <trkpt lat="45.14434" lon="5.1144">
        <ele>390.432617</ele>
        <time>2019-05-27T13:18:22Z</time>
      </trkpt>
      <trkpt lat="45.14438" lon="5.11462">
        <ele>387.548584</ele>
        <time>2019-05-27T13:18:29Z</time>
      </trkpt>
      <trkpt lat="45.14437" lon="5.11472">
        <ele>386.106689</ele>
        <time>2019-05-27T13:18:32Z</time>
      </trkpt>
      <trkpt lat="45.14437" lon="5.11501">
        <ele>382.742065</ele>
        <time>2019-05-27T13:18:41Z</time>
      </trkpt>
      <trkpt lat="45.14438" lon="5.1155">
        <ele>379.377441</ele>
        <time>2019-05-27T13:18:51Z</time>
      </trkpt>
      <trkpt lat="45.14438" lon="5.11561">
        <ele>378.416138</ele>
        <time>2019-05-27T13:18:53Z</time>
      </trkpt>
      <trkpt lat="45.14441" lon="5.11599">
        <ele>375.532104</ele>
        <time>2019-05-27T13:18:58Z</time>
      </trkpt>
      <trkpt lat="45.14441" lon="5.11615">
        <ele>374.570801</ele>
        <time>2019-05-27T13:19:00Z</time>
      </trkpt>
      <trkpt lat="45.1444" lon="5.11624">
        <ele>373.128906</ele>
        <time>2019-05-27T13:19:01Z</time>
      </trkpt>
      <trkpt lat="45.14438" lon="5.11641">
        <ele>371.68689</ele>
        <time>2019-05-27T13:19:03Z</time>
      </trkpt>
      <trkpt lat="45.14435" lon="5.11697">
        <ele>368.802979</ele>
        <time>2019-05-27T13:19:09Z</time>
      </trkpt>
      <trkpt lat="45.14433" lon="5.11733">
        <ele>365.438354</ele>
        <time>2019-05-27T13:19:13Z</time>
      </trkpt>
      <trkpt lat="45.14426" lon="5.11762">
        <ele>363.515747</ele>
        <time>2019-05-27T13:19:17Z</time>
      </trkpt>
      <trkpt lat="45.1441" lon="5.11799">
        <ele>360.151123</ele>
        <time>2019-05-27T13:19:22Z</time>
      </trkpt>
      <trkpt lat="45.14403" lon="5.11815">
        <ele>358.708984</ele>
        <time>2019-05-27T13:19:24Z</time>
      </trkpt>
      <trkpt lat="45.14382" lon="5.11858">
        <ele>356.305786</ele>
        <time>2019-05-27T13:19:29Z</time>
      </trkpt>
      <trkpt lat="45.1437" lon="5.11885">
        <ele>352.941162</ele>
        <time>2019-05-27T13:19:32Z</time>
      </trkpt>
      <trkpt lat="45.14348" lon="5.1194">
        <ele>349.095825</ele>
        <time>2019-05-27T13:19:39Z</time>
      </trkpt>
      <trkpt lat="45.14335" lon="5.11971">
        <ele>345.25061</ele>
        <time>2019-05-27T13:19:46Z</time>
      </trkpt>
      <trkpt lat="45.14334" lon="5.11977">
        <ele>344.77002</ele>
        <time>2019-05-27T13:19:48Z</time>
      </trkpt>
      <trkpt lat="45.14371" lon="5.12011">
        <ele>345.25061</ele>
        <time>2019-05-27T13:20:01Z</time>
      </trkpt>
      <trkpt lat="45.14405" lon="5.12054">
        <ele>343.808594</ele>
        <time>2019-05-27T13:20:15Z</time>
      </trkpt>
      <trkpt lat="45.14436" lon="5.12087">
        <ele>344.289429</ele>
        <time>2019-05-27T13:20:26Z</time>
      </trkpt>
      <trkpt lat="45.1444" lon="5.12088">
        <ele>343.808594</ele>
        <time>2019-05-27T13:20:28Z</time>
      </trkpt>
      <trkpt lat="45.14447" lon="5.12076">
        <ele>344.289429</ele>
        <time>2019-05-27T13:20:36Z</time>
      </trkpt>
      <trkpt lat="45.14457" lon="5.12067">
        <ele>344.77002</ele>
        <time>2019-05-27T13:20:43Z</time>
      </trkpt>
      <trkpt lat="45.14464" lon="5.12056">
        <ele>344.77002</ele>
        <time>2019-05-27T13:20:48Z</time>
      </trkpt>
      <trkpt lat="45.14465" lon="5.1205">
        <ele>345.25061</ele>
        <time>2019-05-27T13:20:57Z</time>
      </trkpt>
      <trkpt lat="45.14463" lon="5.12057">
        <ele>344.77002</ele>
        <time>2019-05-27T13:20:59Z</time>
      </trkpt>
      <trkpt lat="45.14442" lon="5.12083">
        <ele>343.327881</ele>
        <time>2019-05-27T13:21:08Z</time>
      </trkpt>
      <trkpt lat="45.14445" lon="5.12095">
        <ele>343.808594</ele>
        <time>2019-05-27T13:21:12Z</time>
      </trkpt>
      <trkpt lat="45.14456" lon="5.12105">
        <ele>343.808594</ele>
        <time>2019-05-27T13:21:19Z</time>
      </trkpt>
      <trkpt lat="45.1446" lon="5.1211">
        <ele>343.808594</ele>
        <time>2019-05-27T13:21:23Z</time>
      </trkpt>
      <trkpt lat="45.14466" lon="5.12125">
        <ele>343.808594</ele>
        <time>2019-05-27T13:21:29Z</time>
      </trkpt>
      <trkpt lat="45.14485" lon="5.12166">
        <ele>344.289429</ele>
        <time>2019-05-27T13:21:46Z</time>
      </trkpt>
      <trkpt lat="45.14516" lon="5.1221">
        <ele>343.808594</ele>
        <time>2019-05-27T13:22:00Z</time>
      </trkpt>
      <trkpt lat="45.14519" lon="5.12216">
        <ele>343.808594</ele>
        <time>2019-05-27T13:22:02Z</time>
      </trkpt>
      <trkpt lat="45.14516" lon="5.12235">
        <ele>343.327881</ele>
        <time>2019-05-27T13:22:08Z</time>
      </trkpt>
      <trkpt lat="45.14508" lon="5.1225">
        <ele>342.366699</ele>
        <time>2019-05-27T13:22:16Z</time>
      </trkpt>
      <trkpt lat="45.14504" lon="5.12244">
        <ele>342.366699</ele>
        <time>2019-05-27T13:22:18Z</time>
      </trkpt>
      <trkpt lat="45.14504" lon="5.12219">
        <ele>343.327881</ele>
        <time>2019-05-27T13:22:28Z</time>
      </trkpt>
      <trkpt lat="45.14502" lon="5.12225">
        <ele>343.327881</ele>
        <time>2019-05-27T13:22:37Z</time>
      </trkpt>
      <trkpt lat="45.14501" lon="5.12226">
        <ele>343.327881</ele>
        <time>2019-05-27T13:23:09Z</time>
      </trkpt>
      <trkpt lat="45.14502" lon="5.12219">
        <ele>342.366699</ele>
        <time>2019-05-27T13:35:12Z</time>
      </trkpt>
      <trkpt lat="45.14513" lon="5.1221">
        <ele>342.366699</ele>
        <time>2019-05-27T13:35:29Z</time>
      </trkpt>
      <trkpt lat="45.14512" lon="5.122">
        <ele>342.84729</ele>
        <time>2019-05-27T13:35:34Z</time>
      </trkpt>
      <trkpt lat="45.14481" lon="5.12156">
        <ele>342.366699</ele>
        <time>2019-05-27T13:35:49Z</time>
      </trkpt>
      <trkpt lat="45.14444" lon="5.12103">
        <ele>341.885986</ele>
        <time>2019-05-27T13:36:03Z</time>
      </trkpt>
      <trkpt lat="45.14424" lon="5.12076">
        <ele>342.366699</ele>
        <time>2019-05-27T13:36:10Z</time>
      </trkpt>
      <trkpt lat="45.14393" lon="5.1203">
        <ele>343.327881</ele>
        <time>2019-05-27T13:36:21Z</time>
      </trkpt>
      <trkpt lat="45.1434" lon="5.11982">
        <ele>342.84729</ele>
        <time>2019-05-27T13:36:36Z</time>
      </trkpt>
      <trkpt lat="45.1433" lon="5.11993">
        <ele>342.366699</ele>
        <time>2019-05-27T13:36:43Z</time>
      </trkpt>
      <trkpt lat="45.14328" lon="5.1201">
        <ele>341.885986</ele>
        <time>2019-05-27T13:36:50Z</time>
      </trkpt>
      <trkpt lat="45.14304" lon="5.12068">
        <ele>339.963379</ele>
        <time>2019-05-27T13:37:04Z</time>
      </trkpt>
      <trkpt lat="45.1429" lon="5.12106">
        <ele>338.040771</ele>
        <time>2019-05-27T13:37:10Z</time>
      </trkpt>
      <trkpt lat="45.14287" lon="5.12143">
        <ele>337.079468</ele>
        <time>2019-05-27T13:37:15Z</time>
      </trkpt>
      <trkpt lat="45.14289" lon="5.122">
        <ele>334.676147</ele>
        <time>2019-05-27T13:37:23Z</time>
      </trkpt>
      <trkpt lat="45.14282" lon="5.12261">
        <ele>330.35022</ele>
        <time>2019-05-27T13:37:32Z</time>
      </trkpt>
      <trkpt lat="45.14281" lon="5.12269">
        <ele>330.35022</ele>
        <time>2019-05-27T13:37:33Z</time>
      </trkpt>
      <trkpt lat="45.1428" lon="5.12277">
        <ele>330.830933</ele>
        <time>2019-05-27T13:37:34Z</time>
      </trkpt>
      <trkpt lat="45.14268" lon="5.12328">
        <ele>334.676147</ele>
        <time>2019-05-27T13:37:46Z</time>
      </trkpt>
      <trkpt lat="45.14267" lon="5.1233">
        <ele>334.676147</ele>
        <time>2019-05-27T13:37:47Z</time>
      </trkpt>
      <trkpt lat="45.14259" lon="5.12365">
        <ele>336.598877</ele>
        <time>2019-05-27T13:38:03Z</time>
      </trkpt>
      <trkpt lat="45.14255" lon="5.12398">
        <ele>339.963379</ele>
        <time>2019-05-27T13:38:19Z</time>
      </trkpt>
      <trkpt lat="45.14251" lon="5.12435">
        <ele>342.84729</ele>
        <time>2019-05-27T13:38:38Z</time>
      </trkpt>
      <trkpt lat="45.14245" lon="5.12457">
        <ele>345.731323</ele>
        <time>2019-05-27T13:38:53Z</time>
      </trkpt>
      <trkpt lat="45.14242" lon="5.12477">
        <ele>349.095825</ele>
        <time>2019-05-27T13:39:06Z</time>
      </trkpt>
      <trkpt lat="45.14239" lon="5.12502">
        <ele>351.979858</ele>
        <time>2019-05-27T13:39:22Z</time>
      </trkpt>
      <trkpt lat="45.14238" lon="5.12506">
        <ele>352.460571</ele>
        <time>2019-05-27T13:39:24Z</time>
      </trkpt>
      <trkpt lat="45.14246" lon="5.12524">
        <ele>354.86377</ele>
        <time>2019-05-27T13:39:40Z</time>
      </trkpt>
      <trkpt lat="45.14253" lon="5.12529">
        <ele>355.825195</ele>
        <time>2019-05-27T13:39:48Z</time>
      </trkpt>
      <trkpt lat="45.14255" lon="5.12533">
        <ele>355.825195</ele>
        <time>2019-05-27T13:39:51Z</time>
      </trkpt>
      <trkpt lat="45.14261" lon="5.1254">
        <ele>356.786377</ele>
        <time>2019-05-27T13:39:58Z</time>
      </trkpt>
      <trkpt lat="45.14262" lon="5.12544">
        <ele>355.825195</ele>
        <time>2019-05-27T13:40:00Z</time>
      </trkpt>
      <trkpt lat="45.14263" lon="5.12549">
        <ele>355.825195</ele>
        <time>2019-05-27T13:40:03Z</time>
      </trkpt>
      <trkpt lat="45.14258" lon="5.12571">
        <ele>357.747803</ele>
        <time>2019-05-27T13:40:17Z</time>
      </trkpt>
      <trkpt lat="45.14259" lon="5.1258">
        <ele>358.228394</ele>
        <time>2019-05-27T13:40:25Z</time>
      </trkpt>
      <trkpt lat="45.14252" lon="5.12588">
        <ele>358.708984</ele>
        <time>2019-05-27T13:40:43Z</time>
      </trkpt>
      <trkpt lat="45.14251" lon="5.12591">
        <ele>359.189697</ele>
        <time>2019-05-27T13:41:29Z</time>
      </trkpt>
      <trkpt lat="45.14235" lon="5.12633">
        <ele>362.07373</ele>
        <time>2019-05-27T13:41:52Z</time>
      </trkpt>
      <trkpt lat="45.14226" lon="5.12648">
        <ele>363.996338</ele>
        <time>2019-05-27T13:42:06Z</time>
      </trkpt>
      <trkpt lat="45.1422" lon="5.12654">
        <ele>365.438354</ele>
        <time>2019-05-27T13:42:14Z</time>
      </trkpt>
      <trkpt lat="45.14218" lon="5.12653">
        <ele>365.918945</ele>
        <time>2019-05-27T13:42:25Z</time>
      </trkpt>
      <trkpt lat="45.14219" lon="5.12649">
        <ele>364.957642</ele>
        <time>2019-05-27T13:42:51Z</time>
      </trkpt>
      <trkpt lat="45.1422" lon="5.12649">
        <ele>364.957642</ele>
        <time>2019-05-27T13:43:27Z</time>
      </trkpt>
      <trkpt lat="45.14208" lon="5.12663">
        <ele>368.322266</ele>
        <time>2019-05-27T13:44:00Z</time>
      </trkpt>
      <trkpt lat="45.14209" lon="5.12684">
        <ele>370.725586</ele>
        <time>2019-05-27T13:44:15Z</time>
      </trkpt>
      <trkpt lat="45.14208" lon="5.12695">
        <ele>373.609497</ele>
        <time>2019-05-27T13:44:26Z</time>
      </trkpt>
      <trkpt lat="45.14206" lon="5.12703">
        <ele>375.051514</ele>
        <time>2019-05-27T13:44:31Z</time>
      </trkpt>
      <trkpt lat="45.14204" lon="5.12713">
        <ele>376.012817</ele>
        <time>2019-05-27T13:44:46Z</time>
      </trkpt>
      <trkpt lat="45.14201" lon="5.12727">
        <ele>378.416138</ele>
        <time>2019-05-27T13:45:09Z</time>
      </trkpt>
      <trkpt lat="45.14199" lon="5.1274">
        <ele>381.78064</ele>
        <time>2019-05-27T13:45:36Z</time>
      </trkpt>
      <trkpt lat="45.142" lon="5.12759">
        <ele>384.664795</ele>
        <time>2019-05-27T13:45:57Z</time>
      </trkpt>
      <trkpt lat="45.142" lon="5.12768">
        <ele>385.625977</ele>
        <time>2019-05-27T13:46:05Z</time>
      </trkpt>
      <trkpt lat="45.14203" lon="5.12784">
        <ele>388.029297</ele>
        <time>2019-05-27T13:46:22Z</time>
      </trkpt>
      <trkpt lat="45.14203" lon="5.128">
        <ele>390.432617</ele>
        <time>2019-05-27T13:46:41Z</time>
      </trkpt>
      <trkpt lat="45.14203" lon="5.12817">
        <ele>391.874512</ele>
        <time>2019-05-27T13:46:57Z</time>
      </trkpt>
      <trkpt lat="45.14205" lon="5.12839">
        <ele>393.316528</ele>
        <time>2019-05-27T13:47:30Z</time>
      </trkpt>
      <trkpt lat="45.14204" lon="5.12858">
        <ele>395.719849</ele>
        <time>2019-05-27T13:47:47Z</time>
      </trkpt>
      <trkpt lat="45.142" lon="5.12873">
        <ele>398.123169</ele>
        <time>2019-05-27T13:48:06Z</time>
      </trkpt>
      <trkpt lat="45.14194" lon="5.12886">
        <ele>400.045898</ele>
        <time>2019-05-27T13:48:20Z</time>
      </trkpt>
      <trkpt lat="45.14187" lon="5.12903">
        <ele>401.487793</ele>
        <time>2019-05-27T13:48:36Z</time>
      </trkpt>
      <trkpt lat="45.14185" lon="5.12904">
        <ele>401.968506</ele>
        <time>2019-05-27T13:48:50Z</time>
      </trkpt>
      <trkpt lat="45.14185" lon="5.12913">
        <ele>402.929688</ele>
        <time>2019-05-27T13:49:15Z</time>
      </trkpt>
      <trkpt lat="45.14179" lon="5.12932">
        <ele>404.852295</ele>
        <time>2019-05-27T13:49:26Z</time>
      </trkpt>
      <trkpt lat="45.14164" lon="5.12955">
        <ele>407.736328</ele>
        <time>2019-05-27T13:49:42Z</time>
      </trkpt>
      <trkpt lat="45.14158" lon="5.12961">
        <ele>409.178345</ele>
        <time>2019-05-27T13:49:48Z</time>
      </trkpt>
      <trkpt lat="45.14137" lon="5.12977">
        <ele>412.542847</ele>
        <time>2019-05-27T13:50:07Z</time>
      </trkpt>
      <trkpt lat="45.14121" lon="5.12987">
        <ele>415.42688</ele>
        <time>2019-05-27T13:50:22Z</time>
      </trkpt>
      <trkpt lat="45.14109" lon="5.12994">
        <ele>418.310791</ele>
        <time>2019-05-27T13:50:34Z</time>
      </trkpt>
      <trkpt lat="45.14108" lon="5.12995">
        <ele>418.791504</ele>
        <time>2019-05-27T13:50:36Z</time>
      </trkpt>
      <trkpt lat="45.14094" lon="5.12999">
        <ele>421.675415</ele>
        <time>2019-05-27T13:50:48Z</time>
      </trkpt>
      <trkpt lat="45.14088" lon="5.12999">
        <ele>422.636719</ele>
        <time>2019-05-27T13:50:54Z</time>
      </trkpt>
      <trkpt lat="45.14074" lon="5.13003">
        <ele>423.598022</ele>
        <time>2019-05-27T13:51:05Z</time>
      </trkpt>
      <trkpt lat="45.14059" lon="5.13">
        <ele>425.040161</ele>
        <time>2019-05-27T13:51:17Z</time>
      </trkpt>
      <trkpt lat="45.14057" lon="5.13">
        <ele>424.559448</ele>
        <time>2019-05-27T13:51:19Z</time>
      </trkpt>
      <trkpt lat="45.14037" lon="5.1299">
        <ele>426.962769</ele>
        <time>2019-05-27T13:51:35Z</time>
      </trkpt>
      <trkpt lat="45.14016" lon="5.1298">
        <ele>428.404663</ele>
        <time>2019-05-27T13:51:48Z</time>
      </trkpt>
      <trkpt lat="45.14005" lon="5.12975">
        <ele>427.92395</ele>
        <time>2019-05-27T13:51:55Z</time>
      </trkpt>
      <trkpt lat="45.14" lon="5.12975">
        <ele>428.404663</ele>
        <time>2019-05-27T13:51:58Z</time>
      </trkpt>
      <trkpt lat="45.13983" lon="5.12971">
        <ele>429.365967</ele>
        <time>2019-05-27T13:52:10Z</time>
      </trkpt>
      <trkpt lat="45.13966" lon="5.12974">
        <ele>429.846558</ele>
        <time>2019-05-27T13:52:20Z</time>
      </trkpt>
      <trkpt lat="45.13948" lon="5.12989">
        <ele>429.846558</ele>
        <time>2019-05-27T13:52:33Z</time>
      </trkpt>
      <trkpt lat="45.13941" lon="5.12997">
        <ele>429.846558</ele>
        <time>2019-05-27T13:52:40Z</time>
      </trkpt>
      <trkpt lat="45.13932" lon="5.13008">
        <ele>430.327271</ele>
        <time>2019-05-27T13:52:49Z</time>
      </trkpt>
      <trkpt lat="45.13926" lon="5.13014">
        <ele>430.807983</ele>
        <time>2019-05-27T13:52:56Z</time>
      </trkpt>
      <trkpt lat="45.1392" lon="5.13022">
        <ele>431.288574</ele>
        <time>2019-05-27T13:53:18Z</time>
      </trkpt>
      <trkpt lat="45.13922" lon="5.13019">
        <ele>431.288574</ele>
        <time>2019-05-27T13:54:49Z</time>
      </trkpt>
      <trkpt lat="45.13924" lon="5.1301">
        <ele>430.807983</ele>
        <time>2019-05-27T13:55:03Z</time>
      </trkpt>
      <trkpt lat="45.13924" lon="5.13009">
        <ele>431.769165</ele>
        <time>2019-05-27T13:56:15Z</time>
      </trkpt>
      <trkpt lat="45.13924" lon="5.1301">
        <ele>430.807983</ele>
        <time>2019-05-27T14:05:48Z</time>
      </trkpt>
      <trkpt lat="45.13924" lon="5.1301">
        <ele>430.327271</ele>
        <time>2019-05-27T14:05:55Z</time>
      </trkpt>
      <trkpt lat="45.13924" lon="5.1301">
        <ele>430.807983</ele>
        <time>2019-05-27T14:06:45Z</time>
      </trkpt>
      <trkpt lat="45.13927" lon="5.13014">
        <ele>431.288574</ele>
        <time>2019-05-27T14:22:46Z</time>
      </trkpt>
      <trkpt lat="45.13927" lon="5.13015">
        <ele>431.769165</ele>
        <time>2019-05-27T14:24:30Z</time>
      </trkpt>
      <trkpt lat="45.13925" lon="5.1302">
        <ele>431.769165</ele>
        <time>2019-05-27T14:24:49Z</time>
      </trkpt>
      <trkpt lat="45.13919" lon="5.13043">
        <ele>432.25</ele>
        <time>2019-05-27T14:25:01Z</time>
      </trkpt>
      <trkpt lat="45.13909" lon="5.1308">
        <ele>434.65332</ele>
        <time>2019-05-27T14:25:16Z</time>
      </trkpt>
      <trkpt lat="45.13895" lon="5.13115">
        <ele>436.575928</ele>
        <time>2019-05-27T14:25:31Z</time>
      </trkpt>
      <trkpt lat="45.13885" lon="5.13138">
        <ele>435.614502</ele>
        <time>2019-05-27T14:25:39Z</time>
      </trkpt>
      <trkpt lat="45.1387" lon="5.1317">
        <ele>435.614502</ele>
        <time>2019-05-27T14:25:49Z</time>
      </trkpt>
      <trkpt lat="45.13834" lon="5.13221">
        <ele>433.691895</ele>
        <time>2019-05-27T14:26:03Z</time>
      </trkpt>
      <trkpt lat="45.13829" lon="5.13227">
        <ele>434.172607</ele>
        <time>2019-05-27T14:26:05Z</time>
      </trkpt>
      <trkpt lat="45.13803" lon="5.13255">
        <ele>435.133911</ele>
        <time>2019-05-27T14:26:17Z</time>
      </trkpt>
      <trkpt lat="45.138" lon="5.13259">
        <ele>435.133911</ele>
        <time>2019-05-27T14:26:19Z</time>
      </trkpt>
      <trkpt lat="45.13779" lon="5.13291">
        <ele>438.017822</ele>
        <time>2019-05-27T14:26:35Z</time>
      </trkpt>
      <trkpt lat="45.13769" lon="5.13303">
        <ele>440.421265</ele>
        <time>2019-05-27T14:26:48Z</time>
      </trkpt>
      <trkpt lat="45.13777" lon="5.13308">
        <ele>440.901855</ele>
        <time>2019-05-27T14:26:54Z</time>
      </trkpt>
      <trkpt lat="45.13801" lon="5.1332">
        <ele>441.863159</ele>
        <time>2019-05-27T14:27:08Z</time>
      </trkpt>
      <trkpt lat="45.13827" lon="5.13331">
        <ele>444.74707</ele>
        <time>2019-05-27T14:27:22Z</time>
      </trkpt>
      <trkpt lat="45.13855" lon="5.13342">
        <ele>448.592407</ele>
        <time>2019-05-27T14:27:39Z</time>
      </trkpt>
      <trkpt lat="45.13866" lon="5.13343">
        <ele>450.034424</ele>
        <time>2019-05-27T14:27:47Z</time>
      </trkpt>
      <trkpt lat="45.139" lon="5.13341">
        <ele>453.398926</ele>
        <time>2019-05-27T14:28:07Z</time>
      </trkpt>
      <trkpt lat="45.13919" lon="5.13341">
        <ele>456.282959</ele>
        <time>2019-05-27T14:28:20Z</time>
      </trkpt>
      <trkpt lat="45.13945" lon="5.13338">
        <ele>459.647583</ele>
        <time>2019-05-27T14:28:39Z</time>
      </trkpt>
      <trkpt lat="45.13962" lon="5.13335">
        <ele>463.012085</ele>
        <time>2019-05-27T14:28:53Z</time>
      </trkpt>
      <trkpt lat="45.13964" lon="5.13334">
        <ele>463.492798</ele>
        <time>2019-05-27T14:28:54Z</time>
      </trkpt>
      <trkpt lat="45.13983" lon="5.1332">
        <ele>465.896118</ele>
        <time>2019-05-27T14:29:10Z</time>
      </trkpt>
      <trkpt lat="45.13989" lon="5.13311">
        <ele>469.260742</ele>
        <time>2019-05-27T14:29:17Z</time>
      </trkpt>
      <trkpt lat="45.13991" lon="5.13308">
        <ele>469.741333</ele>
        <time>2019-05-27T14:29:19Z</time>
      </trkpt>
      <trkpt lat="45.14011" lon="5.13295">
        <ele>473.106079</ele>
        <time>2019-05-27T14:29:37Z</time>
      </trkpt>
      <trkpt lat="45.14035" lon="5.13295">
        <ele>474.547974</ele>
        <time>2019-05-27T14:29:54Z</time>
      </trkpt>
      <trkpt lat="45.1406" lon="5.13311">
        <ele>477.912476</ele>
        <time>2019-05-27T14:30:12Z</time>
      </trkpt>
      <trkpt lat="45.14066" lon="5.13316">
        <ele>477.912476</ele>
        <time>2019-05-27T14:30:28Z</time>
      </trkpt>
      <trkpt lat="45.14066" lon="5.13316">
        <ele>477.912476</ele>
        <time>2019-05-27T14:32:37Z</time>
      </trkpt>
      <trkpt lat="45.14066" lon="5.13317">
        <ele>476.951294</ele>
        <time>2019-05-27T14:34:16Z</time>
      </trkpt>
      <trkpt lat="45.141" lon="5.13347">
        <ele>477.431885</ele>
        <time>2019-05-27T14:34:33Z</time>
      </trkpt>
      <trkpt lat="45.14147" lon="5.13388">
        <ele>478.873901</ele>
        <time>2019-05-27T14:34:49Z</time>
      </trkpt>
      <trkpt lat="45.1415" lon="5.13391">
        <ele>478.873901</ele>
        <time>2019-05-27T14:34:50Z</time>
      </trkpt>
      <trkpt lat="45.14169" lon="5.13416">
        <ele>479.354492</ele>
        <time>2019-05-27T14:35:00Z</time>
      </trkpt>
      <trkpt lat="45.14177" lon="5.13428">
        <ele>479.835083</ele>
        <time>2019-05-27T14:35:07Z</time>
      </trkpt>
      <trkpt lat="45.14189" lon="5.13434">
        <ele>479.835083</ele>
        <time>2019-05-27T14:35:15Z</time>
      </trkpt>
      <trkpt lat="45.14193" lon="5.13436">
        <ele>479.835083</ele>
        <time>2019-05-27T14:35:24Z</time>
      </trkpt>
      <trkpt lat="45.1417" lon="5.13417">
        <ele>480.315918</ele>
        <time>2019-05-27T14:35:35Z</time>
      </trkpt>
      <trkpt lat="45.14161" lon="5.13402">
        <ele>479.354492</ele>
        <time>2019-05-27T14:35:39Z</time>
      </trkpt>
      <trkpt lat="45.14148" lon="5.13404">
        <ele>478.393188</ele>
        <time>2019-05-27T14:35:44Z</time>
      </trkpt>
      <trkpt lat="45.14145" lon="5.13443">
        <ele>476.470581</ele>
        <time>2019-05-27T14:35:57Z</time>
      </trkpt>
      <trkpt lat="45.14146" lon="5.13449">
        <ele>475.509277</ele>
        <time>2019-05-27T14:36:08Z</time>
      </trkpt>
      <trkpt lat="45.14147" lon="5.13444">
        <ele>475.989868</ele>
        <time>2019-05-27T14:36:51Z</time>
      </trkpt>
      <trkpt lat="45.14148" lon="5.13408">
        <ele>479.354492</ele>
        <time>2019-05-27T14:37:06Z</time>
      </trkpt>
      <trkpt lat="45.1415" lon="5.13406">
        <ele>479.835083</ele>
        <time>2019-05-27T14:37:07Z</time>
      </trkpt>
      <trkpt lat="45.1416" lon="5.13402">
        <ele>478.873901</ele>
        <time>2019-05-27T14:37:12Z</time>
      </trkpt>
      <trkpt lat="45.14182" lon="5.13431">
        <ele>479.835083</ele>
        <time>2019-05-27T14:37:29Z</time>
      </trkpt>
      <trkpt lat="45.1419" lon="5.13435">
        <ele>479.835083</ele>
        <time>2019-05-27T14:38:23Z</time>
      </trkpt>
      <trkpt lat="45.1419" lon="5.13433">
        <ele>479.835083</ele>
        <time>2019-05-27T14:38:47Z</time>
      </trkpt>
      <trkpt lat="45.14191" lon="5.13437">
        <ele>481.277222</ele>
        <time>2019-05-27T14:57:23Z</time>
      </trkpt>
      <trkpt lat="45.14189" lon="5.13435">
        <ele>480.796631</ele>
        <time>2019-05-27T14:57:34Z</time>
      </trkpt>
      <trkpt lat="45.14189" lon="5.13434">
        <ele>481.277222</ele>
        <time>2019-05-27T14:58:21Z</time>
      </trkpt>
      <trkpt lat="45.14201" lon="5.13441">
        <ele>481.277222</ele>
        <time>2019-05-27T14:58:39Z</time>
      </trkpt>
      <trkpt lat="45.14245" lon="5.1345">
        <ele>478.873901</ele>
        <time>2019-05-27T14:58:53Z</time>
      </trkpt>
      <trkpt lat="45.14263" lon="5.13452">
        <ele>475.509277</ele>
        <time>2019-05-27T14:58:58Z</time>
      </trkpt>
      <trkpt lat="45.14322" lon="5.13479">
        <ele>474.547974</ele>
        <time>2019-05-27T14:59:13Z</time>
      </trkpt>
      <trkpt lat="45.14348" lon="5.13506">
        <ele>475.509277</ele>
        <time>2019-05-27T14:59:24Z</time>
      </trkpt>
      <trkpt lat="45.14365" lon="5.13526">
        <ele>477.912476</ele>
        <time>2019-05-27T14:59:34Z</time>
      </trkpt>
      <trkpt lat="45.14384" lon="5.13571">
        <ele>478.393188</ele>
        <time>2019-05-27T14:59:52Z</time>
      </trkpt>
      <trkpt lat="45.14386" lon="5.13575">
        <ele>478.873901</ele>
        <time>2019-05-27T14:59:55Z</time>
      </trkpt>
      <trkpt lat="45.14409" lon="5.13575">
        <ele>475.989868</ele>
        <time>2019-05-27T15:00:03Z</time>
      </trkpt>
      <trkpt lat="45.14419" lon="5.13575">
        <ele>474.547974</ele>
        <time>2019-05-27T15:00:05Z</time>
      </trkpt>
      <trkpt lat="45.1444" lon="5.13574">
        <ele>471.66394</ele>
        <time>2019-05-27T15:00:09Z</time>
      </trkpt>
      <trkpt lat="45.1447" lon="5.13559">
        <ele>467.818726</ele>
        <time>2019-05-27T15:00:15Z</time>
      </trkpt>
      <trkpt lat="45.14484" lon="5.13553">
        <ele>465.415527</ele>
        <time>2019-05-27T15:00:20Z</time>
      </trkpt>
      <trkpt lat="45.14486" lon="5.13562">
        <ele>464.934814</ele>
        <time>2019-05-27T15:00:31Z</time>
      </trkpt>
      <trkpt lat="45.14487" lon="5.13559">
        <ele>464.934814</ele>
        <time>2019-05-27T15:01:14Z</time>
      </trkpt>
      <trkpt lat="45.14489" lon="5.13553">
        <ele>466.857422</ele>
        <time>2019-05-27T15:01:18Z</time>
      </trkpt>
      <trkpt lat="45.1449" lon="5.13552">
        <ele>466.857422</ele>
        <time>2019-05-27T15:01:19Z</time>
      </trkpt>
      <trkpt lat="45.14491" lon="5.13549">
        <ele>465.415527</ele>
        <time>2019-05-27T15:01:22Z</time>
      </trkpt>
      <trkpt lat="45.14491" lon="5.13552">
        <ele>465.896118</ele>
        <time>2019-05-27T15:01:27Z</time>
      </trkpt>
      <trkpt lat="45.1448" lon="5.13578">
        <ele>463.973389</ele>
        <time>2019-05-27T15:01:41Z</time>
      </trkpt>
      <trkpt lat="45.1446" lon="5.13616">
        <ele>462.531372</ele>
        <time>2019-05-27T15:01:50Z</time>
      </trkpt>
      <trkpt lat="45.14442" lon="5.13638">
        <ele>459.16687</ele>
        <time>2019-05-27T15:01:55Z</time>
      </trkpt>
      <trkpt lat="45.14417" lon="5.13666">
        <ele>456.282959</ele>
        <time>2019-05-27T15:02:00Z</time>
      </trkpt>
      <trkpt lat="45.14398" lon="5.13692">
        <ele>454.84082</ele>
        <time>2019-05-27T15:02:04Z</time>
      </trkpt>
      <trkpt lat="45.14376" lon="5.13735">
        <ele>452.918213</ele>
        <time>2019-05-27T15:02:10Z</time>
      </trkpt>
      <trkpt lat="45.14368" lon="5.13761">
        <ele>451.476318</ele>
        <time>2019-05-27T15:02:13Z</time>
      </trkpt>
      <trkpt lat="45.1436" lon="5.13794">
        <ele>451.476318</ele>
        <time>2019-05-27T15:02:17Z</time>
      </trkpt>
      <trkpt lat="45.14359" lon="5.13816">
        <ele>450.034424</ele>
        <time>2019-05-27T15:02:20Z</time>
      </trkpt>
      <trkpt lat="45.1436" lon="5.13836">
        <ele>448.111816</ele>
        <time>2019-05-27T15:02:23Z</time>
      </trkpt>
      <trkpt lat="45.14367" lon="5.13878">
        <ele>444.266479</ele>
        <time>2019-05-27T15:02:31Z</time>
      </trkpt>
      <trkpt lat="45.14367" lon="5.13885">
        <ele>442.343872</ele>
        <time>2019-05-27T15:02:33Z</time>
      </trkpt>
      <trkpt lat="45.14367" lon="5.13895">
        <ele>440.901855</ele>
        <time>2019-05-27T15:02:36Z</time>
      </trkpt>
      <trkpt lat="45.14367" lon="5.13907">
        <ele>439.94043</ele>
        <time>2019-05-27T15:02:39Z</time>
      </trkpt>
      <trkpt lat="45.14356" lon="5.13924">
        <ele>437.537109</ele>
        <time>2019-05-27T15:02:45Z</time>
      </trkpt>
      <trkpt lat="45.14342" lon="5.13935">
        <ele>433.691895</ele>
        <time>2019-05-27T15:02:50Z</time>
      </trkpt>
      <trkpt lat="45.14339" lon="5.13936">
        <ele>433.691895</ele>
        <time>2019-05-27T15:02:51Z</time>
      </trkpt>
      <trkpt lat="45.14327" lon="5.13951">
        <ele>430.327271</ele>
        <time>2019-05-27T15:02:56Z</time>
      </trkpt>
      <trkpt lat="45.14314" lon="5.13978">
        <ele>426.962769</ele>
        <time>2019-05-27T15:03:03Z</time>
      </trkpt>
      <trkpt lat="45.14312" lon="5.13983">
        <ele>426.962769</ele>
        <time>2019-05-27T15:03:04Z</time>
      </trkpt>
      <trkpt lat="45.14309" lon="5.14">
        <ele>425.040161</ele>
        <time>2019-05-27T15:03:08Z</time>
      </trkpt>
      <trkpt lat="45.14304" lon="5.14017">
        <ele>421.194824</ele>
        <time>2019-05-27T15:03:12Z</time>
      </trkpt>
      <trkpt lat="45.14303" lon="5.1402">
        <ele>420.714111</ele>
        <time>2019-05-27T15:03:13Z</time>
      </trkpt>
      <trkpt lat="45.14294" lon="5.14049">
        <ele>417.8302</ele>
        <time>2019-05-27T15:03:20Z</time>
      </trkpt>
      <trkpt lat="45.14287" lon="5.14072">
        <ele>414.465454</ele>
        <time>2019-05-27T15:03:26Z</time>
      </trkpt>
      <trkpt lat="45.14286" lon="5.14075">
        <ele>414.465454</ele>
        <time>2019-05-27T15:03:27Z</time>
      </trkpt>
      <trkpt lat="45.14283" lon="5.14084">
        <ele>413.504272</ele>
        <time>2019-05-27T15:03:30Z</time>
      </trkpt>
      <trkpt lat="45.14278" lon="5.14091">
        <ele>412.062256</ele>
        <time>2019-05-27T15:03:34Z</time>
      </trkpt>
      <trkpt lat="45.1428" lon="5.14098">
        <ele>411.581665</ele>
        <time>2019-05-27T15:03:37Z</time>
      </trkpt>
      <trkpt lat="45.14275" lon="5.14126">
        <ele>407.736328</ele>
        <time>2019-05-27T15:03:43Z</time>
      </trkpt>
      <trkpt lat="45.14271" lon="5.14151">
        <ele>402.929688</ele>
        <time>2019-05-27T15:03:48Z</time>
      </trkpt>
      <trkpt lat="45.14266" lon="5.14165">
        <ele>400.045898</ele>
        <time>2019-05-27T15:03:51Z</time>
      </trkpt>
      <trkpt lat="45.14258" lon="5.14183">
        <ele>396.681152</ele>
        <time>2019-05-27T15:03:55Z</time>
      </trkpt>
      <trkpt lat="45.14248" lon="5.14202">
        <ele>393.316528</ele>
        <time>2019-05-27T15:03:59Z</time>
      </trkpt>
      <trkpt lat="45.14237" lon="5.14219">
        <ele>390.913208</ele>
        <time>2019-05-27T15:04:03Z</time>
      </trkpt>
      <trkpt lat="45.14229" lon="5.14244">
        <ele>388.029297</ele>
        <time>2019-05-27T15:04:08Z</time>
      </trkpt>
      <trkpt lat="45.14226" lon="5.14254">
        <ele>386.106689</ele>
        <time>2019-05-27T15:04:11Z</time>
      </trkpt>
      <trkpt lat="45.14223" lon="5.14276">
        <ele>383.222656</ele>
        <time>2019-05-27T15:04:21Z</time>
      </trkpt>
      <trkpt lat="45.14224" lon="5.14301">
        <ele>379.858032</ele>
        <time>2019-05-27T15:04:29Z</time>
      </trkpt>
      <trkpt lat="45.14234" lon="5.1434">
        <ele>376.49353</ele>
        <time>2019-05-27T15:04:38Z</time>
      </trkpt>
      <trkpt lat="45.14247" lon="5.1436">
        <ele>372.648193</ele>
        <time>2019-05-27T15:04:43Z</time>
      </trkpt>
      <trkpt lat="45.14254" lon="5.1437">
        <ele>370.725586</ele>
        <time>2019-05-27T15:04:46Z</time>
      </trkpt>
      <trkpt lat="45.14257" lon="5.14383">
        <ele>369.764282</ele>
        <time>2019-05-27T15:04:49Z</time>
      </trkpt>
      <trkpt lat="45.14238" lon="5.14445">
        <ele>365.918945</ele>
        <time>2019-05-27T15:05:01Z</time>
      </trkpt>
      <trkpt lat="45.14228" lon="5.14476">
        <ele>362.07373</ele>
        <time>2019-05-27T15:05:07Z</time>
      </trkpt>
      <trkpt lat="45.14227" lon="5.14484">
        <ele>360.631714</ele>
        <time>2019-05-27T15:05:09Z</time>
      </trkpt>
      <trkpt lat="45.14232" lon="5.145">
        <ele>360.631714</ele>
        <time>2019-05-27T15:05:16Z</time>
      </trkpt>
      <trkpt lat="45.14243" lon="5.1453">
        <ele>358.228394</ele>
        <time>2019-05-27T15:05:22Z</time>
      </trkpt>
      <trkpt lat="45.14263" lon="5.14564">
        <ele>356.305786</ele>
        <time>2019-05-27T15:05:32Z</time>
      </trkpt>
      <trkpt lat="45.14292" lon="5.14608">
        <ele>352.941162</ele>
        <time>2019-05-27T15:05:44Z</time>
      </trkpt>
      <trkpt lat="45.14302" lon="5.14654">
        <ele>349.576538</ele>
        <time>2019-05-27T15:05:54Z</time>
      </trkpt>
      <trkpt lat="45.14303" lon="5.14658">
        <ele>349.576538</ele>
        <time>2019-05-27T15:05:55Z</time>
      </trkpt>
      <trkpt lat="45.14306" lon="5.14674">
        <ele>348.615234</ele>
        <time>2019-05-27T15:06:05Z</time>
      </trkpt>
      <trkpt lat="45.1431" lon="5.14701">
        <ele>347.173218</ele>
        <time>2019-05-27T15:06:13Z</time>
      </trkpt>
      <trkpt lat="45.14301" lon="5.14713">
        <ele>344.77002</ele>
        <time>2019-05-27T15:06:25Z</time>
      </trkpt>
      <trkpt lat="45.14289" lon="5.1472">
        <ele>342.366699</ele>
        <time>2019-05-27T15:06:35Z</time>
      </trkpt>
      <trkpt lat="45.14286" lon="5.14723">
        <ele>341.405273</ele>
        <time>2019-05-27T15:07:10Z</time>
      </trkpt>
      <trkpt lat="45.14263" lon="5.14731">
        <ele>337.560059</ele>
        <time>2019-05-27T15:07:19Z</time>
      </trkpt>
      <trkpt lat="45.14253" lon="5.14735">
        <ele>336.598877</ele>
        <time>2019-05-27T15:07:22Z</time>
      </trkpt>
      <trkpt lat="45.14225" lon="5.14737">
        <ele>333.234131</ele>
        <time>2019-05-27T15:07:30Z</time>
      </trkpt>
      <trkpt lat="45.14207" lon="5.14733">
        <ele>330.830933</ele>
        <time>2019-05-27T15:07:36Z</time>
      </trkpt>
      <trkpt lat="45.14176" lon="5.14732">
        <ele>327.946777</ele>
        <time>2019-05-27T15:07:47Z</time>
      </trkpt>
      <trkpt lat="45.14156" lon="5.1473">
        <ele>325.543579</ele>
        <time>2019-05-27T15:08:01Z</time>
      </trkpt>
      <trkpt lat="45.14153" lon="5.14734">
        <ele>323.620972</ele>
        <time>2019-05-27T15:08:19Z</time>
      </trkpt>
      <trkpt lat="45.14139" lon="5.14727">
        <ele>322.178955</ele>
        <time>2019-05-27T15:08:39Z</time>
      </trkpt>
      <trkpt lat="45.14123" lon="5.14723">
        <ele>319.295044</ele>
        <time>2019-05-27T15:08:47Z</time>
      </trkpt>
      <trkpt lat="45.14104" lon="5.14731">
        <ele>315.93042</ele>
        <time>2019-05-27T15:08:56Z</time>
      </trkpt>
      <trkpt lat="45.14094" lon="5.14743">
        <ele>314.488403</ele>
        <time>2019-05-27T15:09:02Z</time>
      </trkpt>
      <trkpt lat="45.14081" lon="5.14751">
        <ele>312.085205</ele>
        <time>2019-05-27T15:09:08Z</time>
      </trkpt>
      <trkpt lat="45.14051" lon="5.14757">
        <ele>309.201172</ele>
        <time>2019-05-27T15:09:19Z</time>
      </trkpt>
      <trkpt lat="45.14043" lon="5.14757">
        <ele>307.759277</ele>
        <time>2019-05-27T15:09:25Z</time>
      </trkpt>
      <trkpt lat="45.14032" lon="5.14752">
        <ele>308.720459</ele>
        <time>2019-05-27T15:09:36Z</time>
      </trkpt>
      <trkpt lat="45.14031" lon="5.14753">
        <ele>307.759277</ele>
        <time>2019-05-27T15:09:42Z</time>
      </trkpt>
      <trkpt lat="45.13998" lon="5.1475">
        <ele>305.355957</ele>
        <time>2019-05-27T15:09:59Z</time>
      </trkpt>
      <trkpt lat="45.13973" lon="5.14736">
        <ele>302.471924</ele>
        <time>2019-05-27T15:10:14Z</time>
      </trkpt>
      <trkpt lat="45.13971" lon="5.14735">
        <ele>302.471924</ele>
        <time>2019-05-27T15:10:15Z</time>
      </trkpt>
      <trkpt lat="45.13956" lon="5.14742">
        <ele>300.549316</ele>
        <time>2019-05-27T15:10:23Z</time>
      </trkpt>
      <trkpt lat="45.13942" lon="5.14775">
        <ele>297.184692</ele>
        <time>2019-05-27T15:10:36Z</time>
      </trkpt>
      <trkpt lat="45.13931" lon="5.14795">
        <ele>295.742676</ele>
        <time>2019-05-27T15:10:50Z</time>
      </trkpt>
      <trkpt lat="45.13913" lon="5.14796">
        <ele>295.742676</ele>
        <time>2019-05-27T15:11:28Z</time>
      </trkpt>
      <trkpt lat="45.13882" lon="5.1477">
        <ele>294.300781</ele>
        <time>2019-05-27T15:11:42Z</time>
      </trkpt>
      <trkpt lat="45.13849" lon="5.14738">
        <ele>293.820068</ele>
        <time>2019-05-27T15:11:55Z</time>
      </trkpt>
      <trkpt lat="45.13847" lon="5.14739">
        <ele>293.820068</ele>
        <time>2019-05-27T15:11:56Z</time>
      </trkpt>
      <trkpt lat="45.13819" lon="5.14733">
        <ele>296.704102</ele>
        <time>2019-05-27T15:12:10Z</time>
      </trkpt>
      <trkpt lat="45.13798" lon="5.14732">
        <ele>297.184692</ele>
        <time>2019-05-27T15:12:20Z</time>
      </trkpt>
      <trkpt lat="45.13771" lon="5.14731">
        <ele>294.300781</ele>
        <time>2019-05-27T15:12:30Z</time>
      </trkpt>
      <trkpt lat="45.13736" lon="5.14729">
        <ele>291.416748</ele>
        <time>2019-05-27T15:12:39Z</time>
      </trkpt>
      <trkpt lat="45.13725" lon="5.14738">
        <ele>290.455566</ele>
        <time>2019-05-27T15:12:43Z</time>
      </trkpt>
      <trkpt lat="45.13714" lon="5.14734">
        <ele>289.974854</ele>
        <time>2019-05-27T15:12:49Z</time>
      </trkpt>
      <trkpt lat="45.13708" lon="5.14736">
        <ele>290.455566</ele>
        <time>2019-05-27T15:13:04Z</time>
      </trkpt>
      <trkpt lat="45.13708" lon="5.14736">
        <ele>290.455566</ele>
        <time>2019-05-27T15:13:10Z</time>
      </trkpt>
      <trkpt lat="45.13705" lon="5.1474">
        <ele>290.455566</ele>
        <time>2019-05-27T15:13:14Z</time>
      </trkpt>
      <trkpt lat="45.13698" lon="5.14743">
        <ele>290.455566</ele>
        <time>2019-05-27T15:13:20Z</time>
      </trkpt>
      <trkpt lat="45.13668" lon="5.14766">
        <ele>289.974854</ele>
        <time>2019-05-27T15:13:37Z</time>
      </trkpt>
      <trkpt lat="45.13623" lon="5.14796">
        <ele>288.532959</ele>
        <time>2019-05-27T15:13:54Z</time>
      </trkpt>
      <trkpt lat="45.136" lon="5.148">
        <ele>288.052246</ele>
        <time>2019-05-27T15:14:01Z</time>
      </trkpt>
      <trkpt lat="45.13596" lon="5.14806">
        <ele>287.09082</ele>
        <time>2019-05-27T15:14:05Z</time>
      </trkpt>
      <trkpt lat="45.13595" lon="5.14823">
        <ele>287.571411</ele>
        <time>2019-05-27T15:14:10Z</time>
      </trkpt>
      <trkpt lat="45.13586" lon="5.14845">
        <ele>286.610229</ele>
        <time>2019-05-27T15:14:23Z</time>
      </trkpt>
      <trkpt lat="45.13573" lon="5.14874">
        <ele>286.610229</ele>
        <time>2019-05-27T15:14:44Z</time>
      </trkpt>
      <trkpt lat="45.13544" lon="5.14895">
        <ele>285.168213</ele>
        <time>2019-05-27T15:14:55Z</time>
      </trkpt>
      <trkpt lat="45.13525" lon="5.14947">
        <ele>283.726196</ele>
        <time>2019-05-27T15:15:07Z</time>
      </trkpt>
      <trkpt lat="45.13521" lon="5.14957">
        <ele>283.726196</ele>
        <time>2019-05-27T15:15:09Z</time>
      </trkpt>
      <trkpt lat="45.13506" lon="5.14969">
        <ele>283.245605</ele>
        <time>2019-05-27T15:15:13Z</time>
      </trkpt>
      <trkpt lat="45.13475" lon="5.1499">
        <ele>283.245605</ele>
        <time>2019-05-27T15:15:22Z</time>
      </trkpt>
      <trkpt lat="45.13464" lon="5.15001">
        <ele>282.284302</ele>
        <time>2019-05-27T15:15:25Z</time>
      </trkpt>
      <trkpt lat="45.13415" lon="5.15023">
        <ele>281.322998</ele>
        <time>2019-05-27T15:15:38Z</time>
      </trkpt>
      <trkpt lat="45.13369" lon="5.15046">
        <ele>280.361694</ele>
        <time>2019-05-27T15:15:51Z</time>
      </trkpt>
      <trkpt lat="45.13353" lon="5.15059">
        <ele>281.803589</ele>
        <time>2019-05-27T15:16:06Z</time>
      </trkpt>
      <trkpt lat="45.13355" lon="5.15084">
        <ele>284.206909</ele>
        <time>2019-05-27T15:16:29Z</time>
      </trkpt>
      <trkpt lat="45.13353" lon="5.15085">
        <ele>284.206909</ele>
        <time>2019-05-27T15:16:47Z</time>
      </trkpt>
      <trkpt lat="45.13353" lon="5.15098">
        <ele>284.206909</ele>
        <time>2019-05-27T15:17:03Z</time>
      </trkpt>
      <trkpt lat="45.13353" lon="5.15098">
        <ele>284.206909</ele>
        <time>2019-05-27T15:17:35Z</time>
      </trkpt>
      <trkpt lat="45.13353" lon="5.15092">
        <ele>283.726196</ele>
        <time>2019-05-27T15:17:58Z</time>
      </trkpt>
      <trkpt lat="45.13351" lon="5.15078">
        <ele>283.726196</ele>
        <time>2019-05-27T15:19:40Z</time>
      </trkpt>
      <trkpt lat="45.13351" lon="5.15077">
        <ele>283.726196</ele>
        <time>2019-05-27T15:20:00Z</time>
      </trkpt>
      <trkpt lat="45.13357" lon="5.15052">
        <ele>282.284302</ele>
        <time>2019-05-27T15:20:20Z</time>
      </trkpt>
      <trkpt lat="45.13359" lon="5.15044">
        <ele>281.322998</ele>
        <time>2019-05-27T15:20:37Z</time>
      </trkpt>
      <trkpt lat="45.13359" lon="5.15044">
        <ele>281.322998</ele>
        <time>2019-05-27T15:20:45Z</time>
      </trkpt>
      <trkpt lat="45.13359" lon="5.15044">
        <ele>281.322998</ele>
        <time>2019-05-27T19:03:10Z</time>
      </trkpt>
      <trkpt lat="45.13338" lon="5.15114">
        <ele>281.803589</ele>
        <time>2019-05-27T19:03:33Z</time>
      </trkpt>
      <trkpt lat="45.13347" lon="5.15116">
        <ele>281.322998</ele>
        <time>2019-05-27T19:05:20Z</time>
      </trkpt>
      <trkpt lat="45.13347" lon="5.15116">
        <ele>281.322998</ele>
        <time>2019-05-27T19:05:37Z</time>
      </trkpt>
      <trkpt lat="45.13346" lon="5.15116">
        <ele>281.803589</ele>
        <time>2019-05-27T19:06:17Z</time>
      </trkpt>
      <trkpt lat="45.13346" lon="5.15116">
        <ele>281.803589</ele>
        <time>2019-05-27T19:06:50Z</time>
      </trkpt>
      <trkpt lat="45.13346" lon="5.15117">
        <ele>280.842407</ele>
        <time>2019-05-27T19:07:13Z</time>
      </trkpt>
      <trkpt lat="45.13346" lon="5.15116">
        <ele>281.803589</ele>
        <time>2019-05-27T19:07:25Z</time>
      </trkpt>
      <trkpt lat="45.1332" lon="5.15115">
        <ele>310.162476</ele>
        <time>2019-05-27T19:14:45Z</time>
      </trkpt>
      <trkpt lat="45.13341" lon="5.15116">
        <ele>276.516357</ele>
        <time>2019-05-27T19:15:02Z</time>
      </trkpt>
      <trkpt lat="45.13343" lon="5.15115">
        <ele>281.803589</ele>
        <time>2019-05-27T19:15:05Z</time>
      </trkpt>
      <trkpt lat="45.13343" lon="5.15114">
        <ele>281.803589</ele>
        <time>2019-05-27T19:15:06Z</time>
      </trkpt>
      <trkpt lat="45.13344" lon="5.15117">
        <ele>280.361694</ele>
        <time>2019-05-27T19:15:21Z</time>
      </trkpt>
      <trkpt lat="45.13344" lon="5.15117">
        <ele>280.361694</ele>
        <time>2019-05-28T07:18:46Z</time>
      </trkpt>
      <trkpt lat="45.13344" lon="5.15117">
        <ele>280.361694</ele>
        <time>2019-05-28T07:18:47Z</time>
      </trkpt>
      <trkpt lat="45.13332" lon="5.15126">
        <ele>280.361694</ele>
        <time>2019-05-28T07:19:31Z</time>
      </trkpt>
      <trkpt lat="45.13341" lon="5.15125">
        <ele>280.361694</ele>
        <time>2019-05-28T07:21:44Z</time>
      </trkpt>
      <trkpt lat="45.13341" lon="5.15121">
        <ele>280.361694</ele>
        <time>2019-05-28T07:21:59Z</time>
      </trkpt>
      <trkpt lat="45.13341" lon="5.15111">
        <ele>280.842407</ele>
        <time>2019-05-28T07:22:35Z</time>
      </trkpt>
      <trkpt lat="45.13345" lon="5.1509">
        <ele>283.245605</ele>
        <time>2019-05-28T07:22:53Z</time>
      </trkpt>
      <trkpt lat="45.13352" lon="5.15085">
        <ele>284.206909</ele>
        <time>2019-05-28T07:23:04Z</time>
      </trkpt>
      <trkpt lat="45.13356" lon="5.15082">
        <ele>284.687622</ele>
        <time>2019-05-28T07:23:11Z</time>
      </trkpt>
      <trkpt lat="45.13364" lon="5.15076">
        <ele>287.09082</ele>
        <time>2019-05-28T07:23:27Z</time>
      </trkpt>
      <trkpt lat="45.13372" lon="5.15074">
        <ele>289.494141</ele>
        <time>2019-05-28T07:23:43Z</time>
      </trkpt>
      <trkpt lat="45.1338" lon="5.15072">
        <ele>290.936157</ele>
        <time>2019-05-28T07:23:57Z</time>
      </trkpt>
      <trkpt lat="45.13387" lon="5.15072">
        <ele>292.858765</ele>
        <time>2019-05-28T07:24:12Z</time>
      </trkpt>
      <trkpt lat="45.13394" lon="5.15074">
        <ele>294.781372</ele>
        <time>2019-05-28T07:24:23Z</time>
      </trkpt>
      <trkpt lat="45.134" lon="5.15074">
        <ele>296.704102</ele>
        <time>2019-05-28T07:24:37Z</time>
      </trkpt>
      <trkpt lat="45.13411" lon="5.15072">
        <ele>298.146118</ele>
        <time>2019-05-28T07:24:53Z</time>
      </trkpt>
      <trkpt lat="45.13416" lon="5.15072">
        <ele>298.626709</ele>
        <time>2019-05-28T07:24:59Z</time>
      </trkpt>
      <trkpt lat="45.13426" lon="5.15072">
        <ele>301.029907</ele>
        <time>2019-05-28T07:25:15Z</time>
      </trkpt>
      <trkpt lat="45.13439" lon="5.15069">
        <ele>302.952515</ele>
        <time>2019-05-28T07:25:33Z</time>
      </trkpt>
      <trkpt lat="45.13447" lon="5.1507">
        <ele>303.91394</ele>
        <time>2019-05-28T07:25:53Z</time>
      </trkpt>
      <trkpt lat="45.13456" lon="5.15073">
        <ele>305.83667</ele>
        <time>2019-05-28T07:26:17Z</time>
      </trkpt>
      <trkpt lat="45.13469" lon="5.15079">
        <ele>308.720459</ele>
        <time>2019-05-28T07:26:36Z</time>
      </trkpt>
      <trkpt lat="45.13473" lon="5.15083">
        <ele>309.201172</ele>
        <time>2019-05-28T07:26:41Z</time>
      </trkpt>
      <trkpt lat="45.13488" lon="5.15088">
        <ele>313.046509</ele>
        <time>2019-05-28T07:27:00Z</time>
      </trkpt>
      <trkpt lat="45.135" lon="5.15093">
        <ele>314.488403</ele>
        <time>2019-05-28T07:27:17Z</time>
      </trkpt>
      <trkpt lat="45.13515" lon="5.15092">
        <ele>317.372437</ele>
        <time>2019-05-28T07:27:36Z</time>
      </trkpt>
      <trkpt lat="45.13531" lon="5.15095">
        <ele>320.256348</ele>
        <time>2019-05-28T07:27:57Z</time>
      </trkpt>
      <trkpt lat="45.13547" lon="5.15097">
        <ele>323.140381</ele>
        <time>2019-05-28T07:28:19Z</time>
      </trkpt>
      <trkpt lat="45.13564" lon="5.15105">
        <ele>325.543579</ele>
        <time>2019-05-28T07:28:40Z</time>
      </trkpt>
      <trkpt lat="45.13578" lon="5.15109">
        <ele>327.946777</ele>
        <time>2019-05-28T07:28:57Z</time>
      </trkpt>
      <trkpt lat="45.13601" lon="5.15113">
        <ele>331.311523</ele>
        <time>2019-05-28T07:29:20Z</time>
      </trkpt>
      <trkpt lat="45.1361" lon="5.15116">
        <ele>332.75354</ele>
        <time>2019-05-28T07:29:38Z</time>
      </trkpt>
      <trkpt lat="45.13605" lon="5.15109">
        <ele>331.792114</ele>
        <time>2019-05-28T07:30:25Z</time>
      </trkpt>
      <trkpt lat="45.13613" lon="5.15113">
        <ele>332.75354</ele>
        <time>2019-05-28T07:30:52Z</time>
      </trkpt>
      <trkpt lat="45.13616" lon="5.15113">
        <ele>333.234131</ele>
        <time>2019-05-28T07:31:12Z</time>
      </trkpt>
      <trkpt lat="45.13624" lon="5.15113">
        <ele>334.195435</ele>
        <time>2019-05-28T07:31:20Z</time>
      </trkpt>
      <trkpt lat="45.13639" lon="5.15104">
        <ele>336.118164</ele>
        <time>2019-05-28T07:31:32Z</time>
      </trkpt>
      <trkpt lat="45.13661" lon="5.15074">
        <ele>339.002075</ele>
        <time>2019-05-28T07:31:51Z</time>
      </trkpt>
      <trkpt lat="45.13687" lon="5.15053">
        <ele>342.366699</ele>
        <time>2019-05-28T07:32:10Z</time>
      </trkpt>
      <trkpt lat="45.1369" lon="5.15051">
        <ele>342.366699</ele>
        <time>2019-05-28T07:32:12Z</time>
      </trkpt>
      <trkpt lat="45.13692" lon="5.1505">
        <ele>342.84729</ele>
        <time>2019-05-28T07:32:14Z</time>
      </trkpt>
      <trkpt lat="45.13694" lon="5.15051">
        <ele>342.84729</ele>
        <time>2019-05-28T07:32:16Z</time>
      </trkpt>
      <trkpt lat="45.137" lon="5.1505">
        <ele>343.808594</ele>
        <time>2019-05-28T07:32:20Z</time>
      </trkpt>
      <trkpt lat="45.13704" lon="5.15053">
        <ele>344.289429</ele>
        <time>2019-05-28T07:32:24Z</time>
      </trkpt>
      <trkpt lat="45.13717" lon="5.1505">
        <ele>345.731323</ele>
        <time>2019-05-28T07:32:33Z</time>
      </trkpt>
      <trkpt lat="45.13725" lon="5.15049">
        <ele>346.692627</ele>
        <time>2019-05-28T07:32:40Z</time>
      </trkpt>
      <trkpt lat="45.13729" lon="5.15051">
        <ele>347.173218</ele>
        <time>2019-05-28T07:32:43Z</time>
      </trkpt>
      <trkpt lat="45.1374" lon="5.1505">
        <ele>348.615234</ele>
        <time>2019-05-28T07:32:52Z</time>
      </trkpt>
      <trkpt lat="45.13745" lon="5.1505">
        <ele>349.095825</ele>
        <time>2019-05-28T07:32:55Z</time>
      </trkpt>
      <trkpt lat="45.13752" lon="5.15048">
        <ele>349.576538</ele>
        <time>2019-05-28T07:32:59Z</time>
      </trkpt>
      <trkpt lat="45.13765" lon="5.15046">
        <ele>351.018433</ele>
        <time>2019-05-28T07:33:10Z</time>
      </trkpt>
      <trkpt lat="45.13768" lon="5.15045">
        <ele>351.499146</ele>
        <time>2019-05-28T07:33:12Z</time>
      </trkpt>
      <trkpt lat="45.13787" lon="5.15041">
        <ele>353.902588</ele>
        <time>2019-05-28T07:33:24Z</time>
      </trkpt>
      <trkpt lat="45.13795" lon="5.15038">
        <ele>354.383179</ele>
        <time>2019-05-28T07:33:30Z</time>
      </trkpt>
      <trkpt lat="45.13803" lon="5.15041">
        <ele>355.344482</ele>
        <time>2019-05-28T07:33:35Z</time>
      </trkpt>
      <trkpt lat="45.13838" lon="5.15049">
        <ele>356.786377</ele>
        <time>2019-05-28T07:33:54Z</time>
      </trkpt>
      <trkpt lat="45.13846" lon="5.15054">
        <ele>357.26709</ele>
        <time>2019-05-28T07:34:12Z</time>
      </trkpt>
      <trkpt lat="45.13865" lon="5.15066">
        <ele>358.228394</ele>
        <time>2019-05-28T07:35:45Z</time>
      </trkpt>
      <trkpt lat="45.13892" lon="5.15092">
        <ele>358.708984</ele>
        <time>2019-05-28T07:35:58Z</time>
      </trkpt>
      <trkpt lat="45.13933" lon="5.15132">
        <ele>358.708984</ele>
        <time>2019-05-28T07:36:16Z</time>
      </trkpt>
      <trkpt lat="45.13977" lon="5.15176">
        <ele>358.708984</ele>
        <time>2019-05-28T07:36:35Z</time>
      </trkpt>
      <trkpt lat="45.14018" lon="5.15211">
        <ele>361.59314</ele>
        <time>2019-05-28T07:36:56Z</time>
      </trkpt>
      <trkpt lat="45.14042" lon="5.15235">
        <ele>364.957642</ele>
        <time>2019-05-28T07:37:12Z</time>
      </trkpt>
      <trkpt lat="45.14063" lon="5.15256">
        <ele>367.841553</ele>
        <time>2019-05-28T07:37:27Z</time>
      </trkpt>
      <trkpt lat="45.14093" lon="5.15275">
        <ele>370.725586</ele>
        <time>2019-05-28T07:37:48Z</time>
      </trkpt>
      <trkpt lat="45.14105" lon="5.15279">
        <ele>371.206299</ele>
        <time>2019-05-28T07:38:06Z</time>
      </trkpt>
      <trkpt lat="45.14108" lon="5.15279">
        <ele>371.68689</ele>
        <time>2019-05-28T07:38:20Z</time>
      </trkpt>
      <trkpt lat="45.1414" lon="5.15293">
        <ele>371.68689</ele>
        <time>2019-05-28T07:38:41Z</time>
      </trkpt>
      <trkpt lat="45.14176" lon="5.15304">
        <ele>372.648193</ele>
        <time>2019-05-28T07:38:58Z</time>
      </trkpt>
      <trkpt lat="45.14212" lon="5.15308">
        <ele>371.68689</ele>
        <time>2019-05-28T07:39:13Z</time>
      </trkpt>
      <trkpt lat="45.1424" lon="5.15332">
        <ele>371.206299</ele>
        <time>2019-05-28T07:39:25Z</time>
      </trkpt>
      <trkpt lat="45.14273" lon="5.15374">
        <ele>373.128906</ele>
        <time>2019-05-28T07:39:39Z</time>
      </trkpt>
      <trkpt lat="45.143" lon="5.15383">
        <ele>374.090088</ele>
        <time>2019-05-28T07:39:50Z</time>
      </trkpt>
      <trkpt lat="45.14307" lon="5.15385">
        <ele>374.570801</ele>
        <time>2019-05-28T07:39:55Z</time>
      </trkpt>
      <trkpt lat="45.14345" lon="5.15403">
        <ele>376.974243</ele>
        <time>2019-05-28T07:40:17Z</time>
      </trkpt>
      <trkpt lat="45.14368" lon="5.15414">
        <ele>379.377441</ele>
        <time>2019-05-28T07:40:32Z</time>
      </trkpt>
      <trkpt lat="45.14364" lon="5.15428">
        <ele>380.338745</ele>
        <time>2019-05-28T07:40:41Z</time>
      </trkpt>
      <trkpt lat="45.14331" lon="5.15468">
        <ele>376.974243</ele>
        <time>2019-05-28T07:41:00Z</time>
      </trkpt>
      <trkpt lat="45.14303" lon="5.15494">
        <ele>373.609497</ele>
        <time>2019-05-28T07:41:09Z</time>
      </trkpt>
      <trkpt lat="45.14291" lon="5.15505">
        <ele>371.68689</ele>
        <time>2019-05-28T07:41:13Z</time>
      </trkpt>
      <trkpt lat="45.14271" lon="5.15547">
        <ele>368.322266</ele>
        <time>2019-05-28T07:41:22Z</time>
      </trkpt>
      <trkpt lat="45.14265" lon="5.15579">
        <ele>364.957642</ele>
        <time>2019-05-28T07:41:28Z</time>
      </trkpt>
      <trkpt lat="45.14263" lon="5.15602">
        <ele>361.59314</ele>
        <time>2019-05-28T07:41:32Z</time>
      </trkpt>
      <trkpt lat="45.14262" lon="5.15608">
        <ele>360.631714</ele>
        <time>2019-05-28T07:41:33Z</time>
      </trkpt>
      <trkpt lat="45.1426" lon="5.1562">
        <ele>359.67041</ele>
        <time>2019-05-28T07:41:35Z</time>
      </trkpt>
      <trkpt lat="45.14248" lon="5.15649">
        <ele>355.825195</ele>
        <time>2019-05-28T07:41:40Z</time>
      </trkpt>
      <trkpt lat="45.14238" lon="5.15669">
        <ele>353.902588</ele>
        <time>2019-05-28T07:41:44Z</time>
      </trkpt>
      <trkpt lat="45.14229" lon="5.15691">
        <ele>351.979858</ele>
        <time>2019-05-28T07:41:48Z</time>
      </trkpt>
      <trkpt lat="45.14215" lon="5.1578">
        <ele>349.095825</ele>
        <time>2019-05-28T07:42:06Z</time>
      </trkpt>
      <trkpt lat="45.14227" lon="5.15826">
        <ele>346.692627</ele>
        <time>2019-05-28T07:42:15Z</time>
      </trkpt>
      <trkpt lat="45.14232" lon="5.15869">
        <ele>342.84729</ele>
        <time>2019-05-28T07:42:22Z</time>
      </trkpt>
      <trkpt lat="45.14233" lon="5.15875">
        <ele>342.366699</ele>
        <time>2019-05-28T07:42:23Z</time>
      </trkpt>
      <trkpt lat="45.14235" lon="5.15909">
        <ele>339.963379</ele>
        <time>2019-05-28T07:42:28Z</time>
      </trkpt>
      <trkpt lat="45.14235" lon="5.15921">
        <ele>338.521484</ele>
        <time>2019-05-28T07:42:30Z</time>
      </trkpt>
      <trkpt lat="45.14233" lon="5.15956">
        <ele>335.156738</ele>
        <time>2019-05-28T07:42:36Z</time>
      </trkpt>
      <trkpt lat="45.14233" lon="5.15982">
        <ele>333.234131</ele>
        <time>2019-05-28T07:42:40Z</time>
      </trkpt>
      <trkpt lat="45.14232" lon="5.16008">
        <ele>330.35022</ele>
        <time>2019-05-28T07:42:44Z</time>
      </trkpt>
      <trkpt lat="45.1423" lon="5.16026">
        <ele>327.946777</ele>
        <time>2019-05-28T07:42:47Z</time>
      </trkpt>
      <trkpt lat="45.14232" lon="5.16053">
        <ele>324.582275</ele>
        <time>2019-05-28T07:42:52Z</time>
      </trkpt>
      <trkpt lat="45.14246" lon="5.16086">
        <ele>320.256348</ele>
        <time>2019-05-28T07:42:59Z</time>
      </trkpt>
      <trkpt lat="45.14248" lon="5.16092">
        <ele>319.295044</ele>
        <time>2019-05-28T07:43:01Z</time>
      </trkpt>
      <trkpt lat="45.14243" lon="5.16111">
        <ele>315.93042</ele>
        <time>2019-05-28T07:43:06Z</time>
      </trkpt>
      <trkpt lat="45.14238" lon="5.16116">
        <ele>314.488403</ele>
        <time>2019-05-28T07:43:08Z</time>
      </trkpt>
      <trkpt lat="45.14219" lon="5.16126">
        <ele>310.643066</ele>
        <time>2019-05-28T07:43:14Z</time>
      </trkpt>
      <trkpt lat="45.14213" lon="5.16128">
        <ele>309.681885</ele>
        <time>2019-05-28T07:43:16Z</time>
      </trkpt>
      <trkpt lat="45.14202" lon="5.16135">
        <ele>306.797852</ele>
        <time>2019-05-28T07:43:20Z</time>
      </trkpt>
      <trkpt lat="45.14199" lon="5.16136">
        <ele>306.317261</ele>
        <time>2019-05-28T07:43:21Z</time>
      </trkpt>
      <trkpt lat="45.14185" lon="5.16142">
        <ele>303.433228</ele>
        <time>2019-05-28T07:43:26Z</time>
      </trkpt>
      <trkpt lat="45.14195" lon="5.16166">
        <ele>301.51062</ele>
        <time>2019-05-28T07:43:32Z</time>
      </trkpt>
      <trkpt lat="45.14204" lon="5.16175">
        <ele>300.549316</ele>
        <time>2019-05-28T07:43:34Z</time>
      </trkpt>
      <trkpt lat="45.14207" lon="5.16208">
        <ele>299.588013</ele>
        <time>2019-05-28T07:43:41Z</time>
      </trkpt>
      <trkpt lat="45.14185" lon="5.16219">
        <ele>297.665405</ele>
        <time>2019-05-28T07:43:45Z</time>
      </trkpt>
      <trkpt lat="45.14142" lon="5.16239">
        <ele>296.704102</ele>
        <time>2019-05-28T07:43:55Z</time>
      </trkpt>
      <trkpt lat="45.14116" lon="5.16273">
        <ele>294.781372</ele>
        <time>2019-05-28T07:44:02Z</time>
      </trkpt>
      <trkpt lat="45.14073" lon="5.16328">
        <ele>291.897461</ele>
        <time>2019-05-28T07:44:11Z</time>
      </trkpt>
      <trkpt lat="45.14068" lon="5.16335">
        <ele>291.416748</ele>
        <time>2019-05-28T07:44:12Z</time>
      </trkpt>
      <trkpt lat="45.14062" lon="5.16347">
        <ele>289.974854</ele>
        <time>2019-05-28T07:44:14Z</time>
      </trkpt>
      <trkpt lat="45.14049" lon="5.16399">
        <ele>289.01355</ele>
        <time>2019-05-28T07:44:19Z</time>
      </trkpt>
      <trkpt lat="45.14049" lon="5.16422">
        <ele>288.532959</ele>
        <time>2019-05-28T07:44:21Z</time>
      </trkpt>
      <trkpt lat="45.14051" lon="5.16459">
        <ele>288.052246</ele>
        <time>2019-05-28T07:44:25Z</time>
      </trkpt>
      <trkpt lat="45.14062" lon="5.16476">
        <ele>288.532959</ele>
        <time>2019-05-28T07:44:29Z</time>
      </trkpt>
      <trkpt lat="45.14084" lon="5.16491">
        <ele>288.052246</ele>
        <time>2019-05-28T07:44:35Z</time>
      </trkpt>
      <trkpt lat="45.14134" lon="5.16512">
        <ele>287.09082</ele>
        <time>2019-05-28T07:44:45Z</time>
      </trkpt>
      <trkpt lat="45.14155" lon="5.16538">
        <ele>287.09082</ele>
        <time>2019-05-28T07:44:52Z</time>
      </trkpt>
      <trkpt lat="45.14195" lon="5.16625">
        <ele>288.532959</ele>
        <time>2019-05-28T07:45:12Z</time>
      </trkpt>
      <trkpt lat="45.14203" lon="5.16682">
        <ele>289.494141</ele>
        <time>2019-05-28T07:45:25Z</time>
      </trkpt>
      <trkpt lat="45.14235" lon="5.16723">
        <ele>289.974854</ele>
        <time>2019-05-28T07:45:39Z</time>
      </trkpt>
      <trkpt lat="45.14258" lon="5.16774">
        <ele>290.455566</ele>
        <time>2019-05-28T07:45:53Z</time>
      </trkpt>
      <trkpt lat="45.14242" lon="5.16818">
        <ele>290.936157</ele>
        <time>2019-05-28T07:46:05Z</time>
      </trkpt>
      <trkpt lat="45.14228" lon="5.16865">
        <ele>290.936157</ele>
        <time>2019-05-28T07:46:17Z</time>
      </trkpt>
      <trkpt lat="45.14236" lon="5.16922">
        <ele>292.378174</ele>
        <time>2019-05-28T07:46:31Z</time>
      </trkpt>
      <trkpt lat="45.14255" lon="5.16966">
        <ele>293.339355</ele>
        <time>2019-05-28T07:46:44Z</time>
      </trkpt>
      <trkpt lat="45.14262" lon="5.16977">
        <ele>293.820068</ele>
        <time>2019-05-28T07:46:48Z</time>
      </trkpt>
      <trkpt lat="45.14263" lon="5.16991">
        <ele>293.820068</ele>
        <time>2019-05-28T07:46:52Z</time>
      </trkpt>
      <trkpt lat="45.14262" lon="5.17019">
        <ele>294.781372</ele>
        <time>2019-05-28T07:47:01Z</time>
      </trkpt>
      <trkpt lat="45.1425" lon="5.17064">
        <ele>294.781372</ele>
        <time>2019-05-28T07:47:13Z</time>
      </trkpt>
      <trkpt lat="45.14257" lon="5.17078">
        <ele>294.781372</ele>
        <time>2019-05-28T07:47:17Z</time>
      </trkpt>
      <trkpt lat="45.14285" lon="5.17094">
        <ele>294.300781</ele>
        <time>2019-05-28T07:47:32Z</time>
      </trkpt>
      <trkpt lat="45.14308" lon="5.17121">
        <ele>295.261963</ele>
        <time>2019-05-28T07:47:46Z</time>
      </trkpt>
      <trkpt lat="45.14308" lon="5.17125">
        <ele>295.261963</ele>
        <time>2019-05-28T07:47:47Z</time>
      </trkpt>
      <trkpt lat="45.14308" lon="5.17141">
        <ele>295.261963</ele>
        <time>2019-05-28T07:47:54Z</time>
      </trkpt>
      <trkpt lat="45.14306" lon="5.17144">
        <ele>295.261963</ele>
        <time>2019-05-28T07:47:56Z</time>
      </trkpt>
      <trkpt lat="45.14303" lon="5.17154">
        <ele>295.742676</ele>
        <time>2019-05-28T07:48:04Z</time>
      </trkpt>
      <trkpt lat="45.14289" lon="5.1717">
        <ele>296.223511</ele>
        <time>2019-05-28T07:48:13Z</time>
      </trkpt>
      <trkpt lat="45.14264" lon="5.172">
        <ele>297.184692</ele>
        <time>2019-05-28T07:48:22Z</time>
      </trkpt>
      <trkpt lat="45.14271" lon="5.17217">
        <ele>297.184692</ele>
        <time>2019-05-28T07:48:28Z</time>
      </trkpt>
      <trkpt lat="45.14289" lon="5.17234">
        <ele>297.665405</ele>
        <time>2019-05-28T07:48:38Z</time>
      </trkpt>
      <trkpt lat="45.14302" lon="5.17238">
        <ele>298.146118</ele>
        <time>2019-05-28T07:48:48Z</time>
      </trkpt>
      <trkpt lat="45.14303" lon="5.1724">
        <ele>298.626709</ele>
        <time>2019-05-28T07:48:50Z</time>
      </trkpt>
      <trkpt lat="45.14316" lon="5.1725">
        <ele>299.1073</ele>
        <time>2019-05-28T07:48:56Z</time>
      </trkpt>
      <trkpt lat="45.14323" lon="5.17273">
        <ele>299.1073</ele>
        <time>2019-05-28T07:49:07Z</time>
      </trkpt>
      <trkpt lat="45.1432" lon="5.1728">
        <ele>299.1073</ele>
        <time>2019-05-28T07:49:11Z</time>
      </trkpt>
      <trkpt lat="45.14314" lon="5.17297">
        <ele>299.1073</ele>
        <time>2019-05-28T07:49:18Z</time>
      </trkpt>
      <trkpt lat="45.1431" lon="5.17301">
        <ele>299.1073</ele>
        <time>2019-05-28T07:49:20Z</time>
      </trkpt>
      <trkpt lat="45.14309" lon="5.17307">
        <ele>299.588013</ele>
        <time>2019-05-28T07:49:22Z</time>
      </trkpt>
      <trkpt lat="45.14313" lon="5.17324">
        <ele>299.588013</ele>
        <time>2019-05-28T07:49:27Z</time>
      </trkpt>
      <trkpt lat="45.1432" lon="5.17343">
        <ele>300.068726</ele>
        <time>2019-05-28T07:49:35Z</time>
      </trkpt>
      <trkpt lat="45.14326" lon="5.17349">
        <ele>300.549316</ele>
        <time>2019-05-28T07:49:39Z</time>
      </trkpt>
      <trkpt lat="45.14328" lon="5.17357">
        <ele>301.029907</ele>
        <time>2019-05-28T07:49:42Z</time>
      </trkpt>
      <trkpt lat="45.14338" lon="5.1739">
        <ele>302.471924</ele>
        <time>2019-05-28T07:49:54Z</time>
      </trkpt>
      <trkpt lat="45.1434" lon="5.17406">
        <ele>302.471924</ele>
        <time>2019-05-28T07:49:59Z</time>
      </trkpt>
      <trkpt lat="45.14351" lon="5.17446">
        <ele>302.952515</ele>
        <time>2019-05-28T07:50:10Z</time>
      </trkpt>
      <trkpt lat="45.14354" lon="5.17491">
        <ele>303.433228</ele>
        <time>2019-05-28T07:50:23Z</time>
      </trkpt>
      <trkpt lat="45.14355" lon="5.17503">
        <ele>303.433228</ele>
        <time>2019-05-28T07:50:26Z</time>
      </trkpt>
      <trkpt lat="45.14353" lon="5.1754">
        <ele>304.394653</ele>
        <time>2019-05-28T07:50:38Z</time>
      </trkpt>
      <trkpt lat="45.14352" lon="5.17545">
        <ele>304.394653</ele>
        <time>2019-05-28T07:50:40Z</time>
      </trkpt>
      <trkpt lat="45.14353" lon="5.17589">
        <ele>304.875244</ele>
        <time>2019-05-28T07:50:53Z</time>
      </trkpt>
      <trkpt lat="45.14362" lon="5.17609">
        <ele>304.875244</ele>
        <time>2019-05-28T07:51:01Z</time>
      </trkpt>
      <trkpt lat="45.14367" lon="5.17615">
        <ele>304.875244</ele>
        <time>2019-05-28T07:51:04Z</time>
      </trkpt>
      <trkpt lat="45.14374" lon="5.17621">
        <ele>304.875244</ele>
        <time>2019-05-28T07:51:08Z</time>
      </trkpt>
      <trkpt lat="45.14388" lon="5.17634">
        <ele>305.355957</ele>
        <time>2019-05-28T07:51:17Z</time>
      </trkpt>
      <trkpt lat="45.14403" lon="5.17636">
        <ele>305.83667</ele>
        <time>2019-05-28T07:51:26Z</time>
      </trkpt>
      <trkpt lat="45.14413" lon="5.17636">
        <ele>306.797852</ele>
        <time>2019-05-28T07:51:32Z</time>
      </trkpt>
      <trkpt lat="45.14429" lon="5.17639">
        <ele>305.83667</ele>
        <time>2019-05-28T07:51:43Z</time>
      </trkpt>
      <trkpt lat="45.14435" lon="5.17644">
        <ele>305.83667</ele>
        <time>2019-05-28T07:51:47Z</time>
      </trkpt>
      <trkpt lat="45.14442" lon="5.17649">
        <ele>306.317261</ele>
        <time>2019-05-28T07:51:52Z</time>
      </trkpt>
      <trkpt lat="45.14455" lon="5.1766">
        <ele>306.797852</ele>
        <time>2019-05-28T07:52:00Z</time>
      </trkpt>
      <trkpt lat="45.14465" lon="5.17663">
        <ele>306.797852</ele>
        <time>2019-05-28T07:52:03Z</time>
      </trkpt>
      <trkpt lat="45.14494" lon="5.17696">
        <ele>307.278564</ele>
        <time>2019-05-28T07:52:14Z</time>
      </trkpt>
      <trkpt lat="45.14515" lon="5.17724">
        <ele>308.239868</ele>
        <time>2019-05-28T07:52:27Z</time>
      </trkpt>
      <trkpt lat="45.14539" lon="5.17741">
        <ele>309.681885</ele>
        <time>2019-05-28T07:52:38Z</time>
      </trkpt>
      <trkpt lat="45.1455" lon="5.17766">
        <ele>311.123779</ele>
        <time>2019-05-28T07:52:47Z</time>
      </trkpt>
      <trkpt lat="45.14557" lon="5.1778">
        <ele>311.123779</ele>
        <time>2019-05-28T07:52:52Z</time>
      </trkpt>
      <trkpt lat="45.14587" lon="5.17812">
        <ele>311.604492</ele>
        <time>2019-05-28T07:53:06Z</time>
      </trkpt>
      <trkpt lat="45.14614" lon="5.17835">
        <ele>312.085205</ele>
        <time>2019-05-28T07:53:19Z</time>
      </trkpt>
      <trkpt lat="45.14639" lon="5.17873">
        <ele>312.565796</ele>
        <time>2019-05-28T07:53:33Z</time>
      </trkpt>
      <trkpt lat="45.14661" lon="5.17928">
        <ele>312.565796</ele>
        <time>2019-05-28T07:53:48Z</time>
      </trkpt>
      <trkpt lat="45.14666" lon="5.1796">
        <ele>312.565796</ele>
        <time>2019-05-28T07:53:56Z</time>
      </trkpt>
      <trkpt lat="45.14685" lon="5.18002">
        <ele>313.527222</ele>
        <time>2019-05-28T07:54:09Z</time>
      </trkpt>
      <trkpt lat="45.14696" lon="5.18011">
        <ele>314.007812</ele>
        <time>2019-05-28T07:54:16Z</time>
      </trkpt>
      <trkpt lat="45.14723" lon="5.18024">
        <ele>315.449829</ele>
        <time>2019-05-28T07:54:32Z</time>
      </trkpt>
      <trkpt lat="45.14756" lon="5.18064">
        <ele>318.814331</ele>
        <time>2019-05-28T07:54:57Z</time>
      </trkpt>
      <trkpt lat="45.14786" lon="5.18088">
        <ele>321.698364</ele>
        <time>2019-05-28T07:55:18Z</time>
      </trkpt>
      <trkpt lat="45.14812" lon="5.18089">
        <ele>323.620972</ele>
        <time>2019-05-28T07:55:33Z</time>
      </trkpt>
      <trkpt lat="45.14829" lon="5.18077">
        <ele>326.02417</ele>
        <time>2019-05-28T07:55:46Z</time>
      </trkpt>
      <trkpt lat="45.14841" lon="5.18058">
        <ele>326.985596</ele>
        <time>2019-05-28T07:55:58Z</time>
      </trkpt>
      <trkpt lat="45.14849" lon="5.18051">
        <ele>327.946777</ele>
        <time>2019-05-28T07:56:06Z</time>
      </trkpt>
      <trkpt lat="45.14865" lon="5.18037">
        <ele>329.869507</ele>
        <time>2019-05-28T07:56:19Z</time>
      </trkpt>
      <trkpt lat="45.14866" lon="5.18035">
        <ele>329.388916</ele>
        <time>2019-05-28T07:56:45Z</time>
      </trkpt>
      <trkpt lat="45.14866" lon="5.18033">
        <ele>329.388916</ele>
        <time>2019-05-28T07:57:10Z</time>
      </trkpt>
      <trkpt lat="45.14877" lon="5.18025">
        <ele>329.869507</ele>
        <time>2019-05-28T07:57:38Z</time>
      </trkpt>
      <trkpt lat="45.14903" lon="5.18006">
        <ele>330.35022</ele>
        <time>2019-05-28T07:57:55Z</time>
      </trkpt>
      <trkpt lat="45.14923" lon="5.17994">
        <ele>329.388916</ele>
        <time>2019-05-28T07:58:03Z</time>
      </trkpt>
      <trkpt lat="45.14942" lon="5.17985">
        <ele>328.908325</ele>
        <time>2019-05-28T07:58:11Z</time>
      </trkpt>
      <trkpt lat="45.14956" lon="5.17989">
        <ele>326.504883</ele>
        <time>2019-05-28T07:58:15Z</time>
      </trkpt>
      <trkpt lat="45.14966" lon="5.17978">
        <ele>324.582275</ele>
        <time>2019-05-28T07:58:20Z</time>
      </trkpt>
      <trkpt lat="45.14984" lon="5.1795">
        <ele>326.02417</ele>
        <time>2019-05-28T07:58:28Z</time>
      </trkpt>
      <trkpt lat="45.14986" lon="5.17945">
        <ele>326.504883</ele>
        <time>2019-05-28T07:58:31Z</time>
      </trkpt>
      <trkpt lat="45.1499" lon="5.17924">
        <ele>328.427612</ele>
        <time>2019-05-28T07:58:40Z</time>
      </trkpt>
      <trkpt lat="45.14991" lon="5.17912">
        <ele>329.388916</ele>
        <time>2019-05-28T07:58:45Z</time>
      </trkpt>
      <trkpt lat="45.14992" lon="5.17904">
        <ele>330.35022</ele>
        <time>2019-05-28T07:58:48Z</time>
      </trkpt>
      <trkpt lat="45.14998" lon="5.17879">
        <ele>333.714722</ele>
        <time>2019-05-28T07:58:58Z</time>
      </trkpt>
      <trkpt lat="45.15001" lon="5.17854">
        <ele>336.598877</ele>
        <time>2019-05-28T07:59:11Z</time>
      </trkpt>
      <trkpt lat="45.15004" lon="5.1785">
        <ele>338.040771</ele>
        <time>2019-05-28T07:59:16Z</time>
      </trkpt>
      <trkpt lat="45.15005" lon="5.17862">
        <ele>339.963379</ele>
        <time>2019-05-28T07:59:26Z</time>
      </trkpt>
      <trkpt lat="45.15005" lon="5.17865">
        <ele>340.444092</ele>
        <time>2019-05-28T07:59:28Z</time>
      </trkpt>
      <trkpt lat="45.15006" lon="5.17869">
        <ele>340.924683</ele>
        <time>2019-05-28T07:59:31Z</time>
      </trkpt>
      <trkpt lat="45.15008" lon="5.17878">
        <ele>341.885986</ele>
        <time>2019-05-28T07:59:37Z</time>
      </trkpt>
      <trkpt lat="45.15009" lon="5.17888">
        <ele>342.366699</ele>
        <time>2019-05-28T07:59:41Z</time>
      </trkpt>
      <trkpt lat="45.1501" lon="5.17891">
        <ele>342.84729</ele>
        <time>2019-05-28T07:59:43Z</time>
      </trkpt>
      <trkpt lat="45.15011" lon="5.17907">
        <ele>343.327881</ele>
        <time>2019-05-28T08:00:00Z</time>
      </trkpt>
      <trkpt lat="45.15012" lon="5.17909">
        <ele>343.808594</ele>
        <time>2019-05-28T08:00:50Z</time>
      </trkpt>
      <trkpt lat="45.15016" lon="5.1792">
        <ele>343.808594</ele>
        <time>2019-05-28T08:00:54Z</time>
      </trkpt>
      <trkpt lat="45.15022" lon="5.17931">
        <ele>344.77002</ele>
        <time>2019-05-28T08:00:59Z</time>
      </trkpt>
      <trkpt lat="45.15041" lon="5.17929">
        <ele>347.173218</ele>
        <time>2019-05-28T08:01:11Z</time>
      </trkpt>
      <trkpt lat="45.15054" lon="5.1792">
        <ele>350.057251</ele>
        <time>2019-05-28T08:01:22Z</time>
      </trkpt>
      <trkpt lat="45.15069" lon="5.17912">
        <ele>353.421875</ele>
        <time>2019-05-28T08:01:36Z</time>
      </trkpt>
      <trkpt lat="45.15086" lon="5.17905">
        <ele>356.786377</ele>
        <time>2019-05-28T08:01:52Z</time>
      </trkpt>
      <trkpt lat="45.15106" lon="5.17898">
        <ele>360.151123</ele>
        <time>2019-05-28T08:02:08Z</time>
      </trkpt>
      <trkpt lat="45.15122" lon="5.17894">
        <ele>362.07373</ele>
        <time>2019-05-28T08:02:20Z</time>
      </trkpt>
      <trkpt lat="45.15124" lon="5.17894">
        <ele>362.554321</ele>
        <time>2019-05-28T08:02:22Z</time>
      </trkpt>
      <trkpt lat="45.15151" lon="5.17892">
        <ele>364.957642</ele>
        <time>2019-05-28T08:02:40Z</time>
      </trkpt>
      <trkpt lat="45.15172" lon="5.17901">
        <ele>367.360962</ele>
        <time>2019-05-28T08:02:59Z</time>
      </trkpt>
      <trkpt lat="45.15184" lon="5.17904">
        <ele>369.283691</ele>
        <time>2019-05-28T08:03:09Z</time>
      </trkpt>
      <trkpt lat="45.15199" lon="5.1791">
        <ele>372.16748</ele>
        <time>2019-05-28T08:03:22Z</time>
      </trkpt>
      <trkpt lat="45.15202" lon="5.1791">
        <ele>372.648193</ele>
        <time>2019-05-28T08:03:23Z</time>
      </trkpt>
      <trkpt lat="45.15208" lon="5.17915">
        <ele>373.609497</ele>
        <time>2019-05-28T08:03:27Z</time>
      </trkpt>
      <trkpt lat="45.15216" lon="5.1793">
        <ele>376.49353</ele>
        <time>2019-05-28T08:03:37Z</time>
      </trkpt>
      <trkpt lat="45.15231" lon="5.17938">
        <ele>379.377441</ele>
        <time>2019-05-28T08:03:49Z</time>
      </trkpt>
      <trkpt lat="45.15234" lon="5.17943">
        <ele>380.338745</ele>
        <time>2019-05-28T08:03:53Z</time>
      </trkpt>
      <trkpt lat="45.15239" lon="5.17956">
        <ele>382.261353</ele>
        <time>2019-05-28T08:04:02Z</time>
      </trkpt>
      <trkpt lat="45.15241" lon="5.17968">
        <ele>383.222656</ele>
        <time>2019-05-28T08:04:08Z</time>
      </trkpt>
      <trkpt lat="45.15247" lon="5.17993">
        <ele>384.664795</ele>
        <time>2019-05-28T08:04:25Z</time>
      </trkpt>
      <trkpt lat="45.15249" lon="5.18001">
        <ele>385.145386</ele>
        <time>2019-05-28T08:05:17Z</time>
      </trkpt>
      <trkpt lat="45.15256" lon="5.18035">
        <ele>387.067993</ele>
        <time>2019-05-28T08:05:35Z</time>
      </trkpt>
      <trkpt lat="45.15257" lon="5.18038">
        <ele>387.067993</ele>
        <time>2019-05-28T08:05:37Z</time>
      </trkpt>
      <trkpt lat="45.1528" lon="5.18055">
        <ele>389.951904</ele>
        <time>2019-05-28T08:05:54Z</time>
      </trkpt>
      <trkpt lat="45.15297" lon="5.18069">
        <ele>393.316528</ele>
        <time>2019-05-28T08:06:09Z</time>
      </trkpt>
      <trkpt lat="45.15316" lon="5.18083">
        <ele>396.681152</ele>
        <time>2019-05-28T08:06:27Z</time>
      </trkpt>
      <trkpt lat="45.15336" lon="5.18089">
        <ele>399.565063</ele>
        <time>2019-05-28T08:06:41Z</time>
      </trkpt>
      <trkpt lat="45.15356" lon="5.18094">
        <ele>402.449097</ele>
        <time>2019-05-28T08:06:59Z</time>
      </trkpt>
      <trkpt lat="45.15371" lon="5.18095">
        <ele>405.813721</ele>
        <time>2019-05-28T08:07:14Z</time>
      </trkpt>
      <trkpt lat="45.15377" lon="5.18097">
        <ele>407.255615</ele>
        <time>2019-05-28T08:07:22Z</time>
      </trkpt>
      <trkpt lat="45.15394" lon="5.18103">
        <ele>410.620239</ele>
        <time>2019-05-28T08:07:35Z</time>
      </trkpt>
      <trkpt lat="45.15408" lon="5.18106">
        <ele>413.504272</ele>
        <time>2019-05-28T08:07:48Z</time>
      </trkpt>
      <trkpt lat="45.15422" lon="5.18109">
        <ele>416.388184</ele>
        <time>2019-05-28T08:08:02Z</time>
      </trkpt>
      <trkpt lat="45.15432" lon="5.18113">
        <ele>418.791504</ele>
        <time>2019-05-28T08:08:14Z</time>
      </trkpt>
      <trkpt lat="45.15449" lon="5.18116">
        <ele>420.714111</ele>
        <time>2019-05-28T08:08:31Z</time>
      </trkpt>
      <trkpt lat="45.15448" lon="5.18117">
        <ele>420.714111</ele>
        <time>2019-05-28T08:11:39Z</time>
      </trkpt>
      <trkpt lat="45.15479" lon="5.18124">
        <ele>422.636719</ele>
        <time>2019-05-28T08:12:00Z</time>
      </trkpt>
      <trkpt lat="45.15504" lon="5.18132">
        <ele>426.001343</ele>
        <time>2019-05-28T08:12:18Z</time>
      </trkpt>
      <trkpt lat="45.15525" lon="5.18145">
        <ele>427.443359</ele>
        <time>2019-05-28T08:12:34Z</time>
      </trkpt>
      <trkpt lat="45.15539" lon="5.18159">
        <ele>430.807983</ele>
        <time>2019-05-28T08:12:48Z</time>
      </trkpt>
      <trkpt lat="45.15544" lon="5.18165">
        <ele>432.25</ele>
        <time>2019-05-28T08:12:54Z</time>
      </trkpt>
      <trkpt lat="45.15551" lon="5.1817">
        <ele>434.172607</ele>
        <time>2019-05-28T08:13:01Z</time>
      </trkpt>
      <trkpt lat="45.15555" lon="5.18201">
        <ele>436.095215</ele>
        <time>2019-05-28T08:13:19Z</time>
      </trkpt>
      <trkpt lat="45.15571" lon="5.18225">
        <ele>439.459717</ele>
        <time>2019-05-28T08:13:36Z</time>
      </trkpt>
      <trkpt lat="45.15587" lon="5.18257">
        <ele>442.824463</ele>
        <time>2019-05-28T08:13:57Z</time>
      </trkpt>
      <trkpt lat="45.1559" lon="5.18271">
        <ele>443.785767</ele>
        <time>2019-05-28T08:14:06Z</time>
      </trkpt>
      <trkpt lat="45.15592" lon="5.18275">
        <ele>444.266479</ele>
        <time>2019-05-28T08:14:08Z</time>
      </trkpt>
      <trkpt lat="45.15596" lon="5.18284">
        <ele>444.266479</ele>
        <time>2019-05-28T08:14:13Z</time>
      </trkpt>
      <trkpt lat="45.15616" lon="5.18288">
        <ele>444.74707</ele>
        <time>2019-05-28T08:14:24Z</time>
      </trkpt>
      <trkpt lat="45.15623" lon="5.18284">
        <ele>445.227661</ele>
        <time>2019-05-28T08:14:30Z</time>
      </trkpt>
      <trkpt lat="45.15647" lon="5.18295">
        <ele>447.630981</ele>
        <time>2019-05-28T08:14:48Z</time>
      </trkpt>
      <trkpt lat="45.15672" lon="5.18314">
        <ele>449.553711</ele>
        <time>2019-05-28T08:15:05Z</time>
      </trkpt>
      <trkpt lat="45.15693" lon="5.18326">
        <ele>451.476318</ele>
        <time>2019-05-28T08:15:22Z</time>
      </trkpt>
      <trkpt lat="45.15701" lon="5.1833">
        <ele>452.437622</ele>
        <time>2019-05-28T08:15:28Z</time>
      </trkpt>
      <trkpt lat="45.15704" lon="5.18332">
        <ele>452.437622</ele>
        <time>2019-05-28T08:15:30Z</time>
      </trkpt>
      <trkpt lat="45.15719" lon="5.18329">
        <ele>453.879639</ele>
        <time>2019-05-28T08:15:43Z</time>
      </trkpt>
      <trkpt lat="45.15735" lon="5.18321">
        <ele>455.802246</ele>
        <time>2019-05-28T08:16:01Z</time>
      </trkpt>
      <trkpt lat="45.15746" lon="5.18323">
        <ele>458.205566</ele>
        <time>2019-05-28T08:16:14Z</time>
      </trkpt>
      <trkpt lat="45.1575" lon="5.18327">
        <ele>459.647583</ele>
        <time>2019-05-28T08:16:26Z</time>
      </trkpt>
      <trkpt lat="45.15751" lon="5.18331">
        <ele>460.608765</ele>
        <time>2019-05-28T08:16:40Z</time>
      </trkpt>
      <trkpt lat="45.15749" lon="5.18344">
        <ele>463.492798</ele>
        <time>2019-05-28T08:16:59Z</time>
      </trkpt>
      <trkpt lat="45.15753" lon="5.18357">
        <ele>464.934814</ele>
        <time>2019-05-28T08:17:20Z</time>
      </trkpt>
      <trkpt lat="45.15761" lon="5.18362">
        <ele>468.299316</ele>
        <time>2019-05-28T08:17:39Z</time>
      </trkpt>
      <trkpt lat="45.15771" lon="5.18367">
        <ele>471.18335</ele>
        <time>2019-05-28T08:17:55Z</time>
      </trkpt>
      <trkpt lat="45.1579" lon="5.18378">
        <ele>474.547974</ele>
        <time>2019-05-28T08:18:14Z</time>
      </trkpt>
      <trkpt lat="45.15802" lon="5.18382">
        <ele>475.989868</ele>
        <time>2019-05-28T08:18:31Z</time>
      </trkpt>
      <trkpt lat="45.15805" lon="5.18382">
        <ele>475.989868</ele>
        <time>2019-05-28T08:18:34Z</time>
      </trkpt>
      <trkpt lat="45.15808" lon="5.18385">
        <ele>475.989868</ele>
        <time>2019-05-28T08:18:37Z</time>
      </trkpt>
      <trkpt lat="45.15808" lon="5.18392">
        <ele>476.470581</ele>
        <time>2019-05-28T08:18:42Z</time>
      </trkpt>
      <trkpt lat="45.15814" lon="5.18405">
        <ele>476.470581</ele>
        <time>2019-05-28T08:19:02Z</time>
      </trkpt>
      <trkpt lat="45.15822" lon="5.18413">
        <ele>476.470581</ele>
        <time>2019-05-28T08:19:18Z</time>
      </trkpt>
      <trkpt lat="45.15823" lon="5.18415">
        <ele>476.470581</ele>
        <time>2019-05-28T08:19:20Z</time>
      </trkpt>
      <trkpt lat="45.15847" lon="5.1843">
        <ele>477.431885</ele>
        <time>2019-05-28T08:19:35Z</time>
      </trkpt>
      <trkpt lat="45.15869" lon="5.18449">
        <ele>477.912476</ele>
        <time>2019-05-28T08:19:47Z</time>
      </trkpt>
      <trkpt lat="45.15891" lon="5.18474">
        <ele>478.873901</ele>
        <time>2019-05-28T08:19:59Z</time>
      </trkpt>
      <trkpt lat="45.15929" lon="5.18517">
        <ele>480.315918</ele>
        <time>2019-05-28T08:20:16Z</time>
      </trkpt>
      <trkpt lat="45.15937" lon="5.18522">
        <ele>480.796631</ele>
        <time>2019-05-28T08:20:19Z</time>
      </trkpt>
      <trkpt lat="45.15962" lon="5.18531">
        <ele>480.796631</ele>
        <time>2019-05-28T08:20:27Z</time>
      </trkpt>
      <trkpt lat="45.15968" lon="5.18522">
        <ele>481.277222</ele>
        <time>2019-05-28T08:20:32Z</time>
      </trkpt>
      <trkpt lat="45.15962" lon="5.18493">
        <ele>484.641846</ele>
        <time>2019-05-28T08:20:47Z</time>
      </trkpt>
      <trkpt lat="45.1596" lon="5.18472">
        <ele>488.00647</ele>
        <time>2019-05-28T08:21:02Z</time>
      </trkpt>
      <trkpt lat="45.15952" lon="5.18447">
        <ele>491.370972</ele>
        <time>2019-05-28T08:21:17Z</time>
      </trkpt>
      <trkpt lat="45.15952" lon="5.18446">
        <ele>491.370972</ele>
        <time>2019-05-28T08:21:18Z</time>
      </trkpt>
      <trkpt lat="45.15947" lon="5.18437">
        <ele>492.812988</ele>
        <time>2019-05-28T08:21:25Z</time>
      </trkpt>
      <trkpt lat="45.15941" lon="5.18421">
        <ele>494.735596</ele>
        <time>2019-05-28T08:21:34Z</time>
      </trkpt>
      <trkpt lat="45.15938" lon="5.18408">
        <ele>496.658325</ele>
        <time>2019-05-28T08:21:44Z</time>
      </trkpt>
      <trkpt lat="45.15936" lon="5.18389">
        <ele>499.061523</ele>
        <time>2019-05-28T08:21:57Z</time>
      </trkpt>
      <trkpt lat="45.15938" lon="5.18372">
        <ele>500.50354</ele>
        <time>2019-05-28T08:22:08Z</time>
      </trkpt>
      <trkpt lat="45.15944" lon="5.18369">
        <ele>501.464844</ele>
        <time>2019-05-28T08:22:16Z</time>
      </trkpt>
      <trkpt lat="45.15946" lon="5.18369">
        <ele>501.945557</ele>
        <time>2019-05-28T08:22:18Z</time>
      </trkpt>
      <trkpt lat="45.15951" lon="5.18372">
        <ele>502.426147</ele>
        <time>2019-05-28T08:22:24Z</time>
      </trkpt>
      <trkpt lat="45.15956" lon="5.18371">
        <ele>502.906738</ele>
        <time>2019-05-28T08:22:28Z</time>
      </trkpt>
      <trkpt lat="45.1596" lon="5.18375">
        <ele>503.868164</ele>
        <time>2019-05-28T08:22:33Z</time>
      </trkpt>
      <trkpt lat="45.15962" lon="5.18375">
        <ele>503.868164</ele>
        <time>2019-05-28T08:22:35Z</time>
      </trkpt>
      <trkpt lat="45.15968" lon="5.1837">
        <ele>504.829468</ele>
        <time>2019-05-28T08:22:41Z</time>
      </trkpt>
      <trkpt lat="45.15983" lon="5.18365">
        <ele>507.713501</ele>
        <time>2019-05-28T08:22:57Z</time>
      </trkpt>
      <trkpt lat="45.15986" lon="5.18366">
        <ele>508.194092</ele>
        <time>2019-05-28T08:23:01Z</time>
      </trkpt>
      <trkpt lat="45.15989" lon="5.18368">
        <ele>508.194092</ele>
        <time>2019-05-28T08:23:04Z</time>
      </trkpt>
      <trkpt lat="45.15998" lon="5.18371">
        <ele>508.674683</ele>
        <time>2019-05-28T08:23:18Z</time>
      </trkpt>
      <trkpt lat="45.16014" lon="5.18379">
        <ele>509.155396</ele>
        <time>2019-05-28T08:24:30Z</time>
      </trkpt>
      <trkpt lat="45.16037" lon="5.1839">
        <ele>510.116699</ele>
        <time>2019-05-28T08:24:42Z</time>
      </trkpt>
      <trkpt lat="45.16064" lon="5.18421">
        <ele>511.558716</ele>
        <time>2019-05-28T08:24:58Z</time>
      </trkpt>
      <trkpt lat="45.16072" lon="5.18431">
        <ele>511.558716</ele>
        <time>2019-05-28T08:25:03Z</time>
      </trkpt>
      <trkpt lat="45.16094" lon="5.18466">
        <ele>513.000732</ele>
        <time>2019-05-28T08:25:16Z</time>
      </trkpt>
      <trkpt lat="45.16098" lon="5.18471">
        <ele>512.52002</ele>
        <time>2019-05-28T08:25:34Z</time>
      </trkpt>
      <trkpt lat="45.16099" lon="5.18472">
        <ele>512.52002</ele>
        <time>2019-05-28T08:25:44Z</time>
      </trkpt>
      <trkpt lat="45.16112" lon="5.18495">
        <ele>513.962036</ele>
        <time>2019-05-28T08:25:55Z</time>
      </trkpt>
      <trkpt lat="45.16115" lon="5.185">
        <ele>513.962036</ele>
        <time>2019-05-28T08:25:57Z</time>
      </trkpt>
      <trkpt lat="45.16149" lon="5.18559">
        <ele>515.884644</ele>
        <time>2019-05-28T08:26:16Z</time>
      </trkpt>
      <trkpt lat="45.16157" lon="5.18569">
        <ele>516.365234</ele>
        <time>2019-05-28T08:26:20Z</time>
      </trkpt>
      <trkpt lat="45.16161" lon="5.18576">
        <ele>516.845947</ele>
        <time>2019-05-28T08:26:23Z</time>
      </trkpt>
      <trkpt lat="45.16175" lon="5.18609">
        <ele>518.287842</ele>
        <time>2019-05-28T08:26:34Z</time>
      </trkpt>
      <trkpt lat="45.16176" lon="5.18612">
        <ele>518.287842</ele>
        <time>2019-05-28T08:26:35Z</time>
      </trkpt>
      <trkpt lat="45.1618" lon="5.18622">
        <ele>518.287842</ele>
        <time>2019-05-28T08:26:38Z</time>
      </trkpt>
      <trkpt lat="45.16197" lon="5.18667">
        <ele>519.249268</ele>
        <time>2019-05-28T08:26:53Z</time>
      </trkpt>
      <trkpt lat="45.16215" lon="5.18718">
        <ele>520.691284</ele>
        <time>2019-05-28T08:27:10Z</time>
      </trkpt>
      <trkpt lat="45.16228" lon="5.18763">
        <ele>522.133179</ele>
        <time>2019-05-28T08:27:26Z</time>
      </trkpt>
      <trkpt lat="45.16237" lon="5.188">
        <ele>523.094604</ele>
        <time>2019-05-28T08:27:38Z</time>
      </trkpt>
      <trkpt lat="45.16244" lon="5.18814">
        <ele>523.575195</ele>
        <time>2019-05-28T08:27:50Z</time>
      </trkpt>
      <trkpt lat="45.16251" lon="5.18842">
        <ele>525.017212</ele>
        <time>2019-05-28T08:28:18Z</time>
      </trkpt>
      <trkpt lat="45.16259" lon="5.18872">
        <ele>525.978394</ele>
        <time>2019-05-28T08:28:29Z</time>
      </trkpt>
      <trkpt lat="45.16262" lon="5.18895">
        <ele>526.459106</ele>
        <time>2019-05-28T08:28:38Z</time>
      </trkpt>
      <trkpt lat="45.16266" lon="5.18918">
        <ele>527.42041</ele>
        <time>2019-05-28T08:28:50Z</time>
      </trkpt>
      <trkpt lat="45.16267" lon="5.18924">
        <ele>527.42041</ele>
        <time>2019-05-28T08:28:53Z</time>
      </trkpt>
      <trkpt lat="45.16265" lon="5.18974">
        <ele>528.862549</ele>
        <time>2019-05-28T08:29:06Z</time>
      </trkpt>
      <trkpt lat="45.16262" lon="5.18986">
        <ele>529.34314</ele>
        <time>2019-05-28T08:29:10Z</time>
      </trkpt>
      <trkpt lat="45.16263" lon="5.19033">
        <ele>530.304443</ele>
        <time>2019-05-28T08:29:26Z</time>
      </trkpt>
      <trkpt lat="45.16264" lon="5.19042">
        <ele>530.304443</ele>
        <time>2019-05-28T08:29:42Z</time>
      </trkpt>
      <trkpt lat="45.16268" lon="5.19041">
        <ele>530.304443</ele>
        <time>2019-05-28T08:30:01Z</time>
      </trkpt>
      <trkpt lat="45.1627" lon="5.19036">
        <ele>530.785156</ele>
        <time>2019-05-28T08:30:33Z</time>
      </trkpt>
      <trkpt lat="45.16278" lon="5.19021">
        <ele>533.188354</ele>
        <time>2019-05-28T08:30:44Z</time>
      </trkpt>
      <trkpt lat="45.16286" lon="5.19013">
        <ele>535.110962</ele>
        <time>2019-05-28T08:30:53Z</time>
      </trkpt>
      <trkpt lat="45.16289" lon="5.1901">
        <ele>536.072388</ele>
        <time>2019-05-28T08:30:57Z</time>
      </trkpt>
      <trkpt lat="45.16294" lon="5.19001">
        <ele>537.994995</ele>
        <time>2019-05-28T08:31:05Z</time>
      </trkpt>
      <trkpt lat="45.16303" lon="5.18986">
        <ele>540.878906</ele>
        <time>2019-05-28T08:31:19Z</time>
      </trkpt>
      <trkpt lat="45.16304" lon="5.18982">
        <ele>541.359497</ele>
        <time>2019-05-28T08:31:22Z</time>
      </trkpt>
      <trkpt lat="45.16308" lon="5.18969">
        <ele>543.282104</ele>
        <time>2019-05-28T08:31:30Z</time>
      </trkpt>
      <trkpt lat="45.16311" lon="5.18964">
        <ele>543.762817</ele>
        <time>2019-05-28T08:31:34Z</time>
      </trkpt>
      <trkpt lat="45.16318" lon="5.18956">
        <ele>545.685547</ele>
        <time>2019-05-28T08:31:42Z</time>
      </trkpt>
      <trkpt lat="45.16323" lon="5.18956">
        <ele>546.646851</ele>
        <time>2019-05-28T08:31:46Z</time>
      </trkpt>
      <trkpt lat="45.16325" lon="5.18955">
        <ele>547.127441</ele>
        <time>2019-05-28T08:31:48Z</time>
      </trkpt>
      <trkpt lat="45.16335" lon="5.18954">
        <ele>549.050049</ele>
        <time>2019-05-28T08:32:01Z</time>
      </trkpt>
      <trkpt lat="45.16337" lon="5.18955">
        <ele>549.530762</ele>
        <time>2019-05-28T08:32:04Z</time>
      </trkpt>
      <trkpt lat="45.16355" lon="5.18952">
        <ele>550.972656</ele>
        <time>2019-05-28T08:32:21Z</time>
      </trkpt>
      <trkpt lat="45.16378" lon="5.18953">
        <ele>551.934082</ele>
        <time>2019-05-28T08:32:38Z</time>
      </trkpt>
      <trkpt lat="45.16379" lon="5.18952">
        <ele>552.414551</ele>
        <time>2019-05-28T08:32:40Z</time>
      </trkpt>
      <trkpt lat="45.16385" lon="5.1895">
        <ele>552.414551</ele>
        <time>2019-05-28T08:32:59Z</time>
      </trkpt>
      <trkpt lat="45.164" lon="5.18957">
        <ele>552.895264</ele>
        <time>2019-05-28T08:33:47Z</time>
      </trkpt>
      <trkpt lat="45.16419" lon="5.18978">
        <ele>554.337402</ele>
        <time>2019-05-28T08:34:01Z</time>
      </trkpt>
      <trkpt lat="45.1644" lon="5.19014">
        <ele>555.779297</ele>
        <time>2019-05-28T08:34:18Z</time>
      </trkpt>
      <trkpt lat="45.16472" lon="5.19058">
        <ele>556.740723</ele>
        <time>2019-05-28T08:34:34Z</time>
      </trkpt>
      <trkpt lat="45.16497" lon="5.1909">
        <ele>557.221436</ele>
        <time>2019-05-28T08:34:52Z</time>
      </trkpt>
      <trkpt lat="45.16511" lon="5.19113">
        <ele>557.221436</ele>
        <time>2019-05-28T08:35:29Z</time>
      </trkpt>
      <trkpt lat="45.16522" lon="5.19162">
        <ele>558.182861</ele>
        <time>2019-05-28T08:35:43Z</time>
      </trkpt>
      <trkpt lat="45.16525" lon="5.19224">
        <ele>559.144043</ele>
        <time>2019-05-28T08:35:58Z</time>
      </trkpt>
      <trkpt lat="45.16527" lon="5.19245">
        <ele>558.66333</ele>
        <time>2019-05-28T08:36:03Z</time>
      </trkpt>
      <trkpt lat="45.16526" lon="5.19261">
        <ele>559.144043</ele>
        <time>2019-05-28T08:36:09Z</time>
      </trkpt>
      <trkpt lat="45.1652" lon="5.19277">
        <ele>559.144043</ele>
        <time>2019-05-28T08:36:18Z</time>
      </trkpt>
      <trkpt lat="45.1652" lon="5.19282">
        <ele>559.144043</ele>
        <time>2019-05-28T08:36:20Z</time>
      </trkpt>
      <trkpt lat="45.16527" lon="5.19296">
        <ele>559.144043</ele>
        <time>2019-05-28T08:36:25Z</time>
      </trkpt>
      <trkpt lat="45.1653" lon="5.19302">
        <ele>558.66333</ele>
        <time>2019-05-28T08:36:28Z</time>
      </trkpt>
      <trkpt lat="45.16526" lon="5.19358">
        <ele>559.624756</ele>
        <time>2019-05-28T08:36:44Z</time>
      </trkpt>
      <trkpt lat="45.16531" lon="5.19416">
        <ele>559.624756</ele>
        <time>2019-05-28T08:37:00Z</time>
      </trkpt>
      <trkpt lat="45.16529" lon="5.1943">
        <ele>560.105225</ele>
        <time>2019-05-28T08:37:05Z</time>
      </trkpt>
      <trkpt lat="45.1653" lon="5.19443">
        <ele>559.624756</ele>
        <time>2019-05-28T08:37:09Z</time>
      </trkpt>
      <trkpt lat="45.1653" lon="5.19452">
        <ele>560.105225</ele>
        <time>2019-05-28T08:37:12Z</time>
      </trkpt>
      <trkpt lat="45.16534" lon="5.1949">
        <ele>560.585938</ele>
        <time>2019-05-28T08:37:24Z</time>
      </trkpt>
      <trkpt lat="45.16532" lon="5.19519">
        <ele>560.105225</ele>
        <time>2019-05-28T08:37:32Z</time>
      </trkpt>
      <trkpt lat="45.16536" lon="5.19536">
        <ele>560.105225</ele>
        <time>2019-05-28T08:37:49Z</time>
      </trkpt>
      <trkpt lat="45.16536" lon="5.1955">
        <ele>560.105225</ele>
        <time>2019-05-28T08:38:05Z</time>
      </trkpt>
      <trkpt lat="45.1654" lon="5.19591">
        <ele>556.740723</ele>
        <time>2019-05-28T08:38:15Z</time>
      </trkpt>
      <trkpt lat="45.16541" lon="5.19593">
        <ele>556.26001</ele>
        <time>2019-05-28T08:38:16Z</time>
      </trkpt>
      <trkpt lat="45.16547" lon="5.19599">
        <ele>556.740723</ele>
        <time>2019-05-28T08:38:20Z</time>
      </trkpt>
      <trkpt lat="45.16557" lon="5.19596">
        <ele>557.221436</ele>
        <time>2019-05-28T08:38:26Z</time>
      </trkpt>
      <trkpt lat="45.1658" lon="5.1958">
        <ele>560.585938</ele>
        <time>2019-05-28T08:38:40Z</time>
      </trkpt>
      <trkpt lat="45.16598" lon="5.19575">
        <ele>561.547363</ele>
        <time>2019-05-28T08:38:55Z</time>
      </trkpt>
      <trkpt lat="45.16604" lon="5.19573">
        <ele>562.028076</ele>
        <time>2019-05-28T08:41:42Z</time>
      </trkpt>
      <trkpt lat="45.16635" lon="5.19575">
        <ele>562.989258</ele>
        <time>2019-05-28T08:41:56Z</time>
      </trkpt>
      <trkpt lat="45.1667" lon="5.19573">
        <ele>562.989258</ele>
        <time>2019-05-28T08:42:09Z</time>
      </trkpt>
      <trkpt lat="45.16706" lon="5.19577">
        <ele>563.469971</ele>
        <time>2019-05-28T08:42:19Z</time>
      </trkpt>
      <trkpt lat="45.1674" lon="5.19582">
        <ele>563.950439</ele>
        <time>2019-05-28T08:42:29Z</time>
      </trkpt>
      <trkpt lat="45.16775" lon="5.19587">
        <ele>562.989258</ele>
        <time>2019-05-28T08:42:39Z</time>
      </trkpt>
      <trkpt lat="45.16808" lon="5.19604">
        <ele>562.028076</ele>
        <time>2019-05-28T08:42:50Z</time>
      </trkpt>
      <trkpt lat="45.16816" lon="5.19608">
        <ele>562.028076</ele>
        <time>2019-05-28T08:42:52Z</time>
      </trkpt>
      <trkpt lat="45.1684" lon="5.19612">
        <ele>565.392578</ele>
        <time>2019-05-28T08:43:02Z</time>
      </trkpt>
      <trkpt lat="45.16864" lon="5.19613">
        <ele>565.873291</ele>
        <time>2019-05-28T08:43:16Z</time>
      </trkpt>
      <trkpt lat="45.16888" lon="5.19629">
        <ele>564.911865</ele>
        <time>2019-05-28T08:43:26Z</time>
      </trkpt>
      <trkpt lat="45.16916" lon="5.19636">
        <ele>564.431152</ele>
        <time>2019-05-28T08:43:35Z</time>
      </trkpt>
      <trkpt lat="45.16918" lon="5.19636">
        <ele>564.431152</ele>
        <time>2019-05-28T08:43:36Z</time>
      </trkpt>
      <trkpt lat="45.16935" lon="5.19632">
        <ele>565.392578</ele>
        <time>2019-05-28T08:43:50Z</time>
      </trkpt>
      <trkpt lat="45.1695" lon="5.19624">
        <ele>565.392578</ele>
        <time>2019-05-28T08:43:55Z</time>
      </trkpt>
      <trkpt lat="45.16954" lon="5.19626">
        <ele>564.911865</ele>
        <time>2019-05-28T08:43:58Z</time>
      </trkpt>
      <trkpt lat="45.16962" lon="5.19625">
        <ele>564.431152</ele>
        <time>2019-05-28T08:44:01Z</time>
      </trkpt>
      <trkpt lat="45.16987" lon="5.19625">
        <ele>563.469971</ele>
        <time>2019-05-28T08:44:11Z</time>
      </trkpt>
      <trkpt lat="45.16999" lon="5.19623">
        <ele>562.508545</ele>
        <time>2019-05-28T08:44:16Z</time>
      </trkpt>
      <trkpt lat="45.17016" lon="5.19618">
        <ele>561.547363</ele>
        <time>2019-05-28T08:44:22Z</time>
      </trkpt>
      <trkpt lat="45.17056" lon="5.19623">
        <ele>558.182861</ele>
        <time>2019-05-28T08:44:35Z</time>
      </trkpt>
      <trkpt lat="45.17068" lon="5.19622">
        <ele>557.702148</ele>
        <time>2019-05-28T08:44:45Z</time>
      </trkpt>
      <trkpt lat="45.17079" lon="5.19621">
        <ele>557.221436</ele>
        <time>2019-05-28T08:44:51Z</time>
      </trkpt>
      <trkpt lat="45.1711" lon="5.19619">
        <ele>555.779297</ele>
        <time>2019-05-28T08:45:04Z</time>
      </trkpt>
      <trkpt lat="45.17141" lon="5.19613">
        <ele>554.337402</ele>
        <time>2019-05-28T08:45:14Z</time>
      </trkpt>
      <trkpt lat="45.17145" lon="5.19611">
        <ele>553.856689</ele>
        <time>2019-05-28T08:45:16Z</time>
      </trkpt>
      <trkpt lat="45.17192" lon="5.19607">
        <ele>553.375977</ele>
        <time>2019-05-28T08:45:26Z</time>
      </trkpt>
      <trkpt lat="45.17243" lon="5.19614">
        <ele>551.934082</ele>
        <time>2019-05-28T08:45:37Z</time>
      </trkpt>
      <trkpt lat="45.17274" lon="5.19624">
        <ele>550.492188</ele>
        <time>2019-05-28T08:45:48Z</time>
      </trkpt>
      <trkpt lat="45.17286" lon="5.1963">
        <ele>550.011475</ele>
        <time>2019-05-28T08:45:58Z</time>
      </trkpt>
      <trkpt lat="45.17291" lon="5.19633">
        <ele>550.492188</ele>
        <time>2019-05-28T08:46:19Z</time>
      </trkpt>
      <trkpt lat="45.17293" lon="5.19633">
        <ele>549.530762</ele>
        <time>2019-05-28T08:46:47Z</time>
      </trkpt>
      <trkpt lat="45.17316" lon="5.19638">
        <ele>549.530762</ele>
        <time>2019-05-28T08:49:55Z</time>
      </trkpt>
      <trkpt lat="45.17344" lon="5.19652">
        <ele>549.050049</ele>
        <time>2019-05-28T08:50:05Z</time>
      </trkpt>
      <trkpt lat="45.17349" lon="5.19653">
        <ele>549.050049</ele>
        <time>2019-05-28T08:50:07Z</time>
      </trkpt>
      <trkpt lat="45.17356" lon="5.19653">
        <ele>549.050049</ele>
        <time>2019-05-28T08:50:11Z</time>
      </trkpt>
      <trkpt lat="45.17382" lon="5.19647">
        <ele>550.011475</ele>
        <time>2019-05-28T08:50:21Z</time>
      </trkpt>
      <trkpt lat="45.17392" lon="5.19649">
        <ele>550.011475</ele>
        <time>2019-05-28T08:50:26Z</time>
      </trkpt>
      <trkpt lat="45.17403" lon="5.19649">
        <ele>549.530762</ele>
        <time>2019-05-28T08:50:31Z</time>
      </trkpt>
      <trkpt lat="45.17443" lon="5.19673">
        <ele>549.530762</ele>
        <time>2019-05-28T08:50:43Z</time>
      </trkpt>
      <trkpt lat="45.17485" lon="5.19703">
        <ele>551.934082</ele>
        <time>2019-05-28T08:50:57Z</time>
      </trkpt>
      <trkpt lat="45.17526" lon="5.19715">
        <ele>552.895264</ele>
        <time>2019-05-28T08:51:12Z</time>
      </trkpt>
      <trkpt lat="45.17557" lon="5.19723">
        <ele>553.375977</ele>
        <time>2019-05-28T08:51:26Z</time>
      </trkpt>
      <trkpt lat="45.17566" lon="5.19724">
        <ele>553.856689</ele>
        <time>2019-05-28T08:51:33Z</time>
      </trkpt>
      <trkpt lat="45.17569" lon="5.19724">
        <ele>554.337402</ele>
        <time>2019-05-28T08:51:35Z</time>
      </trkpt>
      <trkpt lat="45.17574" lon="5.19725">
        <ele>553.856689</ele>
        <time>2019-05-28T08:51:56Z</time>
      </trkpt>
      <trkpt lat="45.17579" lon="5.19728">
        <ele>554.337402</ele>
        <time>2019-05-28T08:53:03Z</time>
      </trkpt>
      <trkpt lat="45.17593" lon="5.19729">
        <ele>555.779297</ele>
        <time>2019-05-28T08:53:12Z</time>
      </trkpt>
      <trkpt lat="45.17614" lon="5.19725">
        <ele>556.26001</ele>
        <time>2019-05-28T08:53:23Z</time>
      </trkpt>
      <trkpt lat="45.17648" lon="5.19734">
        <ele>553.856689</ele>
        <time>2019-05-28T08:53:34Z</time>
      </trkpt>
      <trkpt lat="45.1769" lon="5.19737">
        <ele>553.375977</ele>
        <time>2019-05-28T08:53:46Z</time>
      </trkpt>
      <trkpt lat="45.17711" lon="5.19742">
        <ele>554.337402</ele>
        <time>2019-05-28T08:53:56Z</time>
      </trkpt>
      <trkpt lat="45.17714" lon="5.19741">
        <ele>554.817871</ele>
        <time>2019-05-28T08:55:35Z</time>
      </trkpt>
      <trkpt lat="45.17731" lon="5.19738">
        <ele>555.779297</ele>
        <time>2019-05-28T08:55:57Z</time>
      </trkpt>
      <trkpt lat="45.17777" lon="5.19748">
        <ele>557.221436</ele>
        <time>2019-05-28T08:56:12Z</time>
      </trkpt>
      <trkpt lat="45.17799" lon="5.19744">
        <ele>559.624756</ele>
        <time>2019-05-28T08:56:24Z</time>
      </trkpt>
      <trkpt lat="45.17815" lon="5.19744">
        <ele>561.06665</ele>
        <time>2019-05-28T08:56:33Z</time>
      </trkpt>
      <trkpt lat="45.17819" lon="5.19742">
        <ele>561.547363</ele>
        <time>2019-05-28T08:56:36Z</time>
      </trkpt>
      <trkpt lat="45.17845" lon="5.19745">
        <ele>560.105225</ele>
        <time>2019-05-28T08:56:49Z</time>
      </trkpt>
      <trkpt lat="45.1788" lon="5.19745">
        <ele>558.182861</ele>
        <time>2019-05-28T08:57:06Z</time>
      </trkpt>
      <trkpt lat="45.17896" lon="5.19741">
        <ele>559.144043</ele>
        <time>2019-05-28T08:57:15Z</time>
      </trkpt>
      <trkpt lat="45.17917" lon="5.19734">
        <ele>560.105225</ele>
        <time>2019-05-28T08:57:27Z</time>
      </trkpt>
      <trkpt lat="45.17944" lon="5.19728">
        <ele>562.989258</ele>
        <time>2019-05-28T08:57:44Z</time>
      </trkpt>
      <trkpt lat="45.17947" lon="5.19727">
        <ele>562.989258</ele>
        <time>2019-05-28T08:57:46Z</time>
      </trkpt>
      <trkpt lat="45.17953" lon="5.19725">
        <ele>563.469971</ele>
        <time>2019-05-28T08:57:50Z</time>
      </trkpt>
      <trkpt lat="45.17957" lon="5.19722">
        <ele>563.950439</ele>
        <time>2019-05-28T08:57:53Z</time>
      </trkpt>
      <trkpt lat="45.17972" lon="5.19714">
        <ele>564.431152</ele>
        <time>2019-05-28T08:58:08Z</time>
      </trkpt>
      <trkpt lat="45.17974" lon="5.19713">
        <ele>564.911865</ele>
        <time>2019-05-28T08:58:10Z</time>
      </trkpt>
      <trkpt lat="45.17977" lon="5.19713">
        <ele>564.911865</ele>
        <time>2019-05-28T08:58:12Z</time>
      </trkpt>
      <trkpt lat="45.17991" lon="5.19707">
        <ele>564.431152</ele>
        <time>2019-05-28T08:58:24Z</time>
      </trkpt>
      <trkpt lat="45.17996" lon="5.19707">
        <ele>564.431152</ele>
        <time>2019-05-28T08:58:28Z</time>
      </trkpt>
      <trkpt lat="45.18001" lon="5.19707">
        <ele>564.431152</ele>
        <time>2019-05-28T08:58:31Z</time>
      </trkpt>
      <trkpt lat="45.18008" lon="5.19706">
        <ele>564.431152</ele>
        <time>2019-05-28T08:58:36Z</time>
      </trkpt>
      <trkpt lat="45.1803" lon="5.19701">
        <ele>564.911865</ele>
        <time>2019-05-28T08:58:48Z</time>
      </trkpt>
      <trkpt lat="45.18053" lon="5.197">
        <ele>566.35376</ele>
        <time>2019-05-28T08:58:59Z</time>
      </trkpt>
      <trkpt lat="45.18084" lon="5.19695">
        <ele>567.795654</ele>
        <time>2019-05-28T08:59:13Z</time>
      </trkpt>
      <trkpt lat="45.18106" lon="5.19695">
        <ele>566.35376</ele>
        <time>2019-05-28T08:59:23Z</time>
      </trkpt>
      <trkpt lat="45.18131" lon="5.19692">
        <ele>564.431152</ele>
        <time>2019-05-28T08:59:30Z</time>
      </trkpt>
      <trkpt lat="45.18158" lon="5.19674">
        <ele>562.989258</ele>
        <time>2019-05-28T08:59:36Z</time>
      </trkpt>
      <trkpt lat="45.18171" lon="5.19667">
        <ele>562.028076</ele>
        <time>2019-05-28T08:59:39Z</time>
      </trkpt>
      <trkpt lat="45.18194" lon="5.19661">
        <ele>561.547363</ele>
        <time>2019-05-28T08:59:44Z</time>
      </trkpt>
      <trkpt lat="45.18222" lon="5.19662">
        <ele>561.06665</ele>
        <time>2019-05-28T08:59:49Z</time>
      </trkpt>
      <trkpt lat="45.18267" lon="5.1964">
        <ele>561.547363</ele>
        <time>2019-05-28T09:00:00Z</time>
      </trkpt>
      <trkpt lat="45.18307" lon="5.19624">
        <ele>560.585938</ele>
        <time>2019-05-28T09:00:08Z</time>
      </trkpt>
      <trkpt lat="45.1832" lon="5.19615">
        <ele>561.06665</ele>
        <time>2019-05-28T09:00:11Z</time>
      </trkpt>
      <trkpt lat="45.18349" lon="5.19613">
        <ele>560.585938</ele>
        <time>2019-05-28T09:00:17Z</time>
      </trkpt>
      <trkpt lat="45.18358" lon="5.19613">
        <ele>560.585938</ele>
        <time>2019-05-28T09:00:19Z</time>
      </trkpt>
      <trkpt lat="45.18392" lon="5.19608">
        <ele>557.221436</ele>
        <time>2019-05-28T09:00:27Z</time>
      </trkpt>
      <trkpt lat="45.184" lon="5.19606">
        <ele>556.26001</ele>
        <time>2019-05-28T09:00:29Z</time>
      </trkpt>
      <trkpt lat="45.1842" lon="5.196">
        <ele>553.375977</ele>
        <time>2019-05-28T09:00:34Z</time>
      </trkpt>
      <trkpt lat="45.18439" lon="5.19593">
        <ele>550.011475</ele>
        <time>2019-05-28T09:00:39Z</time>
      </trkpt>
      <trkpt lat="45.18456" lon="5.19587">
        <ele>546.646851</ele>
        <time>2019-05-28T09:00:44Z</time>
      </trkpt>
      <trkpt lat="45.18475" lon="5.19586">
        <ele>544.724243</ele>
        <time>2019-05-28T09:00:56Z</time>
      </trkpt>
      <trkpt lat="45.1847" lon="5.19587">
        <ele>546.646851</ele>
        <time>2019-05-28T09:12:27Z</time>
      </trkpt>
      <trkpt lat="45.1847" lon="5.19588">
        <ele>546.16626</ele>
        <time>2019-05-28T09:12:39Z</time>
      </trkpt>
      <trkpt lat="45.18489" lon="5.19597">
        <ele>544.243652</ele>
        <time>2019-05-28T09:12:50Z</time>
      </trkpt>
      <trkpt lat="45.18533" lon="5.196">
        <ele>542.320923</ele>
        <time>2019-05-28T09:13:02Z</time>
      </trkpt>
      <trkpt lat="45.18583" lon="5.19598">
        <ele>542.320923</ele>
        <time>2019-05-28T09:13:17Z</time>
      </trkpt>
      <trkpt lat="45.18645" lon="5.19606">
        <ele>541.359497</ele>
        <time>2019-05-28T09:13:34Z</time>
      </trkpt>
      <trkpt lat="45.18663" lon="5.19602">
        <ele>540.398315</ele>
        <time>2019-05-28T09:13:43Z</time>
      </trkpt>
      <trkpt lat="45.18699" lon="5.19605">
        <ele>537.994995</ele>
        <time>2019-05-28T09:13:52Z</time>
      </trkpt>
      <trkpt lat="45.18716" lon="5.1961">
        <ele>536.553101</ele>
        <time>2019-05-28T09:13:55Z</time>
      </trkpt>
      <trkpt lat="45.18733" lon="5.19616">
        <ele>535.591553</ele>
        <time>2019-05-28T09:13:59Z</time>
      </trkpt>
      <trkpt lat="45.18803" lon="5.19609">
        <ele>532.227051</ele>
        <time>2019-05-28T09:14:10Z</time>
      </trkpt>
      <trkpt lat="45.18843" lon="5.19596">
        <ele>531.746338</ele>
        <time>2019-05-28T09:14:18Z</time>
      </trkpt>
      <trkpt lat="45.18864" lon="5.19584">
        <ele>531.746338</ele>
        <time>2019-05-28T09:14:23Z</time>
      </trkpt>
      <trkpt lat="45.18931" lon="5.19611">
        <ele>530.785156</ele>
        <time>2019-05-28T09:14:38Z</time>
      </trkpt>
      <trkpt lat="45.19017" lon="5.19641">
        <ele>531.265747</ele>
        <time>2019-05-28T09:14:59Z</time>
      </trkpt>
      <trkpt lat="45.19048" lon="5.19653">
        <ele>530.785156</ele>
        <time>2019-05-28T09:15:07Z</time>
      </trkpt>
      <trkpt lat="45.19064" lon="5.1966">
        <ele>530.304443</ele>
        <time>2019-05-28T09:15:11Z</time>
      </trkpt>
      <trkpt lat="45.1908" lon="5.19673">
        <ele>528.381836</ele>
        <time>2019-05-28T09:15:15Z</time>
      </trkpt>
      <trkpt lat="45.19099" lon="5.19701">
        <ele>526.459106</ele>
        <time>2019-05-28T09:15:20Z</time>
      </trkpt>
      <trkpt lat="45.19115" lon="5.19724">
        <ele>524.055786</ele>
        <time>2019-05-28T09:15:23Z</time>
      </trkpt>
      <trkpt lat="45.19145" lon="5.19744">
        <ele>519.729858</ele>
        <time>2019-05-28T09:15:27Z</time>
      </trkpt>
      <trkpt lat="45.19178" lon="5.19755">
        <ele>515.884644</ele>
        <time>2019-05-28T09:15:31Z</time>
      </trkpt>
      <trkpt lat="45.19186" lon="5.19757">
        <ele>514.92334</ele>
        <time>2019-05-28T09:15:32Z</time>
      </trkpt>
      <trkpt lat="45.1924" lon="5.19781">
        <ele>511.558716</ele>
        <time>2019-05-28T09:15:39Z</time>
      </trkpt>
      <trkpt lat="45.19286" lon="5.19806">
        <ele>508.674683</ele>
        <time>2019-05-28T09:15:45Z</time>
      </trkpt>
      <trkpt lat="45.19306" lon="5.19818">
        <ele>506.752075</ele>
        <time>2019-05-28T09:15:48Z</time>
      </trkpt>
      <trkpt lat="45.19331" lon="5.19829">
        <ele>503.868164</ele>
        <time>2019-05-28T09:15:53Z</time>
      </trkpt>
      <trkpt lat="45.19387" lon="5.19858">
        <ele>500.50354</ele>
        <time>2019-05-28T09:16:02Z</time>
      </trkpt>
      <trkpt lat="45.19398" lon="5.19865">
        <ele>500.022949</ele>
        <time>2019-05-28T09:16:04Z</time>
      </trkpt>
      <trkpt lat="45.19432" lon="5.19894">
        <ele>498.100342</ele>
        <time>2019-05-28T09:16:14Z</time>
      </trkpt>
      <trkpt lat="45.19487" lon="5.19919">
        <ele>498.580933</ele>
        <time>2019-05-28T09:16:29Z</time>
      </trkpt>
      <trkpt lat="45.19589" lon="5.1997">
        <ele>499.061523</ele>
        <time>2019-05-28T09:16:53Z</time>
      </trkpt>
      <trkpt lat="45.1961" lon="5.19981">
        <ele>499.061523</ele>
        <time>2019-05-28T09:16:58Z</time>
      </trkpt>
      <trkpt lat="45.19632" lon="5.19991">
        <ele>499.542236</ele>
        <time>2019-05-28T09:17:09Z</time>
      </trkpt>
      <trkpt lat="45.19651" lon="5.20001">
        <ele>500.50354</ele>
        <time>2019-05-28T09:17:28Z</time>
      </trkpt>
      <trkpt lat="45.19685" lon="5.20065">
        <ele>503.387451</ele>
        <time>2019-05-28T09:17:46Z</time>
      </trkpt>
      <trkpt lat="45.19718" lon="5.2013">
        <ele>506.752075</ele>
        <time>2019-05-28T09:18:03Z</time>
      </trkpt>
      <trkpt lat="45.19755" lon="5.20192">
        <ele>509.636108</ele>
        <time>2019-05-28T09:18:21Z</time>
      </trkpt>
      <trkpt lat="45.19779" lon="5.20243">
        <ele>512.52002</ele>
        <time>2019-05-28T09:18:37Z</time>
      </trkpt>
      <trkpt lat="45.19767" lon="5.20286">
        <ele>513.962036</ele>
        <time>2019-05-28T09:18:54Z</time>
      </trkpt>
      <trkpt lat="45.19768" lon="5.20284">
        <ele>514.442627</ele>
        <time>2019-05-28T09:20:18Z</time>
      </trkpt>
      <trkpt lat="45.19767" lon="5.20321">
        <ele>515.404053</ele>
        <time>2019-05-28T09:20:30Z</time>
      </trkpt>
      <trkpt lat="45.1977" lon="5.20355">
        <ele>516.845947</ele>
        <time>2019-05-28T09:20:44Z</time>
      </trkpt>
      <trkpt lat="45.19778" lon="5.20435">
        <ele>520.210571</ele>
        <time>2019-05-28T09:21:00Z</time>
      </trkpt>
      <trkpt lat="45.19806" lon="5.20493">
        <ele>523.094604</ele>
        <time>2019-05-28T09:21:16Z</time>
      </trkpt>
      <trkpt lat="45.19861" lon="5.20517">
        <ele>525.978394</ele>
        <time>2019-05-28T09:21:35Z</time>
      </trkpt>
      <trkpt lat="45.19927" lon="5.20543">
        <ele>528.862549</ele>
        <time>2019-05-28T09:21:59Z</time>
      </trkpt>
      <trkpt lat="45.19979" lon="5.20564">
        <ele>532.227051</ele>
        <time>2019-05-28T09:22:19Z</time>
      </trkpt>
      <trkpt lat="45.20031" lon="5.20594">
        <ele>535.591553</ele>
        <time>2019-05-28T09:22:40Z</time>
      </trkpt>
      <trkpt lat="45.20067" lon="5.20616">
        <ele>538.475708</ele>
        <time>2019-05-28T09:22:55Z</time>
      </trkpt>
      <trkpt lat="45.20112" lon="5.20651">
        <ele>541.84021</ele>
        <time>2019-05-28T09:23:15Z</time>
      </trkpt>
      <trkpt lat="45.20138" lon="5.20686">
        <ele>544.724243</ele>
        <time>2019-05-28T09:23:29Z</time>
      </trkpt>
      <trkpt lat="45.20162" lon="5.20738">
        <ele>548.088867</ele>
        <time>2019-05-28T09:23:47Z</time>
      </trkpt>
      <trkpt lat="45.20192" lon="5.20792">
        <ele>550.011475</ele>
        <time>2019-05-28T09:24:07Z</time>
      </trkpt>
      <trkpt lat="45.20244" lon="5.20814">
        <ele>552.895264</ele>
        <time>2019-05-28T09:24:28Z</time>
      </trkpt>
      <trkpt lat="45.20292" lon="5.20812">
        <ele>556.26001</ele>
        <time>2019-05-28T09:24:49Z</time>
      </trkpt>
      <trkpt lat="45.2033" lon="5.20802">
        <ele>558.182861</ele>
        <time>2019-05-28T09:25:08Z</time>
      </trkpt>
      <trkpt lat="45.20356" lon="5.20793">
        <ele>560.105225</ele>
        <time>2019-05-28T09:25:23Z</time>
      </trkpt>
      <trkpt lat="45.20391" lon="5.20783">
        <ele>562.508545</ele>
        <time>2019-05-28T09:25:44Z</time>
      </trkpt>
      <trkpt lat="45.20435" lon="5.20761">
        <ele>563.950439</ele>
        <time>2019-05-28T09:26:06Z</time>
      </trkpt>
      <trkpt lat="45.20482" lon="5.2076">
        <ele>567.315186</ele>
        <time>2019-05-28T09:26:27Z</time>
      </trkpt>
      <trkpt lat="45.20524" lon="5.20781">
        <ele>570.679688</ele>
        <time>2019-05-28T09:26:47Z</time>
      </trkpt>
      <trkpt lat="45.20557" lon="5.20807">
        <ele>572.602539</ele>
        <time>2019-05-28T09:27:04Z</time>
      </trkpt>
      <trkpt lat="45.20575" lon="5.20853">
        <ele>574.525146</ele>
        <time>2019-05-28T09:27:21Z</time>
      </trkpt>
      <trkpt lat="45.20581" lon="5.20922">
        <ele>577.40918</ele>
        <time>2019-05-28T09:27:41Z</time>
      </trkpt>
      <trkpt lat="45.20606" lon="5.20973">
        <ele>579.812256</ele>
        <time>2019-05-28T09:28:00Z</time>
      </trkpt>
      <trkpt lat="45.20639" lon="5.2101">
        <ele>582.215576</ele>
        <time>2019-05-28T09:28:20Z</time>
      </trkpt>
      <trkpt lat="45.20669" lon="5.21041">
        <ele>584.138184</ele>
        <time>2019-05-28T09:28:38Z</time>
      </trkpt>
      <trkpt lat="45.2069" lon="5.21094">
        <ele>586.541504</ele>
        <time>2019-05-28T09:29:00Z</time>
      </trkpt>
      <trkpt lat="45.20712" lon="5.21143">
        <ele>588.464355</ele>
        <time>2019-05-28T09:29:20Z</time>
      </trkpt>
      <trkpt lat="45.20702" lon="5.21197">
        <ele>590.386963</ele>
        <time>2019-05-28T09:29:39Z</time>
      </trkpt>
      <trkpt lat="45.20701" lon="5.21242">
        <ele>591.828857</ele>
        <time>2019-05-28T09:29:55Z</time>
      </trkpt>
      <trkpt lat="45.20709" lon="5.21246">
        <ele>592.30957</ele>
        <time>2019-05-28T09:30:01Z</time>
      </trkpt>
      <trkpt lat="45.20727" lon="5.2123">
        <ele>595.674072</ele>
        <time>2019-05-28T09:30:15Z</time>
      </trkpt>
      <trkpt lat="45.20738" lon="5.21223">
        <ele>599.038574</ele>
        <time>2019-05-28T09:30:25Z</time>
      </trkpt>
      <trkpt lat="45.20749" lon="5.21215">
        <ele>601.922607</ele>
        <time>2019-05-28T09:30:34Z</time>
      </trkpt>
      <trkpt lat="45.20782" lon="5.21194">
        <ele>603.364502</ele>
        <time>2019-05-28T09:30:55Z</time>
      </trkpt>
      <trkpt lat="45.20795" lon="5.21192">
        <ele>601.922607</ele>
        <time>2019-05-28T09:31:05Z</time>
      </trkpt>
      <trkpt lat="45.20812" lon="5.21192">
        <ele>600.480713</ele>
        <time>2019-05-28T09:31:23Z</time>
      </trkpt>
      <trkpt lat="45.20815" lon="5.2119">
        <ele>599.519287</ele>
        <time>2019-05-28T09:31:41Z</time>
      </trkpt>
      <trkpt lat="45.20809" lon="5.2119">
        <ele>600.480713</ele>
        <time>2019-05-28T09:32:18Z</time>
      </trkpt>
      <trkpt lat="45.20806" lon="5.21191">
        <ele>600.961182</ele>
        <time>2019-05-28T09:32:22Z</time>
      </trkpt>
      <trkpt lat="45.20806" lon="5.21194">
        <ele>600.480713</ele>
        <time>2019-05-28T09:32:32Z</time>
      </trkpt>
      <trkpt lat="45.20823" lon="5.21187">
        <ele>599.038574</ele>
        <time>2019-05-28T09:32:39Z</time>
      </trkpt>
      <trkpt lat="45.20842" lon="5.2118">
        <ele>596.154785</ele>
        <time>2019-05-28T09:32:44Z</time>
      </trkpt>
      <trkpt lat="45.20863" lon="5.21171">
        <ele>593.270752</ele>
        <time>2019-05-28T09:32:49Z</time>
      </trkpt>
      <trkpt lat="45.20887" lon="5.21161">
        <ele>589.90625</ele>
        <time>2019-05-28T09:32:55Z</time>
      </trkpt>
      <trkpt lat="45.20907" lon="5.21152">
        <ele>586.060791</ele>
        <time>2019-05-28T09:33:00Z</time>
      </trkpt>
      <trkpt lat="45.2092" lon="5.21144">
        <ele>583.657471</ele>
        <time>2019-05-28T09:33:04Z</time>
      </trkpt>
      <trkpt lat="45.20927" lon="5.21142">
        <ele>582.215576</ele>
        <time>2019-05-28T09:33:07Z</time>
      </trkpt>
      <trkpt lat="45.20935" lon="5.21139">
        <ele>580.292969</ele>
        <time>2019-05-28T09:33:10Z</time>
      </trkpt>
      <trkpt lat="45.20947" lon="5.21132">
        <ele>577.40918</ele>
        <time>2019-05-28T09:33:15Z</time>
      </trkpt>
      <trkpt lat="45.20958" lon="5.21125">
        <ele>575.005859</ele>
        <time>2019-05-28T09:33:20Z</time>
      </trkpt>
      <trkpt lat="45.20968" lon="5.21118">
        <ele>572.121826</ele>
        <time>2019-05-28T09:33:25Z</time>
      </trkpt>
      <trkpt lat="45.20978" lon="5.21114">
        <ele>570.198975</ele>
        <time>2019-05-28T09:33:29Z</time>
      </trkpt>
      <trkpt lat="45.20988" lon="5.21108">
        <ele>568.75708</ele>
        <time>2019-05-28T09:33:35Z</time>
      </trkpt>
      <trkpt lat="45.20995" lon="5.21105">
        <ele>567.315186</ele>
        <time>2019-05-28T09:33:38Z</time>
      </trkpt>
      <trkpt lat="45.21007" lon="5.21098">
        <ele>564.431152</ele>
        <time>2019-05-28T09:33:44Z</time>
      </trkpt>
      <trkpt lat="45.21039" lon="5.21079">
        <ele>562.028076</ele>
        <time>2019-05-28T09:33:54Z</time>
      </trkpt>
      <trkpt lat="45.21064" lon="5.21067">
        <ele>562.028076</ele>
        <time>2019-05-28T09:34:06Z</time>
      </trkpt>
      <trkpt lat="45.21085" lon="5.21043">
        <ele>562.508545</ele>
        <time>2019-05-28T09:34:20Z</time>
      </trkpt>
      <trkpt lat="45.211" lon="5.21026">
        <ele>563.469971</ele>
        <time>2019-05-28T09:34:35Z</time>
      </trkpt>
      <trkpt lat="45.21128" lon="5.21011">
        <ele>565.392578</ele>
        <time>2019-05-28T09:34:52Z</time>
      </trkpt>
      <trkpt lat="45.21148" lon="5.20996">
        <ele>568.75708</ele>
        <time>2019-05-28T09:35:10Z</time>
      </trkpt>
      <trkpt lat="45.21172" lon="5.20992">
        <ele>572.121826</ele>
        <time>2019-05-28T09:35:27Z</time>
      </trkpt>
      <trkpt lat="45.21181" lon="5.2099">
        <ele>572.121826</ele>
        <time>2019-05-28T09:35:42Z</time>
      </trkpt>
      <trkpt lat="45.21196" lon="5.2098">
        <ele>575.005859</ele>
        <time>2019-05-28T09:35:53Z</time>
      </trkpt>
      <trkpt lat="45.21204" lon="5.20979">
        <ele>573.563965</ele>
        <time>2019-05-28T09:35:59Z</time>
      </trkpt>
      <trkpt lat="45.2122" lon="5.20972">
        <ele>570.679688</ele>
        <time>2019-05-28T09:36:13Z</time>
      </trkpt>
      <trkpt lat="45.21221" lon="5.20972">
        <ele>570.679688</ele>
        <time>2019-05-28T09:36:56Z</time>
      </trkpt>
      <trkpt lat="45.2124" lon="5.20959">
        <ele>567.795654</ele>
        <time>2019-05-28T09:37:04Z</time>
      </trkpt>
      <trkpt lat="45.21269" lon="5.20938">
        <ele>564.431152</ele>
        <time>2019-05-28T09:37:12Z</time>
      </trkpt>
      <trkpt lat="45.21283" lon="5.20927">
        <ele>562.989258</ele>
        <time>2019-05-28T09:37:15Z</time>
      </trkpt>
      <trkpt lat="45.21302" lon="5.20909">
        <ele>560.585938</ele>
        <time>2019-05-28T09:37:19Z</time>
      </trkpt>
      <trkpt lat="45.21321" lon="5.20901">
        <ele>559.144043</ele>
        <time>2019-05-28T09:37:22Z</time>
      </trkpt>
      <trkpt lat="45.21332" lon="5.20907">
        <ele>559.624756</ele>
        <time>2019-05-28T09:37:24Z</time>
      </trkpt>
      <trkpt lat="45.21347" lon="5.20917">
        <ele>558.182861</ele>
        <time>2019-05-28T09:37:27Z</time>
      </trkpt>
      <trkpt lat="45.21375" lon="5.20924">
        <ele>558.66333</ele>
        <time>2019-05-28T09:37:38Z</time>
      </trkpt>
      <trkpt lat="45.21399" lon="5.20928">
        <ele>562.028076</ele>
        <time>2019-05-28T09:37:54Z</time>
      </trkpt>
      <trkpt lat="45.21418" lon="5.20929">
        <ele>565.392578</ele>
        <time>2019-05-28T09:38:09Z</time>
      </trkpt>
      <trkpt lat="45.21431" lon="5.20928">
        <ele>568.276367</ele>
        <time>2019-05-28T09:38:21Z</time>
      </trkpt>
      <trkpt lat="45.21446" lon="5.20927">
        <ele>571.640869</ele>
        <time>2019-05-28T09:38:34Z</time>
      </trkpt>
      <trkpt lat="45.21453" lon="5.20926">
        <ele>572.602539</ele>
        <time>2019-05-28T09:38:40Z</time>
      </trkpt>
      <trkpt lat="45.21464" lon="5.20918">
        <ele>575.486328</ele>
        <time>2019-05-28T09:39:01Z</time>
      </trkpt>
      <trkpt lat="45.21464" lon="5.2092">
        <ele>575.005859</ele>
        <time>2019-05-28T09:39:23Z</time>
      </trkpt>
      <trkpt lat="45.21466" lon="5.20916">
        <ele>575.967041</ele>
        <time>2019-05-28T09:40:35Z</time>
      </trkpt>
      <trkpt lat="45.21475" lon="5.20897">
        <ele>578.851074</ele>
        <time>2019-05-28T09:40:50Z</time>
      </trkpt>
      <trkpt lat="45.21487" lon="5.20887">
        <ele>582.215576</ele>
        <time>2019-05-28T09:41:04Z</time>
      </trkpt>
      <trkpt lat="45.21491" lon="5.20888">
        <ele>583.176758</ele>
        <time>2019-05-28T09:41:07Z</time>
      </trkpt>
      <trkpt lat="45.215" lon="5.20889">
        <ele>585.099609</ele>
        <time>2019-05-28T09:41:14Z</time>
      </trkpt>
      <trkpt lat="45.21524" lon="5.20895">
        <ele>588.464355</ele>
        <time>2019-05-28T09:41:32Z</time>
      </trkpt>
      <trkpt lat="45.21532" lon="5.20901">
        <ele>588.945068</ele>
        <time>2019-05-28T09:41:39Z</time>
      </trkpt>
      <trkpt lat="45.21545" lon="5.20905">
        <ele>590.867432</ele>
        <time>2019-05-28T09:41:54Z</time>
      </trkpt>
      <trkpt lat="45.21555" lon="5.20906">
        <ele>592.30957</ele>
        <time>2019-05-28T09:42:08Z</time>
      </trkpt>
      <trkpt lat="45.21563" lon="5.20905">
        <ele>592.790283</ele>
        <time>2019-05-28T09:42:17Z</time>
      </trkpt>
      <trkpt lat="45.21585" lon="5.20897">
        <ele>596.154785</ele>
        <time>2019-05-28T09:42:37Z</time>
      </trkpt>
      <trkpt lat="45.21603" lon="5.20897">
        <ele>598.557861</ele>
        <time>2019-05-28T09:42:50Z</time>
      </trkpt>
      <trkpt lat="45.21612" lon="5.20899">
        <ele>599.519287</ele>
        <time>2019-05-28T09:42:56Z</time>
      </trkpt>
      <trkpt lat="45.21643" lon="5.20906">
        <ele>601.441895</ele>
        <time>2019-05-28T09:43:15Z</time>
      </trkpt>
      <trkpt lat="45.21652" lon="5.20907">
        <ele>600.480713</ele>
        <time>2019-05-28T09:43:21Z</time>
      </trkpt>
      <trkpt lat="45.21654" lon="5.20902">
        <ele>600.480713</ele>
        <time>2019-05-28T09:43:40Z</time>
      </trkpt>
      <trkpt lat="45.21653" lon="5.20901">
        <ele>600.480713</ele>
        <time>2019-05-28T09:43:41Z</time>
      </trkpt>
      <trkpt lat="45.21648" lon="5.20905">
        <ele>600.480713</ele>
        <time>2019-05-28T09:43:45Z</time>
      </trkpt>
      <trkpt lat="45.21647" lon="5.20908">
        <ele>600.480713</ele>
        <time>2019-05-28T09:43:48Z</time>
      </trkpt>
      <trkpt lat="45.21654" lon="5.20907">
        <ele>600.961182</ele>
        <time>2019-05-28T09:43:56Z</time>
      </trkpt>
      <trkpt lat="45.21659" lon="5.2089">
        <ele>600.961182</ele>
        <time>2019-05-28T09:44:04Z</time>
      </trkpt>
      <trkpt lat="45.21669" lon="5.20832">
        <ele>599.038574</ele>
        <time>2019-05-28T09:44:17Z</time>
      </trkpt>
      <trkpt lat="45.21678" lon="5.20791">
        <ele>597.59668</ele>
        <time>2019-05-28T09:44:23Z</time>
      </trkpt>
      <trkpt lat="45.21683" lon="5.2072">
        <ele>595.674072</ele>
        <time>2019-05-28T09:44:32Z</time>
      </trkpt>
      <trkpt lat="45.21687" lon="5.2063">
        <ele>593.270752</ele>
        <time>2019-05-28T09:44:43Z</time>
      </trkpt>
      <trkpt lat="45.21691" lon="5.20576">
        <ele>591.348145</ele>
        <time>2019-05-28T09:44:49Z</time>
      </trkpt>
      <trkpt lat="45.21694" lon="5.20524">
        <ele>590.867432</ele>
        <time>2019-05-28T09:44:55Z</time>
      </trkpt>
      <trkpt lat="45.21701" lon="5.20492">
        <ele>590.386963</ele>
        <time>2019-05-28T09:44:59Z</time>
      </trkpt>
      <trkpt lat="45.21706" lon="5.20477">
        <ele>590.386963</ele>
        <time>2019-05-28T09:45:01Z</time>
      </trkpt>
      <trkpt lat="45.21714" lon="5.20457">
        <ele>588.945068</ele>
        <time>2019-05-28T09:45:04Z</time>
      </trkpt>
      <trkpt lat="45.21703" lon="5.20429">
        <ele>586.541504</ele>
        <time>2019-05-28T09:45:09Z</time>
      </trkpt>
      <trkpt lat="45.21671" lon="5.20419">
        <ele>585.580078</ele>
        <time>2019-05-28T09:45:16Z</time>
      </trkpt>
      <trkpt lat="45.21619" lon="5.20406">
        <ele>584.138184</ele>
        <time>2019-05-28T09:45:26Z</time>
      </trkpt>
      <trkpt lat="45.21601" lon="5.20373">
        <ele>585.580078</ele>
        <time>2019-05-28T09:45:32Z</time>
      </trkpt>
      <trkpt lat="45.21605" lon="5.20291">
        <ele>582.215576</ele>
        <time>2019-05-28T09:45:42Z</time>
      </trkpt>
      <trkpt lat="45.21607" lon="5.20266">
        <ele>581.254395</ele>
        <time>2019-05-28T09:45:45Z</time>
      </trkpt>
      <trkpt lat="45.21589" lon="5.20238">
        <ele>578.370361</ele>
        <time>2019-05-28T09:45:51Z</time>
      </trkpt>
      <trkpt lat="45.21578" lon="5.20238">
        <ele>577.889648</ele>
        <time>2019-05-28T09:45:53Z</time>
      </trkpt>
      <trkpt lat="45.21561" lon="5.20238">
        <ele>576.447754</ele>
        <time>2019-05-28T09:45:56Z</time>
      </trkpt>
      <trkpt lat="45.21535" lon="5.20238">
        <ele>573.083252</ele>
        <time>2019-05-28T09:46:01Z</time>
      </trkpt>
      <trkpt lat="45.21519" lon="5.20233">
        <ele>570.198975</ele>
        <time>2019-05-28T09:46:04Z</time>
      </trkpt>
      <trkpt lat="45.21509" lon="5.20206">
        <ele>566.35376</ele>
        <time>2019-05-28T09:46:09Z</time>
      </trkpt>
      <trkpt lat="45.2151" lon="5.20188">
        <ele>565.392578</ele>
        <time>2019-05-28T09:46:11Z</time>
      </trkpt>
      <trkpt lat="45.21509" lon="5.20164">
        <ele>564.431152</ele>
        <time>2019-05-28T09:46:14Z</time>
      </trkpt>
      <trkpt lat="45.21521" lon="5.20114">
        <ele>561.06665</ele>
        <time>2019-05-28T09:46:21Z</time>
      </trkpt>
      <trkpt lat="45.21526" lon="5.20098">
        <ele>560.105225</ele>
        <time>2019-05-28T09:46:23Z</time>
      </trkpt>
      <trkpt lat="45.21532" lon="5.20057">
        <ele>556.26001</ele>
        <time>2019-05-28T09:46:27Z</time>
      </trkpt>
      <trkpt lat="45.21534" lon="5.20045">
        <ele>555.298584</ele>
        <time>2019-05-28T09:46:28Z</time>
      </trkpt>
      <trkpt lat="45.21549" lon="5.20003">
        <ele>552.895264</ele>
        <time>2019-05-28T09:46:32Z</time>
      </trkpt>
      <trkpt lat="45.21556" lon="5.19986">
        <ele>553.375977</ele>
        <time>2019-05-28T09:46:34Z</time>
      </trkpt>
      <trkpt lat="45.21574" lon="5.19944">
        <ele>556.26001</ele>
        <time>2019-05-28T09:46:43Z</time>
      </trkpt>
      <trkpt lat="45.21593" lon="5.19893">
        <ele>557.702148</ele>
        <time>2019-05-28T09:46:59Z</time>
      </trkpt>
      <trkpt lat="45.21619" lon="5.19821">
        <ele>559.624756</ele>
        <time>2019-05-28T09:47:20Z</time>
      </trkpt>
      <trkpt lat="45.2164" lon="5.19776">
        <ele>562.508545</ele>
        <time>2019-05-28T09:47:36Z</time>
      </trkpt>
      <trkpt lat="45.21665" lon="5.19731">
        <ele>564.911865</ele>
        <time>2019-05-28T09:47:55Z</time>
      </trkpt>
      <trkpt lat="45.2169" lon="5.19664">
        <ele>564.911865</ele>
        <time>2019-05-28T09:48:14Z</time>
      </trkpt>
      <trkpt lat="45.21703" lon="5.19621">
        <ele>564.911865</ele>
        <time>2019-05-28T09:48:26Z</time>
      </trkpt>
      <trkpt lat="45.21713" lon="5.19599">
        <ele>565.392578</ele>
        <time>2019-05-28T09:48:35Z</time>
      </trkpt>
      <trkpt lat="45.21722" lon="5.19589">
        <ele>565.873291</ele>
        <time>2019-05-28T09:48:42Z</time>
      </trkpt>
      <trkpt lat="45.21731" lon="5.19552">
        <ele>564.911865</ele>
        <time>2019-05-28T09:48:56Z</time>
      </trkpt>
      <trkpt lat="45.21731" lon="5.19534">
        <ele>564.911865</ele>
        <time>2019-05-28T09:49:01Z</time>
      </trkpt>
      <trkpt lat="45.21729" lon="5.19488">
        <ele>562.989258</ele>
        <time>2019-05-28T09:49:12Z</time>
      </trkpt>
      <trkpt lat="45.21731" lon="5.19475">
        <ele>562.508545</ele>
        <time>2019-05-28T09:49:16Z</time>
      </trkpt>
      <trkpt lat="45.21732" lon="5.1947">
        <ele>562.508545</ele>
        <time>2019-05-28T09:49:18Z</time>
      </trkpt>
      <trkpt lat="45.2173" lon="5.19457">
        <ele>562.028076</ele>
        <time>2019-05-28T09:49:21Z</time>
      </trkpt>
      <trkpt lat="45.21738" lon="5.19417">
        <ele>560.585938</ele>
        <time>2019-05-28T09:49:32Z</time>
      </trkpt>
      <trkpt lat="45.2174" lon="5.19408">
        <ele>560.585938</ele>
        <time>2019-05-28T09:49:34Z</time>
      </trkpt>
      <trkpt lat="45.21741" lon="5.19375">
        <ele>559.144043</ele>
        <time>2019-05-28T09:49:43Z</time>
      </trkpt>
      <trkpt lat="45.21741" lon="5.1935">
        <ele>557.221436</ele>
        <time>2019-05-28T09:49:50Z</time>
      </trkpt>
      <trkpt lat="45.21737" lon="5.19309">
        <ele>554.817871</ele>
        <time>2019-05-28T09:50:00Z</time>
      </trkpt>
      <trkpt lat="45.21749" lon="5.19254">
        <ele>553.375977</ele>
        <time>2019-05-28T09:50:10Z</time>
      </trkpt>
      <trkpt lat="45.21756" lon="5.19223">
        <ele>552.895264</ele>
        <time>2019-05-28T09:50:19Z</time>
      </trkpt>
      <trkpt lat="45.21758" lon="5.19206">
        <ele>553.375977</ele>
        <time>2019-05-28T09:50:24Z</time>
      </trkpt>
      <trkpt lat="45.2176" lon="5.1919">
        <ele>553.375977</ele>
        <time>2019-05-28T09:50:30Z</time>
      </trkpt>
      <trkpt lat="45.21761" lon="5.19185">
        <ele>553.856689</ele>
        <time>2019-05-28T09:50:32Z</time>
      </trkpt>
      <trkpt lat="45.21764" lon="5.19178">
        <ele>553.856689</ele>
        <time>2019-05-28T09:50:36Z</time>
      </trkpt>
      <trkpt lat="45.21764" lon="5.19172">
        <ele>553.856689</ele>
        <time>2019-05-28T09:50:38Z</time>
      </trkpt>
      <trkpt lat="45.2177" lon="5.19151">
        <ele>554.337402</ele>
        <time>2019-05-28T09:50:45Z</time>
      </trkpt>
      <trkpt lat="45.21775" lon="5.19121">
        <ele>554.337402</ele>
        <time>2019-05-28T09:50:54Z</time>
      </trkpt>
      <trkpt lat="45.21783" lon="5.19097">
        <ele>554.817871</ele>
        <time>2019-05-28T09:51:01Z</time>
      </trkpt>
      <trkpt lat="45.21787" lon="5.19067">
        <ele>555.298584</ele>
        <time>2019-05-28T09:51:12Z</time>
      </trkpt>
      <trkpt lat="45.21787" lon="5.19063">
        <ele>555.298584</ele>
        <time>2019-05-28T09:51:13Z</time>
      </trkpt>
      <trkpt lat="45.2179" lon="5.19031">
        <ele>555.779297</ele>
        <time>2019-05-28T09:51:24Z</time>
      </trkpt>
      <trkpt lat="45.21793" lon="5.18998">
        <ele>556.26001</ele>
        <time>2019-05-28T09:51:33Z</time>
      </trkpt>
      <trkpt lat="45.21794" lon="5.18992">
        <ele>556.26001</ele>
        <time>2019-05-28T09:51:35Z</time>
      </trkpt>
      <trkpt lat="45.21789" lon="5.18968">
        <ele>556.26001</ele>
        <time>2019-05-28T09:51:42Z</time>
      </trkpt>
      <trkpt lat="45.21785" lon="5.18931">
        <ele>556.26001</ele>
        <time>2019-05-28T09:51:52Z</time>
      </trkpt>
      <trkpt lat="45.21779" lon="5.18906">
        <ele>556.26001</ele>
        <time>2019-05-28T09:52:00Z</time>
      </trkpt>
      <trkpt lat="45.21777" lon="5.18874">
        <ele>555.779297</ele>
        <time>2019-05-28T09:52:12Z</time>
      </trkpt>
      <trkpt lat="45.21767" lon="5.18831">
        <ele>554.817871</ele>
        <time>2019-05-28T09:52:24Z</time>
      </trkpt>
      <trkpt lat="45.21768" lon="5.18785">
        <ele>553.856689</ele>
        <time>2019-05-28T09:52:34Z</time>
      </trkpt>
      <trkpt lat="45.2177" lon="5.18739">
        <ele>552.895264</ele>
        <time>2019-05-28T09:52:44Z</time>
      </trkpt>
      <trkpt lat="45.21771" lon="5.18677">
        <ele>552.414551</ele>
        <time>2019-05-28T09:52:54Z</time>
      </trkpt>
      <trkpt lat="45.21776" lon="5.1863">
        <ele>551.934082</ele>
        <time>2019-05-28T09:53:04Z</time>
      </trkpt>
      <trkpt lat="45.21785" lon="5.1857">
        <ele>550.972656</ele>
        <time>2019-05-28T09:53:17Z</time>
      </trkpt>
      <trkpt lat="45.21786" lon="5.18566">
        <ele>550.972656</ele>
        <time>2019-05-28T09:53:18Z</time>
      </trkpt>
      <trkpt lat="45.21785" lon="5.18553">
        <ele>550.972656</ele>
        <time>2019-05-28T09:53:22Z</time>
      </trkpt>
      <trkpt lat="45.21785" lon="5.18542">
        <ele>550.972656</ele>
        <time>2019-05-28T09:53:25Z</time>
      </trkpt>
      <trkpt lat="45.2179" lon="5.18517">
        <ele>550.972656</ele>
        <time>2019-05-28T09:53:34Z</time>
      </trkpt>
      <trkpt lat="45.21794" lon="5.18488">
        <ele>550.492188</ele>
        <time>2019-05-28T09:53:44Z</time>
      </trkpt>
      <trkpt lat="45.21794" lon="5.18455">
        <ele>549.530762</ele>
        <time>2019-05-28T09:53:52Z</time>
      </trkpt>
      <trkpt lat="45.21795" lon="5.18407">
        <ele>548.569336</ele>
        <time>2019-05-28T09:54:03Z</time>
      </trkpt>
      <trkpt lat="45.21797" lon="5.1837">
        <ele>547.127441</ele>
        <time>2019-05-28T09:54:11Z</time>
      </trkpt>
      <trkpt lat="45.21793" lon="5.1834">
        <ele>545.685547</ele>
        <time>2019-05-28T09:54:18Z</time>
      </trkpt>
      <trkpt lat="45.21785" lon="5.1828">
        <ele>543.282104</ele>
        <time>2019-05-28T09:54:31Z</time>
      </trkpt>
      <trkpt lat="45.2178" lon="5.18234">
        <ele>542.801514</ele>
        <time>2019-05-28T09:54:40Z</time>
      </trkpt>
      <trkpt lat="45.2177" lon="5.18208">
        <ele>542.320923</ele>
        <time>2019-05-28T09:54:48Z</time>
      </trkpt>
      <trkpt lat="45.21761" lon="5.18167">
        <ele>542.320923</ele>
        <time>2019-05-28T09:54:58Z</time>
      </trkpt>
      <trkpt lat="45.21757" lon="5.1815">
        <ele>541.84021</ele>
        <time>2019-05-28T09:55:03Z</time>
      </trkpt>
      <trkpt lat="45.21756" lon="5.18137">
        <ele>541.359497</ele>
        <time>2019-05-28T09:55:07Z</time>
      </trkpt>
      <trkpt lat="45.21752" lon="5.18081">
        <ele>539.917603</ele>
        <time>2019-05-28T09:55:21Z</time>
      </trkpt>
      <trkpt lat="45.21746" lon="5.18046">
        <ele>539.43689</ele>
        <time>2019-05-28T09:55:30Z</time>
      </trkpt>
      <trkpt lat="45.21737" lon="5.18">
        <ele>538.475708</ele>
        <time>2019-05-28T09:55:40Z</time>
      </trkpt>
      <trkpt lat="45.21733" lon="5.17973">
        <ele>537.994995</ele>
        <time>2019-05-28T09:55:46Z</time>
      </trkpt>
      <trkpt lat="45.21739" lon="5.17933">
        <ele>537.033691</ele>
        <time>2019-05-28T09:55:53Z</time>
      </trkpt>
      <trkpt lat="45.21728" lon="5.17901">
        <ele>536.072388</ele>
        <time>2019-05-28T09:56:01Z</time>
      </trkpt>
      <trkpt lat="45.2171" lon="5.17856">
        <ele>535.591553</ele>
        <time>2019-05-28T09:56:10Z</time>
      </trkpt>
      <trkpt lat="45.2168" lon="5.1781">
        <ele>535.591553</ele>
        <time>2019-05-28T09:56:20Z</time>
      </trkpt>
      <trkpt lat="45.21645" lon="5.17771">
        <ele>535.110962</ele>
        <time>2019-05-28T09:56:30Z</time>
      </trkpt>
      <trkpt lat="45.21595" lon="5.17716">
        <ele>534.630371</ele>
        <time>2019-05-28T09:56:46Z</time>
      </trkpt>
      <trkpt lat="45.21557" lon="5.17674">
        <ele>534.630371</ele>
        <time>2019-05-28T09:56:59Z</time>
      </trkpt>
      <trkpt lat="45.21523" lon="5.17633">
        <ele>534.149658</ele>
        <time>2019-05-28T09:57:11Z</time>
      </trkpt>
      <trkpt lat="45.21485" lon="5.17594">
        <ele>533.188354</ele>
        <time>2019-05-28T09:57:21Z</time>
      </trkpt>
      <trkpt lat="45.21466" lon="5.17576">
        <ele>532.707764</ele>
        <time>2019-05-28T09:57:26Z</time>
      </trkpt>
      <trkpt lat="45.21444" lon="5.17557">
        <ele>532.227051</ele>
        <time>2019-05-28T09:57:31Z</time>
      </trkpt>
      <trkpt lat="45.21432" lon="5.17548">
        <ele>532.707764</ele>
        <time>2019-05-28T09:57:34Z</time>
      </trkpt>
      <trkpt lat="45.21414" lon="5.17526">
        <ele>532.227051</ele>
        <time>2019-05-28T09:57:39Z</time>
      </trkpt>
      <trkpt lat="45.21376" lon="5.1748">
        <ele>533.668945</ele>
        <time>2019-05-28T09:57:52Z</time>
      </trkpt>
      <trkpt lat="45.21354" lon="5.17448">
        <ele>534.149658</ele>
        <time>2019-05-28T09:58:01Z</time>
      </trkpt>
      <trkpt lat="45.21333" lon="5.17415">
        <ele>534.630371</ele>
        <time>2019-05-28T09:58:10Z</time>
      </trkpt>
      <trkpt lat="45.21319" lon="5.1739">
        <ele>534.630371</ele>
        <time>2019-05-28T09:58:18Z</time>
      </trkpt>
      <trkpt lat="45.2131" lon="5.17342">
        <ele>534.149658</ele>
        <time>2019-05-28T09:58:30Z</time>
      </trkpt>
      <trkpt lat="45.21312" lon="5.1729">
        <ele>531.746338</ele>
        <time>2019-05-28T09:58:41Z</time>
      </trkpt>
      <trkpt lat="45.21313" lon="5.17285">
        <ele>532.227051</ele>
        <time>2019-05-28T09:58:43Z</time>
      </trkpt>
      <trkpt lat="45.21318" lon="5.17271">
        <ele>532.227051</ele>
        <time>2019-05-28T09:58:48Z</time>
      </trkpt>
      <trkpt lat="45.21318" lon="5.17263">
        <ele>532.227051</ele>
        <time>2019-05-28T09:58:50Z</time>
      </trkpt>
      <trkpt lat="45.2132" lon="5.17256">
        <ele>532.227051</ele>
        <time>2019-05-28T09:58:52Z</time>
      </trkpt>
      <trkpt lat="45.21317" lon="5.17243">
        <ele>531.746338</ele>
        <time>2019-05-28T09:58:56Z</time>
      </trkpt>
      <trkpt lat="45.21317" lon="5.17236">
        <ele>531.746338</ele>
        <time>2019-05-28T09:58:59Z</time>
      </trkpt>
      <trkpt lat="45.21307" lon="5.17211">
        <ele>531.746338</ele>
        <time>2019-05-28T09:59:08Z</time>
      </trkpt>
      <trkpt lat="45.21304" lon="5.17203">
        <ele>532.227051</ele>
        <time>2019-05-28T09:59:10Z</time>
      </trkpt>
      <trkpt lat="45.21297" lon="5.17154">
        <ele>532.227051</ele>
        <time>2019-05-28T09:59:20Z</time>
      </trkpt>
      <trkpt lat="45.21298" lon="5.17149">
        <ele>532.707764</ele>
        <time>2019-05-28T09:59:46Z</time>
      </trkpt>
      <trkpt lat="45.21301" lon="5.17154">
        <ele>532.227051</ele>
        <time>2019-05-28T10:00:00Z</time>
      </trkpt>
      <trkpt lat="45.21301" lon="5.17153">
        <ele>532.707764</ele>
        <time>2019-05-28T10:00:08Z</time>
      </trkpt>
      <trkpt lat="45.21296" lon="5.17149">
        <ele>532.707764</ele>
        <time>2019-05-28T10:00:12Z</time>
      </trkpt>
      <trkpt lat="45.21271" lon="5.17109">
        <ele>531.265747</ele>
        <time>2019-05-28T10:00:23Z</time>
      </trkpt>
      <trkpt lat="45.21256" lon="5.17096">
        <ele>530.304443</ele>
        <time>2019-05-28T10:00:30Z</time>
      </trkpt>
      <trkpt lat="45.21222" lon="5.17057">
        <ele>530.785156</ele>
        <time>2019-05-28T10:00:42Z</time>
      </trkpt>
      <trkpt lat="45.21182" lon="5.1702">
        <ele>529.82373</ele>
        <time>2019-05-28T10:00:54Z</time>
      </trkpt>
      <trkpt lat="45.21178" lon="5.17018">
        <ele>529.82373</ele>
        <time>2019-05-28T10:00:55Z</time>
      </trkpt>
      <trkpt lat="45.21157" lon="5.16997">
        <ele>528.862549</ele>
        <time>2019-05-28T10:01:01Z</time>
      </trkpt>
      <trkpt lat="45.21088" lon="5.16958">
        <ele>525.978394</ele>
        <time>2019-05-28T10:01:18Z</time>
      </trkpt>
      <trkpt lat="45.21079" lon="5.16953">
        <ele>525.497803</ele>
        <time>2019-05-28T10:01:20Z</time>
      </trkpt>
      <trkpt lat="45.21057" lon="5.16943">
        <ele>524.536499</ele>
        <time>2019-05-28T10:01:25Z</time>
      </trkpt>
      <trkpt lat="45.21035" lon="5.1693">
        <ele>523.094604</ele>
        <time>2019-05-28T10:01:30Z</time>
      </trkpt>
      <trkpt lat="45.21022" lon="5.16928">
        <ele>522.133179</ele>
        <time>2019-05-28T10:01:33Z</time>
      </trkpt>
      <trkpt lat="45.21009" lon="5.16929">
        <ele>520.691284</ele>
        <time>2019-05-28T10:01:36Z</time>
      </trkpt>
      <trkpt lat="45.20992" lon="5.16924">
        <ele>519.729858</ele>
        <time>2019-05-28T10:01:40Z</time>
      </trkpt>
      <trkpt lat="45.20958" lon="5.16911">
        <ele>516.365234</ele>
        <time>2019-05-28T10:01:48Z</time>
      </trkpt>
      <trkpt lat="45.20948" lon="5.16905">
        <ele>515.404053</ele>
        <time>2019-05-28T10:01:50Z</time>
      </trkpt>
      <trkpt lat="45.20913" lon="5.16882">
        <ele>513.000732</ele>
        <time>2019-05-28T10:02:01Z</time>
      </trkpt>
      <trkpt lat="45.20874" lon="5.16858">
        <ele>511.078003</ele>
        <time>2019-05-28T10:02:17Z</time>
      </trkpt>
      <trkpt lat="45.20841" lon="5.1683">
        <ele>510.116699</ele>
        <time>2019-05-28T10:02:26Z</time>
      </trkpt>
      <trkpt lat="45.20833" lon="5.16809">
        <ele>509.636108</ele>
        <time>2019-05-28T10:02:30Z</time>
      </trkpt>
      <trkpt lat="45.20836" lon="5.16795">
        <ele>508.674683</ele>
        <time>2019-05-28T10:02:39Z</time>
      </trkpt>
      <trkpt lat="45.20837" lon="5.16795">
        <ele>508.194092</ele>
        <time>2019-05-28T10:02:53Z</time>
      </trkpt>
      <trkpt lat="45.20843" lon="5.16793">
        <ele>508.194092</ele>
        <time>2019-05-28T10:02:56Z</time>
      </trkpt>
      <trkpt lat="45.20875" lon="5.16798">
        <ele>507.713501</ele>
        <time>2019-05-28T10:03:04Z</time>
      </trkpt>
      <trkpt lat="45.20896" lon="5.16778">
        <ele>508.674683</ele>
        <time>2019-05-28T10:03:12Z</time>
      </trkpt>
      <trkpt lat="45.20898" lon="5.16772">
        <ele>509.636108</ele>
        <time>2019-05-28T10:03:14Z</time>
      </trkpt>
      <trkpt lat="45.20901" lon="5.16766">
        <ele>510.116699</ele>
        <time>2019-05-28T10:03:16Z</time>
      </trkpt>
      <trkpt lat="45.20907" lon="5.16743">
        <ele>513.962036</ele>
        <time>2019-05-28T10:03:26Z</time>
      </trkpt>
      <trkpt lat="45.20909" lon="5.16724">
        <ele>515.884644</ele>
        <time>2019-05-28T10:03:40Z</time>
      </trkpt>
      <trkpt lat="45.20915" lon="5.16703">
        <ele>518.287842</ele>
        <time>2019-05-28T10:03:57Z</time>
      </trkpt>
      <trkpt lat="45.2092" lon="5.16685">
        <ele>520.210571</ele>
        <time>2019-05-28T10:04:09Z</time>
      </trkpt>
      <trkpt lat="45.20927" lon="5.16666">
        <ele>522.613892</ele>
        <time>2019-05-28T10:04:24Z</time>
      </trkpt>
      <trkpt lat="45.20933" lon="5.1665">
        <ele>524.536499</ele>
        <time>2019-05-28T10:04:37Z</time>
      </trkpt>
      <trkpt lat="45.20938" lon="5.16631">
        <ele>525.497803</ele>
        <time>2019-05-28T10:04:50Z</time>
      </trkpt>
      <trkpt lat="45.20938" lon="5.16628">
        <ele>525.497803</ele>
        <time>2019-05-28T10:04:52Z</time>
      </trkpt>
      <trkpt lat="45.2094" lon="5.16617">
        <ele>525.497803</ele>
        <time>2019-05-28T10:05:06Z</time>
      </trkpt>
      <trkpt lat="45.20941" lon="5.16613">
        <ele>525.978394</ele>
        <time>2019-05-28T10:05:36Z</time>
      </trkpt>
      <trkpt lat="45.20947" lon="5.16578">
        <ele>527.42041</ele>
        <time>2019-05-28T10:05:49Z</time>
      </trkpt>
      <trkpt lat="45.2095" lon="5.16568">
        <ele>527.42041</ele>
        <time>2019-05-28T10:05:53Z</time>
      </trkpt>
      <trkpt lat="45.20963" lon="5.16528">
        <ele>527.42041</ele>
        <time>2019-05-28T10:06:05Z</time>
      </trkpt>
      <trkpt lat="45.20964" lon="5.16499">
        <ele>526.939819</ele>
        <time>2019-05-28T10:06:13Z</time>
      </trkpt>
      <trkpt lat="45.20974" lon="5.16438">
        <ele>525.978394</ele>
        <time>2019-05-28T10:06:24Z</time>
      </trkpt>
      <trkpt lat="45.20972" lon="5.16384">
        <ele>526.459106</ele>
        <time>2019-05-28T10:06:36Z</time>
      </trkpt>
      <trkpt lat="45.20956" lon="5.16347">
        <ele>526.939819</ele>
        <time>2019-05-28T10:06:46Z</time>
      </trkpt>
      <trkpt lat="45.20955" lon="5.16343">
        <ele>526.459106</ele>
        <time>2019-05-28T10:06:47Z</time>
      </trkpt>
      <trkpt lat="45.20932" lon="5.16315">
        <ele>526.459106</ele>
        <time>2019-05-28T10:06:57Z</time>
      </trkpt>
      <trkpt lat="45.20906" lon="5.16299">
        <ele>525.978394</ele>
        <time>2019-05-28T10:07:05Z</time>
      </trkpt>
      <trkpt lat="45.20863" lon="5.16275">
        <ele>525.978394</ele>
        <time>2019-05-28T10:07:17Z</time>
      </trkpt>
      <trkpt lat="45.20827" lon="5.16248">
        <ele>526.459106</ele>
        <time>2019-05-28T10:07:28Z</time>
      </trkpt>
      <trkpt lat="45.20814" lon="5.16242">
        <ele>525.978394</ele>
        <time>2019-05-28T10:07:31Z</time>
      </trkpt>
      <trkpt lat="45.20779" lon="5.16203">
        <ele>525.978394</ele>
        <time>2019-05-28T10:07:42Z</time>
      </trkpt>
      <trkpt lat="45.20756" lon="5.16171">
        <ele>525.497803</ele>
        <time>2019-05-28T10:07:52Z</time>
      </trkpt>
      <trkpt lat="45.20732" lon="5.16144">
        <ele>525.978394</ele>
        <time>2019-05-28T10:08:02Z</time>
      </trkpt>
      <trkpt lat="45.2071" lon="5.16112">
        <ele>526.459106</ele>
        <time>2019-05-28T10:08:13Z</time>
      </trkpt>
      <trkpt lat="45.20705" lon="5.16104">
        <ele>526.459106</ele>
        <time>2019-05-28T10:08:15Z</time>
      </trkpt>
      <trkpt lat="45.20688" lon="5.16071">
        <ele>525.978394</ele>
        <time>2019-05-28T10:08:29Z</time>
      </trkpt>
      <trkpt lat="45.20681" lon="5.16045">
        <ele>525.497803</ele>
        <time>2019-05-28T10:08:36Z</time>
      </trkpt>
      <trkpt lat="45.20677" lon="5.16039">
        <ele>525.497803</ele>
        <time>2019-05-28T10:08:42Z</time>
      </trkpt>
      <trkpt lat="45.20672" lon="5.1601">
        <ele>524.536499</ele>
        <time>2019-05-28T10:08:52Z</time>
      </trkpt>
      <trkpt lat="45.20667" lon="5.15967">
        <ele>523.094604</ele>
        <time>2019-05-28T10:09:07Z</time>
      </trkpt>
      <trkpt lat="45.20669" lon="5.15957">
        <ele>522.613892</ele>
        <time>2019-05-28T10:09:19Z</time>
      </trkpt>
      <trkpt lat="45.2069" lon="5.15945">
        <ele>523.094604</ele>
        <time>2019-05-28T10:10:43Z</time>
      </trkpt>
      <trkpt lat="45.20719" lon="5.15915">
        <ele>525.017212</ele>
        <time>2019-05-28T10:10:58Z</time>
      </trkpt>
      <trkpt lat="45.2075" lon="5.15875">
        <ele>527.42041</ele>
        <time>2019-05-28T10:11:20Z</time>
      </trkpt>
      <trkpt lat="45.20775" lon="5.15863">
        <ele>528.381836</ele>
        <time>2019-05-28T10:11:32Z</time>
      </trkpt>
      <trkpt lat="45.20789" lon="5.15836">
        <ele>528.862549</ele>
        <time>2019-05-28T10:11:42Z</time>
      </trkpt>
      <trkpt lat="45.20812" lon="5.158">
        <ele>528.381836</ele>
        <time>2019-05-28T10:11:51Z</time>
      </trkpt>
      <trkpt lat="45.20831" lon="5.15763">
        <ele>528.381836</ele>
        <time>2019-05-28T10:11:58Z</time>
      </trkpt>
      <trkpt lat="45.20842" lon="5.15749">
        <ele>527.42041</ele>
        <time>2019-05-28T10:12:01Z</time>
      </trkpt>
      <trkpt lat="45.2088" lon="5.15708">
        <ele>525.978394</ele>
        <time>2019-05-28T10:12:12Z</time>
      </trkpt>
      <trkpt lat="45.20906" lon="5.15692">
        <ele>524.055786</ele>
        <time>2019-05-28T10:12:19Z</time>
      </trkpt>
      <trkpt lat="45.20956" lon="5.157">
        <ele>521.652588</ele>
        <time>2019-05-28T10:12:30Z</time>
      </trkpt>
      <trkpt lat="45.20961" lon="5.15703">
        <ele>521.652588</ele>
        <time>2019-05-28T10:12:31Z</time>
      </trkpt>
      <trkpt lat="45.2098" lon="5.15703">
        <ele>520.691284</ele>
        <time>2019-05-28T10:12:35Z</time>
      </trkpt>
      <trkpt lat="45.2103" lon="5.15673">
        <ele>519.249268</ele>
        <time>2019-05-28T10:12:46Z</time>
      </trkpt>
      <trkpt lat="45.21041" lon="5.15646">
        <ele>519.249268</ele>
        <time>2019-05-28T10:12:56Z</time>
      </trkpt>
      <trkpt lat="45.21042" lon="5.15644">
        <ele>519.249268</ele>
        <time>2019-05-28T10:13:13Z</time>
      </trkpt>
      <trkpt lat="45.21042" lon="5.15644">
        <ele>519.249268</ele>
        <time>2019-05-28T10:13:19Z</time>
      </trkpt>
      <trkpt lat="45.21047" lon="5.156">
        <ele>519.729858</ele>
        <time>2019-05-28T10:13:31Z</time>
      </trkpt>
      <trkpt lat="45.21048" lon="5.1555">
        <ele>519.249268</ele>
        <time>2019-05-28T10:13:41Z</time>
      </trkpt>
      <trkpt lat="45.21045" lon="5.15503">
        <ele>518.768555</ele>
        <time>2019-05-28T10:13:51Z</time>
      </trkpt>
      <trkpt lat="45.21032" lon="5.15454">
        <ele>517.32666</ele>
        <time>2019-05-28T10:14:00Z</time>
      </trkpt>
      <trkpt lat="45.21032" lon="5.15447">
        <ele>517.32666</ele>
        <time>2019-05-28T10:14:01Z</time>
      </trkpt>
      <trkpt lat="45.21009" lon="5.15339">
        <ele>515.884644</ele>
        <time>2019-05-28T10:14:18Z</time>
      </trkpt>
      <trkpt lat="45.21" lon="5.15299">
        <ele>515.404053</ele>
        <time>2019-05-28T10:14:26Z</time>
      </trkpt>
      <trkpt lat="45.20989" lon="5.15258">
        <ele>514.92334</ele>
        <time>2019-05-28T10:14:36Z</time>
      </trkpt>
      <trkpt lat="45.20978" lon="5.15194">
        <ele>513.481445</ele>
        <time>2019-05-28T10:14:48Z</time>
      </trkpt>
      <trkpt lat="45.20977" lon="5.1516">
        <ele>512.52002</ele>
        <time>2019-05-28T10:14:55Z</time>
      </trkpt>
      <trkpt lat="45.20966" lon="5.15086">
        <ele>513.000732</ele>
        <time>2019-05-28T10:15:08Z</time>
      </trkpt>
      <trkpt lat="45.20967" lon="5.15027">
        <ele>513.000732</ele>
        <time>2019-05-28T10:15:19Z</time>
      </trkpt>
      <trkpt lat="45.20964" lon="5.14976">
        <ele>513.962036</ele>
        <time>2019-05-28T10:15:31Z</time>
      </trkpt>
      <trkpt lat="45.20961" lon="5.14966">
        <ele>514.442627</ele>
        <time>2019-05-28T10:15:35Z</time>
      </trkpt>
      <trkpt lat="45.20945" lon="5.14951">
        <ele>514.92334</ele>
        <time>2019-05-28T10:15:42Z</time>
      </trkpt>
      <trkpt lat="45.20942" lon="5.14945">
        <ele>514.92334</ele>
        <time>2019-05-28T10:15:44Z</time>
      </trkpt>
      <trkpt lat="45.20942" lon="5.14937">
        <ele>514.92334</ele>
        <time>2019-05-28T10:15:47Z</time>
      </trkpt>
      <trkpt lat="45.20951" lon="5.1492">
        <ele>514.442627</ele>
        <time>2019-05-28T10:16:02Z</time>
      </trkpt>
      <trkpt lat="45.20958" lon="5.14911">
        <ele>513.962036</ele>
        <time>2019-05-28T10:16:19Z</time>
      </trkpt>
      <trkpt lat="45.20963" lon="5.14904">
        <ele>513.962036</ele>
        <time>2019-05-28T10:16:33Z</time>
      </trkpt>
      <trkpt lat="45.20962" lon="5.14904">
        <ele>514.442627</ele>
        <time>2019-05-28T10:17:08Z</time>
      </trkpt>
      <trkpt lat="45.20961" lon="5.14904">
        <ele>514.442627</ele>
        <time>2019-05-28T10:17:43Z</time>
      </trkpt>
      <trkpt lat="45.20945" lon="5.14926">
        <ele>514.92334</ele>
        <time>2019-05-28T10:17:56Z</time>
      </trkpt>
      <trkpt lat="45.20948" lon="5.14925">
        <ele>514.92334</ele>
        <time>2019-05-28T10:18:03Z</time>
      </trkpt>
      <trkpt lat="45.20966" lon="5.14894">
        <ele>513.962036</ele>
        <time>2019-05-28T10:18:15Z</time>
      </trkpt>
      <trkpt lat="45.20969" lon="5.14878">
        <ele>513.962036</ele>
        <time>2019-05-28T10:18:18Z</time>
      </trkpt>
      <trkpt lat="45.2097" lon="5.14817">
        <ele>513.000732</ele>
        <time>2019-05-28T10:18:29Z</time>
      </trkpt>
      <trkpt lat="45.20993" lon="5.14754">
        <ele>512.039429</ele>
        <time>2019-05-28T10:18:40Z</time>
      </trkpt>
      <trkpt lat="45.21012" lon="5.14699">
        <ele>511.078003</ele>
        <time>2019-05-28T10:18:51Z</time>
      </trkpt>
      <trkpt lat="45.21014" lon="5.14694">
        <ele>511.558716</ele>
        <time>2019-05-28T10:18:52Z</time>
      </trkpt>
      <trkpt lat="45.21024" lon="5.14657">
        <ele>510.59729</ele>
        <time>2019-05-28T10:19:00Z</time>
      </trkpt>
      <trkpt lat="45.21033" lon="5.146">
        <ele>510.59729</ele>
        <time>2019-05-28T10:19:11Z</time>
      </trkpt>
      <trkpt lat="45.21034" lon="5.14592">
        <ele>510.116699</ele>
        <time>2019-05-28T10:19:13Z</time>
      </trkpt>
      <trkpt lat="45.21028" lon="5.14556">
        <ele>510.116699</ele>
        <time>2019-05-28T10:19:22Z</time>
      </trkpt>
      <trkpt lat="45.21026" lon="5.14544">
        <ele>510.116699</ele>
        <time>2019-05-28T10:19:25Z</time>
      </trkpt>
      <trkpt lat="45.21031" lon="5.14538">
        <ele>510.116699</ele>
        <time>2019-05-28T10:19:29Z</time>
      </trkpt>
      <trkpt lat="45.21035" lon="5.14534">
        <ele>510.116699</ele>
        <time>2019-05-28T10:19:35Z</time>
      </trkpt>
      <trkpt lat="45.2103" lon="5.1453">
        <ele>510.116699</ele>
        <time>2019-05-28T10:19:39Z</time>
      </trkpt>
      <trkpt lat="45.21006" lon="5.14494">
        <ele>510.116699</ele>
        <time>2019-05-28T10:19:53Z</time>
      </trkpt>
      <trkpt lat="45.20978" lon="5.14418">
        <ele>509.155396</ele>
        <time>2019-05-28T10:20:08Z</time>
      </trkpt>
      <trkpt lat="45.2094" lon="5.14324">
        <ele>508.194092</ele>
        <time>2019-05-28T10:20:26Z</time>
      </trkpt>
      <trkpt lat="45.20956" lon="5.143">
        <ele>507.713501</ele>
        <time>2019-05-28T10:20:35Z</time>
      </trkpt>
      <trkpt lat="45.20993" lon="5.14267">
        <ele>509.155396</ele>
        <time>2019-05-28T10:20:46Z</time>
      </trkpt>
      <trkpt lat="45.21033" lon="5.14231">
        <ele>509.636108</ele>
        <time>2019-05-28T10:20:59Z</time>
      </trkpt>
      <trkpt lat="45.21055" lon="5.14199">
        <ele>509.636108</ele>
        <time>2019-05-28T10:21:07Z</time>
      </trkpt>
      <trkpt lat="45.21064" lon="5.14192">
        <ele>509.155396</ele>
        <time>2019-05-28T10:21:11Z</time>
      </trkpt>
      <trkpt lat="45.21068" lon="5.1418">
        <ele>508.674683</ele>
        <time>2019-05-28T10:21:15Z</time>
      </trkpt>
      <trkpt lat="45.21085" lon="5.14136">
        <ele>506.271484</ele>
        <time>2019-05-28T10:21:27Z</time>
      </trkpt>
      <trkpt lat="45.21096" lon="5.14116">
        <ele>504.829468</ele>
        <time>2019-05-28T10:21:31Z</time>
      </trkpt>
      <trkpt lat="45.211" lon="5.14106">
        <ele>503.868164</ele>
        <time>2019-05-28T10:21:33Z</time>
      </trkpt>
      <trkpt lat="45.21107" lon="5.14095">
        <ele>501.945557</ele>
        <time>2019-05-28T10:21:36Z</time>
      </trkpt>
      <trkpt lat="45.21095" lon="5.14086">
        <ele>502.426147</ele>
        <time>2019-05-28T10:21:40Z</time>
      </trkpt>
      <trkpt lat="45.21087" lon="5.14081">
        <ele>502.426147</ele>
        <time>2019-05-28T10:21:43Z</time>
      </trkpt>
      <trkpt lat="45.21064" lon="5.14072">
        <ele>503.387451</ele>
        <time>2019-05-28T10:21:51Z</time>
      </trkpt>
      <trkpt lat="45.21033" lon="5.14062">
        <ele>504.348877</ele>
        <time>2019-05-28T10:22:02Z</time>
      </trkpt>
      <trkpt lat="45.21027" lon="5.14065">
        <ele>504.829468</ele>
        <time>2019-05-28T10:22:05Z</time>
      </trkpt>
      <trkpt lat="45.21017" lon="5.14064">
        <ele>505.310181</ele>
        <time>2019-05-28T10:22:09Z</time>
      </trkpt>
      <trkpt lat="45.21005" lon="5.14038">
        <ele>502.906738</ele>
        <time>2019-05-28T10:22:18Z</time>
      </trkpt>
      <trkpt lat="45.20996" lon="5.14012">
        <ele>500.022949</ele>
        <time>2019-05-28T10:22:26Z</time>
      </trkpt>
      <trkpt lat="45.20994" lon="5.13988">
        <ele>497.619629</ele>
        <time>2019-05-28T10:22:30Z</time>
      </trkpt>
      <trkpt lat="45.20991" lon="5.13968">
        <ele>496.177734</ele>
        <time>2019-05-28T10:22:33Z</time>
      </trkpt>
      <trkpt lat="45.20981" lon="5.13947">
        <ele>494.255005</ele>
        <time>2019-05-28T10:22:37Z</time>
      </trkpt>
      <trkpt lat="45.20976" lon="5.13918">
        <ele>491.370972</ele>
        <time>2019-05-28T10:22:41Z</time>
      </trkpt>
      <trkpt lat="45.20973" lon="5.13899">
        <ele>489.929077</ele>
        <time>2019-05-28T10:22:44Z</time>
      </trkpt>
      <trkpt lat="45.20964" lon="5.13877">
        <ele>487.045044</ele>
        <time>2019-05-28T10:22:48Z</time>
      </trkpt>
      <trkpt lat="45.20946" lon="5.1385">
        <ele>482.719238</ele>
        <time>2019-05-28T10:22:53Z</time>
      </trkpt>
      <trkpt lat="45.2093" lon="5.13839">
        <ele>478.873901</ele>
        <time>2019-05-28T10:22:57Z</time>
      </trkpt>
      <trkpt lat="45.20913" lon="5.13828">
        <ele>474.547974</ele>
        <time>2019-05-28T10:23:01Z</time>
      </trkpt>
      <trkpt lat="45.20909" lon="5.13826">
        <ele>473.58667</ele>
        <time>2019-05-28T10:23:02Z</time>
      </trkpt>
      <trkpt lat="45.20889" lon="5.13827">
        <ele>469.260742</ele>
        <time>2019-05-28T10:23:07Z</time>
      </trkpt>
      <trkpt lat="45.20873" lon="5.1383">
        <ele>465.896118</ele>
        <time>2019-05-28T10:23:12Z</time>
      </trkpt>
      <trkpt lat="45.20864" lon="5.13834">
        <ele>463.973389</ele>
        <time>2019-05-28T10:23:18Z</time>
      </trkpt>
      <trkpt lat="45.20864" lon="5.13826">
        <ele>463.973389</ele>
        <time>2019-05-28T10:23:35Z</time>
      </trkpt>
      <trkpt lat="45.20865" lon="5.13831">
        <ele>463.973389</ele>
        <time>2019-05-28T10:23:51Z</time>
      </trkpt>
      <trkpt lat="45.20863" lon="5.13838">
        <ele>464.454102</ele>
        <time>2019-05-28T10:24:10Z</time>
      </trkpt>
      <trkpt lat="45.20861" lon="5.13834">
        <ele>464.934814</ele>
        <time>2019-05-28T10:27:13Z</time>
      </trkpt>
      <trkpt lat="45.2086" lon="5.13831">
        <ele>463.973389</ele>
        <time>2019-05-28T10:27:15Z</time>
      </trkpt>
      <trkpt lat="45.20857" lon="5.13822">
        <ele>461.089478</ele>
        <time>2019-05-28T10:27:20Z</time>
      </trkpt>
      <trkpt lat="45.20858" lon="5.13803">
        <ele>458.205566</ele>
        <time>2019-05-28T10:27:35Z</time>
      </trkpt>
      <trkpt lat="45.20861" lon="5.13786">
        <ele>454.84082</ele>
        <time>2019-05-28T10:27:41Z</time>
      </trkpt>
      <trkpt lat="45.20864" lon="5.13769">
        <ele>451.957031</ele>
        <time>2019-05-28T10:27:46Z</time>
      </trkpt>
      <trkpt lat="45.20867" lon="5.1376">
        <ele>450.995605</ele>
        <time>2019-05-28T10:27:49Z</time>
      </trkpt>
      <trkpt lat="45.2087" lon="5.13733">
        <ele>449.072998</ele>
        <time>2019-05-28T10:27:54Z</time>
      </trkpt>
      <trkpt lat="45.20879" lon="5.13696">
        <ele>447.630981</ele>
        <time>2019-05-28T10:28:07Z</time>
      </trkpt>
      <trkpt lat="45.2088" lon="5.13687">
        <ele>446.189087</ele>
        <time>2019-05-28T10:28:19Z</time>
      </trkpt>
      <trkpt lat="45.20882" lon="5.13665">
        <ele>441.863159</ele>
        <time>2019-05-28T10:28:26Z</time>
      </trkpt>
      <trkpt lat="45.20884" lon="5.13643">
        <ele>438.979126</ele>
        <time>2019-05-28T10:28:31Z</time>
      </trkpt>
      <trkpt lat="45.20884" lon="5.13624">
        <ele>436.095215</ele>
        <time>2019-05-28T10:28:36Z</time>
      </trkpt>
      <trkpt lat="45.20889" lon="5.1361">
        <ele>432.730713</ele>
        <time>2019-05-28T10:28:41Z</time>
      </trkpt>
      <trkpt lat="45.20889" lon="5.13605">
        <ele>431.769165</ele>
        <time>2019-05-28T10:28:43Z</time>
      </trkpt>
      <trkpt lat="45.20886" lon="5.13588">
        <ele>427.92395</ele>
        <time>2019-05-28T10:28:47Z</time>
      </trkpt>
      <trkpt lat="45.20886" lon="5.13581">
        <ele>426.962769</ele>
        <time>2019-05-28T10:28:49Z</time>
      </trkpt>
      <trkpt lat="45.20881" lon="5.13569">
        <ele>424.078735</ele>
        <time>2019-05-28T10:28:52Z</time>
      </trkpt>
      <trkpt lat="45.20877" lon="5.13547">
        <ele>421.675415</ele>
        <time>2019-05-28T10:28:57Z</time>
      </trkpt>
      <trkpt lat="45.20874" lon="5.13526">
        <ele>419.272217</ele>
        <time>2019-05-28T10:29:01Z</time>
      </trkpt>
      <trkpt lat="45.20869" lon="5.13475">
        <ele>415.42688</ele>
        <time>2019-05-28T10:29:11Z</time>
      </trkpt>
      <trkpt lat="45.20874" lon="5.13437">
        <ele>412.062256</ele>
        <time>2019-05-28T10:29:16Z</time>
      </trkpt>
      <trkpt lat="45.20879" lon="5.1342">
        <ele>410.139648</ele>
        <time>2019-05-28T10:29:18Z</time>
      </trkpt>
      <trkpt lat="45.20885" lon="5.13377">
        <ele>411.100952</ele>
        <time>2019-05-28T10:29:27Z</time>
      </trkpt>
      <trkpt lat="45.20885" lon="5.13373">
        <ele>410.139648</ele>
        <time>2019-05-28T10:29:32Z</time>
      </trkpt>
      <trkpt lat="45.20885" lon="5.13356">
        <ele>405.813721</ele>
        <time>2019-05-28T10:29:37Z</time>
      </trkpt>
      <trkpt lat="45.20884" lon="5.1334">
        <ele>402.449097</ele>
        <time>2019-05-28T10:29:40Z</time>
      </trkpt>
      <trkpt lat="45.20886" lon="5.13308">
        <ele>398.60376</ele>
        <time>2019-05-28T10:29:48Z</time>
      </trkpt>
      <trkpt lat="45.20885" lon="5.133">
        <ele>398.123169</ele>
        <time>2019-05-28T10:29:50Z</time>
      </trkpt>
      <trkpt lat="45.20885" lon="5.1329">
        <ele>396.200562</ele>
        <time>2019-05-28T10:29:53Z</time>
      </trkpt>
      <trkpt lat="45.20892" lon="5.13282">
        <ele>393.797241</ele>
        <time>2019-05-28T10:29:57Z</time>
      </trkpt>
      <trkpt lat="45.20911" lon="5.13257">
        <ele>388.51001</ele>
        <time>2019-05-28T10:30:05Z</time>
      </trkpt>
      <trkpt lat="45.20913" lon="5.13254">
        <ele>388.51001</ele>
        <time>2019-05-28T10:30:06Z</time>
      </trkpt>
      <trkpt lat="45.20921" lon="5.13246">
        <ele>385.625977</ele>
        <time>2019-05-28T10:30:10Z</time>
      </trkpt>
      <trkpt lat="45.20925" lon="5.13238">
        <ele>383.222656</ele>
        <time>2019-05-28T10:30:15Z</time>
      </trkpt>
      <trkpt lat="45.20935" lon="5.13223">
        <ele>381.78064</ele>
        <time>2019-05-28T10:30:21Z</time>
      </trkpt>
      <trkpt lat="45.2096" lon="5.13175">
        <ele>379.858032</ele>
        <time>2019-05-28T10:30:32Z</time>
      </trkpt>
      <trkpt lat="45.21014" lon="5.13144">
        <ele>379.858032</ele>
        <time>2019-05-28T10:30:49Z</time>
      </trkpt>
      <trkpt lat="45.21046" lon="5.13122">
        <ele>379.858032</ele>
        <time>2019-05-28T10:31:02Z</time>
      </trkpt>
      <trkpt lat="45.21058" lon="5.13122">
        <ele>380.338745</ele>
        <time>2019-05-28T10:31:07Z</time>
      </trkpt>
      <trkpt lat="45.21075" lon="5.13134">
        <ele>381.300049</ele>
        <time>2019-05-28T10:31:16Z</time>
      </trkpt>
      <trkpt lat="45.21069" lon="5.13171">
        <ele>380.819458</ele>
        <time>2019-05-28T10:31:30Z</time>
      </trkpt>
      <trkpt lat="45.21077" lon="5.13181">
        <ele>379.858032</ele>
        <time>2019-05-28T10:31:41Z</time>
      </trkpt>
      <trkpt lat="45.21079" lon="5.13185">
        <ele>379.858032</ele>
        <time>2019-05-28T10:31:55Z</time>
      </trkpt>
      <trkpt lat="45.21078" lon="5.13188">
        <ele>380.338745</ele>
        <time>2019-05-28T10:32:09Z</time>
      </trkpt>
      <trkpt lat="45.21078" lon="5.13188">
        <ele>380.819458</ele>
        <time>2019-05-28T10:32:33Z</time>
      </trkpt>
      <trkpt lat="45.21081" lon="5.13189">
        <ele>380.819458</ele>
        <time>2019-05-28T10:33:19Z</time>
      </trkpt>
      <trkpt lat="45.21092" lon="5.13216">
        <ele>381.300049</ele>
        <time>2019-05-28T10:33:28Z</time>
      </trkpt>
      <trkpt lat="45.21104" lon="5.13225">
        <ele>381.78064</ele>
        <time>2019-05-28T10:33:34Z</time>
      </trkpt>
      <trkpt lat="45.21134" lon="5.13238">
        <ele>382.261353</ele>
        <time>2019-05-28T10:33:47Z</time>
      </trkpt>
      <trkpt lat="45.21154" lon="5.13227">
        <ele>382.742065</ele>
        <time>2019-05-28T10:33:56Z</time>
      </trkpt>
      <trkpt lat="45.21176" lon="5.13212">
        <ele>382.742065</ele>
        <time>2019-05-28T10:34:06Z</time>
      </trkpt>
      <trkpt lat="45.21197" lon="5.13199">
        <ele>383.222656</ele>
        <time>2019-05-28T10:34:14Z</time>
      </trkpt>
      <trkpt lat="45.21205" lon="5.13194">
        <ele>383.703247</ele>
        <time>2019-05-28T10:34:18Z</time>
      </trkpt>
      <trkpt lat="45.21212" lon="5.13188">
        <ele>383.703247</ele>
        <time>2019-05-28T10:34:25Z</time>
      </trkpt>
      <trkpt lat="45.21222" lon="5.13173">
        <ele>384.184082</ele>
        <time>2019-05-28T10:34:38Z</time>
      </trkpt>
      <trkpt lat="45.21226" lon="5.13165">
        <ele>384.664795</ele>
        <time>2019-05-28T10:34:44Z</time>
      </trkpt>
      <trkpt lat="45.21231" lon="5.1315">
        <ele>385.625977</ele>
        <time>2019-05-28T10:34:51Z</time>
      </trkpt>
      <trkpt lat="45.21233" lon="5.13144">
        <ele>386.106689</ele>
        <time>2019-05-28T10:34:54Z</time>
      </trkpt>
      <trkpt lat="45.21235" lon="5.13132">
        <ele>387.067993</ele>
        <time>2019-05-28T10:35:01Z</time>
      </trkpt>
      <trkpt lat="45.21233" lon="5.13126">
        <ele>387.548584</ele>
        <time>2019-05-28T10:35:04Z</time>
      </trkpt>
      <trkpt lat="45.2123" lon="5.13116">
        <ele>387.548584</ele>
        <time>2019-05-28T10:35:08Z</time>
      </trkpt>
      <trkpt lat="45.2122" lon="5.13091">
        <ele>388.029297</ele>
        <time>2019-05-28T10:35:18Z</time>
      </trkpt>
      <trkpt lat="45.2122" lon="5.13083">
        <ele>388.990601</ele>
        <time>2019-05-28T10:35:22Z</time>
      </trkpt>
      <trkpt lat="45.21244" lon="5.13099">
        <ele>389.471191</ele>
        <time>2019-05-28T10:35:35Z</time>
      </trkpt>
      <trkpt lat="45.21296" lon="5.13136">
        <ele>390.913208</ele>
        <time>2019-05-28T10:35:55Z</time>
      </trkpt>
      <trkpt lat="45.21358" lon="5.13189">
        <ele>392.355347</ele>
        <time>2019-05-28T10:36:21Z</time>
      </trkpt>
      <trkpt lat="45.21401" lon="5.13243">
        <ele>394.758545</ele>
        <time>2019-05-28T10:36:42Z</time>
      </trkpt>
      <trkpt lat="45.21416" lon="5.13266">
        <ele>394.758545</ele>
        <time>2019-05-28T10:36:50Z</time>
      </trkpt>
      <trkpt lat="45.21422" lon="5.13264">
        <ele>394.277954</ele>
        <time>2019-05-28T10:36:54Z</time>
      </trkpt>
      <trkpt lat="45.21441" lon="5.13258">
        <ele>397.642456</ele>
        <time>2019-05-28T10:37:07Z</time>
      </trkpt>
      <trkpt lat="45.21462" lon="5.13255">
        <ele>400.526489</ele>
        <time>2019-05-28T10:37:22Z</time>
      </trkpt>
      <trkpt lat="45.21466" lon="5.13254">
        <ele>401.487793</ele>
        <time>2019-05-28T10:37:25Z</time>
      </trkpt>
      <trkpt lat="45.21481" lon="5.13251">
        <ele>404.371704</ele>
        <time>2019-05-28T10:37:36Z</time>
      </trkpt>
      <trkpt lat="45.21502" lon="5.13249">
        <ele>407.736328</ele>
        <time>2019-05-28T10:37:52Z</time>
      </trkpt>
      <trkpt lat="45.21518" lon="5.13246">
        <ele>410.139648</ele>
        <time>2019-05-28T10:38:04Z</time>
      </trkpt>
      <trkpt lat="45.21527" lon="5.13244">
        <ele>411.100952</ele>
        <time>2019-05-28T10:38:11Z</time>
      </trkpt>
      <trkpt lat="45.21533" lon="5.13243">
        <ele>413.02356</ele>
        <time>2019-05-28T10:38:17Z</time>
      </trkpt>
      <trkpt lat="45.21556" lon="5.13237">
        <ele>416.388184</ele>
        <time>2019-05-28T10:38:41Z</time>
      </trkpt>
      <trkpt lat="45.2157" lon="5.13234">
        <ele>417.8302</ele>
        <time>2019-05-28T10:39:02Z</time>
      </trkpt>
      <trkpt lat="45.21572" lon="5.13234">
        <ele>418.310791</ele>
        <time>2019-05-28T10:39:10Z</time>
      </trkpt>
      <trkpt lat="45.21588" lon="5.13225">
        <ele>420.233398</ele>
        <time>2019-05-28T10:39:25Z</time>
      </trkpt>
      <trkpt lat="45.2161" lon="5.13208">
        <ele>423.117432</ele>
        <time>2019-05-28T10:39:47Z</time>
      </trkpt>
      <trkpt lat="45.21622" lon="5.13195">
        <ele>425.520752</ele>
        <time>2019-05-28T10:40:03Z</time>
      </trkpt>
      <trkpt lat="45.21632" lon="5.13174">
        <ele>428.404663</ele>
        <time>2019-05-28T10:40:20Z</time>
      </trkpt>
      <trkpt lat="45.21643" lon="5.13156">
        <ele>431.769165</ele>
        <time>2019-05-28T10:40:36Z</time>
      </trkpt>
      <trkpt lat="45.21646" lon="5.13155">
        <ele>432.25</ele>
        <time>2019-05-28T10:40:51Z</time>
      </trkpt>
      <trkpt lat="45.21647" lon="5.13155">
        <ele>432.25</ele>
        <time>2019-05-28T10:42:14Z</time>
      </trkpt>
      <trkpt lat="45.2165" lon="5.13149">
        <ele>434.172607</ele>
        <time>2019-05-28T10:42:42Z</time>
      </trkpt>
      <trkpt lat="45.21653" lon="5.13145">
        <ele>434.65332</ele>
        <time>2019-05-28T10:42:45Z</time>
      </trkpt>
      <trkpt lat="45.21656" lon="5.1314">
        <ele>435.614502</ele>
        <time>2019-05-28T10:42:49Z</time>
      </trkpt>
      <trkpt lat="45.2166" lon="5.13127">
        <ele>437.056519</ele>
        <time>2019-05-28T10:43:03Z</time>
      </trkpt>
      <trkpt lat="45.21664" lon="5.13116">
        <ele>438.979126</ele>
        <time>2019-05-28T10:43:18Z</time>
      </trkpt>
      <trkpt lat="45.2167" lon="5.13107">
        <ele>439.459717</ele>
        <time>2019-05-28T10:43:32Z</time>
      </trkpt>
      <trkpt lat="45.21677" lon="5.13105">
        <ele>441.382446</ele>
        <time>2019-05-28T10:43:59Z</time>
      </trkpt>
      <trkpt lat="45.21693" lon="5.13103">
        <ele>444.74707</ele>
        <time>2019-05-28T10:44:19Z</time>
      </trkpt>
      <trkpt lat="45.21702" lon="5.13101">
        <ele>446.189087</ele>
        <time>2019-05-28T10:44:41Z</time>
      </trkpt>
      <trkpt lat="45.21715" lon="5.13099">
        <ele>448.111816</ele>
        <time>2019-05-28T10:44:57Z</time>
      </trkpt>
      <trkpt lat="45.21733" lon="5.13093">
        <ele>450.995605</ele>
        <time>2019-05-28T10:45:23Z</time>
      </trkpt>
      <trkpt lat="45.2175" lon="5.13091">
        <ele>453.398926</ele>
        <time>2019-05-28T10:45:46Z</time>
      </trkpt>
      <trkpt lat="45.21752" lon="5.1309">
        <ele>453.398926</ele>
        <time>2019-05-28T10:46:12Z</time>
      </trkpt>
      <trkpt lat="45.21753" lon="5.1309">
        <ele>453.398926</ele>
        <time>2019-05-28T10:46:56Z</time>
      </trkpt>
      <trkpt lat="45.21765" lon="5.13086">
        <ele>455.321533</ele>
        <time>2019-05-28T10:47:14Z</time>
      </trkpt>
      <trkpt lat="45.21773" lon="5.13085">
        <ele>456.282959</ele>
        <time>2019-05-28T10:47:24Z</time>
      </trkpt>
      <trkpt lat="45.21788" lon="5.13081">
        <ele>457.244263</ele>
        <time>2019-05-28T10:47:41Z</time>
      </trkpt>
      <trkpt lat="45.21798" lon="5.13077">
        <ele>458.686157</ele>
        <time>2019-05-28T10:48:04Z</time>
      </trkpt>
      <trkpt lat="45.21821" lon="5.13072">
        <ele>460.128174</ele>
        <time>2019-05-28T10:48:21Z</time>
      </trkpt>
      <trkpt lat="45.21822" lon="5.13072">
        <ele>459.647583</ele>
        <time>2019-05-28T10:48:22Z</time>
      </trkpt>
      <trkpt lat="45.21843" lon="5.13065">
        <ele>462.050781</ele>
        <time>2019-05-28T10:48:36Z</time>
      </trkpt>
      <trkpt lat="45.21846" lon="5.13065">
        <ele>462.050781</ele>
        <time>2019-05-28T10:48:37Z</time>
      </trkpt>
      <trkpt lat="45.21853" lon="5.1307">
        <ele>462.050781</ele>
        <time>2019-05-28T10:48:41Z</time>
      </trkpt>
      <trkpt lat="45.21855" lon="5.13066">
        <ele>462.050781</ele>
        <time>2019-05-28T10:48:50Z</time>
      </trkpt>
      <trkpt lat="45.21854" lon="5.13066">
        <ele>461.57019</ele>
        <time>2019-05-28T10:49:03Z</time>
      </trkpt>
      <trkpt lat="45.21854" lon="5.13072">
        <ele>461.57019</ele>
        <time>2019-05-28T10:49:07Z</time>
      </trkpt>
      <trkpt lat="45.2186" lon="5.13086">
        <ele>461.57019</ele>
        <time>2019-05-28T10:49:12Z</time>
      </trkpt>
      <trkpt lat="45.21891" lon="5.13127">
        <ele>461.57019</ele>
        <time>2019-05-28T10:49:30Z</time>
      </trkpt>
      <trkpt lat="45.21891" lon="5.1313">
        <ele>461.57019</ele>
        <time>2019-05-28T10:49:32Z</time>
      </trkpt>
      <trkpt lat="45.21894" lon="5.13139">
        <ele>461.089478</ele>
        <time>2019-05-28T10:49:39Z</time>
      </trkpt>
      <trkpt lat="45.21894" lon="5.13141">
        <ele>461.089478</ele>
        <time>2019-05-28T10:49:41Z</time>
      </trkpt>
      <trkpt lat="45.21888" lon="5.13149">
        <ele>459.647583</ele>
        <time>2019-05-28T10:49:49Z</time>
      </trkpt>
      <trkpt lat="45.21892" lon="5.13167">
        <ele>458.686157</ele>
        <time>2019-05-28T10:49:56Z</time>
      </trkpt>
      <trkpt lat="45.21898" lon="5.13169">
        <ele>458.686157</ele>
        <time>2019-05-28T10:50:07Z</time>
      </trkpt>
      <trkpt lat="45.21896" lon="5.1317">
        <ele>458.686157</ele>
        <time>2019-05-28T10:54:33Z</time>
      </trkpt>
      <trkpt lat="45.21893" lon="5.13168">
        <ele>458.686157</ele>
        <time>2019-05-28T10:54:48Z</time>
      </trkpt>
      <trkpt lat="45.21891" lon="5.13162">
        <ele>458.205566</ele>
        <time>2019-05-28T10:55:46Z</time>
      </trkpt>
      <trkpt lat="45.21887" lon="5.13159">
        <ele>458.686157</ele>
        <time>2019-05-28T10:55:50Z</time>
      </trkpt>
      <trkpt lat="45.2188" lon="5.13131">
        <ele>459.647583</ele>
        <time>2019-05-28T10:56:04Z</time>
      </trkpt>
      <trkpt lat="45.21879" lon="5.13112">
        <ele>460.608765</ele>
        <time>2019-05-28T10:56:13Z</time>
      </trkpt>
      <trkpt lat="45.21885" lon="5.13113">
        <ele>461.089478</ele>
        <time>2019-05-28T10:56:18Z</time>
      </trkpt>
      <trkpt lat="45.21888" lon="5.13115">
        <ele>461.089478</ele>
        <time>2019-05-28T10:56:21Z</time>
      </trkpt>
      <trkpt lat="45.21898" lon="5.13137">
        <ele>462.531372</ele>
        <time>2019-05-28T10:56:38Z</time>
      </trkpt>
      <trkpt lat="45.21897" lon="5.13139">
        <ele>462.531372</ele>
        <time>2019-05-28T10:56:53Z</time>
      </trkpt>
      <trkpt lat="45.21895" lon="5.13138">
        <ele>460.608765</ele>
        <time>2019-05-28T11:25:50Z</time>
      </trkpt>
      <trkpt lat="45.21894" lon="5.13127">
        <ele>460.128174</ele>
        <time>2019-05-28T11:25:56Z</time>
      </trkpt>
      <trkpt lat="45.21877" lon="5.13123">
        <ele>458.686157</ele>
        <time>2019-05-28T11:26:04Z</time>
      </trkpt>
      <trkpt lat="45.21882" lon="5.13143">
        <ele>458.205566</ele>
        <time>2019-05-28T11:26:07Z</time>
      </trkpt>
      <trkpt lat="45.2188" lon="5.13162">
        <ele>455.802246</ele>
        <time>2019-05-28T11:26:13Z</time>
      </trkpt>
      <trkpt lat="45.21865" lon="5.13146">
        <ele>455.321533</ele>
        <time>2019-05-28T11:26:18Z</time>
      </trkpt>
      <trkpt lat="45.2186" lon="5.13147">
        <ele>454.84082</ele>
        <time>2019-05-28T11:26:32Z</time>
      </trkpt>
      <trkpt lat="45.2186" lon="5.13147">
        <ele>454.360229</ele>
        <time>2019-05-28T11:27:27Z</time>
      </trkpt>
      <trkpt lat="45.2186" lon="5.13143">
        <ele>455.802246</ele>
        <time>2019-05-28T11:52:03Z</time>
      </trkpt>
      <trkpt lat="45.21862" lon="5.13142">
        <ele>453.879639</ele>
        <time>2019-05-28T12:07:04Z</time>
      </trkpt>
      <trkpt lat="45.21862" lon="5.13144">
        <ele>454.360229</ele>
        <time>2019-05-28T12:08:29Z</time>
      </trkpt>
      <trkpt lat="45.21866" lon="5.13148">
        <ele>453.879639</ele>
        <time>2019-05-28T12:08:35Z</time>
      </trkpt>
      <trkpt lat="45.2188" lon="5.1316">
        <ele>454.84082</ele>
        <time>2019-05-28T12:08:44Z</time>
      </trkpt>
      <trkpt lat="45.21909" lon="5.13183">
        <ele>455.802246</ele>
        <time>2019-05-28T12:08:56Z</time>
      </trkpt>
      <trkpt lat="45.21924" lon="5.13206">
        <ele>456.282959</ele>
        <time>2019-05-28T12:09:04Z</time>
      </trkpt>
      <trkpt lat="45.21926" lon="5.13206">
        <ele>456.76355</ele>
        <time>2019-05-28T12:09:26Z</time>
      </trkpt>
      <trkpt lat="45.21926" lon="5.13206">
        <ele>456.282959</ele>
        <time>2019-05-28T12:09:42Z</time>
      </trkpt>
      <trkpt lat="45.21902" lon="5.13179">
        <ele>456.76355</ele>
        <time>2019-05-28T12:09:54Z</time>
      </trkpt>
      <trkpt lat="45.21896" lon="5.13168">
        <ele>455.802246</ele>
        <time>2019-05-28T12:10:04Z</time>
      </trkpt>
      <trkpt lat="45.21894" lon="5.13164">
        <ele>456.282959</ele>
        <time>2019-05-28T12:10:15Z</time>
      </trkpt>
      <trkpt lat="45.2189" lon="5.13157">
        <ele>456.282959</ele>
        <time>2019-05-28T12:11:27Z</time>
      </trkpt>
      <trkpt lat="45.21876" lon="5.13114">
        <ele>458.205566</ele>
        <time>2019-05-28T12:11:41Z</time>
      </trkpt>
      <trkpt lat="45.21875" lon="5.13108">
        <ele>458.205566</ele>
        <time>2019-05-28T12:11:44Z</time>
      </trkpt>
      <trkpt lat="45.2185" lon="5.13066">
        <ele>459.16687</ele>
        <time>2019-05-28T12:11:58Z</time>
      </trkpt>
      <trkpt lat="45.21803" lon="5.13004">
        <ele>458.205566</ele>
        <time>2019-05-28T12:12:14Z</time>
      </trkpt>
      <trkpt lat="45.21795" lon="5.12994">
        <ele>457.724976</ele>
        <time>2019-05-28T12:12:16Z</time>
      </trkpt>
      <trkpt lat="45.21784" lon="5.12978">
        <ele>457.724976</ele>
        <time>2019-05-28T12:12:19Z</time>
      </trkpt>
      <trkpt lat="45.21758" lon="5.12938">
        <ele>458.205566</ele>
        <time>2019-05-28T12:12:28Z</time>
      </trkpt>
      <trkpt lat="45.21749" lon="5.12927">
        <ele>458.686157</ele>
        <time>2019-05-28T12:12:31Z</time>
      </trkpt>
      <trkpt lat="45.21686" lon="5.12848">
        <ele>455.321533</ele>
        <time>2019-05-28T12:12:50Z</time>
      </trkpt>
      <trkpt lat="45.21636" lon="5.1279">
        <ele>452.918213</ele>
        <time>2019-05-28T12:13:03Z</time>
      </trkpt>
      <trkpt lat="45.21571" lon="5.12723">
        <ele>455.321533</ele>
        <time>2019-05-28T12:13:19Z</time>
      </trkpt>
      <trkpt lat="45.21499" lon="5.12637">
        <ele>454.360229</ele>
        <time>2019-05-28T12:13:38Z</time>
      </trkpt>
      <trkpt lat="45.21488" lon="5.12624">
        <ele>454.360229</ele>
        <time>2019-05-28T12:13:41Z</time>
      </trkpt>
      <trkpt lat="45.21462" lon="5.12575">
        <ele>456.76355</ele>
        <time>2019-05-28T12:13:56Z</time>
      </trkpt>
      <trkpt lat="45.21477" lon="5.12543">
        <ele>460.128174</ele>
        <time>2019-05-28T12:14:12Z</time>
      </trkpt>
      <trkpt lat="45.21487" lon="5.12523">
        <ele>462.050781</ele>
        <time>2019-05-28T12:14:26Z</time>
      </trkpt>
      <trkpt lat="45.2149" lon="5.12518">
        <ele>462.531372</ele>
        <time>2019-05-28T12:14:30Z</time>
      </trkpt>
      <trkpt lat="45.21504" lon="5.12491">
        <ele>465.896118</ele>
        <time>2019-05-28T12:14:50Z</time>
      </trkpt>
      <trkpt lat="45.21505" lon="5.1249">
        <ele>465.896118</ele>
        <time>2019-05-28T12:14:51Z</time>
      </trkpt>
      <trkpt lat="45.21523" lon="5.12461">
        <ele>469.260742</ele>
        <time>2019-05-28T12:15:14Z</time>
      </trkpt>
      <trkpt lat="45.21526" lon="5.12454">
        <ele>469.741333</ele>
        <time>2019-05-28T12:15:19Z</time>
      </trkpt>
      <trkpt lat="45.2153" lon="5.12449">
        <ele>470.702637</ele>
        <time>2019-05-28T12:15:23Z</time>
      </trkpt>
      <trkpt lat="45.21546" lon="5.12423">
        <ele>474.067261</ele>
        <time>2019-05-28T12:15:43Z</time>
      </trkpt>
      <trkpt lat="45.21561" lon="5.12396">
        <ele>477.431885</ele>
        <time>2019-05-28T12:16:04Z</time>
      </trkpt>
      <trkpt lat="45.21569" lon="5.12378">
        <ele>480.315918</ele>
        <time>2019-05-28T12:16:18Z</time>
      </trkpt>
      <trkpt lat="45.21571" lon="5.12356">
        <ele>483.199829</ele>
        <time>2019-05-28T12:16:33Z</time>
      </trkpt>
      <trkpt lat="45.2157" lon="5.12335">
        <ele>486.564453</ele>
        <time>2019-05-28T12:16:46Z</time>
      </trkpt>
      <trkpt lat="45.21567" lon="5.12312">
        <ele>489.448364</ele>
        <time>2019-05-28T12:17:01Z</time>
      </trkpt>
      <trkpt lat="45.21567" lon="5.12282">
        <ele>492.812988</ele>
        <time>2019-05-28T12:17:19Z</time>
      </trkpt>
      <trkpt lat="45.21566" lon="5.12275">
        <ele>493.293579</ele>
        <time>2019-05-28T12:17:40Z</time>
      </trkpt>
      <trkpt lat="45.21568" lon="5.12271">
        <ele>493.774292</ele>
        <time>2019-05-28T12:17:58Z</time>
      </trkpt>
      <trkpt lat="45.21568" lon="5.12259">
        <ele>493.774292</ele>
        <time>2019-05-28T12:18:05Z</time>
      </trkpt>
      <trkpt lat="45.2157" lon="5.12241">
        <ele>494.255005</ele>
        <time>2019-05-28T12:18:13Z</time>
      </trkpt>
      <trkpt lat="45.21575" lon="5.122">
        <ele>494.255005</ele>
        <time>2019-05-28T12:18:29Z</time>
      </trkpt>
      <trkpt lat="45.21597" lon="5.12164">
        <ele>493.774292</ele>
        <time>2019-05-28T12:18:39Z</time>
      </trkpt>
      <trkpt lat="45.2162" lon="5.12119">
        <ele>492.332397</ele>
        <time>2019-05-28T12:18:49Z</time>
      </trkpt>
      <trkpt lat="45.21641" lon="5.12085">
        <ele>492.332397</ele>
        <time>2019-05-28T12:18:58Z</time>
      </trkpt>
      <trkpt lat="45.21673" lon="5.12032">
        <ele>491.370972</ele>
        <time>2019-05-28T12:19:12Z</time>
      </trkpt>
      <trkpt lat="45.21692" lon="5.11993">
        <ele>490.890381</ele>
        <time>2019-05-28T12:19:22Z</time>
      </trkpt>
      <trkpt lat="45.21707" lon="5.11954">
        <ele>492.812988</ele>
        <time>2019-05-28T12:19:33Z</time>
      </trkpt>
      <trkpt lat="45.2171" lon="5.11943">
        <ele>493.293579</ele>
        <time>2019-05-28T12:19:36Z</time>
      </trkpt>
      <trkpt lat="45.21709" lon="5.11934">
        <ele>493.774292</ele>
        <time>2019-05-28T12:19:40Z</time>
      </trkpt>
      <trkpt lat="45.21713" lon="5.11914">
        <ele>494.255005</ele>
        <time>2019-05-28T12:19:48Z</time>
      </trkpt>
      <trkpt lat="45.21714" lon="5.1191">
        <ele>494.255005</ele>
        <time>2019-05-28T12:19:50Z</time>
      </trkpt>
      <trkpt lat="45.21715" lon="5.11898">
        <ele>494.255005</ele>
        <time>2019-05-28T12:19:55Z</time>
      </trkpt>
      <trkpt lat="45.21716" lon="5.1188">
        <ele>494.735596</ele>
        <time>2019-05-28T12:20:01Z</time>
      </trkpt>
      <trkpt lat="45.21722" lon="5.11863">
        <ele>494.735596</ele>
        <time>2019-05-28T12:20:06Z</time>
      </trkpt>
      <trkpt lat="45.21726" lon="5.11832">
        <ele>494.735596</ele>
        <time>2019-05-28T12:20:15Z</time>
      </trkpt>
      <trkpt lat="45.21736" lon="5.11795">
        <ele>494.735596</ele>
        <time>2019-05-28T12:20:22Z</time>
      </trkpt>
      <trkpt lat="45.2174" lon="5.11778">
        <ele>494.255005</ele>
        <time>2019-05-28T12:20:25Z</time>
      </trkpt>
      <trkpt lat="45.21752" lon="5.11732">
        <ele>492.812988</ele>
        <time>2019-05-28T12:20:34Z</time>
      </trkpt>
      <trkpt lat="45.21777" lon="5.11689">
        <ele>489.929077</ele>
        <time>2019-05-28T12:20:43Z</time>
      </trkpt>
      <trkpt lat="45.21797" lon="5.1166">
        <ele>486.564453</ele>
        <time>2019-05-28T12:20:52Z</time>
      </trkpt>
      <trkpt lat="45.21798" lon="5.11658">
        <ele>486.564453</ele>
        <time>2019-05-28T12:20:53Z</time>
      </trkpt>
      <trkpt lat="45.21806" lon="5.11646">
        <ele>485.122437</ele>
        <time>2019-05-28T12:21:02Z</time>
      </trkpt>
      <trkpt lat="45.2182" lon="5.11634">
        <ele>481.757812</ele>
        <time>2019-05-28T12:21:08Z</time>
      </trkpt>
      <trkpt lat="45.21833" lon="5.11625">
        <ele>477.912476</ele>
        <time>2019-05-28T12:21:13Z</time>
      </trkpt>
      <trkpt lat="45.21848" lon="5.11614">
        <ele>474.547974</ele>
        <time>2019-05-28T12:21:17Z</time>
      </trkpt>
      <trkpt lat="45.21863" lon="5.11605">
        <ele>471.66394</ele>
        <time>2019-05-28T12:21:22Z</time>
      </trkpt>
      <trkpt lat="45.21874" lon="5.116">
        <ele>470.221924</ele>
        <time>2019-05-28T12:21:25Z</time>
      </trkpt>
      <trkpt lat="45.21882" lon="5.11597">
        <ele>467.338135</ele>
        <time>2019-05-28T12:21:28Z</time>
      </trkpt>
      <trkpt lat="45.21919" lon="5.11579">
        <ele>463.973389</ele>
        <time>2019-05-28T12:21:35Z</time>
      </trkpt>
      <trkpt lat="45.21946" lon="5.1157">
        <ele>460.128174</ele>
        <time>2019-05-28T12:21:40Z</time>
      </trkpt>
      <trkpt lat="45.2195" lon="5.1157">
        <ele>460.128174</ele>
        <time>2019-05-28T12:21:41Z</time>
      </trkpt>
      <trkpt lat="45.21967" lon="5.11568">
        <ele>457.244263</ele>
        <time>2019-05-28T12:21:46Z</time>
      </trkpt>
      <trkpt lat="45.21979" lon="5.11567">
        <ele>454.360229</ele>
        <time>2019-05-28T12:21:50Z</time>
      </trkpt>
      <trkpt lat="45.21993" lon="5.11559">
        <ele>450.995605</ele>
        <time>2019-05-28T12:21:56Z</time>
      </trkpt>
      <trkpt lat="45.22008" lon="5.11542">
        <ele>448.111816</ele>
        <time>2019-05-28T12:22:01Z</time>
      </trkpt>
      <trkpt lat="45.22016" lon="5.11528">
        <ele>445.227661</ele>
        <time>2019-05-28T12:22:06Z</time>
      </trkpt>
      <trkpt lat="45.22022" lon="5.11519">
        <ele>443.785767</ele>
        <time>2019-05-28T12:22:09Z</time>
      </trkpt>
      <trkpt lat="45.22028" lon="5.11512">
        <ele>442.343872</ele>
        <time>2019-05-28T12:22:12Z</time>
      </trkpt>
      <trkpt lat="45.22035" lon="5.11503">
        <ele>439.94043</ele>
        <time>2019-05-28T12:22:16Z</time>
      </trkpt>
      <trkpt lat="45.22049" lon="5.11484">
        <ele>436.575928</ele>
        <time>2019-05-28T12:22:24Z</time>
      </trkpt>
      <trkpt lat="45.22061" lon="5.11467">
        <ele>433.211304</ele>
        <time>2019-05-28T12:22:30Z</time>
      </trkpt>
      <trkpt lat="45.22064" lon="5.11465">
        <ele>432.730713</ele>
        <time>2019-05-28T12:22:31Z</time>
      </trkpt>
      <trkpt lat="45.22078" lon="5.11465">
        <ele>429.365967</ele>
        <time>2019-05-28T12:22:37Z</time>
      </trkpt>
      <trkpt lat="45.22093" lon="5.11462">
        <ele>426.001343</ele>
        <time>2019-05-28T12:22:41Z</time>
      </trkpt>
      <trkpt lat="45.22097" lon="5.11462">
        <ele>425.520752</ele>
        <time>2019-05-28T12:22:42Z</time>
      </trkpt>
      <trkpt lat="45.22105" lon="5.11463">
        <ele>423.598022</ele>
        <time>2019-05-28T12:22:44Z</time>
      </trkpt>
      <trkpt lat="45.22127" lon="5.11457">
        <ele>419.752808</ele>
        <time>2019-05-28T12:22:50Z</time>
      </trkpt>
      <trkpt lat="45.22143" lon="5.11463">
        <ele>417.8302</ele>
        <time>2019-05-28T12:22:54Z</time>
      </trkpt>
      <trkpt lat="45.22161" lon="5.11466">
        <ele>415.42688</ele>
        <time>2019-05-28T12:22:58Z</time>
      </trkpt>
      <trkpt lat="45.22172" lon="5.11467">
        <ele>413.984863</ele>
        <time>2019-05-28T12:23:00Z</time>
      </trkpt>
      <trkpt lat="45.22182" lon="5.1147">
        <ele>413.504272</ele>
        <time>2019-05-28T12:23:02Z</time>
      </trkpt>
      <trkpt lat="45.22205" lon="5.11455">
        <ele>413.504272</ele>
        <time>2019-05-28T12:23:07Z</time>
      </trkpt>
      <trkpt lat="45.22218" lon="5.11461">
        <ele>413.984863</ele>
        <time>2019-05-28T12:23:11Z</time>
      </trkpt>
      <trkpt lat="45.22256" lon="5.11478">
        <ele>414.465454</ele>
        <time>2019-05-28T12:23:24Z</time>
      </trkpt>
      <trkpt lat="45.22291" lon="5.11451">
        <ele>413.504272</ele>
        <time>2019-05-28T12:23:37Z</time>
      </trkpt>
      <trkpt lat="45.22294" lon="5.11378">
        <ele>414.946167</ele>
        <time>2019-05-28T12:23:52Z</time>
      </trkpt>
      <trkpt lat="45.22286" lon="5.11357">
        <ele>415.907471</ele>
        <time>2019-05-28T12:23:58Z</time>
      </trkpt>
      <trkpt lat="45.22291" lon="5.11352">
        <ele>416.868896</ele>
        <time>2019-05-28T12:24:02Z</time>
      </trkpt>
      <trkpt lat="45.22338" lon="5.11388">
        <ele>419.272217</ele>
        <time>2019-05-28T12:24:24Z</time>
      </trkpt>
      <trkpt lat="45.2239" lon="5.11422">
        <ele>420.233398</ele>
        <time>2019-05-28T12:24:47Z</time>
      </trkpt>
      <trkpt lat="45.22414" lon="5.11435">
        <ele>420.714111</ele>
        <time>2019-05-28T12:24:58Z</time>
      </trkpt>
      <trkpt lat="45.22472" lon="5.11472">
        <ele>421.194824</ele>
        <time>2019-05-28T12:25:21Z</time>
      </trkpt>
      <trkpt lat="45.2248" lon="5.11479">
        <ele>421.675415</ele>
        <time>2019-05-28T12:25:26Z</time>
      </trkpt>
      <trkpt lat="45.22485" lon="5.11481">
        <ele>421.675415</ele>
        <time>2019-05-28T12:25:29Z</time>
      </trkpt>
      <trkpt lat="45.22509" lon="5.11518">
        <ele>424.559448</ele>
        <time>2019-05-28T12:25:50Z</time>
      </trkpt>
      <trkpt lat="45.2253" lon="5.11572">
        <ele>426.001343</ele>
        <time>2019-05-28T12:26:11Z</time>
      </trkpt>
      <trkpt lat="45.22553" lon="5.11629">
        <ele>426.482056</ele>
        <time>2019-05-28T12:26:30Z</time>
      </trkpt>
      <trkpt lat="45.22578" lon="5.11694">
        <ele>427.443359</ele>
        <time>2019-05-28T12:26:50Z</time>
      </trkpt>
      <trkpt lat="45.22597" lon="5.11746">
        <ele>428.404663</ele>
        <time>2019-05-28T12:27:09Z</time>
      </trkpt>
      <trkpt lat="45.22614" lon="5.11798">
        <ele>429.846558</ele>
        <time>2019-05-28T12:27:29Z</time>
      </trkpt>
      <trkpt lat="45.22638" lon="5.11861">
        <ele>430.807983</ele>
        <time>2019-05-28T12:27:50Z</time>
      </trkpt>
      <trkpt lat="45.22659" lon="5.11927">
        <ele>432.25</ele>
        <time>2019-05-28T12:28:12Z</time>
      </trkpt>
      <trkpt lat="45.22664" lon="5.11939">
        <ele>432.25</ele>
        <time>2019-05-28T12:28:17Z</time>
      </trkpt>
      <trkpt lat="45.22685" lon="5.11998">
        <ele>434.65332</ele>
        <time>2019-05-28T12:28:40Z</time>
      </trkpt>
      <trkpt lat="45.22707" lon="5.12061">
        <ele>436.095215</ele>
        <time>2019-05-28T12:29:07Z</time>
      </trkpt>
      <trkpt lat="45.22722" lon="5.12096">
        <ele>437.537109</ele>
        <time>2019-05-28T12:29:22Z</time>
      </trkpt>
      <trkpt lat="45.22743" lon="5.12147">
        <ele>438.979126</ele>
        <time>2019-05-28T12:29:42Z</time>
      </trkpt>
      <trkpt lat="45.22771" lon="5.12209">
        <ele>441.382446</ele>
        <time>2019-05-28T12:30:07Z</time>
      </trkpt>
      <trkpt lat="45.228" lon="5.12264">
        <ele>442.824463</ele>
        <time>2019-05-28T12:30:31Z</time>
      </trkpt>
      <trkpt lat="45.22826" lon="5.12301">
        <ele>443.785767</ele>
        <time>2019-05-28T12:30:52Z</time>
      </trkpt>
      <trkpt lat="45.22854" lon="5.12343">
        <ele>445.708374</ele>
        <time>2019-05-28T12:31:15Z</time>
      </trkpt>
      <trkpt lat="45.22882" lon="5.12385">
        <ele>447.150269</ele>
        <time>2019-05-28T12:31:36Z</time>
      </trkpt>
      <trkpt lat="45.22894" lon="5.12399">
        <ele>448.111816</ele>
        <time>2019-05-28T12:31:47Z</time>
      </trkpt>
      <trkpt lat="45.22913" lon="5.12424">
        <ele>449.553711</ele>
        <time>2019-05-28T12:32:03Z</time>
      </trkpt>
      <trkpt lat="45.22923" lon="5.12436">
        <ele>450.034424</ele>
        <time>2019-05-28T12:32:09Z</time>
      </trkpt>
      <trkpt lat="45.22943" lon="5.1246">
        <ele>450.034424</ele>
        <time>2019-05-28T12:32:20Z</time>
      </trkpt>
      <trkpt lat="45.22971" lon="5.125">
        <ele>450.515015</ele>
        <time>2019-05-28T12:32:35Z</time>
      </trkpt>
      <trkpt lat="45.23021" lon="5.12557">
        <ele>450.995605</ele>
        <time>2019-05-28T12:33:00Z</time>
      </trkpt>
      <trkpt lat="45.23072" lon="5.12626">
        <ele>451.957031</ele>
        <time>2019-05-28T12:33:25Z</time>
      </trkpt>
      <trkpt lat="45.23113" lon="5.12676">
        <ele>453.398926</ele>
        <time>2019-05-28T12:33:47Z</time>
      </trkpt>
      <trkpt lat="45.23131" lon="5.12717">
        <ele>453.398926</ele>
        <time>2019-05-28T12:34:02Z</time>
      </trkpt>
      <trkpt lat="45.23144" lon="5.12753">
        <ele>453.879639</ele>
        <time>2019-05-28T12:34:16Z</time>
      </trkpt>
      <trkpt lat="45.23164" lon="5.1281">
        <ele>455.802246</ele>
        <time>2019-05-28T12:34:35Z</time>
      </trkpt>
      <trkpt lat="45.23196" lon="5.12885">
        <ele>457.244263</ele>
        <time>2019-05-28T12:35:00Z</time>
      </trkpt>
      <trkpt lat="45.23221" lon="5.12939">
        <ele>457.724976</ele>
        <time>2019-05-28T12:35:18Z</time>
      </trkpt>
      <trkpt lat="45.2324" lon="5.1294">
        <ele>458.686157</ele>
        <time>2019-05-28T12:35:30Z</time>
      </trkpt>
      <trkpt lat="45.23251" lon="5.12931">
        <ele>459.647583</ele>
        <time>2019-05-28T12:35:48Z</time>
      </trkpt>
      <trkpt lat="45.2325" lon="5.12931">
        <ele>460.128174</ele>
        <time>2019-05-28T12:37:12Z</time>
      </trkpt>
      <trkpt lat="45.2325" lon="5.12931">
        <ele>460.608765</ele>
        <time>2019-05-28T12:37:19Z</time>
      </trkpt>
      <trkpt lat="45.23262" lon="5.12921">
        <ele>462.050781</ele>
        <time>2019-05-28T12:37:29Z</time>
      </trkpt>
      <trkpt lat="45.2328" lon="5.12898">
        <ele>464.934814</ele>
        <time>2019-05-28T12:37:48Z</time>
      </trkpt>
      <trkpt lat="45.23303" lon="5.12885">
        <ele>468.299316</ele>
        <time>2019-05-28T12:38:06Z</time>
      </trkpt>
      <trkpt lat="45.23304" lon="5.12885">
        <ele>468.299316</ele>
        <time>2019-05-28T12:38:07Z</time>
      </trkpt>
      <trkpt lat="45.23311" lon="5.12884">
        <ele>469.260742</ele>
        <time>2019-05-28T12:38:13Z</time>
      </trkpt>
      <trkpt lat="45.23322" lon="5.12882">
        <ele>471.18335</ele>
        <time>2019-05-28T12:38:23Z</time>
      </trkpt>
      <trkpt lat="45.23332" lon="5.1287">
        <ele>474.067261</ele>
        <time>2019-05-28T12:38:37Z</time>
      </trkpt>
      <trkpt lat="45.23342" lon="5.12847">
        <ele>477.431885</ele>
        <time>2019-05-28T12:38:53Z</time>
      </trkpt>
      <trkpt lat="45.23353" lon="5.12827">
        <ele>479.835083</ele>
        <time>2019-05-28T12:39:08Z</time>
      </trkpt>
      <trkpt lat="45.23359" lon="5.12824">
        <ele>480.796631</ele>
        <time>2019-05-28T12:39:12Z</time>
      </trkpt>
      <trkpt lat="45.23369" lon="5.12813">
        <ele>482.238525</ele>
        <time>2019-05-28T12:39:23Z</time>
      </trkpt>
      <trkpt lat="45.23384" lon="5.12795">
        <ele>483.68042</ele>
        <time>2019-05-28T12:39:36Z</time>
      </trkpt>
      <trkpt lat="45.23387" lon="5.12792">
        <ele>484.161133</ele>
        <time>2019-05-28T12:39:38Z</time>
      </trkpt>
      <trkpt lat="45.2339" lon="5.12788">
        <ele>484.641846</ele>
        <time>2019-05-28T12:39:42Z</time>
      </trkpt>
      <trkpt lat="45.23394" lon="5.12782">
        <ele>485.122437</ele>
        <time>2019-05-28T12:39:47Z</time>
      </trkpt>
      <trkpt lat="45.23408" lon="5.12767">
        <ele>487.045044</ele>
        <time>2019-05-28T12:40:01Z</time>
      </trkpt>
      <trkpt lat="45.23411" lon="5.12764">
        <ele>487.045044</ele>
        <time>2019-05-28T12:40:06Z</time>
      </trkpt>
      <trkpt lat="45.23417" lon="5.12758">
        <ele>487.525635</ele>
        <time>2019-05-28T12:40:13Z</time>
      </trkpt>
      <trkpt lat="45.23423" lon="5.12751">
        <ele>488.00647</ele>
        <time>2019-05-28T12:40:17Z</time>
      </trkpt>
      <trkpt lat="45.23431" lon="5.12743">
        <ele>488.487183</ele>
        <time>2019-05-28T12:40:29Z</time>
      </trkpt>
      <trkpt lat="45.23432" lon="5.12743">
        <ele>488.967773</ele>
        <time>2019-05-28T12:40:50Z</time>
      </trkpt>
      <trkpt lat="45.23442" lon="5.12735">
        <ele>489.929077</ele>
        <time>2019-05-28T12:41:06Z</time>
      </trkpt>
      <trkpt lat="45.23446" lon="5.12732">
        <ele>490.40979</ele>
        <time>2019-05-28T12:41:11Z</time>
      </trkpt>
      <trkpt lat="45.23463" lon="5.12716">
        <ele>491.370972</ele>
        <time>2019-05-28T12:41:24Z</time>
      </trkpt>
      <trkpt lat="45.23464" lon="5.12715">
        <ele>491.851685</ele>
        <time>2019-05-28T12:41:26Z</time>
      </trkpt>
      <trkpt lat="45.23471" lon="5.12707">
        <ele>492.332397</ele>
        <time>2019-05-28T12:41:31Z</time>
      </trkpt>
      <trkpt lat="45.23487" lon="5.1269">
        <ele>494.255005</ele>
        <time>2019-05-28T12:41:47Z</time>
      </trkpt>
      <trkpt lat="45.23493" lon="5.12681">
        <ele>494.735596</ele>
        <time>2019-05-28T12:41:55Z</time>
      </trkpt>
      <trkpt lat="45.23504" lon="5.1267">
        <ele>495.696899</ele>
        <time>2019-05-28T12:42:06Z</time>
      </trkpt>
      <trkpt lat="45.23506" lon="5.12669">
        <ele>495.696899</ele>
        <time>2019-05-28T12:42:07Z</time>
      </trkpt>
      <trkpt lat="45.2351" lon="5.12665">
        <ele>496.177734</ele>
        <time>2019-05-28T12:42:11Z</time>
      </trkpt>
      <trkpt lat="45.23527" lon="5.12648">
        <ele>497.619629</ele>
        <time>2019-05-28T12:42:26Z</time>
      </trkpt>
      <trkpt lat="45.23546" lon="5.12623">
        <ele>499.542236</ele>
        <time>2019-05-28T12:42:45Z</time>
      </trkpt>
      <trkpt lat="45.2355" lon="5.12619">
        <ele>500.022949</ele>
        <time>2019-05-28T12:42:49Z</time>
      </trkpt>
      <trkpt lat="45.23563" lon="5.12603">
        <ele>500.984131</ele>
        <time>2019-05-28T12:43:00Z</time>
      </trkpt>
      <trkpt lat="45.23572" lon="5.12596">
        <ele>501.945557</ele>
        <time>2019-05-28T12:43:07Z</time>
      </trkpt>
      <trkpt lat="45.23577" lon="5.1259">
        <ele>501.945557</ele>
        <time>2019-05-28T12:43:12Z</time>
      </trkpt>
      <trkpt lat="45.23595" lon="5.12574">
        <ele>502.906738</ele>
        <time>2019-05-28T12:43:27Z</time>
      </trkpt>
      <trkpt lat="45.23608" lon="5.12564">
        <ele>503.868164</ele>
        <time>2019-05-28T12:43:37Z</time>
      </trkpt>
      <trkpt lat="45.23633" lon="5.12541">
        <ele>505.310181</ele>
        <time>2019-05-28T12:43:55Z</time>
      </trkpt>
      <trkpt lat="45.23635" lon="5.12539">
        <ele>505.790894</ele>
        <time>2019-05-28T12:43:57Z</time>
      </trkpt>
      <trkpt lat="45.23646" lon="5.12526">
        <ele>506.752075</ele>
        <time>2019-05-28T12:44:04Z</time>
      </trkpt>
      <trkpt lat="45.23652" lon="5.12521">
        <ele>507.713501</ele>
        <time>2019-05-28T12:44:13Z</time>
      </trkpt>
      <trkpt lat="45.2367" lon="5.12504">
        <ele>509.636108</ele>
        <time>2019-05-28T12:44:26Z</time>
      </trkpt>
      <trkpt lat="45.23689" lon="5.12484">
        <ele>511.558716</ele>
        <time>2019-05-28T12:44:40Z</time>
      </trkpt>
      <trkpt lat="45.23708" lon="5.12464">
        <ele>511.558716</ele>
        <time>2019-05-28T12:44:53Z</time>
      </trkpt>
      <trkpt lat="45.23725" lon="5.12445">
        <ele>512.039429</ele>
        <time>2019-05-28T12:45:07Z</time>
      </trkpt>
      <trkpt lat="45.23734" lon="5.12438">
        <ele>512.039429</ele>
        <time>2019-05-28T12:45:13Z</time>
      </trkpt>
      <trkpt lat="45.23738" lon="5.12434">
        <ele>512.039429</ele>
        <time>2019-05-28T12:45:15Z</time>
      </trkpt>
      <trkpt lat="45.23762" lon="5.12417">
        <ele>512.039429</ele>
        <time>2019-05-28T12:45:32Z</time>
      </trkpt>
      <trkpt lat="45.23778" lon="5.12403">
        <ele>512.039429</ele>
        <time>2019-05-28T12:45:42Z</time>
      </trkpt>
      <trkpt lat="45.23811" lon="5.12382">
        <ele>513.000732</ele>
        <time>2019-05-28T12:45:58Z</time>
      </trkpt>
      <trkpt lat="45.2384" lon="5.12349">
        <ele>513.481445</ele>
        <time>2019-05-28T12:46:13Z</time>
      </trkpt>
      <trkpt lat="45.23869" lon="5.12307">
        <ele>514.92334</ele>
        <time>2019-05-28T12:46:28Z</time>
      </trkpt>
      <trkpt lat="45.23911" lon="5.12248">
        <ele>515.884644</ele>
        <time>2019-05-28T12:46:45Z</time>
      </trkpt>
      <trkpt lat="45.23957" lon="5.12183">
        <ele>515.404053</ele>
        <time>2019-05-28T12:47:04Z</time>
      </trkpt>
      <trkpt lat="45.23995" lon="5.1213">
        <ele>514.442627</ele>
        <time>2019-05-28T12:47:21Z</time>
      </trkpt>
      <trkpt lat="45.24049" lon="5.12052">
        <ele>513.000732</ele>
        <time>2019-05-28T12:47:40Z</time>
      </trkpt>
      <trkpt lat="45.24059" lon="5.12038">
        <ele>512.039429</ele>
        <time>2019-05-28T12:47:43Z</time>
      </trkpt>
      <trkpt lat="45.24121" lon="5.11953">
        <ele>510.59729</ele>
        <time>2019-05-28T12:48:00Z</time>
      </trkpt>
      <trkpt lat="45.24171" lon="5.11879">
        <ele>508.674683</ele>
        <time>2019-05-28T12:48:14Z</time>
      </trkpt>
      <trkpt lat="45.24216" lon="5.11813">
        <ele>506.752075</ele>
        <time>2019-05-28T12:48:27Z</time>
      </trkpt>
      <trkpt lat="45.24253" lon="5.11756">
        <ele>506.271484</ele>
        <time>2019-05-28T12:48:39Z</time>
      </trkpt>
      <trkpt lat="45.243" lon="5.11719">
        <ele>505.790894</ele>
        <time>2019-05-28T12:48:52Z</time>
      </trkpt>
      <trkpt lat="45.24343" lon="5.11701">
        <ele>505.790894</ele>
        <time>2019-05-28T12:49:03Z</time>
      </trkpt>
      <trkpt lat="45.24379" lon="5.11676">
        <ele>506.271484</ele>
        <time>2019-05-28T12:49:13Z</time>
      </trkpt>
      <trkpt lat="45.24445" lon="5.11596">
        <ele>508.194092</ele>
        <time>2019-05-28T12:49:35Z</time>
      </trkpt>
      <trkpt lat="45.24466" lon="5.11535">
        <ele>509.155396</ele>
        <time>2019-05-28T12:49:48Z</time>
      </trkpt>
      <trkpt lat="45.24482" lon="5.11468">
        <ele>509.636108</ele>
        <time>2019-05-28T12:50:02Z</time>
      </trkpt>
      <trkpt lat="45.24512" lon="5.11402">
        <ele>509.636108</ele>
        <time>2019-05-28T12:50:15Z</time>
      </trkpt>
      <trkpt lat="45.24515" lon="5.11398">
        <ele>509.636108</ele>
        <time>2019-05-28T12:50:16Z</time>
      </trkpt>
      <trkpt lat="45.2455" lon="5.1136">
        <ele>508.674683</ele>
        <time>2019-05-28T12:50:26Z</time>
      </trkpt>
      <trkpt lat="45.24589" lon="5.11291">
        <ele>509.636108</ele>
        <time>2019-05-28T12:50:42Z</time>
      </trkpt>
      <trkpt lat="45.24613" lon="5.1126">
        <ele>511.078003</ele>
        <time>2019-05-28T12:50:55Z</time>
      </trkpt>
      <trkpt lat="45.24625" lon="5.1124">
        <ele>511.558716</ele>
        <time>2019-05-28T12:51:03Z</time>
      </trkpt>
      <trkpt lat="45.24658" lon="5.11228">
        <ele>512.039429</ele>
        <time>2019-05-28T12:51:18Z</time>
      </trkpt>
      <trkpt lat="45.24665" lon="5.11216">
        <ele>512.039429</ele>
        <time>2019-05-28T12:51:24Z</time>
      </trkpt>
      <trkpt lat="45.24694" lon="5.1116">
        <ele>509.636108</ele>
        <time>2019-05-28T12:51:39Z</time>
      </trkpt>
      <trkpt lat="45.24696" lon="5.11155">
        <ele>509.155396</ele>
        <time>2019-05-28T12:51:40Z</time>
      </trkpt>
      <trkpt lat="45.24727" lon="5.11089">
        <ele>505.790894</ele>
        <time>2019-05-28T12:51:51Z</time>
      </trkpt>
      <trkpt lat="45.24733" lon="5.1107">
        <ele>503.868164</ele>
        <time>2019-05-28T12:51:55Z</time>
      </trkpt>
      <trkpt lat="45.24734" lon="5.11065">
        <ele>503.387451</ele>
        <time>2019-05-28T12:51:56Z</time>
      </trkpt>
      <trkpt lat="45.24726" lon="5.11055">
        <ele>501.945557</ele>
        <time>2019-05-28T12:52:01Z</time>
      </trkpt>
      <trkpt lat="45.24705" lon="5.11041">
        <ele>502.426147</ele>
        <time>2019-05-28T12:52:07Z</time>
      </trkpt>
      <trkpt lat="45.24688" lon="5.11001">
        <ele>501.945557</ele>
        <time>2019-05-28T12:52:19Z</time>
      </trkpt>
      <trkpt lat="45.24667" lon="5.10971">
        <ele>500.984131</ele>
        <time>2019-05-28T12:52:32Z</time>
      </trkpt>
      <trkpt lat="45.24656" lon="5.10959">
        <ele>500.984131</ele>
        <time>2019-05-28T12:52:42Z</time>
      </trkpt>
      <trkpt lat="45.24637" lon="5.10935">
        <ele>500.022949</ele>
        <time>2019-05-28T12:52:56Z</time>
      </trkpt>
      <trkpt lat="45.24636" lon="5.10936">
        <ele>500.50354</ele>
        <time>2019-05-28T12:52:58Z</time>
      </trkpt>
      <trkpt lat="45.24653" lon="5.10958">
        <ele>500.50354</ele>
        <time>2019-05-28T12:53:08Z</time>
      </trkpt>
      <trkpt lat="45.24687" lon="5.11006">
        <ele>501.464844</ele>
        <time>2019-05-28T12:53:22Z</time>
      </trkpt>
      <trkpt lat="45.24707" lon="5.11044">
        <ele>501.464844</ele>
        <time>2019-05-28T12:53:32Z</time>
      </trkpt>
      <trkpt lat="45.24709" lon="5.11048">
        <ele>500.984131</ele>
        <time>2019-05-28T12:53:33Z</time>
      </trkpt>
      <trkpt lat="45.24724" lon="5.1105">
        <ele>501.464844</ele>
        <time>2019-05-28T12:53:38Z</time>
      </trkpt>
      <trkpt lat="45.24728" lon="5.11051">
        <ele>502.426147</ele>
        <time>2019-05-28T12:53:41Z</time>
      </trkpt>
      <trkpt lat="45.24725" lon="5.11085">
        <ele>504.829468</ele>
        <time>2019-05-28T12:53:55Z</time>
      </trkpt>
      <trkpt lat="45.24714" lon="5.11117">
        <ele>506.271484</ele>
        <time>2019-05-28T12:54:09Z</time>
      </trkpt>
      <trkpt lat="45.2469" lon="5.11126">
        <ele>506.271484</ele>
        <time>2019-05-28T12:54:19Z</time>
      </trkpt>
      <trkpt lat="45.24662" lon="5.11126">
        <ele>506.752075</ele>
        <time>2019-05-28T12:54:32Z</time>
      </trkpt>
      <trkpt lat="45.2465" lon="5.1113">
        <ele>508.194092</ele>
        <time>2019-05-28T12:54:39Z</time>
      </trkpt>
      <trkpt lat="45.2463" lon="5.11122">
        <ele>509.155396</ele>
        <time>2019-05-28T12:54:49Z</time>
      </trkpt>
      <trkpt lat="45.24615" lon="5.11112">
        <ele>509.636108</ele>
        <time>2019-05-28T12:54:56Z</time>
      </trkpt>
      <trkpt lat="45.24608" lon="5.11112">
        <ele>509.636108</ele>
        <time>2019-05-28T12:55:00Z</time>
      </trkpt>
      <trkpt lat="45.24566" lon="5.11112">
        <ele>510.116699</ele>
        <time>2019-05-28T12:55:17Z</time>
      </trkpt>
      <trkpt lat="45.24526" lon="5.11114">
        <ele>509.155396</ele>
        <time>2019-05-28T12:55:33Z</time>
      </trkpt>
      <trkpt lat="45.24497" lon="5.11102">
        <ele>508.674683</ele>
        <time>2019-05-28T12:55:44Z</time>
      </trkpt>
      <trkpt lat="45.24465" lon="5.1108">
        <ele>507.713501</ele>
        <time>2019-05-28T12:55:55Z</time>
      </trkpt>
      <trkpt lat="45.24427" lon="5.11085">
        <ele>506.271484</ele>
        <time>2019-05-28T12:56:07Z</time>
      </trkpt>
      <trkpt lat="45.24398" lon="5.111">
        <ele>505.790894</ele>
        <time>2019-05-28T12:56:18Z</time>
      </trkpt>
      <trkpt lat="45.24377" lon="5.11125">
        <ele>504.829468</ele>
        <time>2019-05-28T12:56:27Z</time>
      </trkpt>
      <trkpt lat="45.24361" lon="5.11143">
        <ele>504.348877</ele>
        <time>2019-05-28T12:56:34Z</time>
      </trkpt>
      <trkpt lat="45.24352" lon="5.11149">
        <ele>503.868164</ele>
        <time>2019-05-28T12:56:38Z</time>
      </trkpt>
      <trkpt lat="45.24323" lon="5.11167">
        <ele>503.387451</ele>
        <time>2019-05-28T12:56:49Z</time>
      </trkpt>
      <trkpt lat="45.24271" lon="5.11194">
        <ele>501.945557</ele>
        <time>2019-05-28T12:57:00Z</time>
      </trkpt>
      <trkpt lat="45.24264" lon="5.11197">
        <ele>501.945557</ele>
        <time>2019-05-28T12:57:02Z</time>
      </trkpt>
      <trkpt lat="45.24243" lon="5.11186">
        <ele>500.984131</ele>
        <time>2019-05-28T12:57:08Z</time>
      </trkpt>
      <trkpt lat="45.24231" lon="5.1117">
        <ele>501.464844</ele>
        <time>2019-05-28T12:57:13Z</time>
      </trkpt>
      <trkpt lat="45.24203" lon="5.11165">
        <ele>502.906738</ele>
        <time>2019-05-28T12:57:25Z</time>
      </trkpt>
      <trkpt lat="45.24181" lon="5.11173">
        <ele>502.906738</ele>
        <time>2019-05-28T12:57:34Z</time>
      </trkpt>
      <trkpt lat="45.24148" lon="5.1117">
        <ele>501.945557</ele>
        <time>2019-05-28T12:57:47Z</time>
      </trkpt>
      <trkpt lat="45.2412" lon="5.11176">
        <ele>500.984131</ele>
        <time>2019-05-28T12:57:56Z</time>
      </trkpt>
      <trkpt lat="45.24077" lon="5.11181">
        <ele>501.464844</ele>
        <time>2019-05-28T12:58:06Z</time>
      </trkpt>
      <trkpt lat="45.24028" lon="5.11183">
        <ele>501.464844</ele>
        <time>2019-05-28T12:58:16Z</time>
      </trkpt>
      <trkpt lat="45.24021" lon="5.11181">
        <ele>501.464844</ele>
        <time>2019-05-28T12:58:18Z</time>
      </trkpt>
      <trkpt lat="45.24013" lon="5.11171">
        <ele>501.945557</ele>
        <time>2019-05-28T12:58:22Z</time>
      </trkpt>
      <trkpt lat="45.23988" lon="5.1115">
        <ele>502.426147</ele>
        <time>2019-05-28T12:58:32Z</time>
      </trkpt>
      <trkpt lat="45.23969" lon="5.11131">
        <ele>501.945557</ele>
        <time>2019-05-28T12:58:38Z</time>
      </trkpt>
      <trkpt lat="45.23967" lon="5.11125">
        <ele>501.945557</ele>
        <time>2019-05-28T12:58:40Z</time>
      </trkpt>
      <trkpt lat="45.23942" lon="5.11095">
        <ele>501.464844</ele>
        <time>2019-05-28T12:58:50Z</time>
      </trkpt>
      <trkpt lat="45.23916" lon="5.11091">
        <ele>500.022949</ele>
        <time>2019-05-28T12:58:56Z</time>
      </trkpt>
      <trkpt lat="45.23886" lon="5.11097">
        <ele>498.580933</ele>
        <time>2019-05-28T12:59:04Z</time>
      </trkpt>
      <trkpt lat="45.23845" lon="5.11082">
        <ele>497.619629</ele>
        <time>2019-05-28T12:59:14Z</time>
      </trkpt>
      <trkpt lat="45.23813" lon="5.11058">
        <ele>499.061523</ele>
        <time>2019-05-28T12:59:27Z</time>
      </trkpt>
      <trkpt lat="45.23802" lon="5.11052">
        <ele>498.580933</ele>
        <time>2019-05-28T12:59:32Z</time>
      </trkpt>
      <trkpt lat="45.23794" lon="5.11048">
        <ele>498.580933</ele>
        <time>2019-05-28T12:59:35Z</time>
      </trkpt>
      <trkpt lat="45.23779" lon="5.11043">
        <ele>498.100342</ele>
        <time>2019-05-28T12:59:41Z</time>
      </trkpt>
      <trkpt lat="45.23738" lon="5.1103">
        <ele>496.177734</ele>
        <time>2019-05-28T12:59:53Z</time>
      </trkpt>
      <trkpt lat="45.23722" lon="5.11033">
        <ele>495.216187</ele>
        <time>2019-05-28T12:59:56Z</time>
      </trkpt>
      <trkpt lat="45.23699" lon="5.11027">
        <ele>495.216187</ele>
        <time>2019-05-28T13:00:02Z</time>
      </trkpt>
      <trkpt lat="45.2369" lon="5.11019">
        <ele>496.658325</ele>
        <time>2019-05-28T13:00:06Z</time>
      </trkpt>
      <trkpt lat="45.23652" lon="5.11001">
        <ele>496.658325</ele>
        <time>2019-05-28T13:00:18Z</time>
      </trkpt>
      <trkpt lat="45.2362" lon="5.10993">
        <ele>496.658325</ele>
        <time>2019-05-28T13:00:28Z</time>
      </trkpt>
      <trkpt lat="45.23579" lon="5.10982">
        <ele>496.177734</ele>
        <time>2019-05-28T13:00:40Z</time>
      </trkpt>
      <trkpt lat="45.23545" lon="5.10981">
        <ele>495.696899</ele>
        <time>2019-05-28T13:00:50Z</time>
      </trkpt>
      <trkpt lat="45.23505" lon="5.10969">
        <ele>495.696899</ele>
        <time>2019-05-28T13:01:01Z</time>
      </trkpt>
      <trkpt lat="45.23474" lon="5.10943">
        <ele>497.138916</ele>
        <time>2019-05-28T13:01:13Z</time>
      </trkpt>
      <trkpt lat="45.23447" lon="5.10924">
        <ele>498.580933</ele>
        <time>2019-05-28T13:01:24Z</time>
      </trkpt>
      <trkpt lat="45.2344" lon="5.10914">
        <ele>499.542236</ele>
        <time>2019-05-28T13:01:29Z</time>
      </trkpt>
      <trkpt lat="45.23438" lon="5.10888">
        <ele>502.426147</ele>
        <time>2019-05-28T13:01:40Z</time>
      </trkpt>
      <trkpt lat="45.23446" lon="5.10857">
        <ele>503.868164</ele>
        <time>2019-05-28T13:01:52Z</time>
      </trkpt>
      <trkpt lat="45.2345" lon="5.10847">
        <ele>504.829468</ele>
        <time>2019-05-28T13:01:57Z</time>
      </trkpt>
      <trkpt lat="45.23449" lon="5.10814">
        <ele>505.790894</ele>
        <time>2019-05-28T13:02:07Z</time>
      </trkpt>
      <trkpt lat="45.23449" lon="5.108">
        <ele>506.271484</ele>
        <time>2019-05-28T13:02:11Z</time>
      </trkpt>
      <trkpt lat="45.23458" lon="5.10777">
        <ele>506.752075</ele>
        <time>2019-05-28T13:02:19Z</time>
      </trkpt>
      <trkpt lat="45.23492" lon="5.10761">
        <ele>507.713501</ele>
        <time>2019-05-28T13:02:33Z</time>
      </trkpt>
      <trkpt lat="45.23536" lon="5.10752">
        <ele>507.713501</ele>
        <time>2019-05-28T13:02:46Z</time>
      </trkpt>
      <trkpt lat="45.23552" lon="5.10734">
        <ele>506.752075</ele>
        <time>2019-05-28T13:02:52Z</time>
      </trkpt>
      <trkpt lat="45.23566" lon="5.10699">
        <ele>506.271484</ele>
        <time>2019-05-28T13:03:01Z</time>
      </trkpt>
      <trkpt lat="45.23589" lon="5.10674">
        <ele>505.790894</ele>
        <time>2019-05-28T13:03:13Z</time>
      </trkpt>
      <trkpt lat="45.23603" lon="5.10663">
        <ele>505.310181</ele>
        <time>2019-05-28T13:03:46Z</time>
      </trkpt>
      <trkpt lat="45.23615" lon="5.10658">
        <ele>505.310181</ele>
        <time>2019-05-28T13:03:49Z</time>
      </trkpt>
      <trkpt lat="45.2365" lon="5.10653">
        <ele>503.868164</ele>
        <time>2019-05-28T13:03:57Z</time>
      </trkpt>
      <trkpt lat="45.23685" lon="5.10662">
        <ele>501.945557</ele>
        <time>2019-05-28T13:04:05Z</time>
      </trkpt>
      <trkpt lat="45.23706" lon="5.1065">
        <ele>502.426147</ele>
        <time>2019-05-28T13:04:10Z</time>
      </trkpt>
      <trkpt lat="45.23738" lon="5.106">
        <ele>505.790894</ele>
        <time>2019-05-28T13:04:26Z</time>
      </trkpt>
      <trkpt lat="45.23765" lon="5.10552">
        <ele>507.713501</ele>
        <time>2019-05-28T13:04:39Z</time>
      </trkpt>
      <trkpt lat="45.23773" lon="5.10538">
        <ele>506.752075</ele>
        <time>2019-05-28T13:04:42Z</time>
      </trkpt>
      <trkpt lat="45.23783" lon="5.10524">
        <ele>506.271484</ele>
        <time>2019-05-28T13:04:45Z</time>
      </trkpt>
      <trkpt lat="45.23794" lon="5.10503">
        <ele>505.790894</ele>
        <time>2019-05-28T13:04:49Z</time>
      </trkpt>
      <trkpt lat="45.23816" lon="5.10436">
        <ele>504.348877</ele>
        <time>2019-05-28T13:05:00Z</time>
      </trkpt>
      <trkpt lat="45.23822" lon="5.10405">
        <ele>504.348877</ele>
        <time>2019-05-28T13:05:05Z</time>
      </trkpt>
      <trkpt lat="45.23827" lon="5.10311">
        <ele>506.752075</ele>
        <time>2019-05-28T13:05:21Z</time>
      </trkpt>
      <trkpt lat="45.23827" lon="5.10304">
        <ele>506.271484</ele>
        <time>2019-05-28T13:05:22Z</time>
      </trkpt>
      <trkpt lat="45.23826" lon="5.10284">
        <ele>506.271484</ele>
        <time>2019-05-28T13:05:25Z</time>
      </trkpt>
      <trkpt lat="45.23827" lon="5.10208">
        <ele>505.790894</ele>
        <time>2019-05-28T13:05:36Z</time>
      </trkpt>
      <trkpt lat="45.23833" lon="5.10172">
        <ele>505.790894</ele>
        <time>2019-05-28T13:05:42Z</time>
      </trkpt>
      <trkpt lat="45.23834" lon="5.10151">
        <ele>505.790894</ele>
        <time>2019-05-28T13:05:45Z</time>
      </trkpt>
      <trkpt lat="45.23833" lon="5.10131">
        <ele>505.790894</ele>
        <time>2019-05-28T13:05:48Z</time>
      </trkpt>
      <trkpt lat="45.23815" lon="5.10076">
        <ele>506.752075</ele>
        <time>2019-05-28T13:06:00Z</time>
      </trkpt>
      <trkpt lat="45.23805" lon="5.1004">
        <ele>507.232788</ele>
        <time>2019-05-28T13:06:09Z</time>
      </trkpt>
      <trkpt lat="45.2379" lon="5.09994">
        <ele>507.232788</ele>
        <time>2019-05-28T13:06:18Z</time>
      </trkpt>
      <trkpt lat="45.23773" lon="5.09951">
        <ele>506.752075</ele>
        <time>2019-05-28T13:06:26Z</time>
      </trkpt>
      <trkpt lat="45.23726" lon="5.09868">
        <ele>507.713501</ele>
        <time>2019-05-28T13:06:42Z</time>
      </trkpt>
      <trkpt lat="45.23723" lon="5.09858">
        <ele>508.194092</ele>
        <time>2019-05-28T13:06:44Z</time>
      </trkpt>
      <trkpt lat="45.23709" lon="5.09803">
        <ele>509.636108</ele>
        <time>2019-05-28T13:06:54Z</time>
      </trkpt>
      <trkpt lat="45.23699" lon="5.0975">
        <ele>509.155396</ele>
        <time>2019-05-28T13:07:05Z</time>
      </trkpt>
      <trkpt lat="45.23691" lon="5.09711">
        <ele>507.713501</ele>
        <time>2019-05-28T13:07:11Z</time>
      </trkpt>
      <trkpt lat="45.23687" lon="5.09686">
        <ele>506.752075</ele>
        <time>2019-05-28T13:07:14Z</time>
      </trkpt>
      <trkpt lat="45.23691" lon="5.09628">
        <ele>506.752075</ele>
        <time>2019-05-28T13:07:22Z</time>
      </trkpt>
      <trkpt lat="45.23679" lon="5.09511">
        <ele>508.674683</ele>
        <time>2019-05-28T13:07:38Z</time>
      </trkpt>
      <trkpt lat="45.23685" lon="5.09485">
        <ele>508.674683</ele>
        <time>2019-05-28T13:07:44Z</time>
      </trkpt>
      <trkpt lat="45.23737" lon="5.09443">
        <ele>507.713501</ele>
        <time>2019-05-28T13:07:59Z</time>
      </trkpt>
      <trkpt lat="45.23773" lon="5.09424">
        <ele>506.752075</ele>
        <time>2019-05-28T13:08:08Z</time>
      </trkpt>
      <trkpt lat="45.23839" lon="5.09422">
        <ele>503.868164</ele>
        <time>2019-05-28T13:08:23Z</time>
      </trkpt>
      <trkpt lat="45.2389" lon="5.09414">
        <ele>501.464844</ele>
        <time>2019-05-28T13:08:38Z</time>
      </trkpt>
      <trkpt lat="45.2391" lon="5.09407">
        <ele>500.50354</ele>
        <time>2019-05-28T13:08:44Z</time>
      </trkpt>
      <trkpt lat="45.23934" lon="5.09392">
        <ele>499.061523</ele>
        <time>2019-05-28T13:08:51Z</time>
      </trkpt>
      <trkpt lat="45.23956" lon="5.09402">
        <ele>498.580933</ele>
        <time>2019-05-28T13:08:56Z</time>
      </trkpt>
      <trkpt lat="45.23975" lon="5.09421">
        <ele>499.061523</ele>
        <time>2019-05-28T13:09:01Z</time>
      </trkpt>
      <trkpt lat="45.23983" lon="5.09404">
        <ele>498.100342</ele>
        <time>2019-05-28T13:09:07Z</time>
      </trkpt>
      <trkpt lat="45.23978" lon="5.09388">
        <ele>497.619629</ele>
        <time>2019-05-28T13:09:10Z</time>
      </trkpt>
      <trkpt lat="45.23965" lon="5.09363">
        <ele>496.658325</ele>
        <time>2019-05-28T13:09:17Z</time>
      </trkpt>
      <trkpt lat="45.23964" lon="5.09353">
        <ele>496.658325</ele>
        <time>2019-05-28T13:09:22Z</time>
      </trkpt>
      <trkpt lat="45.23963" lon="5.09343">
        <ele>495.696899</ele>
        <time>2019-05-28T13:09:28Z</time>
      </trkpt>
      <trkpt lat="45.23961" lon="5.09336">
        <ele>496.177734</ele>
        <time>2019-05-28T13:09:40Z</time>
      </trkpt>
      <trkpt lat="45.23963" lon="5.09326">
        <ele>495.696899</ele>
        <time>2019-05-28T13:09:45Z</time>
      </trkpt>
      <trkpt lat="45.23964" lon="5.09307">
        <ele>496.177734</ele>
        <time>2019-05-28T13:09:54Z</time>
      </trkpt>
      <trkpt lat="45.23964" lon="5.09303">
        <ele>496.658325</ele>
        <time>2019-05-28T13:09:55Z</time>
      </trkpt>
      <trkpt lat="45.23963" lon="5.0928">
        <ele>496.658325</ele>
        <time>2019-05-28T13:10:06Z</time>
      </trkpt>
      <trkpt lat="45.23965" lon="5.09276">
        <ele>496.658325</ele>
        <time>2019-05-28T13:10:09Z</time>
      </trkpt>
      <trkpt lat="45.23967" lon="5.09267">
        <ele>497.138916</ele>
        <time>2019-05-28T13:10:26Z</time>
      </trkpt>
      <trkpt lat="45.23969" lon="5.09252">
        <ele>497.138916</ele>
        <time>2019-05-28T13:10:33Z</time>
      </trkpt>
      <trkpt lat="45.23976" lon="5.09244">
        <ele>497.138916</ele>
        <time>2019-05-28T13:10:37Z</time>
      </trkpt>
      <trkpt lat="45.23977" lon="5.09237">
        <ele>496.658325</ele>
        <time>2019-05-28T13:10:40Z</time>
      </trkpt>
      <trkpt lat="45.23981" lon="5.09223">
        <ele>497.138916</ele>
        <time>2019-05-28T13:10:47Z</time>
      </trkpt>
      <trkpt lat="45.24002" lon="5.09224">
        <ele>497.138916</ele>
        <time>2019-05-28T13:10:57Z</time>
      </trkpt>
      <trkpt lat="45.24012" lon="5.09231">
        <ele>497.138916</ele>
        <time>2019-05-28T13:11:01Z</time>
      </trkpt>
      <trkpt lat="45.24024" lon="5.09237">
        <ele>497.138916</ele>
        <time>2019-05-28T13:11:11Z</time>
      </trkpt>
      <trkpt lat="45.24028" lon="5.09235">
        <ele>497.138916</ele>
        <time>2019-05-28T13:11:14Z</time>
      </trkpt>
      <trkpt lat="45.24038" lon="5.09237">
        <ele>497.138916</ele>
        <time>2019-05-28T13:11:18Z</time>
      </trkpt>
      <trkpt lat="45.24079" lon="5.0924">
        <ele>496.658325</ele>
        <time>2019-05-28T13:11:33Z</time>
      </trkpt>
      <trkpt lat="45.24104" lon="5.09237">
        <ele>496.177734</ele>
        <time>2019-05-28T13:11:44Z</time>
      </trkpt>
      <trkpt lat="45.24116" lon="5.0923">
        <ele>496.177734</ele>
        <time>2019-05-28T13:11:49Z</time>
      </trkpt>
      <trkpt lat="45.24128" lon="5.09224">
        <ele>496.177734</ele>
        <time>2019-05-28T13:11:57Z</time>
      </trkpt>
      <trkpt lat="45.24137" lon="5.09214">
        <ele>495.696899</ele>
        <time>2019-05-28T13:12:07Z</time>
      </trkpt>
      <trkpt lat="45.24146" lon="5.09214">
        <ele>496.177734</ele>
        <time>2019-05-28T13:12:17Z</time>
      </trkpt>
      <trkpt lat="45.24151" lon="5.09215">
        <ele>496.177734</ele>
        <time>2019-05-28T13:12:31Z</time>
      </trkpt>
      <trkpt lat="45.24151" lon="5.09215">
        <ele>496.177734</ele>
        <time>2019-05-28T13:12:39Z</time>
      </trkpt>
      <trkpt lat="45.24158" lon="5.09206">
        <ele>496.658325</ele>
        <time>2019-05-28T13:12:46Z</time>
      </trkpt>
      <trkpt lat="45.24171" lon="5.09198">
        <ele>495.696899</ele>
        <time>2019-05-28T13:12:53Z</time>
      </trkpt>
      <trkpt lat="45.24174" lon="5.09199">
        <ele>496.177734</ele>
        <time>2019-05-28T13:12:55Z</time>
      </trkpt>
      <trkpt lat="45.24178" lon="5.09197">
        <ele>496.177734</ele>
        <time>2019-05-28T13:12:59Z</time>
      </trkpt>
      <trkpt lat="45.24183" lon="5.09191">
        <ele>495.696899</ele>
        <time>2019-05-28T13:13:11Z</time>
      </trkpt>
      <trkpt lat="45.24208" lon="5.09181">
        <ele>495.216187</ele>
        <time>2019-05-28T13:13:25Z</time>
      </trkpt>
      <trkpt lat="45.2423" lon="5.09164">
        <ele>494.255005</ele>
        <time>2019-05-28T13:13:38Z</time>
      </trkpt>
      <trkpt lat="45.24255" lon="5.09147">
        <ele>493.293579</ele>
        <time>2019-05-28T13:13:47Z</time>
      </trkpt>
      <trkpt lat="45.24283" lon="5.09116">
        <ele>491.851685</ele>
        <time>2019-05-28T13:13:57Z</time>
      </trkpt>
      <trkpt lat="45.24309" lon="5.09077">
        <ele>489.448364</ele>
        <time>2019-05-28T13:14:06Z</time>
      </trkpt>
      <trkpt lat="45.24317" lon="5.09056">
        <ele>488.967773</ele>
        <time>2019-05-28T13:14:10Z</time>
      </trkpt>
      <trkpt lat="45.24317" lon="5.09028">
        <ele>488.967773</ele>
        <time>2019-05-28T13:14:15Z</time>
      </trkpt>
      <trkpt lat="45.24305" lon="5.08982">
        <ele>490.40979</ele>
        <time>2019-05-28T13:14:26Z</time>
      </trkpt>
      <trkpt lat="45.24303" lon="5.08972">
        <ele>490.40979</ele>
        <time>2019-05-28T13:14:29Z</time>
      </trkpt>
      <trkpt lat="45.24285" lon="5.08924">
        <ele>491.851685</ele>
        <time>2019-05-28T13:14:44Z</time>
      </trkpt>
      <trkpt lat="45.24264" lon="5.08877">
        <ele>492.332397</ele>
        <time>2019-05-28T13:14:55Z</time>
      </trkpt>
      <trkpt lat="45.24251" lon="5.0884">
        <ele>492.812988</ele>
        <time>2019-05-28T13:15:07Z</time>
      </trkpt>
      <trkpt lat="45.24239" lon="5.08793">
        <ele>492.812988</ele>
        <time>2019-05-28T13:15:19Z</time>
      </trkpt>
      <trkpt lat="45.24241" lon="5.08734">
        <ele>492.812988</ele>
        <time>2019-05-28T13:15:34Z</time>
      </trkpt>
      <trkpt lat="45.24246" lon="5.08674">
        <ele>492.812988</ele>
        <time>2019-05-28T13:15:49Z</time>
      </trkpt>
      <trkpt lat="45.2426" lon="5.08629">
        <ele>492.812988</ele>
        <time>2019-05-28T13:16:01Z</time>
      </trkpt>
      <trkpt lat="45.24277" lon="5.08581">
        <ele>492.812988</ele>
        <time>2019-05-28T13:16:14Z</time>
      </trkpt>
      <trkpt lat="45.2429" lon="5.08557">
        <ele>493.293579</ele>
        <time>2019-05-28T13:16:27Z</time>
      </trkpt>
      <trkpt lat="45.24306" lon="5.08533">
        <ele>492.332397</ele>
        <time>2019-05-28T13:16:38Z</time>
      </trkpt>
      <trkpt lat="45.24304" lon="5.08508">
        <ele>493.293579</ele>
        <time>2019-05-28T13:16:45Z</time>
      </trkpt>
      <trkpt lat="45.24303" lon="5.08488">
        <ele>494.735596</ele>
        <time>2019-05-28T13:16:54Z</time>
      </trkpt>
      <trkpt lat="45.24301" lon="5.08477">
        <ele>494.735596</ele>
        <time>2019-05-28T13:17:00Z</time>
      </trkpt>
      <trkpt lat="45.24313" lon="5.08435">
        <ele>495.696899</ele>
        <time>2019-05-28T13:17:13Z</time>
      </trkpt>
      <trkpt lat="45.24333" lon="5.08401">
        <ele>495.216187</ele>
        <time>2019-05-28T13:17:21Z</time>
      </trkpt>
      <trkpt lat="45.24339" lon="5.08396">
        <ele>495.216187</ele>
        <time>2019-05-28T13:17:23Z</time>
      </trkpt>
      <trkpt lat="45.24349" lon="5.0839">
        <ele>494.735596</ele>
        <time>2019-05-28T13:17:26Z</time>
      </trkpt>
      <trkpt lat="45.24357" lon="5.0838">
        <ele>494.255005</ele>
        <time>2019-05-28T13:17:29Z</time>
      </trkpt>
      <trkpt lat="45.24393" lon="5.08324">
        <ele>494.735596</ele>
        <time>2019-05-28T13:17:43Z</time>
      </trkpt>
      <trkpt lat="45.24451" lon="5.08278">
        <ele>495.216187</ele>
        <time>2019-05-28T13:18:00Z</time>
      </trkpt>
      <trkpt lat="45.24493" lon="5.08259">
        <ele>494.735596</ele>
        <time>2019-05-28T13:18:12Z</time>
      </trkpt>
      <trkpt lat="45.24497" lon="5.08259">
        <ele>494.255005</ele>
        <time>2019-05-28T13:18:13Z</time>
      </trkpt>
      <trkpt lat="45.24502" lon="5.0825">
        <ele>494.735596</ele>
        <time>2019-05-28T13:18:17Z</time>
      </trkpt>
      <trkpt lat="45.24502" lon="5.08248">
        <ele>494.735596</ele>
        <time>2019-05-28T13:18:19Z</time>
      </trkpt>
      <trkpt lat="45.24495" lon="5.08247">
        <ele>494.735596</ele>
        <time>2019-05-28T13:18:35Z</time>
      </trkpt>
      <trkpt lat="45.24462" lon="5.08244">
        <ele>496.658325</ele>
        <time>2019-05-28T13:18:51Z</time>
      </trkpt>
      <trkpt lat="45.24419" lon="5.08258">
        <ele>497.619629</ele>
        <time>2019-05-28T13:19:05Z</time>
      </trkpt>
      <trkpt lat="45.24369" lon="5.08273">
        <ele>498.100342</ele>
        <time>2019-05-28T13:19:22Z</time>
      </trkpt>
      <trkpt lat="45.24332" lon="5.08281">
        <ele>498.580933</ele>
        <time>2019-05-28T13:19:37Z</time>
      </trkpt>
      <trkpt lat="45.24295" lon="5.08292">
        <ele>499.542236</ele>
        <time>2019-05-28T13:19:52Z</time>
      </trkpt>
      <trkpt lat="45.24287" lon="5.08295">
        <ele>500.022949</ele>
        <time>2019-05-28T13:19:55Z</time>
      </trkpt>
      <trkpt lat="45.24234" lon="5.08294">
        <ele>501.945557</ele>
        <time>2019-05-28T13:20:16Z</time>
      </trkpt>
      <trkpt lat="45.24195" lon="5.08277">
        <ele>502.426147</ele>
        <time>2019-05-28T13:20:31Z</time>
      </trkpt>
      <trkpt lat="45.24153" lon="5.08256">
        <ele>501.464844</ele>
        <time>2019-05-28T13:20:47Z</time>
      </trkpt>
      <trkpt lat="45.2412" lon="5.0824">
        <ele>500.50354</ele>
        <time>2019-05-28T13:20:57Z</time>
      </trkpt>
      <trkpt lat="45.24098" lon="5.08228">
        <ele>499.061523</ele>
        <time>2019-05-28T13:21:05Z</time>
      </trkpt>
      <trkpt lat="45.24082" lon="5.0822">
        <ele>498.580933</ele>
        <time>2019-05-28T13:21:12Z</time>
      </trkpt>
      <trkpt lat="45.2405" lon="5.08204">
        <ele>497.138916</ele>
        <time>2019-05-28T13:21:22Z</time>
      </trkpt>
      <trkpt lat="45.24003" lon="5.08167">
        <ele>494.255005</ele>
        <time>2019-05-28T13:21:34Z</time>
      </trkpt>
      <trkpt lat="45.23979" lon="5.08154">
        <ele>493.774292</ele>
        <time>2019-05-28T13:21:41Z</time>
      </trkpt>
      <trkpt lat="45.23955" lon="5.08127">
        <ele>493.293579</ele>
        <time>2019-05-28T13:21:52Z</time>
      </trkpt>
      <trkpt lat="45.23926" lon="5.08076">
        <ele>493.293579</ele>
        <time>2019-05-28T13:22:05Z</time>
      </trkpt>
      <trkpt lat="45.23888" lon="5.08015">
        <ele>494.255005</ele>
        <time>2019-05-28T13:22:21Z</time>
      </trkpt>
      <trkpt lat="45.23858" lon="5.07961">
        <ele>495.696899</ele>
        <time>2019-05-28T13:22:36Z</time>
      </trkpt>
      <trkpt lat="45.23832" lon="5.07879">
        <ele>496.177734</ele>
        <time>2019-05-28T13:22:53Z</time>
      </trkpt>
      <trkpt lat="45.23811" lon="5.07812">
        <ele>496.177734</ele>
        <time>2019-05-28T13:23:07Z</time>
      </trkpt>
      <trkpt lat="45.23797" lon="5.07755">
        <ele>495.696899</ele>
        <time>2019-05-28T13:23:18Z</time>
      </trkpt>
      <trkpt lat="45.23793" lon="5.07741">
        <ele>495.696899</ele>
        <time>2019-05-28T13:23:21Z</time>
      </trkpt>
      <trkpt lat="45.23771" lon="5.07655">
        <ele>494.255005</ele>
        <time>2019-05-28T13:23:36Z</time>
      </trkpt>
      <trkpt lat="45.23769" lon="5.07621">
        <ele>493.774292</ele>
        <time>2019-05-28T13:23:42Z</time>
      </trkpt>
      <trkpt lat="45.23771" lon="5.07572">
        <ele>492.812988</ele>
        <time>2019-05-28T13:23:50Z</time>
      </trkpt>
      <trkpt lat="45.23778" lon="5.07511">
        <ele>491.370972</ele>
        <time>2019-05-28T13:23:59Z</time>
      </trkpt>
      <trkpt lat="45.23787" lon="5.0745">
        <ele>490.890381</ele>
        <time>2019-05-28T13:24:08Z</time>
      </trkpt>
      <trkpt lat="45.2381" lon="5.07372">
        <ele>490.890381</ele>
        <time>2019-05-28T13:24:21Z</time>
      </trkpt>
      <trkpt lat="45.23836" lon="5.07211">
        <ele>493.293579</ele>
        <time>2019-05-28T13:24:49Z</time>
      </trkpt>
      <trkpt lat="45.23856" lon="5.07062">
        <ele>490.890381</ele>
        <time>2019-05-28T13:25:12Z</time>
      </trkpt>
      <trkpt lat="45.2386" lon="5.07002">
        <ele>489.929077</ele>
        <time>2019-05-28T13:25:20Z</time>
      </trkpt>
      <trkpt lat="45.23869" lon="5.06927">
        <ele>488.00647</ele>
        <time>2019-05-28T13:25:32Z</time>
      </trkpt>
      <trkpt lat="45.23837" lon="5.0692">
        <ele>488.967773</ele>
        <time>2019-05-28T13:25:45Z</time>
      </trkpt>
      <trkpt lat="45.23799" lon="5.06931">
        <ele>490.40979</ele>
        <time>2019-05-28T13:26:02Z</time>
      </trkpt>
      <trkpt lat="45.2376" lon="5.06951">
        <ele>491.370972</ele>
        <time>2019-05-28T13:26:19Z</time>
      </trkpt>
      <trkpt lat="45.23725" lon="5.06968">
        <ele>491.851685</ele>
        <time>2019-05-28T13:26:35Z</time>
      </trkpt>
      <trkpt lat="45.23705" lon="5.06981">
        <ele>491.851685</ele>
        <time>2019-05-28T13:27:15Z</time>
      </trkpt>
      <trkpt lat="45.2369" lon="5.06992">
        <ele>492.332397</ele>
        <time>2019-05-28T13:27:22Z</time>
      </trkpt>
      <trkpt lat="45.23689" lon="5.06995">
        <ele>492.332397</ele>
        <time>2019-05-28T13:27:24Z</time>
      </trkpt>
      <trkpt lat="45.23681" lon="5.07001">
        <ele>491.851685</ele>
        <time>2019-05-28T13:27:28Z</time>
      </trkpt>
      <trkpt lat="45.23677" lon="5.07005">
        <ele>491.851685</ele>
        <time>2019-05-28T13:27:30Z</time>
      </trkpt>
      <trkpt lat="45.23661" lon="5.0701">
        <ele>490.890381</ele>
        <time>2019-05-28T13:27:36Z</time>
      </trkpt>
      <trkpt lat="45.2362" lon="5.07016">
        <ele>488.967773</ele>
        <time>2019-05-28T13:27:47Z</time>
      </trkpt>
      <trkpt lat="45.23591" lon="5.07027">
        <ele>488.00647</ele>
        <time>2019-05-28T13:27:54Z</time>
      </trkpt>
      <trkpt lat="45.2355" lon="5.07045">
        <ele>488.00647</ele>
        <time>2019-05-28T13:28:04Z</time>
      </trkpt>
      <trkpt lat="45.23521" lon="5.07022">
        <ele>488.00647</ele>
        <time>2019-05-28T13:28:14Z</time>
      </trkpt>
      <trkpt lat="45.23487" lon="5.0695">
        <ele>488.487183</ele>
        <time>2019-05-28T13:28:34Z</time>
      </trkpt>
      <trkpt lat="45.23487" lon="5.06937">
        <ele>488.00647</ele>
        <time>2019-05-28T13:28:37Z</time>
      </trkpt>
      <trkpt lat="45.23496" lon="5.06928">
        <ele>488.00647</ele>
        <time>2019-05-28T13:28:41Z</time>
      </trkpt>
      <trkpt lat="45.23507" lon="5.06928">
        <ele>487.525635</ele>
        <time>2019-05-28T13:28:45Z</time>
      </trkpt>
      <trkpt lat="45.23519" lon="5.06912">
        <ele>487.525635</ele>
        <time>2019-05-28T13:28:51Z</time>
      </trkpt>
      <trkpt lat="45.23512" lon="5.0685">
        <ele>487.525635</ele>
        <time>2019-05-28T13:29:07Z</time>
      </trkpt>
      <trkpt lat="45.2351" lon="5.06847">
        <ele>487.045044</ele>
        <time>2019-05-28T13:29:08Z</time>
      </trkpt>
      <trkpt lat="45.23499" lon="5.0684">
        <ele>487.045044</ele>
        <time>2019-05-28T13:29:12Z</time>
      </trkpt>
      <trkpt lat="45.2345" lon="5.06835">
        <ele>488.967773</ele>
        <time>2019-05-28T13:29:30Z</time>
      </trkpt>
      <trkpt lat="45.23416" lon="5.06794">
        <ele>487.525635</ele>
        <time>2019-05-28T13:29:43Z</time>
      </trkpt>
      <trkpt lat="45.2337" lon="5.06757">
        <ele>485.122437</ele>
        <time>2019-05-28T13:29:58Z</time>
      </trkpt>
      <trkpt lat="45.2333" lon="5.06738">
        <ele>484.641846</ele>
        <time>2019-05-28T13:30:13Z</time>
      </trkpt>
      <trkpt lat="45.23298" lon="5.06726">
        <ele>484.161133</ele>
        <time>2019-05-28T13:30:27Z</time>
      </trkpt>
      <trkpt lat="45.23256" lon="5.0671">
        <ele>483.68042</ele>
        <time>2019-05-28T13:30:43Z</time>
      </trkpt>
      <trkpt lat="45.23217" lon="5.06701">
        <ele>483.199829</ele>
        <time>2019-05-28T13:30:57Z</time>
      </trkpt>
      <trkpt lat="45.23182" lon="5.06691">
        <ele>483.199829</ele>
        <time>2019-05-28T13:31:11Z</time>
      </trkpt>
      <trkpt lat="45.23149" lon="5.06676">
        <ele>483.199829</ele>
        <time>2019-05-28T13:31:24Z</time>
      </trkpt>
      <trkpt lat="45.231" lon="5.06664">
        <ele>485.122437</ele>
        <time>2019-05-28T13:31:43Z</time>
      </trkpt>
      <trkpt lat="45.23061" lon="5.0666">
        <ele>484.641846</ele>
        <time>2019-05-28T13:31:56Z</time>
      </trkpt>
      <trkpt lat="45.2305" lon="5.06661">
        <ele>484.641846</ele>
        <time>2019-05-28T13:32:07Z</time>
      </trkpt>
      <trkpt lat="45.23053" lon="5.0666">
        <ele>484.641846</ele>
        <time>2019-05-28T13:32:33Z</time>
      </trkpt>
      <trkpt lat="45.2306" lon="5.06647">
        <ele>483.68042</ele>
        <time>2019-05-28T13:32:45Z</time>
      </trkpt>
      <trkpt lat="45.23065" lon="5.06628">
        <ele>482.719238</ele>
        <time>2019-05-28T13:33:24Z</time>
      </trkpt>
      <trkpt lat="45.23087" lon="5.06574">
        <ele>479.354492</ele>
        <time>2019-05-28T13:33:37Z</time>
      </trkpt>
      <trkpt lat="45.23108" lon="5.06532">
        <ele>477.431885</ele>
        <time>2019-05-28T13:33:50Z</time>
      </trkpt>
      <trkpt lat="45.23109" lon="5.06526">
        <ele>476.951294</ele>
        <time>2019-05-28T13:33:51Z</time>
      </trkpt>
      <trkpt lat="45.23111" lon="5.0651">
        <ele>475.028687</ele>
        <time>2019-05-28T13:33:54Z</time>
      </trkpt>
      <trkpt lat="45.23109" lon="5.06462">
        <ele>471.66394</ele>
        <time>2019-05-28T13:34:03Z</time>
      </trkpt>
      <trkpt lat="45.23109" lon="5.06425">
        <ele>468.780029</ele>
        <time>2019-05-28T13:34:11Z</time>
      </trkpt>
      <trkpt lat="45.2311" lon="5.06401">
        <ele>465.896118</ele>
        <time>2019-05-28T13:34:17Z</time>
      </trkpt>
      <trkpt lat="45.23118" lon="5.06393">
        <ele>465.415527</ele>
        <time>2019-05-28T13:34:21Z</time>
      </trkpt>
      <trkpt lat="45.23146" lon="5.06382">
        <ele>463.492798</ele>
        <time>2019-05-28T13:34:29Z</time>
      </trkpt>
      <trkpt lat="45.23198" lon="5.0638">
        <ele>460.128174</ele>
        <time>2019-05-28T13:34:43Z</time>
      </trkpt>
      <trkpt lat="45.23218" lon="5.06385">
        <ele>458.205566</ele>
        <time>2019-05-28T13:34:48Z</time>
      </trkpt>
      <trkpt lat="45.23236" lon="5.06387">
        <ele>456.282959</ele>
        <time>2019-05-28T13:34:52Z</time>
      </trkpt>
      <trkpt lat="45.23245" lon="5.06386">
        <ele>455.802246</ele>
        <time>2019-05-28T13:34:54Z</time>
      </trkpt>
      <trkpt lat="45.23261" lon="5.06388">
        <ele>454.360229</ele>
        <time>2019-05-28T13:34:58Z</time>
      </trkpt>
      <trkpt lat="45.23273" lon="5.06393">
        <ele>452.437622</ele>
        <time>2019-05-28T13:35:01Z</time>
      </trkpt>
      <trkpt lat="45.23294" lon="5.06402">
        <ele>449.072998</ele>
        <time>2019-05-28T13:35:07Z</time>
      </trkpt>
      <trkpt lat="45.23322" lon="5.06423">
        <ele>446.189087</ele>
        <time>2019-05-28T13:35:13Z</time>
      </trkpt>
      <trkpt lat="45.23345" lon="5.0644">
        <ele>446.189087</ele>
        <time>2019-05-28T13:35:19Z</time>
      </trkpt>
      <trkpt lat="45.23364" lon="5.06448">
        <ele>447.630981</ele>
        <time>2019-05-28T13:35:28Z</time>
      </trkpt>
      <trkpt lat="45.23377" lon="5.0645">
        <ele>450.995605</ele>
        <time>2019-05-28T13:35:40Z</time>
      </trkpt>
      <trkpt lat="45.23384" lon="5.06444">
        <ele>452.437622</ele>
        <time>2019-05-28T13:35:45Z</time>
      </trkpt>
      <trkpt lat="45.2339" lon="5.06434">
        <ele>453.879639</ele>
        <time>2019-05-28T13:35:52Z</time>
      </trkpt>
      <trkpt lat="45.23393" lon="5.06425">
        <ele>455.321533</ele>
        <time>2019-05-28T13:35:58Z</time>
      </trkpt>
      <trkpt lat="45.23393" lon="5.06422">
        <ele>455.802246</ele>
        <time>2019-05-28T13:36:00Z</time>
      </trkpt>
      <trkpt lat="45.23396" lon="5.06408">
        <ele>457.244263</ele>
        <time>2019-05-28T13:36:09Z</time>
      </trkpt>
      <trkpt lat="45.23397" lon="5.06401">
        <ele>457.244263</ele>
        <time>2019-05-28T13:36:13Z</time>
      </trkpt>
      <trkpt lat="45.23401" lon="5.06389">
        <ele>457.724976</ele>
        <time>2019-05-28T13:36:22Z</time>
      </trkpt>
      <trkpt lat="45.23402" lon="5.06382">
        <ele>458.205566</ele>
        <time>2019-05-28T13:36:27Z</time>
      </trkpt>
      <trkpt lat="45.23406" lon="5.06349">
        <ele>460.128174</ele>
        <time>2019-05-28T13:36:50Z</time>
      </trkpt>
      <trkpt lat="45.2341" lon="5.0633">
        <ele>461.089478</ele>
        <time>2019-05-28T13:37:03Z</time>
      </trkpt>
      <trkpt lat="45.23411" lon="5.06325">
        <ele>461.57019</ele>
        <time>2019-05-28T13:37:07Z</time>
      </trkpt>
      <trkpt lat="45.23417" lon="5.06298">
        <ele>462.531372</ele>
        <time>2019-05-28T13:37:25Z</time>
      </trkpt>
      <trkpt lat="45.2342" lon="5.06291">
        <ele>463.492798</ele>
        <time>2019-05-28T13:37:51Z</time>
      </trkpt>
      <trkpt lat="45.23424" lon="5.06272">
        <ele>465.415527</ele>
        <time>2019-05-28T13:37:59Z</time>
      </trkpt>
      <trkpt lat="45.23435" lon="5.06254">
        <ele>468.780029</ele>
        <time>2019-05-28T13:38:11Z</time>
      </trkpt>
      <trkpt lat="45.2345" lon="5.0623">
        <ele>471.66394</ele>
        <time>2019-05-28T13:38:28Z</time>
      </trkpt>
      <trkpt lat="45.23453" lon="5.06226">
        <ele>472.144653</ele>
        <time>2019-05-28T13:38:33Z</time>
      </trkpt>
      <trkpt lat="45.23462" lon="5.06218">
        <ele>473.58667</ele>
        <time>2019-05-28T13:38:42Z</time>
      </trkpt>
      <trkpt lat="45.23466" lon="5.06215">
        <ele>474.547974</ele>
        <time>2019-05-28T13:38:47Z</time>
      </trkpt>
      <trkpt lat="45.23469" lon="5.06211">
        <ele>475.028687</ele>
        <time>2019-05-28T13:38:50Z</time>
      </trkpt>
      <trkpt lat="45.23495" lon="5.06172">
        <ele>476.951294</ele>
        <time>2019-05-28T13:39:12Z</time>
      </trkpt>
      <trkpt lat="45.23509" lon="5.06134">
        <ele>476.951294</ele>
        <time>2019-05-28T13:39:27Z</time>
      </trkpt>
      <trkpt lat="45.23511" lon="5.06121">
        <ele>477.431885</ele>
        <time>2019-05-28T13:39:33Z</time>
      </trkpt>
      <trkpt lat="45.2351" lon="5.06116">
        <ele>477.431885</ele>
        <time>2019-05-28T13:39:36Z</time>
      </trkpt>
      <trkpt lat="45.23511" lon="5.06114">
        <ele>477.431885</ele>
        <time>2019-05-28T13:39:38Z</time>
      </trkpt>
      <trkpt lat="45.23517" lon="5.06099">
        <ele>476.951294</ele>
        <time>2019-05-28T13:39:57Z</time>
      </trkpt>
      <trkpt lat="45.23517" lon="5.06098">
        <ele>477.431885</ele>
        <time>2019-05-28T13:40:15Z</time>
      </trkpt>
      <trkpt lat="45.23513" lon="5.06077">
        <ele>476.951294</ele>
        <time>2019-05-28T13:40:21Z</time>
      </trkpt>
      <trkpt lat="45.23501" lon="5.06038">
        <ele>476.470581</ele>
        <time>2019-05-28T13:40:30Z</time>
      </trkpt>
      <trkpt lat="45.23488" lon="5.05985">
        <ele>475.509277</ele>
        <time>2019-05-28T13:40:39Z</time>
      </trkpt>
      <trkpt lat="45.23486" lon="5.05972">
        <ele>475.028687</ele>
        <time>2019-05-28T13:40:41Z</time>
      </trkpt>
      <trkpt lat="45.23463" lon="5.05859">
        <ele>473.106079</ele>
        <time>2019-05-28T13:40:56Z</time>
      </trkpt>
      <trkpt lat="45.23456" lon="5.05837">
        <ele>472.625366</ele>
        <time>2019-05-28T13:40:59Z</time>
      </trkpt>
      <trkpt lat="45.23453" lon="5.05816">
        <ele>472.144653</ele>
        <time>2019-05-28T13:41:02Z</time>
      </trkpt>
      <trkpt lat="45.23449" lon="5.05802">
        <ele>472.144653</ele>
        <time>2019-05-28T13:41:04Z</time>
      </trkpt>
      <trkpt lat="45.2341" lon="5.05701">
        <ele>472.144653</ele>
        <time>2019-05-28T13:41:20Z</time>
      </trkpt>
      <trkpt lat="45.23374" lon="5.05611">
        <ele>471.66394</ele>
        <time>2019-05-28T13:41:35Z</time>
      </trkpt>
      <trkpt lat="45.23361" lon="5.0559">
        <ele>471.66394</ele>
        <time>2019-05-28T13:41:39Z</time>
      </trkpt>
      <trkpt lat="45.23344" lon="5.05572">
        <ele>471.18335</ele>
        <time>2019-05-28T13:41:43Z</time>
      </trkpt>
      <trkpt lat="45.23306" lon="5.05546">
        <ele>471.66394</ele>
        <time>2019-05-28T13:41:51Z</time>
      </trkpt>
      <trkpt lat="45.23295" lon="5.0553">
        <ele>471.66394</ele>
        <time>2019-05-28T13:41:55Z</time>
      </trkpt>
      <trkpt lat="45.2328" lon="5.05527">
        <ele>471.18335</ele>
        <time>2019-05-28T13:41:59Z</time>
      </trkpt>
      <trkpt lat="45.23247" lon="5.05551">
        <ele>471.18335</ele>
        <time>2019-05-28T13:42:07Z</time>
      </trkpt>
      <trkpt lat="45.23233" lon="5.05556">
        <ele>471.18335</ele>
        <time>2019-05-28T13:42:10Z</time>
      </trkpt>
      <trkpt lat="45.23213" lon="5.05568">
        <ele>470.702637</ele>
        <time>2019-05-28T13:42:16Z</time>
      </trkpt>
      <trkpt lat="45.23173" lon="5.05565">
        <ele>470.702637</ele>
        <time>2019-05-28T13:42:27Z</time>
      </trkpt>
      <trkpt lat="45.23161" lon="5.05559">
        <ele>471.18335</ele>
        <time>2019-05-28T13:42:30Z</time>
      </trkpt>
      <trkpt lat="45.23095" lon="5.05508">
        <ele>474.067261</ele>
        <time>2019-05-28T13:42:46Z</time>
      </trkpt>
      <trkpt lat="45.23068" lon="5.05467">
        <ele>475.989868</ele>
        <time>2019-05-28T13:42:59Z</time>
      </trkpt>
      <trkpt lat="45.23057" lon="5.05455">
        <ele>476.470581</ele>
        <time>2019-05-28T13:43:14Z</time>
      </trkpt>
      <trkpt lat="45.23058" lon="5.05454">
        <ele>476.470581</ele>
        <time>2019-05-28T13:44:29Z</time>
      </trkpt>
      <trkpt lat="45.23051" lon="5.05436">
        <ele>477.431885</ele>
        <time>2019-05-28T13:44:44Z</time>
      </trkpt>
      <trkpt lat="45.23042" lon="5.05405">
        <ele>478.393188</ele>
        <time>2019-05-28T13:45:21Z</time>
      </trkpt>
      <trkpt lat="45.23033" lon="5.05337">
        <ele>477.912476</ele>
        <time>2019-05-28T13:45:36Z</time>
      </trkpt>
      <trkpt lat="45.23019" lon="5.05291">
        <ele>476.470581</ele>
        <time>2019-05-28T13:45:49Z</time>
      </trkpt>
      <trkpt lat="45.23007" lon="5.05242">
        <ele>475.989868</ele>
        <time>2019-05-28T13:45:59Z</time>
      </trkpt>
      <trkpt lat="45.23004" lon="5.05224">
        <ele>475.509277</ele>
        <time>2019-05-28T13:46:02Z</time>
      </trkpt>
      <trkpt lat="45.22996" lon="5.05196">
        <ele>475.989868</ele>
        <time>2019-05-28T13:46:07Z</time>
      </trkpt>
      <trkpt lat="45.2297" lon="5.05138">
        <ele>477.912476</ele>
        <time>2019-05-28T13:46:20Z</time>
      </trkpt>
      <trkpt lat="45.22937" lon="5.05064">
        <ele>478.873901</ele>
        <time>2019-05-28T13:46:37Z</time>
      </trkpt>
      <trkpt lat="45.22912" lon="5.05029">
        <ele>479.835083</ele>
        <time>2019-05-28T13:46:47Z</time>
      </trkpt>
      <trkpt lat="45.2285" lon="5.0498">
        <ele>480.796631</ele>
        <time>2019-05-28T13:47:05Z</time>
      </trkpt>
      <trkpt lat="45.22838" lon="5.04972">
        <ele>480.796631</ele>
        <time>2019-05-28T13:47:08Z</time>
      </trkpt>
      <trkpt lat="45.22823" lon="5.04963">
        <ele>481.277222</ele>
        <time>2019-05-28T13:47:12Z</time>
      </trkpt>
      <trkpt lat="45.22808" lon="5.04951">
        <ele>481.277222</ele>
        <time>2019-05-28T13:47:16Z</time>
      </trkpt>
      <trkpt lat="45.22755" lon="5.04927">
        <ele>481.757812</ele>
        <time>2019-05-28T13:47:29Z</time>
      </trkpt>
      <trkpt lat="45.22702" lon="5.04896">
        <ele>483.68042</ele>
        <time>2019-05-28T13:47:45Z</time>
      </trkpt>
      <trkpt lat="45.22653" lon="5.0487">
        <ele>485.603027</ele>
        <time>2019-05-28T13:48:01Z</time>
      </trkpt>
      <trkpt lat="45.22592" lon="5.04849">
        <ele>487.045044</ele>
        <time>2019-05-28T13:48:18Z</time>
      </trkpt>
      <trkpt lat="45.22559" lon="5.04828">
        <ele>487.525635</ele>
        <time>2019-05-28T13:48:27Z</time>
      </trkpt>
      <trkpt lat="45.22514" lon="5.04811">
        <ele>488.00647</ele>
        <time>2019-05-28T13:48:42Z</time>
      </trkpt>
      <trkpt lat="45.22512" lon="5.04809">
        <ele>488.00647</ele>
        <time>2019-05-28T13:48:43Z</time>
      </trkpt>
      <trkpt lat="45.22509" lon="5.04805">
        <ele>488.00647</ele>
        <time>2019-05-28T13:48:57Z</time>
      </trkpt>
      <trkpt lat="45.22509" lon="5.04805">
        <ele>488.487183</ele>
        <time>2019-05-28T13:49:57Z</time>
      </trkpt>
      <trkpt lat="45.22511" lon="5.04798">
        <ele>488.487183</ele>
        <time>2019-05-28T13:50:01Z</time>
      </trkpt>
      <trkpt lat="45.22521" lon="5.04792">
        <ele>488.00647</ele>
        <time>2019-05-28T13:50:14Z</time>
      </trkpt>
      <trkpt lat="45.22526" lon="5.04792">
        <ele>488.00647</ele>
        <time>2019-05-28T13:50:24Z</time>
      </trkpt>
      <trkpt lat="45.22509" lon="5.048">
        <ele>488.487183</ele>
        <time>2019-05-28T13:50:38Z</time>
      </trkpt>
      <trkpt lat="45.22512" lon="5.04798">
        <ele>488.487183</ele>
        <time>2019-05-28T13:50:57Z</time>
      </trkpt>
      <trkpt lat="45.22539" lon="5.04787">
        <ele>487.045044</ele>
        <time>2019-05-28T13:51:09Z</time>
      </trkpt>
      <trkpt lat="45.22572" lon="5.04781">
        <ele>483.68042</ele>
        <time>2019-05-28T13:51:18Z</time>
      </trkpt>
      <trkpt lat="45.22586" lon="5.04773">
        <ele>481.757812</ele>
        <time>2019-05-28T13:51:22Z</time>
      </trkpt>
      <trkpt lat="45.22603" lon="5.04763">
        <ele>478.873901</ele>
        <time>2019-05-28T13:51:27Z</time>
      </trkpt>
      <trkpt lat="45.22622" lon="5.04756">
        <ele>475.509277</ele>
        <time>2019-05-28T13:51:33Z</time>
      </trkpt>
      <trkpt lat="45.22638" lon="5.04752">
        <ele>472.625366</ele>
        <time>2019-05-28T13:51:38Z</time>
      </trkpt>
      <trkpt lat="45.22652" lon="5.04744">
        <ele>469.741333</ele>
        <time>2019-05-28T13:51:43Z</time>
      </trkpt>
      <trkpt lat="45.22656" lon="5.04742">
        <ele>469.260742</ele>
        <time>2019-05-28T13:51:44Z</time>
      </trkpt>
      <trkpt lat="45.22673" lon="5.04739">
        <ele>467.338135</ele>
        <time>2019-05-28T13:51:47Z</time>
      </trkpt>
      <trkpt lat="45.22721" lon="5.04733">
        <ele>464.454102</ele>
        <time>2019-05-28T13:51:56Z</time>
      </trkpt>
      <trkpt lat="45.22733" lon="5.04737">
        <ele>463.492798</ele>
        <time>2019-05-28T13:51:59Z</time>
      </trkpt>
      <trkpt lat="45.22753" lon="5.04735">
        <ele>461.089478</ele>
        <time>2019-05-28T13:52:03Z</time>
      </trkpt>
      <trkpt lat="45.22768" lon="5.04733">
        <ele>460.128174</ele>
        <time>2019-05-28T13:52:15Z</time>
      </trkpt>
      <trkpt lat="45.22776" lon="5.04733">
        <ele>459.16687</ele>
        <time>2019-05-28T13:53:42Z</time>
      </trkpt>
      <trkpt lat="45.228" lon="5.04731">
        <ele>456.76355</ele>
        <time>2019-05-28T13:54:04Z</time>
      </trkpt>
      <trkpt lat="45.22812" lon="5.04727">
        <ele>455.321533</ele>
        <time>2019-05-28T13:54:07Z</time>
      </trkpt>
      <trkpt lat="45.22827" lon="5.04725">
        <ele>453.879639</ele>
        <time>2019-05-28T13:54:10Z</time>
      </trkpt>
      <trkpt lat="45.22868" lon="5.04718">
        <ele>450.515015</ele>
        <time>2019-05-28T13:54:18Z</time>
      </trkpt>
      <trkpt lat="45.22897" lon="5.04713">
        <ele>448.592407</ele>
        <time>2019-05-28T13:54:24Z</time>
      </trkpt>
      <trkpt lat="45.22915" lon="5.04711">
        <ele>446.669678</ele>
        <time>2019-05-28T13:54:28Z</time>
      </trkpt>
      <trkpt lat="45.22928" lon="5.04712">
        <ele>445.227661</ele>
        <time>2019-05-28T13:54:31Z</time>
      </trkpt>
      <trkpt lat="45.22936" lon="5.0471">
        <ele>444.266479</ele>
        <time>2019-05-28T13:54:33Z</time>
      </trkpt>
      <trkpt lat="45.22944" lon="5.04706">
        <ele>443.305054</ele>
        <time>2019-05-28T13:54:35Z</time>
      </trkpt>
      <trkpt lat="45.22971" lon="5.04698">
        <ele>439.459717</ele>
        <time>2019-05-28T13:54:41Z</time>
      </trkpt>
      <trkpt lat="45.22976" lon="5.04697">
        <ele>438.498535</ele>
        <time>2019-05-28T13:54:42Z</time>
      </trkpt>
      <trkpt lat="45.23" lon="5.0469">
        <ele>434.65332</ele>
        <time>2019-05-28T13:54:48Z</time>
      </trkpt>
      <trkpt lat="45.23022" lon="5.04682">
        <ele>431.288574</ele>
        <time>2019-05-28T13:54:53Z</time>
      </trkpt>
      <trkpt lat="45.23056" lon="5.04671">
        <ele>428.404663</ele>
        <time>2019-05-28T13:55:00Z</time>
      </trkpt>
      <trkpt lat="45.23111" lon="5.04672">
        <ele>426.482056</ele>
        <time>2019-05-28T13:55:10Z</time>
      </trkpt>
      <trkpt lat="45.23131" lon="5.04672">
        <ele>426.482056</ele>
        <time>2019-05-28T13:55:14Z</time>
      </trkpt>
      <trkpt lat="45.23178" lon="5.04669">
        <ele>428.404663</ele>
        <time>2019-05-28T13:55:28Z</time>
      </trkpt>
      <trkpt lat="45.23228" lon="5.04676">
        <ele>426.482056</ele>
        <time>2019-05-28T13:55:42Z</time>
      </trkpt>
      <trkpt lat="45.23279" lon="5.04675">
        <ele>424.559448</ele>
        <time>2019-05-28T13:55:59Z</time>
      </trkpt>
      <trkpt lat="45.2333" lon="5.04667">
        <ele>422.636719</ele>
        <time>2019-05-28T13:56:12Z</time>
      </trkpt>
      <trkpt lat="45.23364" lon="5.04659">
        <ele>420.233398</ele>
        <time>2019-05-28T13:56:19Z</time>
      </trkpt>
      <trkpt lat="45.23426" lon="5.04648">
        <ele>416.868896</ele>
        <time>2019-05-28T13:56:32Z</time>
      </trkpt>
      <trkpt lat="45.23431" lon="5.04647">
        <ele>415.907471</ele>
        <time>2019-05-28T13:56:33Z</time>
      </trkpt>
      <trkpt lat="45.2346" lon="5.0464">
        <ele>412.542847</ele>
        <time>2019-05-28T13:56:41Z</time>
      </trkpt>
      <trkpt lat="45.23478" lon="5.04641">
        <ele>409.659058</ele>
        <time>2019-05-28T13:56:46Z</time>
      </trkpt>
      <trkpt lat="45.23486" lon="5.04643">
        <ele>408.217041</ele>
        <time>2019-05-28T13:56:48Z</time>
      </trkpt>
      <trkpt lat="45.23506" lon="5.04652">
        <ele>404.371704</ele>
        <time>2019-05-28T13:56:53Z</time>
      </trkpt>
      <trkpt lat="45.2351" lon="5.04654">
        <ele>403.4104</ele>
        <time>2019-05-28T13:56:54Z</time>
      </trkpt>
      <trkpt lat="45.23519" lon="5.04655">
        <ele>402.929688</ele>
        <time>2019-05-28T13:56:56Z</time>
      </trkpt>
      <trkpt lat="45.23558" lon="5.04658">
        <ele>399.084351</ele>
        <time>2019-05-28T13:57:03Z</time>
      </trkpt>
      <trkpt lat="45.23641" lon="5.04663">
        <ele>395.719849</ele>
        <time>2019-05-28T13:57:15Z</time>
      </trkpt>
      <trkpt lat="45.23676" lon="5.04663">
        <ele>395.719849</ele>
        <time>2019-05-28T13:57:21Z</time>
      </trkpt>
      <trkpt lat="45.23713" lon="5.04656">
        <ele>396.681152</ele>
        <time>2019-05-28T13:57:30Z</time>
      </trkpt>
      <trkpt lat="45.23718" lon="5.04639">
        <ele>394.758545</ele>
        <time>2019-05-28T13:57:36Z</time>
      </trkpt>
      <trkpt lat="45.23744" lon="5.0461">
        <ele>391.393799</ele>
        <time>2019-05-28T13:57:47Z</time>
      </trkpt>
      <trkpt lat="45.23756" lon="5.04606">
        <ele>389.951904</ele>
        <time>2019-05-28T13:57:51Z</time>
      </trkpt>
      <trkpt lat="45.23756" lon="5.04592">
        <ele>388.990601</ele>
        <time>2019-05-28T13:57:55Z</time>
      </trkpt>
      <trkpt lat="45.23737" lon="5.04559">
        <ele>388.029297</ele>
        <time>2019-05-28T13:58:04Z</time>
      </trkpt>
      <trkpt lat="45.23735" lon="5.04545">
        <ele>387.548584</ele>
        <time>2019-05-28T13:58:10Z</time>
      </trkpt>
      <trkpt lat="45.23736" lon="5.04489">
        <ele>384.184082</ele>
        <time>2019-05-28T13:58:24Z</time>
      </trkpt>
      <trkpt lat="45.23737" lon="5.04473">
        <ele>382.742065</ele>
        <time>2019-05-28T13:58:27Z</time>
      </trkpt>
      <trkpt lat="45.23737" lon="5.0444">
        <ele>379.858032</ele>
        <time>2019-05-28T13:58:33Z</time>
      </trkpt>
      <trkpt lat="45.23738" lon="5.04432">
        <ele>379.377441</ele>
        <time>2019-05-28T13:58:35Z</time>
      </trkpt>
      <trkpt lat="45.23737" lon="5.04405">
        <ele>376.012817</ele>
        <time>2019-05-28T13:58:41Z</time>
      </trkpt>
      <trkpt lat="45.23736" lon="5.04398">
        <ele>376.012817</ele>
        <time>2019-05-28T13:58:42Z</time>
      </trkpt>
      <trkpt lat="45.23729" lon="5.04364">
        <ele>372.648193</ele>
        <time>2019-05-28T13:58:47Z</time>
      </trkpt>
      <trkpt lat="45.23721" lon="5.04329">
        <ele>369.283691</ele>
        <time>2019-05-28T13:58:52Z</time>
      </trkpt>
      <trkpt lat="45.23706" lon="5.04277">
        <ele>365.918945</ele>
        <time>2019-05-28T13:58:59Z</time>
      </trkpt>
      <trkpt lat="45.23697" lon="5.04245">
        <ele>363.515747</ele>
        <time>2019-05-28T13:59:03Z</time>
      </trkpt>
      <trkpt lat="45.23681" lon="5.04212">
        <ele>363.035034</ele>
        <time>2019-05-28T13:59:08Z</time>
      </trkpt>
      <trkpt lat="45.23673" lon="5.04198">
        <ele>365.918945</ele>
        <time>2019-05-28T13:59:12Z</time>
      </trkpt>
      <trkpt lat="45.23661" lon="5.04165">
        <ele>368.802979</ele>
        <time>2019-05-28T13:59:29Z</time>
      </trkpt>
      <trkpt lat="45.23648" lon="5.04136">
        <ele>372.16748</ele>
        <time>2019-05-28T13:59:46Z</time>
      </trkpt>
      <trkpt lat="45.23635" lon="5.04097">
        <ele>375.051514</ele>
        <time>2019-05-28T14:00:08Z</time>
      </trkpt>
      <trkpt lat="45.2363" lon="5.04089">
        <ele>376.012817</ele>
        <time>2019-05-28T14:00:14Z</time>
      </trkpt>
      <trkpt lat="45.23628" lon="5.04077">
        <ele>376.974243</ele>
        <time>2019-05-28T14:00:21Z</time>
      </trkpt>
      <trkpt lat="45.23635" lon="5.04067">
        <ele>376.49353</ele>
        <time>2019-05-28T14:00:36Z</time>
      </trkpt>
      <trkpt lat="45.2365" lon="5.04064">
        <ele>375.532104</ele>
        <time>2019-05-28T14:00:59Z</time>
      </trkpt>
      <trkpt lat="45.23684" lon="5.04054">
        <ele>373.128906</ele>
        <time>2019-05-28T14:01:08Z</time>
      </trkpt>
      <trkpt lat="45.23686" lon="5.04044">
        <ele>374.090088</ele>
        <time>2019-05-28T14:01:13Z</time>
      </trkpt>
      <trkpt lat="45.23665" lon="5.04006">
        <ele>376.49353</ele>
        <time>2019-05-28T14:01:36Z</time>
      </trkpt>
      <trkpt lat="45.23652" lon="5.03975">
        <ele>376.49353</ele>
        <time>2019-05-28T14:01:50Z</time>
      </trkpt>
      <trkpt lat="45.23639" lon="5.03975">
        <ele>377.454834</ele>
        <time>2019-05-28T14:02:01Z</time>
      </trkpt>
      <trkpt lat="45.23621" lon="5.0398">
        <ele>378.896851</ele>
        <time>2019-05-28T14:02:14Z</time>
      </trkpt>
      <trkpt lat="45.23598" lon="5.03983">
        <ele>380.819458</ele>
        <time>2019-05-28T14:02:32Z</time>
      </trkpt>
      <trkpt lat="45.23594" lon="5.03985">
        <ele>380.819458</ele>
        <time>2019-05-28T14:02:35Z</time>
      </trkpt>
      <trkpt lat="45.23586" lon="5.03986">
        <ele>381.78064</ele>
        <time>2019-05-28T14:02:45Z</time>
      </trkpt>
      <trkpt lat="45.23584" lon="5.03985">
        <ele>381.78064</ele>
        <time>2019-05-28T14:02:48Z</time>
      </trkpt>
      <trkpt lat="45.23562" lon="5.03993">
        <ele>384.184082</ele>
        <time>2019-05-28T14:03:08Z</time>
      </trkpt>
      <trkpt lat="45.23537" lon="5.04002">
        <ele>386.587402</ele>
        <time>2019-05-28T14:03:26Z</time>
      </trkpt>
      <trkpt lat="45.23516" lon="5.04008">
        <ele>388.990601</ele>
        <time>2019-05-28T14:03:44Z</time>
      </trkpt>
      <trkpt lat="45.23517" lon="5.04007">
        <ele>388.990601</ele>
        <time>2019-05-28T14:04:45Z</time>
      </trkpt>
      <trkpt lat="45.23516" lon="5.04008">
        <ele>388.990601</ele>
        <time>2019-05-28T14:05:09Z</time>
      </trkpt>
      <trkpt lat="45.23495" lon="5.04012">
        <ele>390.432617</ele>
        <time>2019-05-28T14:05:45Z</time>
      </trkpt>
      <trkpt lat="45.23441" lon="5.04015">
        <ele>393.316528</ele>
        <time>2019-05-28T14:06:09Z</time>
      </trkpt>
      <trkpt lat="45.23404" lon="5.04019">
        <ele>396.681152</ele>
        <time>2019-05-28T14:06:26Z</time>
      </trkpt>
      <trkpt lat="45.2337" lon="5.04032">
        <ele>399.565063</ele>
        <time>2019-05-28T14:06:43Z</time>
      </trkpt>
      <trkpt lat="45.23338" lon="5.04054">
        <ele>402.929688</ele>
        <time>2019-05-28T14:07:03Z</time>
      </trkpt>
      <trkpt lat="45.2331" lon="5.04044">
        <ele>405.813721</ele>
        <time>2019-05-28T14:07:19Z</time>
      </trkpt>
      <trkpt lat="45.23275" lon="5.04035">
        <ele>409.178345</ele>
        <time>2019-05-28T14:07:37Z</time>
      </trkpt>
      <trkpt lat="45.23242" lon="5.04026">
        <ele>412.062256</ele>
        <time>2019-05-28T14:07:55Z</time>
      </trkpt>
      <trkpt lat="45.23218" lon="5.04012">
        <ele>415.42688</ele>
        <time>2019-05-28T14:08:10Z</time>
      </trkpt>
      <trkpt lat="45.23202" lon="5.03998">
        <ele>418.310791</ele>
        <time>2019-05-28T14:08:22Z</time>
      </trkpt>
      <trkpt lat="45.23184" lon="5.03987">
        <ele>421.194824</ele>
        <time>2019-05-28T14:08:34Z</time>
      </trkpt>
      <trkpt lat="45.23163" lon="5.03974">
        <ele>424.559448</ele>
        <time>2019-05-28T14:08:48Z</time>
      </trkpt>
      <trkpt lat="45.23148" lon="5.0397">
        <ele>426.001343</ele>
        <time>2019-05-28T14:08:58Z</time>
      </trkpt>
      <trkpt lat="45.23144" lon="5.03969">
        <ele>426.001343</ele>
        <time>2019-05-28T14:09:01Z</time>
      </trkpt>
      <trkpt lat="45.23139" lon="5.03967">
        <ele>426.482056</ele>
        <time>2019-05-28T14:09:05Z</time>
      </trkpt>
      <trkpt lat="45.2312" lon="5.03962">
        <ele>428.404663</ele>
        <time>2019-05-28T14:09:26Z</time>
      </trkpt>
      <trkpt lat="45.23106" lon="5.0396">
        <ele>430.327271</ele>
        <time>2019-05-28T14:09:38Z</time>
      </trkpt>
      <trkpt lat="45.23103" lon="5.03959">
        <ele>430.807983</ele>
        <time>2019-05-28T14:09:41Z</time>
      </trkpt>
      <trkpt lat="45.23098" lon="5.03959">
        <ele>431.288574</ele>
        <time>2019-05-28T14:09:45Z</time>
      </trkpt>
      <trkpt lat="45.23092" lon="5.03957">
        <ele>431.769165</ele>
        <time>2019-05-28T14:09:50Z</time>
      </trkpt>
      <trkpt lat="45.23094" lon="5.03943">
        <ele>432.25</ele>
        <time>2019-05-28T14:10:02Z</time>
      </trkpt>
      <trkpt lat="45.23094" lon="5.03942">
        <ele>432.25</ele>
        <time>2019-05-28T14:10:03Z</time>
      </trkpt>
      <trkpt lat="45.23104" lon="5.03917">
        <ele>431.769165</ele>
        <time>2019-05-28T14:10:22Z</time>
      </trkpt>
      <trkpt lat="45.23115" lon="5.03874">
        <ele>429.846558</ele>
        <time>2019-05-28T14:10:35Z</time>
      </trkpt>
      <trkpt lat="45.23116" lon="5.03868">
        <ele>429.365967</ele>
        <time>2019-05-28T14:10:36Z</time>
      </trkpt>
      <trkpt lat="45.23118" lon="5.03848">
        <ele>428.404663</ele>
        <time>2019-05-28T14:10:39Z</time>
      </trkpt>
      <trkpt lat="45.23119" lon="5.03797">
        <ele>425.040161</ele>
        <time>2019-05-28T14:10:46Z</time>
      </trkpt>
      <trkpt lat="45.2312" lon="5.03782">
        <ele>423.598022</ele>
        <time>2019-05-28T14:10:48Z</time>
      </trkpt>
      <trkpt lat="45.23121" lon="5.03766">
        <ele>422.156006</ele>
        <time>2019-05-28T14:10:50Z</time>
      </trkpt>
      <trkpt lat="45.23131" lon="5.03703">
        <ele>416.868896</ele>
        <time>2019-05-28T14:10:57Z</time>
      </trkpt>
      <trkpt lat="45.23132" lon="5.03694">
        <ele>415.907471</ele>
        <time>2019-05-28T14:10:58Z</time>
      </trkpt>
      <trkpt lat="45.23145" lon="5.03658">
        <ele>412.542847</ele>
        <time>2019-05-28T14:11:02Z</time>
      </trkpt>
      <trkpt lat="45.23168" lon="5.03623">
        <ele>407.255615</ele>
        <time>2019-05-28T14:11:06Z</time>
      </trkpt>
      <trkpt lat="45.23181" lon="5.03607">
        <ele>403.891113</ele>
        <time>2019-05-28T14:11:08Z</time>
      </trkpt>
      <trkpt lat="45.23193" lon="5.03593">
        <ele>402.449097</ele>
        <time>2019-05-28T14:11:10Z</time>
      </trkpt>
      <trkpt lat="45.23199" lon="5.03575">
        <ele>401.00708</ele>
        <time>2019-05-28T14:11:12Z</time>
      </trkpt>
      <trkpt lat="45.23181" lon="5.03534">
        <ele>401.487793</ele>
        <time>2019-05-28T14:11:18Z</time>
      </trkpt>
      <trkpt lat="45.23159" lon="5.03535">
        <ele>401.00708</ele>
        <time>2019-05-28T14:11:22Z</time>
      </trkpt>
      <trkpt lat="45.23099" lon="5.03571">
        <ele>399.565063</ele>
        <time>2019-05-28T14:11:32Z</time>
      </trkpt>
      <trkpt lat="45.23079" lon="5.03594">
        <ele>397.161743</ele>
        <time>2019-05-28T14:11:36Z</time>
      </trkpt>
      <trkpt lat="45.23065" lon="5.03588">
        <ele>392.835938</ele>
        <time>2019-05-28T14:11:41Z</time>
      </trkpt>
      <trkpt lat="45.23069" lon="5.03525">
        <ele>389.471191</ele>
        <time>2019-05-28T14:11:47Z</time>
      </trkpt>
      <trkpt lat="45.23061" lon="5.03469">
        <ele>383.222656</ele>
        <time>2019-05-28T14:11:51Z</time>
      </trkpt>
      <trkpt lat="45.23055" lon="5.03433">
        <ele>380.338745</ele>
        <time>2019-05-28T14:11:53Z</time>
      </trkpt>
      <trkpt lat="45.23047" lon="5.03394">
        <ele>376.974243</ele>
        <time>2019-05-28T14:11:55Z</time>
      </trkpt>
      <trkpt lat="45.23043" lon="5.03376">
        <ele>376.974243</ele>
        <time>2019-05-28T14:11:56Z</time>
      </trkpt>
      <trkpt lat="45.23015" lon="5.03327">
        <ele>378.416138</ele>
        <time>2019-05-28T14:12:00Z</time>
      </trkpt>
      <trkpt lat="45.22968" lon="5.03293">
        <ele>380.819458</ele>
        <time>2019-05-28T14:12:06Z</time>
      </trkpt>
      <trkpt lat="45.22945" lon="5.03275">
        <ele>384.184082</ele>
        <time>2019-05-28T14:12:11Z</time>
      </trkpt>
      <trkpt lat="45.22931" lon="5.03265">
        <ele>386.587402</ele>
        <time>2019-05-28T14:12:17Z</time>
      </trkpt>
      <trkpt lat="45.22911" lon="5.03248">
        <ele>389.951904</ele>
        <time>2019-05-28T14:12:30Z</time>
      </trkpt>
      <trkpt lat="45.22888" lon="5.0323">
        <ele>392.835938</ele>
        <time>2019-05-28T14:12:47Z</time>
      </trkpt>
      <trkpt lat="45.22868" lon="5.03212">
        <ele>396.200562</ele>
        <time>2019-05-28T14:13:03Z</time>
      </trkpt>
      <trkpt lat="45.22861" lon="5.03204">
        <ele>397.161743</ele>
        <time>2019-05-28T14:13:10Z</time>
      </trkpt>
      <trkpt lat="45.22858" lon="5.03201">
        <ele>398.123169</ele>
        <time>2019-05-28T14:13:13Z</time>
      </trkpt>
      <trkpt lat="45.22843" lon="5.03186">
        <ele>401.00708</ele>
        <time>2019-05-28T14:13:29Z</time>
      </trkpt>
      <trkpt lat="45.22829" lon="5.0317">
        <ele>404.371704</ele>
        <time>2019-05-28T14:13:45Z</time>
      </trkpt>
      <trkpt lat="45.22825" lon="5.03162">
        <ele>404.852295</ele>
        <time>2019-05-28T14:13:51Z</time>
      </trkpt>
      <trkpt lat="45.22819" lon="5.03148">
        <ele>407.255615</ele>
        <time>2019-05-28T14:14:02Z</time>
      </trkpt>
      <trkpt lat="45.22808" lon="5.03121">
        <ele>410.620239</ele>
        <time>2019-05-28T14:14:20Z</time>
      </trkpt>
      <trkpt lat="45.22801" lon="5.03102">
        <ele>413.504272</ele>
        <time>2019-05-28T14:14:32Z</time>
      </trkpt>
      <trkpt lat="45.22795" lon="5.03083">
        <ele>416.868896</ele>
        <time>2019-05-28T14:14:44Z</time>
      </trkpt>
      <trkpt lat="45.22794" lon="5.0308">
        <ele>416.868896</ele>
        <time>2019-05-28T14:14:46Z</time>
      </trkpt>
      <trkpt lat="45.2278" lon="5.03063">
        <ele>420.233398</ele>
        <time>2019-05-28T14:15:01Z</time>
      </trkpt>
      <trkpt lat="45.22761" lon="5.03051">
        <ele>423.117432</ele>
        <time>2019-05-28T14:15:21Z</time>
      </trkpt>
      <trkpt lat="45.2275" lon="5.03041">
        <ele>424.559448</ele>
        <time>2019-05-28T14:15:39Z</time>
      </trkpt>
      <trkpt lat="45.22742" lon="5.03033">
        <ele>426.001343</ele>
        <time>2019-05-28T14:15:58Z</time>
      </trkpt>
      <trkpt lat="45.2273" lon="5.03024">
        <ele>427.443359</ele>
        <time>2019-05-28T14:16:19Z</time>
      </trkpt>
      <trkpt lat="45.22716" lon="5.03015">
        <ele>428.885376</ele>
        <time>2019-05-28T14:16:43Z</time>
      </trkpt>
      <trkpt lat="45.22716" lon="5.03016">
        <ele>429.365967</ele>
        <time>2019-05-28T14:16:45Z</time>
      </trkpt>
      <trkpt lat="45.22723" lon="5.03021">
        <ele>428.404663</ele>
        <time>2019-05-28T14:16:50Z</time>
      </trkpt>
      <trkpt lat="45.22749" lon="5.03036">
        <ele>424.559448</ele>
        <time>2019-05-28T14:17:03Z</time>
      </trkpt>
      <trkpt lat="45.22753" lon="5.03036">
        <ele>424.078735</ele>
        <time>2019-05-28T14:17:08Z</time>
      </trkpt>
      <trkpt lat="45.22752" lon="5.03035">
        <ele>424.078735</ele>
        <time>2019-05-28T14:17:10Z</time>
      </trkpt>
      <trkpt lat="45.22742" lon="5.03031">
        <ele>426.001343</ele>
        <time>2019-05-28T14:17:27Z</time>
      </trkpt>
      <trkpt lat="45.22734" lon="5.03028">
        <ele>426.482056</ele>
        <time>2019-05-28T14:17:40Z</time>
      </trkpt>
      <trkpt lat="45.22728" lon="5.03024">
        <ele>427.443359</ele>
        <time>2019-05-28T14:17:57Z</time>
      </trkpt>
      <trkpt lat="45.22717" lon="5.03015">
        <ele>428.885376</ele>
        <time>2019-05-28T14:18:07Z</time>
      </trkpt>
      <trkpt lat="45.22701" lon="5.03005">
        <ele>430.807983</ele>
        <time>2019-05-28T14:18:19Z</time>
      </trkpt>
      <trkpt lat="45.22675" lon="5.02998">
        <ele>433.691895</ele>
        <time>2019-05-28T14:18:38Z</time>
      </trkpt>
      <trkpt lat="45.22673" lon="5.02997">
        <ele>433.691895</ele>
        <time>2019-05-28T14:18:39Z</time>
      </trkpt>
      <trkpt lat="45.22669" lon="5.02997">
        <ele>434.65332</ele>
        <time>2019-05-28T14:18:43Z</time>
      </trkpt>
      <trkpt lat="45.22661" lon="5.02997">
        <ele>435.614502</ele>
        <time>2019-05-28T14:18:50Z</time>
      </trkpt>
      <trkpt lat="45.22651" lon="5.02995">
        <ele>436.575928</ele>
        <time>2019-05-28T14:18:58Z</time>
      </trkpt>
      <trkpt lat="45.22644" lon="5.02996">
        <ele>437.537109</ele>
        <time>2019-05-28T14:19:04Z</time>
      </trkpt>
      <trkpt lat="45.22627" lon="5.02987">
        <ele>439.459717</ele>
        <time>2019-05-28T14:19:17Z</time>
      </trkpt>
      <trkpt lat="45.22611" lon="5.02951">
        <ele>441.863159</ele>
        <time>2019-05-28T14:19:39Z</time>
      </trkpt>
      <trkpt lat="45.22609" lon="5.02942">
        <ele>442.343872</ele>
        <time>2019-05-28T14:19:46Z</time>
      </trkpt>
      <trkpt lat="45.22606" lon="5.02934">
        <ele>442.824463</ele>
        <time>2019-05-28T14:19:51Z</time>
      </trkpt>
      <trkpt lat="45.22605" lon="5.02925">
        <ele>443.305054</ele>
        <time>2019-05-28T14:19:56Z</time>
      </trkpt>
      <trkpt lat="45.22602" lon="5.02883">
        <ele>445.708374</ele>
        <time>2019-05-28T14:20:15Z</time>
      </trkpt>
      <trkpt lat="45.22597" lon="5.02843">
        <ele>447.630981</ele>
        <time>2019-05-28T14:20:34Z</time>
      </trkpt>
      <trkpt lat="45.22588" lon="5.02805">
        <ele>448.592407</ele>
        <time>2019-05-28T14:20:50Z</time>
      </trkpt>
      <trkpt lat="45.22585" lon="5.0277">
        <ele>448.592407</ele>
        <time>2019-05-28T14:21:05Z</time>
      </trkpt>
      <trkpt lat="45.22583" lon="5.02765">
        <ele>448.592407</ele>
        <time>2019-05-28T14:21:09Z</time>
      </trkpt>
      <trkpt lat="45.22579" lon="5.02726">
        <ele>450.515015</ele>
        <time>2019-05-28T14:21:25Z</time>
      </trkpt>
      <trkpt lat="45.22576" lon="5.02696">
        <ele>453.398926</ele>
        <time>2019-05-28T14:21:38Z</time>
      </trkpt>
      <trkpt lat="45.22575" lon="5.02665">
        <ele>456.76355</ele>
        <time>2019-05-28T14:21:50Z</time>
      </trkpt>
      <trkpt lat="45.22574" lon="5.02647">
        <ele>459.647583</ele>
        <time>2019-05-28T14:22:09Z</time>
      </trkpt>
      <trkpt lat="45.22571" lon="5.02616">
        <ele>460.128174</ele>
        <time>2019-05-28T14:22:21Z</time>
      </trkpt>
      <trkpt lat="45.2257" lon="5.02584">
        <ele>463.492798</ele>
        <time>2019-05-28T14:22:29Z</time>
      </trkpt>
      <trkpt lat="45.22566" lon="5.0257">
        <ele>465.415527</ele>
        <time>2019-05-28T14:22:33Z</time>
      </trkpt>
      <trkpt lat="45.22577" lon="5.02548">
        <ele>466.376709</ele>
        <time>2019-05-28T14:22:47Z</time>
      </trkpt>
      <trkpt lat="45.226" lon="5.02525">
        <ele>465.415527</ele>
        <time>2019-05-28T14:23:04Z</time>
      </trkpt>
      <trkpt lat="45.22613" lon="5.02513">
        <ele>464.934814</ele>
        <time>2019-05-28T14:23:21Z</time>
      </trkpt>
      <trkpt lat="45.22611" lon="5.02512">
        <ele>464.454102</ele>
        <time>2019-05-28T14:24:30Z</time>
      </trkpt>
      <trkpt lat="45.22616" lon="5.02508">
        <ele>465.896118</ele>
        <time>2019-05-28T14:29:52Z</time>
      </trkpt>
      <trkpt lat="45.2264" lon="5.02488">
        <ele>465.896118</ele>
        <time>2019-05-28T14:30:07Z</time>
      </trkpt>
      <trkpt lat="45.22679" lon="5.02471">
        <ele>464.454102</ele>
        <time>2019-05-28T14:30:21Z</time>
      </trkpt>
      <trkpt lat="45.22739" lon="5.02446">
        <ele>462.531372</ele>
        <time>2019-05-28T14:30:36Z</time>
      </trkpt>
      <trkpt lat="45.22786" lon="5.02441">
        <ele>462.531372</ele>
        <time>2019-05-28T14:30:50Z</time>
      </trkpt>
      <trkpt lat="45.22806" lon="5.02438">
        <ele>463.012085</ele>
        <time>2019-05-28T14:30:57Z</time>
      </trkpt>
      <trkpt lat="45.22821" lon="5.02434">
        <ele>462.531372</ele>
        <time>2019-05-28T14:31:01Z</time>
      </trkpt>
      <trkpt lat="45.22861" lon="5.02432">
        <ele>461.089478</ele>
        <time>2019-05-28T14:31:12Z</time>
      </trkpt>
      <trkpt lat="45.229" lon="5.02407">
        <ele>458.686157</ele>
        <time>2019-05-28T14:31:22Z</time>
      </trkpt>
      <trkpt lat="45.22926" lon="5.02375">
        <ele>456.76355</ele>
        <time>2019-05-28T14:31:29Z</time>
      </trkpt>
      <trkpt lat="45.22933" lon="5.02336">
        <ele>454.84082</ele>
        <time>2019-05-28T14:31:35Z</time>
      </trkpt>
      <trkpt lat="45.22948" lon="5.02277">
        <ele>450.995605</ele>
        <time>2019-05-28T14:31:42Z</time>
      </trkpt>
      <trkpt lat="45.22963" lon="5.02222">
        <ele>447.630981</ele>
        <time>2019-05-28T14:31:48Z</time>
      </trkpt>
      <trkpt lat="45.22978" lon="5.02167">
        <ele>444.74707</ele>
        <time>2019-05-28T14:31:54Z</time>
      </trkpt>
      <trkpt lat="45.22987" lon="5.02133">
        <ele>442.343872</ele>
        <time>2019-05-28T14:31:58Z</time>
      </trkpt>
      <trkpt lat="45.22999" lon="5.02099">
        <ele>440.421265</ele>
        <time>2019-05-28T14:32:02Z</time>
      </trkpt>
      <trkpt lat="45.23007" lon="5.0206">
        <ele>438.979126</ele>
        <time>2019-05-28T14:32:06Z</time>
      </trkpt>
      <trkpt lat="45.23013" lon="5.02031">
        <ele>438.498535</ele>
        <time>2019-05-28T14:32:09Z</time>
      </trkpt>
      <trkpt lat="45.23009" lon="5.02002">
        <ele>437.056519</ele>
        <time>2019-05-28T14:32:12Z</time>
      </trkpt>
      <trkpt lat="45.23004" lon="5.01957">
        <ele>435.133911</ele>
        <time>2019-05-28T14:32:18Z</time>
      </trkpt>
      <trkpt lat="45.23021" lon="5.01936">
        <ele>432.730713</ele>
        <time>2019-05-28T14:32:22Z</time>
      </trkpt>
      <trkpt lat="45.23055" lon="5.01884">
        <ele>429.365967</ele>
        <time>2019-05-28T14:32:31Z</time>
      </trkpt>
      <trkpt lat="45.23063" lon="5.01875">
        <ele>429.365967</ele>
        <time>2019-05-28T14:32:33Z</time>
      </trkpt>
      <trkpt lat="45.23092" lon="5.01825">
        <ele>425.520752</ele>
        <time>2019-05-28T14:32:42Z</time>
      </trkpt>
      <trkpt lat="45.23111" lon="5.01786">
        <ele>422.636719</ele>
        <time>2019-05-28T14:32:49Z</time>
      </trkpt>
      <trkpt lat="45.2314" lon="5.01744">
        <ele>419.272217</ele>
        <time>2019-05-28T14:32:56Z</time>
      </trkpt>
      <trkpt lat="45.23145" lon="5.01738">
        <ele>418.791504</ele>
        <time>2019-05-28T14:32:57Z</time>
      </trkpt>
      <trkpt lat="45.23167" lon="5.01718">
        <ele>417.349609</ele>
        <time>2019-05-28T14:33:01Z</time>
      </trkpt>
      <trkpt lat="45.23178" lon="5.01705">
        <ele>416.388184</ele>
        <time>2019-05-28T14:33:03Z</time>
      </trkpt>
      <trkpt lat="45.23201" lon="5.01665">
        <ele>413.984863</ele>
        <time>2019-05-28T14:33:08Z</time>
      </trkpt>
      <trkpt lat="45.23218" lon="5.01646">
        <ele>413.02356</ele>
        <time>2019-05-28T14:33:11Z</time>
      </trkpt>
      <trkpt lat="45.23242" lon="5.01631">
        <ele>412.062256</ele>
        <time>2019-05-28T14:33:15Z</time>
      </trkpt>
      <trkpt lat="45.23266" lon="5.01589">
        <ele>409.659058</ele>
        <time>2019-05-28T14:33:22Z</time>
      </trkpt>
      <trkpt lat="45.23265" lon="5.01564">
        <ele>408.697632</ele>
        <time>2019-05-28T14:33:27Z</time>
      </trkpt>
      <trkpt lat="45.23247" lon="5.01507">
        <ele>405.333008</ele>
        <time>2019-05-28T14:33:38Z</time>
      </trkpt>
      <trkpt lat="45.23238" lon="5.01477">
        <ele>402.449097</ele>
        <time>2019-05-28T14:33:43Z</time>
      </trkpt>
      <trkpt lat="45.23231" lon="5.01459">
        <ele>399.565063</ele>
        <time>2019-05-28T14:33:47Z</time>
      </trkpt>
      <trkpt lat="45.23225" lon="5.01456">
        <ele>398.60376</ele>
        <time>2019-05-28T14:33:49Z</time>
      </trkpt>
      <trkpt lat="45.23219" lon="5.01459">
        <ele>398.60376</ele>
        <time>2019-05-28T14:33:51Z</time>
      </trkpt>
      <trkpt lat="45.23165" lon="5.01509">
        <ele>399.084351</ele>
        <time>2019-05-28T14:34:10Z</time>
      </trkpt>
      <trkpt lat="45.23125" lon="5.01541">
        <ele>398.60376</ele>
        <time>2019-05-28T14:34:26Z</time>
      </trkpt>
      <trkpt lat="45.23066" lon="5.01565">
        <ele>398.60376</ele>
        <time>2019-05-28T14:34:43Z</time>
      </trkpt>
      <trkpt lat="45.23021" lon="5.01567">
        <ele>396.200562</ele>
        <time>2019-05-28T14:34:56Z</time>
      </trkpt>
      <trkpt lat="45.23002" lon="5.01562">
        <ele>395.239136</ele>
        <time>2019-05-28T14:35:02Z</time>
      </trkpt>
      <trkpt lat="45.22947" lon="5.01561">
        <ele>392.355347</ele>
        <time>2019-05-28T14:35:16Z</time>
      </trkpt>
      <trkpt lat="45.22889" lon="5.01572">
        <ele>392.355347</ele>
        <time>2019-05-28T14:35:26Z</time>
      </trkpt>
      <trkpt lat="45.22839" lon="5.01598">
        <ele>389.951904</ele>
        <time>2019-05-28T14:35:35Z</time>
      </trkpt>
      <trkpt lat="45.22805" lon="5.01627">
        <ele>387.067993</ele>
        <time>2019-05-28T14:35:40Z</time>
      </trkpt>
      <trkpt lat="45.22776" lon="5.01652">
        <ele>384.664795</ele>
        <time>2019-05-28T14:35:44Z</time>
      </trkpt>
      <trkpt lat="45.22757" lon="5.01688">
        <ele>382.261353</ele>
        <time>2019-05-28T14:35:49Z</time>
      </trkpt>
      <trkpt lat="45.22743" lon="5.01694">
        <ele>381.78064</ele>
        <time>2019-05-28T14:35:54Z</time>
      </trkpt>
      <trkpt lat="45.22741" lon="5.01679">
        <ele>380.338745</ele>
        <time>2019-05-28T14:35:59Z</time>
      </trkpt>
      <trkpt lat="45.22736" lon="5.01641">
        <ele>379.377441</ele>
        <time>2019-05-28T14:36:07Z</time>
      </trkpt>
      <trkpt lat="45.22739" lon="5.01622">
        <ele>379.858032</ele>
        <time>2019-05-28T14:36:18Z</time>
      </trkpt>
      <trkpt lat="45.22739" lon="5.01611">
        <ele>378.896851</ele>
        <time>2019-05-28T14:36:24Z</time>
      </trkpt>
      <trkpt lat="45.22738" lon="5.01606">
        <ele>379.377441</ele>
        <time>2019-05-28T14:36:27Z</time>
      </trkpt>
      <trkpt lat="45.22728" lon="5.01598">
        <ele>379.858032</ele>
        <time>2019-05-28T14:36:33Z</time>
      </trkpt>
      <trkpt lat="45.22711" lon="5.01597">
        <ele>382.261353</ele>
        <time>2019-05-28T14:36:45Z</time>
      </trkpt>
      <trkpt lat="45.22706" lon="5.01596">
        <ele>382.742065</ele>
        <time>2019-05-28T14:36:48Z</time>
      </trkpt>
      <trkpt lat="45.22697" lon="5.01588">
        <ele>383.703247</ele>
        <time>2019-05-28T14:36:55Z</time>
      </trkpt>
      <trkpt lat="45.22694" lon="5.01582">
        <ele>384.184082</ele>
        <time>2019-05-28T14:36:59Z</time>
      </trkpt>
      <trkpt lat="45.22713" lon="5.01542">
        <ele>382.742065</ele>
        <time>2019-05-28T14:37:11Z</time>
      </trkpt>
      <trkpt lat="45.22749" lon="5.01466">
        <ele>379.377441</ele>
        <time>2019-05-28T14:37:23Z</time>
      </trkpt>
      <trkpt lat="45.22772" lon="5.01411">
        <ele>376.012817</ele>
        <time>2019-05-28T14:37:29Z</time>
      </trkpt>
      <trkpt lat="45.22784" lon="5.01377">
        <ele>374.090088</ele>
        <time>2019-05-28T14:37:32Z</time>
      </trkpt>
      <trkpt lat="45.2281" lon="5.01303">
        <ele>370.725586</ele>
        <time>2019-05-28T14:37:38Z</time>
      </trkpt>
      <trkpt lat="45.22822" lon="5.01218">
        <ele>366.399536</ele>
        <time>2019-05-28T14:37:44Z</time>
      </trkpt>
      <trkpt lat="45.22826" lon="5.0117">
        <ele>364.957642</ele>
        <time>2019-05-28T14:37:47Z</time>
      </trkpt>
      <trkpt lat="45.22837" lon="5.00995">
        <ele>361.59314</ele>
        <time>2019-05-28T14:38:00Z</time>
      </trkpt>
      <trkpt lat="45.22844" lon="5.00917">
        <ele>362.07373</ele>
        <time>2019-05-28T14:38:08Z</time>
      </trkpt>
      <trkpt lat="45.22825" lon="5.00899">
        <ele>363.996338</ele>
        <time>2019-05-28T14:38:14Z</time>
      </trkpt>
      <trkpt lat="45.22741" lon="5.00934">
        <ele>364.957642</ele>
        <time>2019-05-28T14:38:32Z</time>
      </trkpt>
      <trkpt lat="45.22659" lon="5.00958">
        <ele>363.035034</ele>
        <time>2019-05-28T14:38:50Z</time>
      </trkpt>
      <trkpt lat="45.22572" lon="5.00948">
        <ele>362.554321</ele>
        <time>2019-05-28T14:39:04Z</time>
      </trkpt>
      <trkpt lat="45.22489" lon="5.00906">
        <ele>362.554321</ele>
        <time>2019-05-28T14:39:20Z</time>
      </trkpt>
      <trkpt lat="45.22429" lon="5.00838">
        <ele>363.515747</ele>
        <time>2019-05-28T14:39:36Z</time>
      </trkpt>
      <trkpt lat="45.22392" lon="5.00794">
        <ele>363.035034</ele>
        <time>2019-05-28T14:39:46Z</time>
      </trkpt>
      <trkpt lat="45.22337" lon="5.00751">
        <ele>359.189697</ele>
        <time>2019-05-28T14:39:56Z</time>
      </trkpt>
      <trkpt lat="45.22322" lon="5.00714">
        <ele>357.26709</ele>
        <time>2019-05-28T14:40:02Z</time>
      </trkpt>
      <trkpt lat="45.22337" lon="5.00689">
        <ele>356.786377</ele>
        <time>2019-05-28T14:40:07Z</time>
      </trkpt>
      <trkpt lat="45.22402" lon="5.00632">
        <ele>358.708984</ele>
        <time>2019-05-28T14:40:23Z</time>
      </trkpt>
      <trkpt lat="45.22415" lon="5.00599">
        <ele>359.189697</ele>
        <time>2019-05-28T14:40:29Z</time>
      </trkpt>
      <trkpt lat="45.22416" lon="5.00546">
        <ele>360.151123</ele>
        <time>2019-05-28T14:40:43Z</time>
      </trkpt>
      <trkpt lat="45.22417" lon="5.00545">
        <ele>360.151123</ele>
        <time>2019-05-28T14:41:18Z</time>
      </trkpt>
      <trkpt lat="45.22415" lon="5.00515">
        <ele>361.112427</ele>
        <time>2019-05-28T14:43:37Z</time>
      </trkpt>
      <trkpt lat="45.22419" lon="5.00484">
        <ele>361.112427</ele>
        <time>2019-05-28T14:43:43Z</time>
      </trkpt>
      <trkpt lat="45.22431" lon="5.00459">
        <ele>361.112427</ele>
        <time>2019-05-28T14:43:48Z</time>
      </trkpt>
      <trkpt lat="45.22447" lon="5.00447">
        <ele>361.112427</ele>
        <time>2019-05-28T14:43:52Z</time>
      </trkpt>
      <trkpt lat="45.22473" lon="5.00435">
        <ele>361.112427</ele>
        <time>2019-05-28T14:43:58Z</time>
      </trkpt>
      <trkpt lat="45.22486" lon="5.00426">
        <ele>361.59314</ele>
        <time>2019-05-28T14:44:01Z</time>
      </trkpt>
      <trkpt lat="45.22501" lon="5.00406">
        <ele>362.07373</ele>
        <time>2019-05-28T14:44:06Z</time>
      </trkpt>
      <trkpt lat="45.22512" lon="5.00376">
        <ele>362.554321</ele>
        <time>2019-05-28T14:44:12Z</time>
      </trkpt>
      <trkpt lat="45.22511" lon="5.00353">
        <ele>362.07373</ele>
        <time>2019-05-28T14:44:16Z</time>
      </trkpt>
      <trkpt lat="45.22474" lon="5.00242">
        <ele>360.151123</ele>
        <time>2019-05-28T14:44:33Z</time>
      </trkpt>
      <trkpt lat="45.22462" lon="5.00219">
        <ele>360.151123</ele>
        <time>2019-05-28T14:44:37Z</time>
      </trkpt>
      <trkpt lat="45.22371" lon="5.00123">
        <ele>359.67041</ele>
        <time>2019-05-28T14:44:58Z</time>
      </trkpt>
      <trkpt lat="45.22297" lon="5.00047">
        <ele>362.554321</ele>
        <time>2019-05-28T14:45:18Z</time>
      </trkpt>
      <trkpt lat="45.22266" lon="5.00014">
        <ele>361.112427</ele>
        <time>2019-05-28T14:45:26Z</time>
      </trkpt>
      <trkpt lat="45.22234" lon="4.99974">
        <ele>359.189697</ele>
        <time>2019-05-28T14:45:34Z</time>
      </trkpt>
      <trkpt lat="45.22216" lon="4.99957">
        <ele>358.228394</ele>
        <time>2019-05-28T14:45:38Z</time>
      </trkpt>
      <trkpt lat="45.22204" lon="4.99923">
        <ele>356.305786</ele>
        <time>2019-05-28T14:45:43Z</time>
      </trkpt>
      <trkpt lat="45.22221" lon="4.99873">
        <ele>355.344482</ele>
        <time>2019-05-28T14:45:50Z</time>
      </trkpt>
      <trkpt lat="45.22229" lon="4.99861">
        <ele>354.86377</ele>
        <time>2019-05-28T14:45:52Z</time>
      </trkpt>
      <trkpt lat="45.22247" lon="4.99842">
        <ele>355.344482</ele>
        <time>2019-05-28T14:45:56Z</time>
      </trkpt>
      <trkpt lat="45.22338" lon="4.99787">
        <ele>352.941162</ele>
        <time>2019-05-28T14:46:14Z</time>
      </trkpt>
      <trkpt lat="45.2237" lon="4.99765">
        <ele>351.979858</ele>
        <time>2019-05-28T14:46:21Z</time>
      </trkpt>
      <trkpt lat="45.22381" lon="4.99714">
        <ele>349.095825</ele>
        <time>2019-05-28T14:46:28Z</time>
      </trkpt>
      <trkpt lat="45.22329" lon="4.99575">
        <ele>349.095825</ele>
        <time>2019-05-28T14:46:44Z</time>
      </trkpt>
      <trkpt lat="45.22297" lon="4.99515">
        <ele>351.979858</ele>
        <time>2019-05-28T14:46:56Z</time>
      </trkpt>
      <trkpt lat="45.22263" lon="4.9946">
        <ele>354.383179</ele>
        <time>2019-05-28T14:47:12Z</time>
      </trkpt>
      <trkpt lat="45.22245" lon="4.99437">
        <ele>354.86377</ele>
        <time>2019-05-28T14:47:19Z</time>
      </trkpt>
      <trkpt lat="45.22188" lon="4.99336">
        <ele>351.979858</ele>
        <time>2019-05-28T14:47:36Z</time>
      </trkpt>
      <trkpt lat="45.22136" lon="4.9926">
        <ele>355.344482</ele>
        <time>2019-05-28T14:47:51Z</time>
      </trkpt>
      <trkpt lat="45.22112" lon="4.99204">
        <ele>358.228394</ele>
        <time>2019-05-28T14:48:02Z</time>
      </trkpt>
      <trkpt lat="45.22117" lon="4.99158">
        <ele>360.631714</ele>
        <time>2019-05-28T14:48:13Z</time>
      </trkpt>
      <trkpt lat="45.22125" lon="4.99095">
        <ele>363.515747</ele>
        <time>2019-05-28T14:48:28Z</time>
      </trkpt>
      <trkpt lat="45.22129" lon="4.99048">
        <ele>363.515747</ele>
        <time>2019-05-28T14:48:44Z</time>
      </trkpt>
      <trkpt lat="45.22134" lon="4.99018">
        <ele>362.07373</ele>
        <time>2019-05-28T14:48:51Z</time>
      </trkpt>
      <trkpt lat="45.22138" lon="4.98998">
        <ele>361.59314</ele>
        <time>2019-05-28T14:48:54Z</time>
      </trkpt>
      <trkpt lat="45.22146" lon="4.98957">
        <ele>358.708984</ele>
        <time>2019-05-28T14:48:59Z</time>
      </trkpt>
      <trkpt lat="45.22149" lon="4.98939">
        <ele>356.786377</ele>
        <time>2019-05-28T14:49:01Z</time>
      </trkpt>
      <trkpt lat="45.22153" lon="4.98912">
        <ele>356.305786</ele>
        <time>2019-05-28T14:49:04Z</time>
      </trkpt>
      <trkpt lat="45.22122" lon="4.98811">
        <ele>354.383179</ele>
        <time>2019-05-28T14:49:15Z</time>
      </trkpt>
      <trkpt lat="45.22113" lon="4.98786">
        <ele>354.383179</ele>
        <time>2019-05-28T14:49:18Z</time>
      </trkpt>
      <trkpt lat="45.22087" lon="4.98682">
        <ele>357.747803</ele>
        <time>2019-05-28T14:49:32Z</time>
      </trkpt>
      <trkpt lat="45.22077" lon="4.98652">
        <ele>360.631714</ele>
        <time>2019-05-28T14:49:41Z</time>
      </trkpt>
      <trkpt lat="45.22072" lon="4.98592">
        <ele>363.996338</ele>
        <time>2019-05-28T14:49:58Z</time>
      </trkpt>
      <trkpt lat="45.22109" lon="4.98568">
        <ele>363.515747</ele>
        <time>2019-05-28T14:50:13Z</time>
      </trkpt>
      <trkpt lat="45.2215" lon="4.98547">
        <ele>363.996338</ele>
        <time>2019-05-28T14:50:26Z</time>
      </trkpt>
      <trkpt lat="45.22179" lon="4.98525">
        <ele>363.035034</ele>
        <time>2019-05-28T14:50:36Z</time>
      </trkpt>
      <trkpt lat="45.22235" lon="4.98486">
        <ele>361.112427</ele>
        <time>2019-05-28T14:50:50Z</time>
      </trkpt>
      <trkpt lat="45.22241" lon="4.98482">
        <ele>360.631714</ele>
        <time>2019-05-28T14:50:52Z</time>
      </trkpt>
      <trkpt lat="45.2225" lon="4.98478">
        <ele>359.67041</ele>
        <time>2019-05-28T14:50:54Z</time>
      </trkpt>
      <trkpt lat="45.22267" lon="4.98448">
        <ele>357.747803</ele>
        <time>2019-05-28T14:50:59Z</time>
      </trkpt>
      <trkpt lat="45.2228" lon="4.98426">
        <ele>357.26709</ele>
        <time>2019-05-28T14:51:03Z</time>
      </trkpt>
      <trkpt lat="45.2227" lon="4.98422">
        <ele>357.26709</ele>
        <time>2019-05-28T14:51:07Z</time>
      </trkpt>
      <trkpt lat="45.22257" lon="4.98417">
        <ele>356.786377</ele>
        <time>2019-05-28T14:51:10Z</time>
      </trkpt>
      <trkpt lat="45.22249" lon="4.98392">
        <ele>355.825195</ele>
        <time>2019-05-28T14:51:15Z</time>
      </trkpt>
      <trkpt lat="45.22258" lon="4.98338">
        <ele>353.902588</ele>
        <time>2019-05-28T14:51:21Z</time>
      </trkpt>
      <trkpt lat="45.22252" lon="4.9822">
        <ele>356.305786</ele>
        <time>2019-05-28T14:51:35Z</time>
      </trkpt>
      <trkpt lat="45.22248" lon="4.98184">
        <ele>359.189697</ele>
        <time>2019-05-28T14:51:43Z</time>
      </trkpt>
      <trkpt lat="45.22241" lon="4.98109">
        <ele>361.59314</ele>
        <time>2019-05-28T14:52:02Z</time>
      </trkpt>
      <trkpt lat="45.22244" lon="4.98032">
        <ele>358.708984</ele>
        <time>2019-05-28T14:52:18Z</time>
      </trkpt>
      <trkpt lat="45.22249" lon="4.98011">
        <ele>357.26709</ele>
        <time>2019-05-28T14:52:21Z</time>
      </trkpt>
      <trkpt lat="45.22251" lon="4.97996">
        <ele>356.305786</ele>
        <time>2019-05-28T14:52:23Z</time>
      </trkpt>
      <trkpt lat="45.22253" lon="4.97975">
        <ele>355.344482</ele>
        <time>2019-05-28T14:52:26Z</time>
      </trkpt>
      <trkpt lat="45.22263" lon="4.97933">
        <ele>351.499146</ele>
        <time>2019-05-28T14:52:33Z</time>
      </trkpt>
      <trkpt lat="45.22274" lon="4.97903">
        <ele>348.134644</ele>
        <time>2019-05-28T14:52:38Z</time>
      </trkpt>
      <trkpt lat="45.22285" lon="4.97878">
        <ele>345.25061</ele>
        <time>2019-05-28T14:52:42Z</time>
      </trkpt>
      <trkpt lat="45.22288" lon="4.9787">
        <ele>344.77002</ele>
        <time>2019-05-28T14:52:43Z</time>
      </trkpt>
      <trkpt lat="45.22299" lon="4.97842">
        <ele>341.405273</ele>
        <time>2019-05-28T14:52:47Z</time>
      </trkpt>
      <trkpt lat="45.22313" lon="4.97813">
        <ele>338.521484</ele>
        <time>2019-05-28T14:52:51Z</time>
      </trkpt>
      <trkpt lat="45.2233" lon="4.97775">
        <ele>335.156738</ele>
        <time>2019-05-28T14:52:56Z</time>
      </trkpt>
      <trkpt lat="45.22339" lon="4.97752">
        <ele>331.792114</ele>
        <time>2019-05-28T14:52:59Z</time>
      </trkpt>
      <trkpt lat="45.22348" lon="4.97728">
        <ele>328.908325</ele>
        <time>2019-05-28T14:53:02Z</time>
      </trkpt>
      <trkpt lat="45.22357" lon="4.97704">
        <ele>326.504883</ele>
        <time>2019-05-28T14:53:05Z</time>
      </trkpt>
      <trkpt lat="45.22359" lon="4.97668">
        <ele>321.698364</ele>
        <time>2019-05-28T14:53:10Z</time>
      </trkpt>
      <trkpt lat="45.2236" lon="4.97648">
        <ele>318.814331</ele>
        <time>2019-05-28T14:53:13Z</time>
      </trkpt>
      <trkpt lat="45.2236" lon="4.97616">
        <ele>316.411011</ele>
        <time>2019-05-28T14:53:17Z</time>
      </trkpt>
      <trkpt lat="45.22364" lon="4.97582">
        <ele>313.046509</ele>
        <time>2019-05-28T14:53:21Z</time>
      </trkpt>
      <trkpt lat="45.22367" lon="4.97565">
        <ele>311.604492</ele>
        <time>2019-05-28T14:53:23Z</time>
      </trkpt>
      <trkpt lat="45.2238" lon="4.97521">
        <ele>307.278564</ele>
        <time>2019-05-28T14:53:28Z</time>
      </trkpt>
      <trkpt lat="45.22389" lon="4.97498">
        <ele>304.875244</ele>
        <time>2019-05-28T14:53:31Z</time>
      </trkpt>
      <trkpt lat="45.22395" lon="4.97461">
        <ele>300.549316</ele>
        <time>2019-05-28T14:53:36Z</time>
      </trkpt>
      <trkpt lat="45.22393" lon="4.97431">
        <ele>296.223511</ele>
        <time>2019-05-28T14:53:40Z</time>
      </trkpt>
      <trkpt lat="45.22389" lon="4.97398">
        <ele>292.858765</ele>
        <time>2019-05-28T14:53:44Z</time>
      </trkpt>
      <trkpt lat="45.22406" lon="4.97362">
        <ele>288.052246</ele>
        <time>2019-05-28T14:53:50Z</time>
      </trkpt>
      <trkpt lat="45.22415" lon="4.97357">
        <ele>287.09082</ele>
        <time>2019-05-28T14:53:52Z</time>
      </trkpt>
      <trkpt lat="45.2243" lon="4.97349">
        <ele>283.726196</ele>
        <time>2019-05-28T14:53:55Z</time>
      </trkpt>
      <trkpt lat="45.22448" lon="4.97327">
        <ele>280.842407</ele>
        <time>2019-05-28T14:54:00Z</time>
      </trkpt>
      <trkpt lat="45.22453" lon="4.97316">
        <ele>279.880859</ele>
        <time>2019-05-28T14:54:02Z</time>
      </trkpt>
      <trkpt lat="45.22458" lon="4.973">
        <ele>278.438965</ele>
        <time>2019-05-28T14:54:05Z</time>
      </trkpt>
      <trkpt lat="45.22477" lon="4.97275">
        <ele>276.516357</ele>
        <time>2019-05-28T14:54:16Z</time>
      </trkpt>
      <trkpt lat="45.22482" lon="4.97267">
        <ele>276.035645</ele>
        <time>2019-05-28T14:54:30Z</time>
      </trkpt>
      <trkpt lat="45.22512" lon="4.97238">
        <ele>277.958252</ele>
        <time>2019-05-28T14:54:45Z</time>
      </trkpt>
      <trkpt lat="45.22523" lon="4.97199">
        <ele>279.880859</ele>
        <time>2019-05-28T14:54:58Z</time>
      </trkpt>
      <trkpt lat="45.22522" lon="4.97183">
        <ele>280.361694</ele>
        <time>2019-05-28T14:55:04Z</time>
      </trkpt>
      <trkpt lat="45.22513" lon="4.97177">
        <ele>281.322998</ele>
        <time>2019-05-28T14:55:10Z</time>
      </trkpt>
      <trkpt lat="45.22486" lon="4.97197">
        <ele>284.687622</ele>
        <time>2019-05-28T14:55:31Z</time>
      </trkpt>
      <trkpt lat="45.22461" lon="4.97208">
        <ele>287.571411</ele>
        <time>2019-05-28T14:55:53Z</time>
      </trkpt>
      <trkpt lat="45.22432" lon="4.9722">
        <ele>290.455566</ele>
        <time>2019-05-28T14:56:18Z</time>
      </trkpt>
      <trkpt lat="45.22412" lon="4.97229">
        <ele>292.378174</ele>
        <time>2019-05-28T14:56:34Z</time>
      </trkpt>
      <trkpt lat="45.22408" lon="4.97234">
        <ele>292.858765</ele>
        <time>2019-05-28T14:56:38Z</time>
      </trkpt>
      <trkpt lat="45.22391" lon="4.97243">
        <ele>293.820068</ele>
        <time>2019-05-28T14:56:56Z</time>
      </trkpt>
      <trkpt lat="45.22391" lon="4.97242">
        <ele>293.339355</ele>
        <time>2019-05-28T14:57:27Z</time>
      </trkpt>
      <trkpt lat="45.22391" lon="4.97244">
        <ele>293.820068</ele>
        <time>2019-05-28T14:58:35Z</time>
      </trkpt>
      <trkpt lat="45.22392" lon="4.97242">
        <ele>292.858765</ele>
        <time>2019-05-28T14:58:50Z</time>
      </trkpt>
      <trkpt lat="45.22402" lon="4.97236">
        <ele>291.897461</ele>
        <time>2019-05-28T14:59:02Z</time>
      </trkpt>
      <trkpt lat="45.22407" lon="4.97231">
        <ele>292.378174</ele>
        <time>2019-05-28T14:59:06Z</time>
      </trkpt>
      <trkpt lat="45.22407" lon="4.972">
        <ele>292.858765</ele>
        <time>2019-05-28T14:59:18Z</time>
      </trkpt>
      <trkpt lat="45.22398" lon="4.97161">
        <ele>293.820068</ele>
        <time>2019-05-28T14:59:37Z</time>
      </trkpt>
      <trkpt lat="45.22391" lon="4.97115">
        <ele>294.781372</ele>
        <time>2019-05-28T14:59:56Z</time>
      </trkpt>
      <trkpt lat="45.2238" lon="4.97072">
        <ele>296.223511</ele>
        <time>2019-05-28T15:00:14Z</time>
      </trkpt>
      <trkpt lat="45.22371" lon="4.97041">
        <ele>297.665405</ele>
        <time>2019-05-28T15:00:30Z</time>
      </trkpt>
      <trkpt lat="45.22357" lon="4.97043">
        <ele>301.51062</ele>
        <time>2019-05-28T15:00:39Z</time>
      </trkpt>
      <trkpt lat="45.2235" lon="4.97046">
        <ele>302.471924</ele>
        <time>2019-05-28T15:00:45Z</time>
      </trkpt>
      <trkpt lat="45.22344" lon="4.97045">
        <ele>303.433228</ele>
        <time>2019-05-28T15:00:50Z</time>
      </trkpt>
      <trkpt lat="45.2234" lon="4.97044">
        <ele>304.394653</ele>
        <time>2019-05-28T15:00:54Z</time>
      </trkpt>
      <trkpt lat="45.22318" lon="4.97042">
        <ele>305.83667</ele>
        <time>2019-05-28T15:01:10Z</time>
      </trkpt>
      <trkpt lat="45.22314" lon="4.9704">
        <ele>305.83667</ele>
        <time>2019-05-28T15:01:22Z</time>
      </trkpt>
      <trkpt lat="45.22314" lon="4.9704">
        <ele>306.317261</ele>
        <time>2019-05-28T15:02:12Z</time>
      </trkpt>
    </trkseg>
  </trk>
</gpx>